<?xml version='1.0' encoding='UTF-8'?><gpx version="1.1" creator="JPX - https://github.com/jenetics/jpx" xmlns="http://www.topografix.com/GPX/1/1"><trk><trkseg><trkpt lat="46.1181681" lon="9.3469486"><ele>202.66666666666669</ele><time>2026-04-26T06:46:31.683Z</time></trkpt><trkpt lat="46.1182537" lon="9.3469504"><ele>202.33333333333334</ele><time>2026-04-26T06:46:35.683Z</time></trkpt><trkpt lat="46.1183377" lon="9.3469854"><ele>202.0</ele><time>2026-04-26T06:46:38.683Z</time></trkpt><trkpt lat="46.1183989" lon="9.3470159"><ele>201.66666666666669</ele><time>2026-04-26T06:46:40.683Z</time></trkpt><trkpt lat="46.1184691" lon="9.3470363"><ele>201.33333333333334</ele><time>2026-04-26T06:46:42.684Z</time></trkpt><trkpt lat="46.1185439" lon="9.3470478"><ele>201.0</ele><time>2026-04-26T06:46:44.684Z</time></trkpt><trkpt lat="46.118625" lon="9.3470681"><ele>201.0</ele><time>2026-04-26T06:46:46.683Z</time></trkpt><trkpt lat="46.1187432" lon="9.3470984"><ele>201.0</ele><time>2026-04-26T06:46:49.684Z</time></trkpt><trkpt lat="46.1188333" lon="9.3471242"><ele>201.0</ele><time>2026-04-26T06:46:51.683Z</time></trkpt><trkpt lat="46.1189185" lon="9.3471578"><ele>201.0</ele><time>2026-04-26T06:46:53.683Z</time></trkpt><trkpt lat="46.1190022" lon="9.3471899"><ele>201.0</ele><time>2026-04-26T06:46:55.683Z</time></trkpt><trkpt lat="46.1190845" lon="9.347217"><ele>202.16666666666666</ele><time>2026-04-26T06:46:57.684Z</time></trkpt><trkpt lat="46.1191691" lon="9.3472386"><ele>203.33333333333331</ele><time>2026-04-26T06:46:59.684Z</time></trkpt><trkpt lat="46.1192499" lon="9.3472638"><ele>204.5</ele><time>2026-04-26T06:47:01.683Z</time></trkpt><trkpt lat="46.119327" lon="9.3472884"><ele>205.66666666666666</ele><time>2026-04-26T06:47:03.683Z</time></trkpt><trkpt lat="46.1194031" lon="9.3473231"><ele>206.83333333333331</ele><time>2026-04-26T06:47:05.683Z</time></trkpt><trkpt lat="46.1194782" lon="9.3473595"><ele>208.0</ele><time>2026-04-26T06:47:07.684Z</time></trkpt><trkpt lat="46.1195547" lon="9.347393"><ele>208.0</ele><time>2026-04-26T06:47:09.683Z</time></trkpt><trkpt lat="46.1196333" lon="9.3474263"><ele>208.0</ele><time>2026-04-26T06:47:11.683Z</time></trkpt><trkpt lat="46.1197199" lon="9.3474698"><ele>208.0</ele><time>2026-04-26T06:47:13.684Z</time></trkpt><trkpt lat="46.1198135" lon="9.3475232"><ele>208.0</ele><time>2026-04-26T06:47:15.683Z</time></trkpt><trkpt lat="46.1199116" lon="9.3475718"><ele>208.0</ele><time>2026-04-26T06:47:17.683Z</time></trkpt><trkpt lat="46.1200012" lon="9.3476153"><ele>207.4</ele><time>2026-04-26T06:47:19.683Z</time></trkpt><trkpt lat="46.1201095" lon="9.3476713"><ele>206.8</ele><time>2026-04-26T06:47:21.684Z</time></trkpt><trkpt lat="46.1202187" lon="9.3477314"><ele>206.2</ele><time>2026-04-26T06:47:23.685Z</time></trkpt><trkpt lat="46.1202797" lon="9.347759"><ele>205.6</ele><time>2026-04-26T06:47:24.683Z</time></trkpt><trkpt lat="46.1203932" lon="9.3478106"><ele>205.0</ele><time>2026-04-26T06:47:26.685Z</time></trkpt><trkpt lat="46.1204546" lon="9.347842"><ele>205.0</ele><time>2026-04-26T06:47:27.683Z</time></trkpt><trkpt lat="46.120569" lon="9.3478957"><ele>205.0</ele><time>2026-04-26T06:47:29.683Z</time></trkpt><trkpt lat="46.120676" lon="9.3479271"><ele>205.0</ele><time>2026-04-26T06:47:31.683Z</time></trkpt><trkpt lat="46.120765" lon="9.3479782"><ele>205.0</ele><time>2026-04-26T06:47:33.684Z</time></trkpt><trkpt lat="46.1208715" lon="9.3480327"><ele>205.0</ele><time>2026-04-26T06:47:35.684Z</time></trkpt><trkpt lat="46.1209848" lon="9.3480965"><ele>205.4</ele><time>2026-04-26T06:47:37.684Z</time></trkpt><trkpt lat="46.1210925" lon="9.3481394"><ele>205.8</ele><time>2026-04-26T06:47:39.683Z</time></trkpt><trkpt lat="46.1211949" lon="9.3482011"><ele>206.2</ele><time>2026-04-26T06:47:41.684Z</time></trkpt><trkpt lat="46.1212984" lon="9.348254"><ele>206.6</ele><time>2026-04-26T06:47:43.683Z</time></trkpt><trkpt lat="46.1213924" lon="9.3482921"><ele>207.0</ele><time>2026-04-26T06:47:45.685Z</time></trkpt><trkpt lat="46.1214887" lon="9.3483341"><ele>206.8</ele><time>2026-04-26T06:47:47.683Z</time></trkpt><trkpt lat="46.1215762" lon="9.3483881"><ele>206.6</ele><time>2026-04-26T06:47:49.684Z</time></trkpt><trkpt lat="46.1216774" lon="9.348427"><ele>206.4</ele><time>2026-04-26T06:47:51.684Z</time></trkpt><trkpt lat="46.1217736" lon="9.3484795"><ele>206.20000000000002</ele><time>2026-04-26T06:47:53.683Z</time></trkpt><trkpt lat="46.1218684" lon="9.3485344"><ele>206.0</ele><time>2026-04-26T06:47:55.683Z</time></trkpt><trkpt lat="46.1219586" lon="9.3485899"><ele>206.0</ele><time>2026-04-26T06:47:57.683Z</time></trkpt><trkpt lat="46.1220508" lon="9.3486379"><ele>206.0</ele><time>2026-04-26T06:47:59.683Z</time></trkpt><trkpt lat="46.1221549" lon="9.3486873"><ele>206.0</ele><time>2026-04-26T06:48:01.683Z</time></trkpt><trkpt lat="46.1222554" lon="9.3487403"><ele>206.0</ele><time>2026-04-26T06:48:03.684Z</time></trkpt><trkpt lat="46.1223388" lon="9.348797"><ele>206.0</ele><time>2026-04-26T06:48:05.685Z</time></trkpt><trkpt lat="46.1224276" lon="9.3488415"><ele>206.20000000000002</ele><time>2026-04-26T06:48:07.682Z</time></trkpt><trkpt lat="46.1225212" lon="9.3488742"><ele>206.4</ele><time>2026-04-26T06:48:09.683Z</time></trkpt><trkpt lat="46.1226083" lon="9.348925"><ele>206.6</ele><time>2026-04-26T06:48:11.685Z</time></trkpt><trkpt lat="46.1226977" lon="9.3489653"><ele>206.8</ele><time>2026-04-26T06:48:13.684Z</time></trkpt><trkpt lat="46.1227833" lon="9.3490077"><ele>207.0</ele><time>2026-04-26T06:48:15.684Z</time></trkpt><trkpt lat="46.1228714" lon="9.3490503"><ele>207.0</ele><time>2026-04-26T06:48:17.684Z</time></trkpt><trkpt lat="46.1229733" lon="9.3490914"><ele>207.0</ele><time>2026-04-26T06:48:19.683Z</time></trkpt><trkpt lat="46.1230596" lon="9.3491364"><ele>207.0</ele><time>2026-04-26T06:48:21.684Z</time></trkpt><trkpt lat="46.1231392" lon="9.3491705"><ele>207.0</ele><time>2026-04-26T06:48:23.683Z</time></trkpt><trkpt lat="46.1231999" lon="9.3492093"><ele>207.0</ele><time>2026-04-26T06:48:25.683Z</time></trkpt><trkpt lat="46.1232712" lon="9.34926"><ele>207.0</ele><time>2026-04-26T06:48:27.683Z</time></trkpt><trkpt lat="46.1233387" lon="9.3492766"><ele>207.5</ele><time>2026-04-26T06:48:29.684Z</time></trkpt><trkpt lat="46.1234122" lon="9.3493178"><ele>208.0</ele><time>2026-04-26T06:48:31.683Z</time></trkpt><trkpt lat="46.1234977" lon="9.3493589"><ele>208.5</ele><time>2026-04-26T06:48:33.683Z</time></trkpt><trkpt lat="46.1235637" lon="9.3493724"><ele>209.0</ele><time>2026-04-26T06:48:35.684Z</time></trkpt><trkpt lat="46.1236146" lon="9.3492616"><ele>209.5</ele><time>2026-04-26T06:48:38.684Z</time></trkpt><trkpt lat="46.1236294" lon="9.3491521"><ele>210.0</ele><time>2026-04-26T06:48:40.684Z</time></trkpt><trkpt lat="46.1236506" lon="9.3490214"><ele>209.4</ele><time>2026-04-26T06:48:42.684Z</time></trkpt><trkpt lat="46.1236678" lon="9.3488696"><ele>208.8</ele><time>2026-04-26T06:48:44.684Z</time></trkpt><trkpt lat="46.1236908" lon="9.3487125"><ele>208.2</ele><time>2026-04-26T06:48:46.684Z</time></trkpt><trkpt lat="46.1237207" lon="9.3485375"><ele>207.6</ele><time>2026-04-26T06:48:48.682Z</time></trkpt><trkpt lat="46.1237359" lon="9.3484477"><ele>207.0</ele><time>2026-04-26T06:48:49.683Z</time></trkpt><trkpt lat="46.1237696" lon="9.3482823"><ele>207.0</ele><time>2026-04-26T06:48:51.683Z</time></trkpt><trkpt lat="46.1237807" lon="9.3481692"><ele>207.0</ele><time>2026-04-26T06:48:53.683Z</time></trkpt><trkpt lat="46.12378" lon="9.3480673"><ele>207.0</ele><time>2026-04-26T06:48:55.684Z</time></trkpt><trkpt lat="46.1238396" lon="9.3480226"><ele>207.0</ele><time>2026-04-26T06:48:57.685Z</time></trkpt><trkpt lat="46.1238996" lon="9.3480763"><ele>207.0</ele><time>2026-04-26T06:48:59.683Z</time></trkpt><trkpt lat="46.1239539" lon="9.3481593"><ele>207.0</ele><time>2026-04-26T06:49:01.684Z</time></trkpt><trkpt lat="46.1240328" lon="9.3482344"><ele>206.39999999999998</ele><time>2026-04-26T06:49:03.684Z</time></trkpt><trkpt lat="46.1241076" lon="9.3483209"><ele>205.79999999999998</ele><time>2026-04-26T06:49:05.684Z</time></trkpt><trkpt lat="46.1241813" lon="9.3483952"><ele>205.2</ele><time>2026-04-26T06:49:07.684Z</time></trkpt><trkpt lat="46.1242687" lon="9.3484683"><ele>204.6</ele><time>2026-04-26T06:49:09.683Z</time></trkpt><trkpt lat="46.1243991" lon="9.348592"><ele>204.0</ele><time>2026-04-26T06:49:12.682Z</time></trkpt><trkpt lat="46.1244676" lon="9.3486749"><ele>204.0</ele><time>2026-04-26T06:49:14.685Z</time></trkpt><trkpt lat="46.1245306" lon="9.348757"><ele>204.0</ele><time>2026-04-26T06:49:16.684Z</time></trkpt><trkpt lat="46.1245933" lon="9.3488504"><ele>204.0</ele><time>2026-04-26T06:49:18.683Z</time></trkpt><trkpt lat="46.1246555" lon="9.3489312"><ele>204.0</ele><time>2026-04-26T06:49:20.684Z</time></trkpt><trkpt lat="46.1247164" lon="9.3490085"><ele>204.0</ele><time>2026-04-26T06:49:22.683Z</time></trkpt><trkpt lat="46.1247575" lon="9.3491104"><ele>204.0</ele><time>2026-04-26T06:49:24.685Z</time></trkpt><trkpt lat="46.1248094" lon="9.3492125"><ele>204.16666666666666</ele><time>2026-04-26T06:49:26.684Z</time></trkpt><trkpt lat="46.1248738" lon="9.3492908"><ele>204.33333333333331</ele><time>2026-04-26T06:49:28.684Z</time></trkpt><trkpt lat="46.1249541" lon="9.3493559"><ele>204.5</ele><time>2026-04-26T06:49:30.684Z</time></trkpt><trkpt lat="46.1250184" lon="9.3494346"><ele>204.66666666666666</ele><time>2026-04-26T06:49:32.684Z</time></trkpt><trkpt lat="46.1250674" lon="9.3495233"><ele>204.83333333333331</ele><time>2026-04-26T06:49:34.685Z</time></trkpt><trkpt lat="46.125127" lon="9.3496155"><ele>205.0</ele><time>2026-04-26T06:49:36.684Z</time></trkpt><trkpt lat="46.1251739" lon="9.349711"><ele>205.4</ele><time>2026-04-26T06:49:38.685Z</time></trkpt><trkpt lat="46.1252206" lon="9.3498057"><ele>205.8</ele><time>2026-04-26T06:49:40.685Z</time></trkpt><trkpt lat="46.1252689" lon="9.3499079"><ele>206.2</ele><time>2026-04-26T06:49:42.684Z</time></trkpt><trkpt lat="46.1253294" lon="9.3500137"><ele>206.6</ele><time>2026-04-26T06:49:44.683Z</time></trkpt><trkpt lat="46.1253814" lon="9.3501239"><ele>207.0</ele><time>2026-04-26T06:49:46.684Z</time></trkpt><trkpt lat="46.1254498" lon="9.3502254"><ele>207.0</ele><time>2026-04-26T06:49:48.683Z</time></trkpt><trkpt lat="46.1255063" lon="9.3503179"><ele>207.0</ele><time>2026-04-26T06:49:50.683Z</time></trkpt><trkpt lat="46.1255746" lon="9.3504144"><ele>207.0</ele><time>2026-04-26T06:49:52.684Z</time></trkpt><trkpt lat="46.1256405" lon="9.3505036"><ele>207.0</ele><time>2026-04-26T06:49:54.684Z</time></trkpt><trkpt lat="46.1257075" lon="9.3505966"><ele>207.0</ele><time>2026-04-26T06:49:56.684Z</time></trkpt><trkpt lat="46.1257673" lon="9.3506629"><ele>207.0</ele><time>2026-04-26T06:49:58.684Z</time></trkpt><trkpt lat="46.1258335" lon="9.3507432"><ele>207.33333333333334</ele><time>2026-04-26T06:50:00.685Z</time></trkpt><trkpt lat="46.1259023" lon="9.3508283"><ele>207.66666666666669</ele><time>2026-04-26T06:50:02.683Z</time></trkpt><trkpt lat="46.125973" lon="9.35091"><ele>208.0</ele><time>2026-04-26T06:50:04.684Z</time></trkpt><trkpt lat="46.1260326" lon="9.3509917"><ele>208.33333333333334</ele><time>2026-04-26T06:50:06.683Z</time></trkpt><trkpt lat="46.1261042" lon="9.35108"><ele>208.66666666666669</ele><time>2026-04-26T06:50:08.684Z</time></trkpt><trkpt lat="46.1261703" lon="9.351166"><ele>209.0</ele><time>2026-04-26T06:50:10.684Z</time></trkpt><trkpt lat="46.1262372" lon="9.351249"><ele>209.0</ele><time>2026-04-26T06:50:12.684Z</time></trkpt><trkpt lat="46.1263061" lon="9.3513368"><ele>209.0</ele><time>2026-04-26T06:50:14.683Z</time></trkpt><trkpt lat="46.1263635" lon="9.35143"><ele>209.0</ele><time>2026-04-26T06:50:16.683Z</time></trkpt><trkpt lat="46.1264182" lon="9.3515143"><ele>209.0</ele><time>2026-04-26T06:50:18.684Z</time></trkpt><trkpt lat="46.1264907" lon="9.3516019"><ele>209.0</ele><time>2026-04-26T06:50:20.684Z</time></trkpt><trkpt lat="46.1265851" lon="9.3516643"><ele>209.0</ele><time>2026-04-26T06:50:22.684Z</time></trkpt><trkpt lat="46.1266865" lon="9.3516695"><ele>209.0</ele><time>2026-04-26T06:50:24.685Z</time></trkpt><trkpt lat="46.1267888" lon="9.3516584"><ele>209.0</ele><time>2026-04-26T06:50:26.684Z</time></trkpt><trkpt lat="46.1268945" lon="9.3516528"><ele>209.0</ele><time>2026-04-26T06:50:28.684Z</time></trkpt><trkpt lat="46.1270009" lon="9.3516416"><ele>209.0</ele><time>2026-04-26T06:50:30.684Z</time></trkpt><trkpt lat="46.1271015" lon="9.3516365"><ele>209.0</ele><time>2026-04-26T06:50:32.685Z</time></trkpt><trkpt lat="46.1272061" lon="9.3516515"><ele>209.0</ele><time>2026-04-26T06:50:34.684Z</time></trkpt><trkpt lat="46.1273071" lon="9.3517002"><ele>209.0</ele><time>2026-04-26T06:50:36.684Z</time></trkpt><trkpt lat="46.1274078" lon="9.3517752"><ele>209.0</ele><time>2026-04-26T06:50:38.683Z</time></trkpt><trkpt lat="46.1275036" lon="9.351847"><ele>209.0</ele><time>2026-04-26T06:50:40.684Z</time></trkpt><trkpt lat="46.1276059" lon="9.3518901"><ele>209.0</ele><time>2026-04-26T06:50:42.684Z</time></trkpt><trkpt lat="46.1277157" lon="9.3519262"><ele>209.0</ele><time>2026-04-26T06:50:44.683Z</time></trkpt><trkpt lat="46.1278151" lon="9.3519448"><ele>209.0</ele><time>2026-04-26T06:50:46.683Z</time></trkpt><trkpt lat="46.1279139" lon="9.3519528"><ele>209.0</ele><time>2026-04-26T06:50:48.684Z</time></trkpt><trkpt lat="46.1280117" lon="9.3519743"><ele>209.0</ele><time>2026-04-26T06:50:50.684Z</time></trkpt><trkpt lat="46.1281006" lon="9.3520355"><ele>209.0</ele><time>2026-04-26T06:50:52.683Z</time></trkpt><trkpt lat="46.12819" lon="9.3521265"><ele>209.0</ele><time>2026-04-26T06:50:54.683Z</time></trkpt><trkpt lat="46.1282743" lon="9.3522241"><ele>209.0</ele><time>2026-04-26T06:50:56.685Z</time></trkpt><trkpt lat="46.1283587" lon="9.352318"><ele>209.0</ele><time>2026-04-26T06:50:58.685Z</time></trkpt><trkpt lat="46.1284375" lon="9.352426"><ele>209.0</ele><time>2026-04-26T06:51:00.685Z</time></trkpt><trkpt lat="46.1285267" lon="9.3525277"><ele>209.0</ele><time>2026-04-26T06:51:02.685Z</time></trkpt><trkpt lat="46.1286145" lon="9.3526254"><ele>209.0</ele><time>2026-04-26T06:51:04.684Z</time></trkpt><trkpt lat="46.1286901" lon="9.3527109"><ele>209.0</ele><time>2026-04-26T06:51:06.684Z</time></trkpt><trkpt lat="46.1287554" lon="9.3528001"><ele>209.0</ele><time>2026-04-26T06:51:08.685Z</time></trkpt><trkpt lat="46.1288227" lon="9.3528693"><ele>209.0</ele><time>2026-04-26T06:51:10.683Z</time></trkpt><trkpt lat="46.1288805" lon="9.3529498"><ele>209.16666666666669</ele><time>2026-04-26T06:51:12.684Z</time></trkpt><trkpt lat="46.1289396" lon="9.3530422"><ele>209.33333333333334</ele><time>2026-04-26T06:51:14.683Z</time></trkpt><trkpt lat="46.1289883" lon="9.3531334"><ele>209.5</ele><time>2026-04-26T06:51:16.684Z</time></trkpt><trkpt lat="46.1290423" lon="9.3532097"><ele>209.66666666666669</ele><time>2026-04-26T06:51:18.683Z</time></trkpt><trkpt lat="46.1290966" lon="9.3532759"><ele>209.83333333333334</ele><time>2026-04-26T06:51:20.685Z</time></trkpt><trkpt lat="46.1291484" lon="9.3533387"><ele>210.0</ele><time>2026-04-26T06:51:22.684Z</time></trkpt><trkpt lat="46.129207" lon="9.3534108"><ele>210.2</ele><time>2026-04-26T06:51:24.685Z</time></trkpt><trkpt lat="46.129259" lon="9.3534873"><ele>210.4</ele><time>2026-04-26T06:51:26.684Z</time></trkpt><trkpt lat="46.1293235" lon="9.3535755"><ele>210.60000000000002</ele><time>2026-04-26T06:51:28.683Z</time></trkpt><trkpt lat="46.1293886" lon="9.3536996"><ele>210.8</ele><time>2026-04-26T06:51:30.685Z</time></trkpt><trkpt lat="46.1294539" lon="9.3538004"><ele>211.0</ele><time>2026-04-26T06:51:32.685Z</time></trkpt><trkpt lat="46.1295127" lon="9.3538998"><ele>210.99999999999997</ele><time>2026-04-26T06:51:34.685Z</time></trkpt><trkpt lat="46.1295757" lon="9.3539859"><ele>211.0</ele><time>2026-04-26T06:51:36.684Z</time></trkpt><trkpt lat="46.129639" lon="9.354086"><ele>211.0</ele><time>2026-04-26T06:51:38.684Z</time></trkpt><trkpt lat="46.1296999" lon="9.3541778"><ele>211.0</ele><time>2026-04-26T06:51:40.684Z</time></trkpt><trkpt lat="46.1297426" lon="9.3542777"><ele>210.99999999999997</ele><time>2026-04-26T06:51:42.685Z</time></trkpt><trkpt lat="46.1297761" lon="9.3543761"><ele>211.0</ele><time>2026-04-26T06:51:44.684Z</time></trkpt><trkpt lat="46.1298081" lon="9.3544773"><ele>210.99999999999997</ele><time>2026-04-26T06:51:46.685Z</time></trkpt><trkpt lat="46.1298389" lon="9.3545869"><ele>211.0</ele><time>2026-04-26T06:51:48.685Z</time></trkpt><trkpt lat="46.1298637" lon="9.3547027"><ele>211.0</ele><time>2026-04-26T06:51:50.685Z</time></trkpt><trkpt lat="46.1298939" lon="9.3548203"><ele>211.0</ele><time>2026-04-26T06:51:52.684Z</time></trkpt><trkpt lat="46.1299396" lon="9.3549386"><ele>210.99999999999997</ele><time>2026-04-26T06:51:54.685Z</time></trkpt><trkpt lat="46.1299828" lon="9.3550643"><ele>211.0</ele><time>2026-04-26T06:51:56.684Z</time></trkpt><trkpt lat="46.1300276" lon="9.3551835"><ele>210.8</ele><time>2026-04-26T06:51:58.685Z</time></trkpt><trkpt lat="46.1300752" lon="9.3553096"><ele>210.60000000000002</ele><time>2026-04-26T06:52:00.684Z</time></trkpt><trkpt lat="46.1301182" lon="9.3554408"><ele>210.4</ele><time>2026-04-26T06:52:02.684Z</time></trkpt><trkpt lat="46.1301564" lon="9.3555724"><ele>210.2</ele><time>2026-04-26T06:52:04.684Z</time></trkpt><trkpt lat="46.1301976" lon="9.3557096"><ele>210.0</ele><time>2026-04-26T06:52:06.684Z</time></trkpt><trkpt lat="46.1302321" lon="9.3558463"><ele>210.0</ele><time>2026-04-26T06:52:08.683Z</time></trkpt><trkpt lat="46.1302748" lon="9.3559774"><ele>210.0</ele><time>2026-04-26T06:52:10.684Z</time></trkpt><trkpt lat="46.1303026" lon="9.3561125"><ele>210.0</ele><time>2026-04-26T06:52:12.685Z</time></trkpt><trkpt lat="46.1303293" lon="9.3562501"><ele>210.0</ele><time>2026-04-26T06:52:14.684Z</time></trkpt><trkpt lat="46.1303535" lon="9.3563741"><ele>210.0</ele><time>2026-04-26T06:52:16.685Z</time></trkpt><trkpt lat="46.1303718" lon="9.3565165"><ele>210.6</ele><time>2026-04-26T06:52:18.685Z</time></trkpt><trkpt lat="46.1303907" lon="9.356656"><ele>211.2</ele><time>2026-04-26T06:52:20.684Z</time></trkpt><trkpt lat="46.1304175" lon="9.356789"><ele>211.8</ele><time>2026-04-26T06:52:22.684Z</time></trkpt><trkpt lat="46.1304525" lon="9.3569149"><ele>212.4</ele><time>2026-04-26T06:52:24.684Z</time></trkpt><trkpt lat="46.1304977" lon="9.3570566"><ele>213.0</ele><time>2026-04-26T06:52:26.684Z</time></trkpt><trkpt lat="46.1305383" lon="9.3571857"><ele>213.5</ele><time>2026-04-26T06:52:28.683Z</time></trkpt><trkpt lat="46.130584" lon="9.3573301"><ele>214.0</ele><time>2026-04-26T06:52:30.685Z</time></trkpt><trkpt lat="46.1306346" lon="9.3574713"><ele>214.5</ele><time>2026-04-26T06:52:32.685Z</time></trkpt><trkpt lat="46.1306849" lon="9.3576238"><ele>215.0</ele><time>2026-04-26T06:52:34.685Z</time></trkpt><trkpt lat="46.1307355" lon="9.3577718"><ele>214.2</ele><time>2026-04-26T06:52:36.685Z</time></trkpt><trkpt lat="46.130761" lon="9.3578563"><ele>213.4</ele><time>2026-04-26T06:52:37.684Z</time></trkpt><trkpt lat="46.1308126" lon="9.3579923"><ele>212.60000000000002</ele><time>2026-04-26T06:52:39.684Z</time></trkpt><trkpt lat="46.1308776" lon="9.358125"><ele>211.8</ele><time>2026-04-26T06:52:41.684Z</time></trkpt><trkpt lat="46.1309451" lon="9.3582719"><ele>211.0</ele><time>2026-04-26T06:52:43.685Z</time></trkpt><trkpt lat="46.1309741" lon="9.3583534"><ele>210.99999999999997</ele><time>2026-04-26T06:52:44.684Z</time></trkpt><trkpt lat="46.1310292" lon="9.3585051"><ele>211.0</ele><time>2026-04-26T06:52:46.685Z</time></trkpt><trkpt lat="46.1310711" lon="9.35866"><ele>211.0</ele><time>2026-04-26T06:52:48.685Z</time></trkpt><trkpt lat="46.1310926" lon="9.3587519"><ele>211.0</ele><time>2026-04-26T06:52:49.684Z</time></trkpt><trkpt lat="46.1311105" lon="9.3588401"><ele>210.99999999999997</ele><time>2026-04-26T06:52:50.685Z</time></trkpt><trkpt lat="46.1311285" lon="9.3589334"><ele>211.0</ele><time>2026-04-26T06:52:51.685Z</time></trkpt><trkpt lat="46.1311528" lon="9.3590174"><ele>211.20000000000002</ele><time>2026-04-26T06:52:52.685Z</time></trkpt><trkpt lat="46.1312018" lon="9.3591477"><ele>211.4</ele><time>2026-04-26T06:52:54.685Z</time></trkpt><trkpt lat="46.1312537" lon="9.3592995"><ele>211.6</ele><time>2026-04-26T06:52:56.685Z</time></trkpt><trkpt lat="46.1312924" lon="9.3594358"><ele>211.8</ele><time>2026-04-26T06:52:58.684Z</time></trkpt><trkpt lat="46.1313201" lon="9.3595885"><ele>212.0</ele><time>2026-04-26T06:53:00.684Z</time></trkpt><trkpt lat="46.1313537" lon="9.3597412"><ele>211.83333333333334</ele><time>2026-04-26T06:53:02.684Z</time></trkpt><trkpt lat="46.1314213" lon="9.359897"><ele>211.66666666666669</ele><time>2026-04-26T06:53:04.684Z</time></trkpt><trkpt lat="46.1314964" lon="9.3600393"><ele>211.5</ele><time>2026-04-26T06:53:06.684Z</time></trkpt><trkpt lat="46.1315358" lon="9.3601141"><ele>211.33333333333331</ele><time>2026-04-26T06:53:07.685Z</time></trkpt><trkpt lat="46.1315672" lon="9.3601953"><ele>211.16666666666666</ele><time>2026-04-26T06:53:08.684Z</time></trkpt><trkpt lat="46.1316036" lon="9.3602726"><ele>211.0</ele><time>2026-04-26T06:53:09.684Z</time></trkpt><trkpt lat="46.131641" lon="9.360352"><ele>211.0</ele><time>2026-04-26T06:53:10.684Z</time></trkpt><trkpt lat="46.1316762" lon="9.3604303"><ele>211.0</ele><time>2026-04-26T06:53:11.684Z</time></trkpt><trkpt lat="46.1317165" lon="9.3605218"><ele>211.0</ele><time>2026-04-26T06:53:12.684Z</time></trkpt><trkpt lat="46.1317594" lon="9.3606188"><ele>211.0</ele><time>2026-04-26T06:53:13.684Z</time></trkpt><trkpt lat="46.1317967" lon="9.3606938"><ele>211.0</ele><time>2026-04-26T06:53:14.684Z</time></trkpt><trkpt lat="46.1318403" lon="9.3607779"><ele>211.0</ele><time>2026-04-26T06:53:15.685Z</time></trkpt><trkpt lat="46.1318815" lon="9.3608559"><ele>211.0</ele><time>2026-04-26T06:53:16.684Z</time></trkpt><trkpt lat="46.1319242" lon="9.3609395"><ele>211.42857142857144</ele><time>2026-04-26T06:53:17.684Z</time></trkpt><trkpt lat="46.1319638" lon="9.3610133"><ele>211.85714285714286</ele><time>2026-04-26T06:53:18.686Z</time></trkpt><trkpt lat="46.1319974" lon="9.3610974"><ele>212.28571428571428</ele><time>2026-04-26T06:53:19.684Z</time></trkpt><trkpt lat="46.1320362" lon="9.3611791"><ele>212.71428571428572</ele><time>2026-04-26T06:53:20.685Z</time></trkpt><trkpt lat="46.1320741" lon="9.3612565"><ele>213.14285714285714</ele><time>2026-04-26T06:53:21.685Z</time></trkpt><trkpt lat="46.1321139" lon="9.3613306"><ele>213.57142857142858</ele><time>2026-04-26T06:53:22.685Z</time></trkpt><trkpt lat="46.1321531" lon="9.3614017"><ele>214.0</ele><time>2026-04-26T06:53:23.684Z</time></trkpt><trkpt lat="46.1321969" lon="9.3614845"><ele>214.16666666666666</ele><time>2026-04-26T06:53:24.684Z</time></trkpt><trkpt lat="46.1322385" lon="9.3615665"><ele>214.33333333333331</ele><time>2026-04-26T06:53:25.685Z</time></trkpt><trkpt lat="46.1322736" lon="9.3616445"><ele>214.5</ele><time>2026-04-26T06:53:26.685Z</time></trkpt><trkpt lat="46.1323166" lon="9.3617237"><ele>214.66666666666669</ele><time>2026-04-26T06:53:27.684Z</time></trkpt><trkpt lat="46.1323544" lon="9.3618011"><ele>214.83333333333334</ele><time>2026-04-26T06:53:28.685Z</time></trkpt><trkpt lat="46.1324263" lon="9.3619481"><ele>215.0</ele><time>2026-04-26T06:53:30.684Z</time></trkpt><trkpt lat="46.1325049" lon="9.3620912"><ele>214.0</ele><time>2026-04-26T06:53:32.684Z</time></trkpt><trkpt lat="46.1325689" lon="9.3622322"><ele>213.0</ele><time>2026-04-26T06:53:34.684Z</time></trkpt><trkpt lat="46.1326087" lon="9.3623046"><ele>212.0</ele><time>2026-04-26T06:53:35.684Z</time></trkpt><trkpt lat="46.1326786" lon="9.3624383"><ele>211.0</ele><time>2026-04-26T06:53:37.685Z</time></trkpt><trkpt lat="46.1327523" lon="9.3625838"><ele>210.0</ele><time>2026-04-26T06:53:39.685Z</time></trkpt><trkpt lat="46.1328248" lon="9.3627171"><ele>210.0</ele><time>2026-04-26T06:53:41.684Z</time></trkpt><trkpt lat="46.1328997" lon="9.3628535"><ele>210.0</ele><time>2026-04-26T06:53:43.685Z</time></trkpt><trkpt lat="46.1329384" lon="9.3629314"><ele>210.0</ele><time>2026-04-26T06:53:44.685Z</time></trkpt><trkpt lat="46.132972" lon="9.3630109"><ele>210.0</ele><time>2026-04-26T06:53:45.685Z</time></trkpt><trkpt lat="46.1330071" lon="9.3630924"><ele>210.0</ele><time>2026-04-26T06:53:46.685Z</time></trkpt><trkpt lat="46.133078" lon="9.3632263"><ele>210.0</ele><time>2026-04-26T06:53:48.684Z</time></trkpt><trkpt lat="46.1331204" lon="9.3633027"><ele>210.0</ele><time>2026-04-26T06:53:49.684Z</time></trkpt><trkpt lat="46.1331727" lon="9.3634623"><ele>210.0</ele><time>2026-04-26T06:53:51.685Z</time></trkpt><trkpt lat="46.1332347" lon="9.3635897"><ele>210.0</ele><time>2026-04-26T06:53:53.685Z</time></trkpt><trkpt lat="46.1333021" lon="9.3637189"><ele>210.0</ele><time>2026-04-26T06:53:55.684Z</time></trkpt><trkpt lat="46.1333609" lon="9.363837"><ele>210.0</ele><time>2026-04-26T06:53:57.684Z</time></trkpt><trkpt lat="46.1334249" lon="9.363928"><ele>210.0</ele><time>2026-04-26T06:53:59.684Z</time></trkpt><trkpt lat="46.1334851" lon="9.3639707"><ele>210.0</ele><time>2026-04-26T06:54:01.684Z</time></trkpt><trkpt lat="46.1335541" lon="9.3639851"><ele>210.0</ele><time>2026-04-26T06:54:03.684Z</time></trkpt><trkpt lat="46.1336325" lon="9.3639976"><ele>210.0</ele><time>2026-04-26T06:54:05.684Z</time></trkpt><trkpt lat="46.1337189" lon="9.363967"><ele>210.0</ele><time>2026-04-26T06:54:07.685Z</time></trkpt><trkpt lat="46.1338238" lon="9.3639175"><ele>210.0</ele><time>2026-04-26T06:54:09.683Z</time></trkpt><trkpt lat="46.1339375" lon="9.3638516"><ele>209.4</ele><time>2026-04-26T06:54:11.685Z</time></trkpt><trkpt lat="46.1340527" lon="9.3637816"><ele>208.8</ele><time>2026-04-26T06:54:13.685Z</time></trkpt><trkpt lat="46.1341671" lon="9.3637138"><ele>208.2</ele><time>2026-04-26T06:54:15.685Z</time></trkpt><trkpt lat="46.1342327" lon="9.3636591"><ele>207.6</ele><time>2026-04-26T06:54:16.683Z</time></trkpt><trkpt lat="46.1342973" lon="9.3636136"><ele>207.0</ele><time>2026-04-26T06:54:17.685Z</time></trkpt><trkpt lat="46.1343619" lon="9.3635669"><ele>206.57142857142858</ele><time>2026-04-26T06:54:18.684Z</time></trkpt><trkpt lat="46.1344212" lon="9.3635193"><ele>206.14285714285714</ele><time>2026-04-26T06:54:19.684Z</time></trkpt><trkpt lat="46.1344817" lon="9.3634736"><ele>205.71428571428572</ele><time>2026-04-26T06:54:20.684Z</time></trkpt><trkpt lat="46.1345503" lon="9.3634229"><ele>205.28571428571428</ele><time>2026-04-26T06:54:21.684Z</time></trkpt><trkpt lat="46.1346141" lon="9.3633703"><ele>204.85714285714286</ele><time>2026-04-26T06:54:22.685Z</time></trkpt><trkpt lat="46.1346804" lon="9.3633279"><ele>204.42857142857144</ele><time>2026-04-26T06:54:23.684Z</time></trkpt><trkpt lat="46.1347467" lon="9.363284"><ele>204.0</ele><time>2026-04-26T06:54:24.686Z</time></trkpt><trkpt lat="46.1348231" lon="9.3632311"><ele>203.66666666666666</ele><time>2026-04-26T06:54:25.685Z</time></trkpt><trkpt lat="46.1348918" lon="9.3631862"><ele>203.33333333333331</ele><time>2026-04-26T06:54:26.684Z</time></trkpt><trkpt lat="46.1349639" lon="9.3631329"><ele>203.0</ele><time>2026-04-26T06:54:27.684Z</time></trkpt><trkpt lat="46.1350329" lon="9.3630902"><ele>202.66666666666666</ele><time>2026-04-26T06:54:28.685Z</time></trkpt><trkpt lat="46.1350978" lon="9.3630396"><ele>202.33333333333331</ele><time>2026-04-26T06:54:29.685Z</time></trkpt><trkpt lat="46.135161" lon="9.3629978"><ele>202.0</ele><time>2026-04-26T06:54:30.686Z</time></trkpt><trkpt lat="46.1352303" lon="9.3629531"><ele>201.83333333333331</ele><time>2026-04-26T06:54:31.684Z</time></trkpt><trkpt lat="46.1352944" lon="9.3629075"><ele>201.66666666666666</ele><time>2026-04-26T06:54:32.686Z</time></trkpt><trkpt lat="46.135363" lon="9.3628609"><ele>201.5</ele><time>2026-04-26T06:54:33.684Z</time></trkpt><trkpt lat="46.1354229" lon="9.3628226"><ele>201.33333333333331</ele><time>2026-04-26T06:54:34.686Z</time></trkpt><trkpt lat="46.1355151" lon="9.3627649"><ele>201.16666666666666</ele><time>2026-04-26T06:54:36.686Z</time></trkpt><trkpt lat="46.1355796" lon="9.3627441"><ele>201.0</ele><time>2026-04-26T06:54:38.684Z</time></trkpt><trkpt lat="46.1356254" lon="9.3628239"><ele>201.0</ele><time>2026-04-26T06:54:40.686Z</time></trkpt><trkpt lat="46.135631" lon="9.3629432"><ele>201.0</ele><time>2026-04-26T06:54:42.684Z</time></trkpt><trkpt lat="46.1356514" lon="9.3630827"><ele>201.0</ele><time>2026-04-26T06:54:44.686Z</time></trkpt><trkpt lat="46.1356684" lon="9.363235"><ele>201.0</ele><time>2026-04-26T06:54:46.685Z</time></trkpt><trkpt lat="46.1356897" lon="9.3633982"><ele>201.0</ele><time>2026-04-26T06:54:48.685Z</time></trkpt><trkpt lat="46.1356959" lon="9.3635664"><ele>201.20000000000002</ele><time>2026-04-26T06:54:50.684Z</time></trkpt><trkpt lat="46.1357034" lon="9.3637175"><ele>201.4</ele><time>2026-04-26T06:54:52.685Z</time></trkpt><trkpt lat="46.1357155" lon="9.3638747"><ele>201.6</ele><time>2026-04-26T06:54:54.684Z</time></trkpt><trkpt lat="46.1357437" lon="9.3641105"><ele>201.8</ele><time>2026-04-26T06:54:57.685Z</time></trkpt><trkpt lat="46.1357575" lon="9.3641992"><ele>202.0</ele><time>2026-04-26T06:54:58.684Z</time></trkpt><trkpt lat="46.1358056" lon="9.3643556"><ele>201.75</ele><time>2026-04-26T06:55:00.686Z</time></trkpt><trkpt lat="46.1358602" lon="9.3644999"><ele>201.5</ele><time>2026-04-26T06:55:02.684Z</time></trkpt><trkpt lat="46.1359133" lon="9.3646501"><ele>201.25</ele><time>2026-04-26T06:55:04.685Z</time></trkpt><trkpt lat="46.1359566" lon="9.3648076"><ele>201.0</ele><time>2026-04-26T06:55:06.686Z</time></trkpt><trkpt lat="46.1360054" lon="9.3649634"><ele>201.0</ele><time>2026-04-26T06:55:08.686Z</time></trkpt><trkpt lat="46.136046" lon="9.365127"><ele>201.0</ele><time>2026-04-26T06:55:10.685Z</time></trkpt><trkpt lat="46.1360939" lon="9.3652755"><ele>201.0</ele><time>2026-04-26T06:55:12.685Z</time></trkpt><trkpt lat="46.1361548" lon="9.3654225"><ele>201.0</ele><time>2026-04-26T06:55:14.683Z</time></trkpt><trkpt lat="46.1362216" lon="9.3655547"><ele>201.20000000000002</ele><time>2026-04-26T06:55:16.684Z</time></trkpt><trkpt lat="46.1363025" lon="9.3656537"><ele>201.4</ele><time>2026-04-26T06:55:18.686Z</time></trkpt><trkpt lat="46.1363859" lon="9.3657536"><ele>201.6</ele><time>2026-04-26T06:55:20.684Z</time></trkpt><trkpt lat="46.1364621" lon="9.3658568"><ele>201.8</ele><time>2026-04-26T06:55:22.685Z</time></trkpt><trkpt lat="46.1365377" lon="9.3659659"><ele>202.0</ele><time>2026-04-26T06:55:24.684Z</time></trkpt><trkpt lat="46.136584" lon="9.3661235"><ele>201.5</ele><time>2026-04-26T06:55:26.685Z</time></trkpt><trkpt lat="46.1366215" lon="9.3662768"><ele>201.0</ele><time>2026-04-26T06:55:28.684Z</time></trkpt><trkpt lat="46.1366448" lon="9.3664388"><ele>200.5</ele><time>2026-04-26T06:55:30.685Z</time></trkpt><trkpt lat="46.1366604" lon="9.3666013"><ele>200.0</ele><time>2026-04-26T06:55:32.684Z</time></trkpt><trkpt lat="46.136672" lon="9.3667707"><ele>200.0</ele><time>2026-04-26T06:55:34.685Z</time></trkpt><trkpt lat="46.1366966" lon="9.3669302"><ele>200.0</ele><time>2026-04-26T06:55:36.684Z</time></trkpt><trkpt lat="46.1367323" lon="9.3671004"><ele>200.0</ele><time>2026-04-26T06:55:38.685Z</time></trkpt><trkpt lat="46.1367804" lon="9.3672496"><ele>200.0</ele><time>2026-04-26T06:55:40.686Z</time></trkpt><trkpt lat="46.1368422" lon="9.3673916"><ele>200.5</ele><time>2026-04-26T06:55:42.684Z</time></trkpt><trkpt lat="46.1368983" lon="9.3675376"><ele>201.0</ele><time>2026-04-26T06:55:44.685Z</time></trkpt><trkpt lat="46.136968" lon="9.3676709"><ele>201.5</ele><time>2026-04-26T06:55:46.685Z</time></trkpt><trkpt lat="46.1370275" lon="9.3677989"><ele>202.0</ele><time>2026-04-26T06:55:48.685Z</time></trkpt><trkpt lat="46.1370953" lon="9.3679399"><ele>202.6</ele><time>2026-04-26T06:55:50.686Z</time></trkpt><trkpt lat="46.137158" lon="9.3680813"><ele>203.2</ele><time>2026-04-26T06:55:52.685Z</time></trkpt><trkpt lat="46.1372208" lon="9.3681997"><ele>203.8</ele><time>2026-04-26T06:55:54.684Z</time></trkpt><trkpt lat="46.1372627" lon="9.3683395"><ele>204.4</ele><time>2026-04-26T06:55:56.683Z</time></trkpt><trkpt lat="46.1372868" lon="9.3684531"><ele>205.0</ele><time>2026-04-26T06:55:58.685Z</time></trkpt><trkpt lat="46.1372684" lon="9.3685738"><ele>204.99999999999997</ele><time>2026-04-26T06:56:00.686Z</time></trkpt><trkpt lat="46.1372586" lon="9.3686769"><ele>205.0</ele><time>2026-04-26T06:56:02.684Z</time></trkpt><trkpt lat="46.1372549" lon="9.368788"><ele>205.0</ele><time>2026-04-26T06:56:05.684Z</time></trkpt><trkpt lat="46.137258" lon="9.3688916"><ele>205.0</ele><time>2026-04-26T06:56:08.685Z</time></trkpt><trkpt lat="46.1372599" lon="9.369012"><ele>204.99999999999997</ele><time>2026-04-26T06:56:11.686Z</time></trkpt><trkpt lat="46.1372435" lon="9.3691284"><ele>205.0</ele><time>2026-04-26T06:56:14.686Z</time></trkpt><trkpt lat="46.1372473" lon="9.369228"><ele>204.99999999999997</ele><time>2026-04-26T06:56:17.686Z</time></trkpt><trkpt lat="46.1372395" lon="9.3693459"><ele>205.0</ele><time>2026-04-26T06:56:21.684Z</time></trkpt><trkpt lat="46.1372113" lon="9.3694551"><ele>205.0</ele><time>2026-04-26T06:56:25.686Z</time></trkpt><trkpt lat="46.1371745" lon="9.3695452"><ele>205.0</ele><time>2026-04-26T06:56:30.685Z</time></trkpt><trkpt lat="46.1371517" lon="9.3696319"><ele>204.99999999999997</ele><time>2026-04-26T06:56:34.686Z</time></trkpt><trkpt lat="46.137132" lon="9.3697307"><ele>205.0</ele><time>2026-04-26T06:56:37.686Z</time></trkpt><trkpt lat="46.1371114" lon="9.3698766"><ele>204.99999999999997</ele><time>2026-04-26T06:56:41.684Z</time></trkpt><trkpt lat="46.1370951" lon="9.3699695"><ele>205.0</ele><time>2026-04-26T06:56:43.684Z</time></trkpt><trkpt lat="46.1370726" lon="9.3700912"><ele>205.0</ele><time>2026-04-26T06:56:46.684Z</time></trkpt><trkpt lat="46.1370576" lon="9.370181"><ele>205.0</ele><time>2026-04-26T06:56:50.462Z</time></trkpt><trkpt lat="46.1370442" lon="9.3702702"><ele>204.99999999999997</ele><time>2026-04-26T06:56:52.686Z</time></trkpt><trkpt lat="46.1370576" lon="9.3703883"><ele>205.0</ele><time>2026-04-26T06:56:55.685Z</time></trkpt><trkpt lat="46.1370881" lon="9.3705078"><ele>205.14285714285714</ele><time>2026-04-26T06:56:58.685Z</time></trkpt><trkpt lat="46.1371227" lon="9.3705951"><ele>205.28571428571428</ele><time>2026-04-26T06:57:00.685Z</time></trkpt><trkpt lat="46.1371601" lon="9.3706885"><ele>205.42857142857142</ele><time>2026-04-26T06:57:02.686Z</time></trkpt><trkpt lat="46.1371822" lon="9.3707877"><ele>205.57142857142856</ele><time>2026-04-26T06:57:04.686Z</time></trkpt><trkpt lat="46.1372035" lon="9.3708747"><ele>205.71428571428572</ele><time>2026-04-26T06:57:06.685Z</time></trkpt><trkpt lat="46.1372231" lon="9.3709676"><ele>205.85714285714283</ele><time>2026-04-26T06:57:08.686Z</time></trkpt><trkpt lat="46.1372463" lon="9.3710643"><ele>206.0</ele><time>2026-04-26T06:57:10.685Z</time></trkpt><trkpt lat="46.1372763" lon="9.3711669"><ele>206.0</ele><time>2026-04-26T06:57:12.687Z</time></trkpt><trkpt lat="46.1373099" lon="9.3712527"><ele>206.0</ele><time>2026-04-26T06:57:14.687Z</time></trkpt><trkpt lat="46.13736" lon="9.3713642"><ele>206.0</ele><time>2026-04-26T06:57:16.685Z</time></trkpt><trkpt lat="46.1373941" lon="9.3714957"><ele>206.0</ele><time>2026-04-26T06:57:18.686Z</time></trkpt><trkpt lat="46.1374411" lon="9.3716337"><ele>206.0</ele><time>2026-04-26T06:57:20.685Z</time></trkpt><trkpt lat="46.1375589" lon="9.3717443"><ele>205.4</ele><time>2026-04-26T06:57:22.686Z</time></trkpt><trkpt lat="46.1376143" lon="9.3718935"><ele>204.8</ele><time>2026-04-26T06:57:24.685Z</time></trkpt><trkpt lat="46.1376797" lon="9.3720126"><ele>204.20000000000002</ele><time>2026-04-26T06:57:26.685Z</time></trkpt><trkpt lat="46.1377454" lon="9.3721141"><ele>203.60000000000002</ele><time>2026-04-26T06:57:28.685Z</time></trkpt><trkpt lat="46.1378312" lon="9.3721744"><ele>203.0</ele><time>2026-04-26T06:57:30.686Z</time></trkpt><trkpt lat="46.1378941" lon="9.3722318"><ele>203.00000000000003</ele><time>2026-04-26T06:57:32.686Z</time></trkpt><trkpt lat="46.1379795" lon="9.3722828"><ele>203.0</ele><time>2026-04-26T06:57:34.686Z</time></trkpt><trkpt lat="46.1380605" lon="9.3723223"><ele>203.0</ele><time>2026-04-26T06:57:36.686Z</time></trkpt><trkpt lat="46.1381291" lon="9.3723902"><ele>203.0</ele><time>2026-04-26T06:57:38.686Z</time></trkpt><trkpt lat="46.1382028" lon="9.3724563"><ele>203.00000000000003</ele><time>2026-04-26T06:57:40.685Z</time></trkpt><trkpt lat="46.1382792" lon="9.3725178"><ele>203.0</ele><time>2026-04-26T06:57:42.685Z</time></trkpt><trkpt lat="46.1383564" lon="9.3725821"><ele>202.60000000000002</ele><time>2026-04-26T06:57:44.685Z</time></trkpt><trkpt lat="46.1384252" lon="9.3726537"><ele>202.20000000000002</ele><time>2026-04-26T06:57:46.685Z</time></trkpt><trkpt lat="46.1384602" lon="9.3727639"><ele>201.8</ele><time>2026-04-26T06:57:48.684Z</time></trkpt><trkpt lat="46.138468" lon="9.3728933"><ele>201.4</ele><time>2026-04-26T06:57:50.686Z</time></trkpt><trkpt lat="46.1384796" lon="9.3730246"><ele>201.0</ele><time>2026-04-26T06:57:52.686Z</time></trkpt><trkpt lat="46.1384852" lon="9.3731676"><ele>201.0</ele><time>2026-04-26T06:57:54.686Z</time></trkpt><trkpt lat="46.1385003" lon="9.3733195"><ele>201.0</ele><time>2026-04-26T06:57:56.685Z</time></trkpt><trkpt lat="46.138511" lon="9.3734548"><ele>201.0</ele><time>2026-04-26T06:57:58.686Z</time></trkpt><trkpt lat="46.1385242" lon="9.3735812"><ele>201.0</ele><time>2026-04-26T06:58:00.685Z</time></trkpt><trkpt lat="46.1385262" lon="9.3737132"><ele>201.0</ele><time>2026-04-26T06:58:02.686Z</time></trkpt><trkpt lat="46.1385361" lon="9.3738368"><ele>201.5</ele><time>2026-04-26T06:58:04.686Z</time></trkpt><trkpt lat="46.1385555" lon="9.3739732"><ele>202.0</ele><time>2026-04-26T06:58:06.686Z</time></trkpt><trkpt lat="46.1385537" lon="9.3741022"><ele>202.5</ele><time>2026-04-26T06:58:08.685Z</time></trkpt><trkpt lat="46.138566" lon="9.3742295"><ele>203.0</ele><time>2026-04-26T06:58:10.686Z</time></trkpt><trkpt lat="46.1385721" lon="9.3743529"><ele>203.5</ele><time>2026-04-26T06:58:12.686Z</time></trkpt><trkpt lat="46.1385831" lon="9.3744728"><ele>204.0</ele><time>2026-04-26T06:58:14.685Z</time></trkpt><trkpt lat="46.1385655" lon="9.3745883"><ele>204.0</ele><time>2026-04-26T06:58:16.686Z</time></trkpt><trkpt lat="46.1385174" lon="9.3746758"><ele>204.0</ele><time>2026-04-26T06:58:18.685Z</time></trkpt><trkpt lat="46.1384622" lon="9.3747669"><ele>204.0</ele><time>2026-04-26T06:58:20.685Z</time></trkpt><trkpt lat="46.1384698" lon="9.3748888"><ele>204.0</ele><time>2026-04-26T06:58:22.686Z</time></trkpt><trkpt lat="46.1385321" lon="9.374979"><ele>204.0</ele><time>2026-04-26T06:58:24.686Z</time></trkpt><trkpt lat="46.1386017" lon="9.3750588"><ele>204.0</ele><time>2026-04-26T06:58:26.686Z</time></trkpt><trkpt lat="46.138666" lon="9.3751495"><ele>204.6</ele><time>2026-04-26T06:58:28.684Z</time></trkpt><trkpt lat="46.1387268" lon="9.3752556"><ele>205.2</ele><time>2026-04-26T06:58:30.686Z</time></trkpt><trkpt lat="46.1387816" lon="9.3753843"><ele>205.79999999999998</ele><time>2026-04-26T06:58:32.686Z</time></trkpt><trkpt lat="46.1388407" lon="9.3755018"><ele>206.39999999999998</ele><time>2026-04-26T06:58:34.685Z</time></trkpt><trkpt lat="46.1388962" lon="9.3756165"><ele>207.0</ele><time>2026-04-26T06:58:36.685Z</time></trkpt><trkpt lat="46.1389383" lon="9.3757276"><ele>207.16666666666666</ele><time>2026-04-26T06:58:38.686Z</time></trkpt><trkpt lat="46.1389754" lon="9.3758542"><ele>207.33333333333331</ele><time>2026-04-26T06:58:40.685Z</time></trkpt><trkpt lat="46.1390065" lon="9.3759658"><ele>207.5</ele><time>2026-04-26T06:58:42.686Z</time></trkpt><trkpt lat="46.1390312" lon="9.3760799"><ele>207.66666666666666</ele><time>2026-04-26T06:58:44.685Z</time></trkpt><trkpt lat="46.1390639" lon="9.3761958"><ele>207.83333333333331</ele><time>2026-04-26T06:58:46.685Z</time></trkpt><trkpt lat="46.139094" lon="9.376311"><ele>208.0</ele><time>2026-04-26T06:58:48.686Z</time></trkpt><trkpt lat="46.1391294" lon="9.3764152"><ele>207.99999999999997</ele><time>2026-04-26T06:58:50.686Z</time></trkpt><trkpt lat="46.1391673" lon="9.3765215"><ele>208.0</ele><time>2026-04-26T06:58:52.685Z</time></trkpt><trkpt lat="46.1392006" lon="9.3766271"><ele>208.0</ele><time>2026-04-26T06:58:54.686Z</time></trkpt><trkpt lat="46.1392301" lon="9.3767337"><ele>208.0</ele><time>2026-04-26T06:58:56.686Z</time></trkpt><trkpt lat="46.1392674" lon="9.3768427"><ele>207.99999999999997</ele><time>2026-04-26T06:58:58.686Z</time></trkpt><trkpt lat="46.1393081" lon="9.3769536"><ele>208.0</ele><time>2026-04-26T06:59:00.686Z</time></trkpt><trkpt lat="46.1393455" lon="9.3770716"><ele>208.2</ele><time>2026-04-26T06:59:02.686Z</time></trkpt><trkpt lat="46.1393889" lon="9.3771914"><ele>208.4</ele><time>2026-04-26T06:59:04.686Z</time></trkpt><trkpt lat="46.1394294" lon="9.3773087"><ele>208.6</ele><time>2026-04-26T06:59:06.685Z</time></trkpt><trkpt lat="46.1394715" lon="9.3774286"><ele>208.79999999999998</ele><time>2026-04-26T06:59:08.686Z</time></trkpt><trkpt lat="46.1395241" lon="9.3775523"><ele>209.0</ele><time>2026-04-26T06:59:10.686Z</time></trkpt><trkpt lat="46.1395788" lon="9.3776613"><ele>209.0</ele><time>2026-04-26T06:59:12.685Z</time></trkpt><trkpt lat="46.1396468" lon="9.3777675"><ele>209.0</ele><time>2026-04-26T06:59:14.686Z</time></trkpt><trkpt lat="46.1397172" lon="9.3778673"><ele>209.0</ele><time>2026-04-26T06:59:16.686Z</time></trkpt><trkpt lat="46.1397809" lon="9.3779677"><ele>209.0</ele><time>2026-04-26T06:59:18.685Z</time></trkpt><trkpt lat="46.1398334" lon="9.3780668"><ele>209.0</ele><time>2026-04-26T06:59:20.686Z</time></trkpt><trkpt lat="46.1398925" lon="9.3781696"><ele>208.83333333333334</ele><time>2026-04-26T06:59:22.685Z</time></trkpt><trkpt lat="46.1399436" lon="9.3782485"><ele>208.66666666666669</ele><time>2026-04-26T06:59:24.686Z</time></trkpt><trkpt lat="46.1399921" lon="9.3783441"><ele>208.5</ele><time>2026-04-26T06:59:26.686Z</time></trkpt><trkpt lat="46.1400326" lon="9.3784337"><ele>208.33333333333331</ele><time>2026-04-26T06:59:28.684Z</time></trkpt><trkpt lat="46.140063" lon="9.3785407"><ele>208.16666666666666</ele><time>2026-04-26T06:59:30.685Z</time></trkpt><trkpt lat="46.1400891" lon="9.3786564"><ele>208.0</ele><time>2026-04-26T06:59:32.686Z</time></trkpt><trkpt lat="46.1401268" lon="9.3787731"><ele>208.4</ele><time>2026-04-26T06:59:34.685Z</time></trkpt><trkpt lat="46.1401634" lon="9.3788991"><ele>208.8</ele><time>2026-04-26T06:59:36.685Z</time></trkpt><trkpt lat="46.1401886" lon="9.3790298"><ele>209.2</ele><time>2026-04-26T06:59:38.685Z</time></trkpt><trkpt lat="46.1402065" lon="9.3791613"><ele>209.6</ele><time>2026-04-26T06:59:40.686Z</time></trkpt><trkpt lat="46.1402405" lon="9.3792934"><ele>210.0</ele><time>2026-04-26T06:59:42.686Z</time></trkpt><trkpt lat="46.1402652" lon="9.3794539"><ele>210.0</ele><time>2026-04-26T06:59:44.685Z</time></trkpt><trkpt lat="46.1403144" lon="9.3796008"><ele>210.0</ele><time>2026-04-26T06:59:46.686Z</time></trkpt><trkpt lat="46.1403523" lon="9.3797378"><ele>210.0</ele><time>2026-04-26T06:59:48.685Z</time></trkpt><trkpt lat="46.1404045" lon="9.379875"><ele>210.0</ele><time>2026-04-26T06:59:50.686Z</time></trkpt><trkpt lat="46.1404343" lon="9.3800126"><ele>210.0</ele><time>2026-04-26T06:59:52.686Z</time></trkpt><trkpt lat="46.1404746" lon="9.3801537"><ele>210.4</ele><time>2026-04-26T06:59:54.685Z</time></trkpt><trkpt lat="46.1404855" lon="9.380283"><ele>210.8</ele><time>2026-04-26T06:59:56.686Z</time></trkpt><trkpt lat="46.1405006" lon="9.380419"><ele>211.2</ele><time>2026-04-26T06:59:58.685Z</time></trkpt><trkpt lat="46.1405452" lon="9.3805532"><ele>211.6</ele><time>2026-04-26T07:00:00.685Z</time></trkpt><trkpt lat="46.1405659" lon="9.3806803"><ele>212.0</ele><time>2026-04-26T07:00:02.686Z</time></trkpt><trkpt lat="46.1405963" lon="9.3808094"><ele>211.8</ele><time>2026-04-26T07:00:04.686Z</time></trkpt><trkpt lat="46.1406246" lon="9.3809566"><ele>211.6</ele><time>2026-04-26T07:00:06.686Z</time></trkpt><trkpt lat="46.1406686" lon="9.3810838"><ele>211.4</ele><time>2026-04-26T07:00:08.686Z</time></trkpt><trkpt lat="46.1406944" lon="9.3812213"><ele>211.20000000000002</ele><time>2026-04-26T07:00:10.686Z</time></trkpt><trkpt lat="46.1407257" lon="9.3813471"><ele>211.0</ele><time>2026-04-26T07:00:12.685Z</time></trkpt><trkpt lat="46.140762" lon="9.3814608"><ele>210.8</ele><time>2026-04-26T07:00:14.686Z</time></trkpt><trkpt lat="46.1407857" lon="9.3816021"><ele>210.60000000000002</ele><time>2026-04-26T07:00:16.685Z</time></trkpt><trkpt lat="46.1408102" lon="9.3817544"><ele>210.4</ele><time>2026-04-26T07:00:18.686Z</time></trkpt><trkpt lat="46.1408272" lon="9.3818952"><ele>210.2</ele><time>2026-04-26T07:00:20.686Z</time></trkpt><trkpt lat="46.1408571" lon="9.3820322"><ele>210.0</ele><time>2026-04-26T07:00:22.687Z</time></trkpt><trkpt lat="46.1408907" lon="9.3821648"><ele>210.4</ele><time>2026-04-26T07:00:24.685Z</time></trkpt><trkpt lat="46.1409245" lon="9.3822951"><ele>210.8</ele><time>2026-04-26T07:00:26.687Z</time></trkpt><trkpt lat="46.1409633" lon="9.3824297"><ele>211.2</ele><time>2026-04-26T07:00:28.687Z</time></trkpt><trkpt lat="46.1409795" lon="9.3825781"><ele>211.6</ele><time>2026-04-26T07:00:30.686Z</time></trkpt><trkpt lat="46.1410249" lon="9.3827111"><ele>212.0</ele><time>2026-04-26T07:00:32.685Z</time></trkpt><trkpt lat="46.1410606" lon="9.382856"><ele>212.0</ele><time>2026-04-26T07:00:34.686Z</time></trkpt><trkpt lat="46.141107" lon="9.3829945"><ele>212.0</ele><time>2026-04-26T07:00:36.685Z</time></trkpt><trkpt lat="46.1411761" lon="9.3830929"><ele>212.0</ele><time>2026-04-26T07:00:38.686Z</time></trkpt><trkpt lat="46.1412659" lon="9.3831408"><ele>212.0</ele><time>2026-04-26T07:00:40.686Z</time></trkpt><trkpt lat="46.1413604" lon="9.383132"><ele>212.0</ele><time>2026-04-26T07:00:42.685Z</time></trkpt><trkpt lat="46.1414505" lon="9.3831183"><ele>212.2</ele><time>2026-04-26T07:00:44.687Z</time></trkpt><trkpt lat="46.1415454" lon="9.3831234"><ele>212.39999999999998</ele><time>2026-04-26T07:00:46.686Z</time></trkpt><trkpt lat="46.1416459" lon="9.3831665"><ele>212.60000000000002</ele><time>2026-04-26T07:00:48.686Z</time></trkpt><trkpt lat="46.1417348" lon="9.3832339"><ele>212.8</ele><time>2026-04-26T07:00:50.685Z</time></trkpt><trkpt lat="46.1418055" lon="9.3833376"><ele>213.0</ele><time>2026-04-26T07:00:52.686Z</time></trkpt><trkpt lat="46.1418505" lon="9.3834513"><ele>212.42857142857142</ele><time>2026-04-26T07:00:54.687Z</time></trkpt><trkpt lat="46.1418776" lon="9.3835463"><ele>211.85714285714286</ele><time>2026-04-26T07:00:56.685Z</time></trkpt><trkpt lat="46.1418766" lon="9.3836536"><ele>211.28571428571428</ele><time>2026-04-26T07:00:58.685Z</time></trkpt><trkpt lat="46.1418682" lon="9.3837445"><ele>210.71428571428572</ele><time>2026-04-26T07:01:00.685Z</time></trkpt><trkpt lat="46.1418496" lon="9.3838574"><ele>210.14285714285714</ele><time>2026-04-26T07:01:03.686Z</time></trkpt><trkpt lat="46.1418113" lon="9.3839568"><ele>209.57142857142856</ele><time>2026-04-26T07:01:06.687Z</time></trkpt><trkpt lat="46.1417609" lon="9.3840391"><ele>209.0</ele><time>2026-04-26T07:01:09.685Z</time></trkpt><trkpt lat="46.1416945" lon="9.3840983"><ele>209.00000000000003</ele><time>2026-04-26T07:01:12.686Z</time></trkpt><trkpt lat="46.1416337" lon="9.3841442"><ele>209.0</ele><time>2026-04-26T07:01:15.687Z</time></trkpt><trkpt lat="46.1415629" lon="9.384183"><ele>209.0</ele><time>2026-04-26T07:01:18.686Z</time></trkpt><trkpt lat="46.1414821" lon="9.3842193"><ele>209.0</ele><time>2026-04-26T07:01:21.687Z</time></trkpt><trkpt lat="46.1414104" lon="9.3842467"><ele>209.00000000000003</ele><time>2026-04-26T07:01:24.685Z</time></trkpt><trkpt lat="46.1413296" lon="9.3842707"><ele>209.0</ele><time>2026-04-26T07:01:27.685Z</time></trkpt><trkpt lat="46.1412354" lon="9.3843009"><ele>209.66666666666669</ele><time>2026-04-26T07:01:30.686Z</time></trkpt><trkpt lat="46.1411609" lon="9.3843306"><ele>210.33333333333334</ele><time>2026-04-26T07:01:32.685Z</time></trkpt><trkpt lat="46.1410759" lon="9.3843784"><ele>211.0</ele><time>2026-04-26T07:01:34.686Z</time></trkpt><trkpt lat="46.1409714" lon="9.3844292"><ele>211.66666666666669</ele><time>2026-04-26T07:01:36.687Z</time></trkpt><trkpt lat="46.1409077" lon="9.3844588"><ele>212.33333333333334</ele><time>2026-04-26T07:01:37.685Z</time></trkpt><trkpt lat="46.1408315" lon="9.3844891"><ele>213.0</ele><time>2026-04-26T07:01:38.686Z</time></trkpt><trkpt lat="46.1407607" lon="9.3845135"><ele>213.83333333333334</ele><time>2026-04-26T07:01:39.685Z</time></trkpt><trkpt lat="46.1406839" lon="9.384543"><ele>214.66666666666669</ele><time>2026-04-26T07:01:40.686Z</time></trkpt><trkpt lat="46.1406043" lon="9.3845667"><ele>215.5</ele><time>2026-04-26T07:01:41.686Z</time></trkpt><trkpt lat="46.1405311" lon="9.3845939"><ele>216.33333333333334</ele><time>2026-04-26T07:01:42.685Z</time></trkpt><trkpt lat="46.140454" lon="9.3846217"><ele>217.16666666666669</ele><time>2026-04-26T07:01:43.686Z</time></trkpt><trkpt lat="46.1403827" lon="9.3846477"><ele>218.0</ele><time>2026-04-26T07:01:44.686Z</time></trkpt><trkpt lat="46.1402787" lon="9.3847157"><ele>218.00000000000003</ele><time>2026-04-26T07:01:46.685Z</time></trkpt><trkpt lat="46.1402168" lon="9.3847809"><ele>218.0</ele><time>2026-04-26T07:01:48.685Z</time></trkpt><trkpt lat="46.140197" lon="9.3848857"><ele>218.0</ele><time>2026-04-26T07:01:50.685Z</time></trkpt><trkpt lat="46.1402163" lon="9.3850004"><ele>218.0</ele><time>2026-04-26T07:01:52.686Z</time></trkpt><trkpt lat="46.140255" lon="9.3851217"><ele>218.00000000000003</ele><time>2026-04-26T07:01:54.686Z</time></trkpt><trkpt lat="46.1402852" lon="9.3852489"><ele>218.0</ele><time>2026-04-26T07:01:56.686Z</time></trkpt><trkpt lat="46.1403275" lon="9.3853845"><ele>218.2</ele><time>2026-04-26T07:01:58.686Z</time></trkpt><trkpt lat="46.1403764" lon="9.3855184"><ele>218.4</ele><time>2026-04-26T07:02:00.686Z</time></trkpt><trkpt lat="46.1404237" lon="9.3856493"><ele>218.59999999999997</ele><time>2026-04-26T07:02:02.686Z</time></trkpt><trkpt lat="46.1404689" lon="9.3857794"><ele>218.79999999999998</ele><time>2026-04-26T07:02:04.685Z</time></trkpt><trkpt lat="46.1405078" lon="9.3859223"><ele>219.0</ele><time>2026-04-26T07:02:06.685Z</time></trkpt><trkpt lat="46.1405515" lon="9.3860627"><ele>219.0</ele><time>2026-04-26T07:02:08.685Z</time></trkpt><trkpt lat="46.1405989" lon="9.3862023"><ele>218.99999999999997</ele><time>2026-04-26T07:02:10.686Z</time></trkpt><trkpt lat="46.1406396" lon="9.3863422"><ele>218.99999999999997</ele><time>2026-04-26T07:02:12.685Z</time></trkpt><trkpt lat="46.1406895" lon="9.3864713"><ele>219.0</ele><time>2026-04-26T07:02:14.685Z</time></trkpt><trkpt lat="46.1407313" lon="9.3866157"><ele>219.0</ele><time>2026-04-26T07:02:16.686Z</time></trkpt><trkpt lat="46.1407734" lon="9.386759"><ele>218.2</ele><time>2026-04-26T07:02:18.686Z</time></trkpt><trkpt lat="46.1408205" lon="9.3869073"><ele>217.39999999999998</ele><time>2026-04-26T07:02:20.686Z</time></trkpt><trkpt lat="46.140849" lon="9.3869904"><ele>216.6</ele><time>2026-04-26T07:02:21.687Z</time></trkpt><trkpt lat="46.1408995" lon="9.3871162"><ele>215.8</ele><time>2026-04-26T07:02:23.686Z</time></trkpt><trkpt lat="46.1409368" lon="9.3872538"><ele>215.0</ele><time>2026-04-26T07:02:25.686Z</time></trkpt><trkpt lat="46.1409885" lon="9.3873941"><ele>214.75</ele><time>2026-04-26T07:02:27.685Z</time></trkpt><trkpt lat="46.1410485" lon="9.3875427"><ele>214.5</ele><time>2026-04-26T07:02:29.687Z</time></trkpt><trkpt lat="46.1411002" lon="9.3877073"><ele>214.25</ele><time>2026-04-26T07:02:31.686Z</time></trkpt><trkpt lat="46.1411407" lon="9.3878576"><ele>214.0</ele><time>2026-04-26T07:02:33.687Z</time></trkpt><trkpt lat="46.1411791" lon="9.3880157"><ele>214.0</ele><time>2026-04-26T07:02:35.685Z</time></trkpt><trkpt lat="46.1412247" lon="9.3881622"><ele>213.99999999999997</ele><time>2026-04-26T07:02:37.686Z</time></trkpt><trkpt lat="46.1412769" lon="9.3882958"><ele>213.99999999999997</ele><time>2026-04-26T07:02:39.687Z</time></trkpt><trkpt lat="46.1413313" lon="9.3884295"><ele>214.0</ele><time>2026-04-26T07:02:41.686Z</time></trkpt><trkpt lat="46.1413658" lon="9.3885649"><ele>214.0</ele><time>2026-04-26T07:02:43.687Z</time></trkpt><trkpt lat="46.1414117" lon="9.3886969"><ele>214.0</ele><time>2026-04-26T07:02:45.686Z</time></trkpt><trkpt lat="46.1414465" lon="9.3888149"><ele>213.99999999999997</ele><time>2026-04-26T07:02:47.685Z</time></trkpt><trkpt lat="46.1414927" lon="9.3889516"><ele>213.99999999999997</ele><time>2026-04-26T07:02:49.686Z</time></trkpt><trkpt lat="46.1415148" lon="9.3891132"><ele>214.0</ele><time>2026-04-26T07:02:51.686Z</time></trkpt><trkpt lat="46.1415417" lon="9.3892713"><ele>214.0</ele><time>2026-04-26T07:02:53.687Z</time></trkpt><trkpt lat="46.1415798" lon="9.3894231"><ele>213.39999999999998</ele><time>2026-04-26T07:02:55.685Z</time></trkpt><trkpt lat="46.1416215" lon="9.3894925"><ele>212.79999999999998</ele><time>2026-04-26T07:02:56.687Z</time></trkpt><trkpt lat="46.1416724" lon="9.389655"><ele>212.2</ele><time>2026-04-26T07:02:58.686Z</time></trkpt><trkpt lat="46.1417197" lon="9.3897928"><ele>211.60000000000002</ele><time>2026-04-26T07:03:00.687Z</time></trkpt><trkpt lat="46.1417691" lon="9.3899315"><ele>211.0</ele><time>2026-04-26T07:03:02.687Z</time></trkpt><trkpt lat="46.141819" lon="9.390067"><ele>211.0</ele><time>2026-04-26T07:03:04.686Z</time></trkpt><trkpt lat="46.1418559" lon="9.3901934"><ele>211.0</ele><time>2026-04-26T07:03:06.687Z</time></trkpt><trkpt lat="46.1418646" lon="9.3903291"><ele>211.0</ele><time>2026-04-26T07:03:08.687Z</time></trkpt><trkpt lat="46.1418472" lon="9.3904746"><ele>211.0</ele><time>2026-04-26T07:03:10.687Z</time></trkpt><trkpt lat="46.1418159" lon="9.3906297"><ele>211.0</ele><time>2026-04-26T07:03:12.686Z</time></trkpt><trkpt lat="46.1417954" lon="9.3907924"><ele>211.0</ele><time>2026-04-26T07:03:14.685Z</time></trkpt><trkpt lat="46.1417688" lon="9.3909526"><ele>211.0</ele><time>2026-04-26T07:03:16.686Z</time></trkpt><trkpt lat="46.1417506" lon="9.3911027"><ele>211.0</ele><time>2026-04-26T07:03:18.686Z</time></trkpt><trkpt lat="46.1417325" lon="9.3912462"><ele>211.0</ele><time>2026-04-26T07:03:20.686Z</time></trkpt><trkpt lat="46.1417105" lon="9.3913856"><ele>211.0</ele><time>2026-04-26T07:03:22.686Z</time></trkpt><trkpt lat="46.1416988" lon="9.3915199"><ele>211.16666666666666</ele><time>2026-04-26T07:03:24.686Z</time></trkpt><trkpt lat="46.1416524" lon="9.3916178"><ele>211.33333333333331</ele><time>2026-04-26T07:03:26.685Z</time></trkpt><trkpt lat="46.1415857" lon="9.3916578"><ele>211.5</ele><time>2026-04-26T07:03:28.685Z</time></trkpt><trkpt lat="46.1415" lon="9.391686"><ele>211.66666666666669</ele><time>2026-04-26T07:03:30.687Z</time></trkpt><trkpt lat="46.141412" lon="9.3917067"><ele>211.83333333333334</ele><time>2026-04-26T07:03:32.686Z</time></trkpt><trkpt lat="46.1413181" lon="9.3917021"><ele>212.0</ele><time>2026-04-26T07:03:34.686Z</time></trkpt><trkpt lat="46.1412316" lon="9.3916942"><ele>212.2</ele><time>2026-04-26T07:03:36.687Z</time></trkpt><trkpt lat="46.1411459" lon="9.3916837"><ele>212.39999999999998</ele><time>2026-04-26T07:03:38.685Z</time></trkpt><trkpt lat="46.1410547" lon="9.3916698"><ele>212.60000000000002</ele><time>2026-04-26T07:03:40.687Z</time></trkpt><trkpt lat="46.1409685" lon="9.3916305"><ele>212.8</ele><time>2026-04-26T07:03:42.686Z</time></trkpt><trkpt lat="46.1408774" lon="9.3915875"><ele>213.0</ele><time>2026-04-26T07:03:44.687Z</time></trkpt><trkpt lat="46.1407836" lon="9.3915493"><ele>213.66666666666666</ele><time>2026-04-26T07:03:46.686Z</time></trkpt><trkpt lat="46.140703" lon="9.3915288"><ele>214.33333333333331</ele><time>2026-04-26T07:03:48.686Z</time></trkpt><trkpt lat="46.1406157" lon="9.3914908"><ele>215.0</ele><time>2026-04-26T07:03:50.686Z</time></trkpt><trkpt lat="46.1405244" lon="9.3914662"><ele>215.66666666666666</ele><time>2026-04-26T07:03:52.687Z</time></trkpt><trkpt lat="46.1404391" lon="9.3914398"><ele>216.33333333333331</ele><time>2026-04-26T07:03:54.686Z</time></trkpt><trkpt lat="46.1403587" lon="9.3914086"><ele>217.0</ele><time>2026-04-26T07:03:56.685Z</time></trkpt><trkpt lat="46.140273" lon="9.3913888"><ele>216.99999999999997</ele><time>2026-04-26T07:03:58.686Z</time></trkpt><trkpt lat="46.1401936" lon="9.3913607"><ele>217.0</ele><time>2026-04-26T07:04:00.686Z</time></trkpt><trkpt lat="46.1401303" lon="9.3913364"><ele>217.0</ele><time>2026-04-26T07:04:02.686Z</time></trkpt><trkpt lat="46.1400565" lon="9.3913448"><ele>217.0</ele><time>2026-04-26T07:04:11.686Z</time></trkpt><trkpt lat="46.1400117" lon="9.3914442"><ele>216.99999999999997</ele><time>2026-04-26T07:04:15.686Z</time></trkpt><trkpt lat="46.1399972" lon="9.3915796"><ele>217.0</ele><time>2026-04-26T07:04:18.687Z</time></trkpt><trkpt lat="46.1399957" lon="9.3916952"><ele>217.0</ele><time>2026-04-26T07:04:20.686Z</time></trkpt><trkpt lat="46.1399969" lon="9.3918171"><ele>217.0</ele><time>2026-04-26T07:04:22.686Z</time></trkpt><trkpt lat="46.1399904" lon="9.3919332"><ele>217.0</ele><time>2026-04-26T07:04:24.686Z</time></trkpt><trkpt lat="46.1399916" lon="9.3920337"><ele>217.0</ele><time>2026-04-26T07:04:26.686Z</time></trkpt><trkpt lat="46.1400078" lon="9.392127"><ele>217.0</ele><time>2026-04-26T07:04:41.686Z</time></trkpt><trkpt lat="46.1400174" lon="9.392244"><ele>217.0</ele><time>2026-04-26T07:04:50.687Z</time></trkpt><trkpt lat="46.1400363" lon="9.3923338"><ele>217.0</ele><time>2026-04-26T07:04:56.687Z</time></trkpt><trkpt lat="46.1400453" lon="9.3924492"><ele>217.16666666666666</ele><time>2026-04-26T07:05:00.687Z</time></trkpt><trkpt lat="46.1400446" lon="9.392591"><ele>217.33333333333331</ele><time>2026-04-26T07:05:03.687Z</time></trkpt><trkpt lat="46.140043" lon="9.392703"><ele>217.5</ele><time>2026-04-26T07:05:05.686Z</time></trkpt><trkpt lat="46.1400437" lon="9.3928249"><ele>217.66666666666669</ele><time>2026-04-26T07:05:07.686Z</time></trkpt><trkpt lat="46.1400467" lon="9.3929555"><ele>217.83333333333334</ele><time>2026-04-26T07:05:09.687Z</time></trkpt><trkpt lat="46.1400486" lon="9.3930914"><ele>218.0</ele><time>2026-04-26T07:05:11.687Z</time></trkpt><trkpt lat="46.1400587" lon="9.3932354"><ele>218.0</ele><time>2026-04-26T07:05:13.687Z</time></trkpt><trkpt lat="46.1400366" lon="9.3933759"><ele>218.0</ele><time>2026-04-26T07:05:15.687Z</time></trkpt><trkpt lat="46.140028" lon="9.3935064"><ele>218.0</ele><time>2026-04-26T07:05:17.687Z</time></trkpt><trkpt lat="46.1400086" lon="9.3936541"><ele>218.0</ele><time>2026-04-26T07:05:19.686Z</time></trkpt><trkpt lat="46.1399811" lon="9.3937901"><ele>218.0</ele><time>2026-04-26T07:05:21.687Z</time></trkpt><trkpt lat="46.1399543" lon="9.3939262"><ele>218.0</ele><time>2026-04-26T07:05:23.687Z</time></trkpt><trkpt lat="46.1399381" lon="9.3940739"><ele>218.0</ele><time>2026-04-26T07:05:25.685Z</time></trkpt><trkpt lat="46.1399162" lon="9.3942227"><ele>218.0</ele><time>2026-04-26T07:05:27.686Z</time></trkpt><trkpt lat="46.1398905" lon="9.3943603"><ele>218.0</ele><time>2026-04-26T07:05:29.687Z</time></trkpt><trkpt lat="46.1398611" lon="9.3945178"><ele>218.0</ele><time>2026-04-26T07:05:31.686Z</time></trkpt><trkpt lat="46.1398289" lon="9.3946575"><ele>217.8</ele><time>2026-04-26T07:05:33.686Z</time></trkpt><trkpt lat="46.1397959" lon="9.3947966"><ele>217.60000000000002</ele><time>2026-04-26T07:05:35.686Z</time></trkpt><trkpt lat="46.1397581" lon="9.3949446"><ele>217.39999999999998</ele><time>2026-04-26T07:05:37.687Z</time></trkpt><trkpt lat="46.1397234" lon="9.3950793"><ele>217.2</ele><time>2026-04-26T07:05:39.688Z</time></trkpt><trkpt lat="46.1396808" lon="9.3952167"><ele>217.0</ele><time>2026-04-26T07:05:41.688Z</time></trkpt><trkpt lat="46.1396464" lon="9.395371"><ele>217.0</ele><time>2026-04-26T07:05:43.688Z</time></trkpt><trkpt lat="46.1396024" lon="9.3955083"><ele>217.0</ele><time>2026-04-26T07:05:45.687Z</time></trkpt><trkpt lat="46.1395747" lon="9.3956419"><ele>217.0</ele><time>2026-04-26T07:05:47.686Z</time></trkpt><trkpt lat="46.1395408" lon="9.3957788"><ele>217.0</ele><time>2026-04-26T07:05:49.687Z</time></trkpt><trkpt lat="46.1394995" lon="9.3958938"><ele>217.0</ele><time>2026-04-26T07:05:51.686Z</time></trkpt><trkpt lat="46.1394637" lon="9.3960228"><ele>216.99999999999997</ele><time>2026-04-26T07:05:53.686Z</time></trkpt><trkpt lat="46.1394301" lon="9.3961376"><ele>217.0</ele><time>2026-04-26T07:05:55.688Z</time></trkpt><trkpt lat="46.1393988" lon="9.3962329"><ele>217.0</ele><time>2026-04-26T07:05:57.687Z</time></trkpt><trkpt lat="46.139374" lon="9.3963531"><ele>217.0</ele><time>2026-04-26T07:05:59.687Z</time></trkpt><trkpt lat="46.1393472" lon="9.3964699"><ele>216.99999999999997</ele><time>2026-04-26T07:06:01.685Z</time></trkpt><trkpt lat="46.1393145" lon="9.3965982"><ele>217.0</ele><time>2026-04-26T07:06:03.686Z</time></trkpt><trkpt lat="46.1392725" lon="9.3967399"><ele>217.0</ele><time>2026-04-26T07:06:05.686Z</time></trkpt><trkpt lat="46.1392458" lon="9.3968703"><ele>217.0</ele><time>2026-04-26T07:06:07.688Z</time></trkpt><trkpt lat="46.1392176" lon="9.3969927"><ele>217.0</ele><time>2026-04-26T07:06:09.687Z</time></trkpt><trkpt lat="46.1391869" lon="9.3971274"><ele>217.0</ele><time>2026-04-26T07:06:11.687Z</time></trkpt><trkpt lat="46.1391486" lon="9.3972538"><ele>217.0</ele><time>2026-04-26T07:06:13.687Z</time></trkpt><trkpt lat="46.1391066" lon="9.3973925"><ele>216.8</ele><time>2026-04-26T07:06:15.688Z</time></trkpt><trkpt lat="46.1390734" lon="9.397528"><ele>216.6</ele><time>2026-04-26T07:06:17.687Z</time></trkpt><trkpt lat="46.1390359" lon="9.3976616"><ele>216.40000000000003</ele><time>2026-04-26T07:06:19.688Z</time></trkpt><trkpt lat="46.1390074" lon="9.397793"><ele>216.20000000000002</ele><time>2026-04-26T07:06:21.686Z</time></trkpt><trkpt lat="46.1389872" lon="9.3979356"><ele>216.0</ele><time>2026-04-26T07:06:23.687Z</time></trkpt><trkpt lat="46.1389543" lon="9.3980681"><ele>216.4</ele><time>2026-04-26T07:06:25.686Z</time></trkpt><trkpt lat="46.1389155" lon="9.3982069"><ele>216.8</ele><time>2026-04-26T07:06:27.687Z</time></trkpt><trkpt lat="46.1388841" lon="9.3983427"><ele>217.20000000000002</ele><time>2026-04-26T07:06:29.686Z</time></trkpt><trkpt lat="46.1388507" lon="9.3984804"><ele>217.60000000000002</ele><time>2026-04-26T07:06:31.686Z</time></trkpt><trkpt lat="46.1388214" lon="9.3986095"><ele>218.0</ele><time>2026-04-26T07:06:33.686Z</time></trkpt><trkpt lat="46.1387939" lon="9.398746"><ele>217.8</ele><time>2026-04-26T07:06:35.686Z</time></trkpt><trkpt lat="46.138753" lon="9.3988767"><ele>217.60000000000002</ele><time>2026-04-26T07:06:37.687Z</time></trkpt><trkpt lat="46.1387145" lon="9.3990159"><ele>217.39999999999998</ele><time>2026-04-26T07:06:39.688Z</time></trkpt><trkpt lat="46.1386813" lon="9.3991414"><ele>217.2</ele><time>2026-04-26T07:06:41.686Z</time></trkpt><trkpt lat="46.1386401" lon="9.399277"><ele>217.0</ele><time>2026-04-26T07:06:43.687Z</time></trkpt><trkpt lat="46.1386111" lon="9.3994097"><ele>217.0</ele><time>2026-04-26T07:06:45.686Z</time></trkpt><trkpt lat="46.1385711" lon="9.3995345"><ele>217.0</ele><time>2026-04-26T07:06:47.688Z</time></trkpt><trkpt lat="46.1385334" lon="9.3996693"><ele>217.0</ele><time>2026-04-26T07:06:49.688Z</time></trkpt><trkpt lat="46.1385029" lon="9.3998033"><ele>217.0</ele><time>2026-04-26T07:06:51.687Z</time></trkpt><trkpt lat="46.1384368" lon="9.3999482"><ele>217.0</ele><time>2026-04-26T07:06:53.687Z</time></trkpt><trkpt lat="46.1383929" lon="9.4000987"><ele>217.2</ele><time>2026-04-26T07:06:55.686Z</time></trkpt><trkpt lat="46.1383486" lon="9.4002438"><ele>217.39999999999998</ele><time>2026-04-26T07:06:57.686Z</time></trkpt><trkpt lat="46.1383087" lon="9.4003966"><ele>217.60000000000002</ele><time>2026-04-26T07:06:59.687Z</time></trkpt><trkpt lat="46.1382619" lon="9.4005482"><ele>217.8</ele><time>2026-04-26T07:07:01.687Z</time></trkpt><trkpt lat="46.1382374" lon="9.400703"><ele>218.0</ele><time>2026-04-26T07:07:03.687Z</time></trkpt><trkpt lat="46.138209" lon="9.4008549"><ele>218.0</ele><time>2026-04-26T07:07:05.687Z</time></trkpt><trkpt lat="46.1381778" lon="9.4010062"><ele>218.0</ele><time>2026-04-26T07:07:07.687Z</time></trkpt><trkpt lat="46.1381496" lon="9.4011503"><ele>218.0</ele><time>2026-04-26T07:07:09.686Z</time></trkpt><trkpt lat="46.1381154" lon="9.401295"><ele>218.0</ele><time>2026-04-26T07:07:11.687Z</time></trkpt><trkpt lat="46.1380956" lon="9.4014324"><ele>218.0</ele><time>2026-04-26T07:07:13.687Z</time></trkpt><trkpt lat="46.1380431" lon="9.4015766"><ele>217.60000000000002</ele><time>2026-04-26T07:07:15.687Z</time></trkpt><trkpt lat="46.1380164" lon="9.4017153"><ele>217.20000000000002</ele><time>2026-04-26T07:07:17.687Z</time></trkpt><trkpt lat="46.1379732" lon="9.4018585"><ele>216.8</ele><time>2026-04-26T07:07:19.687Z</time></trkpt><trkpt lat="46.1379417" lon="9.4019864"><ele>216.4</ele><time>2026-04-26T07:07:21.686Z</time></trkpt><trkpt lat="46.1379082" lon="9.4021229"><ele>216.0</ele><time>2026-04-26T07:07:23.687Z</time></trkpt><trkpt lat="46.1378735" lon="9.4022611"><ele>215.8</ele><time>2026-04-26T07:07:25.687Z</time></trkpt><trkpt lat="46.1378414" lon="9.4024144"><ele>215.60000000000002</ele><time>2026-04-26T07:07:27.688Z</time></trkpt><trkpt lat="46.1378151" lon="9.402571"><ele>215.4</ele><time>2026-04-26T07:07:29.686Z</time></trkpt><trkpt lat="46.1377735" lon="9.4027232"><ele>215.2</ele><time>2026-04-26T07:07:31.688Z</time></trkpt><trkpt lat="46.1377355" lon="9.4028755"><ele>215.0</ele><time>2026-04-26T07:07:33.688Z</time></trkpt><trkpt lat="46.1376947" lon="9.4030194"><ele>214.5</ele><time>2026-04-26T07:07:35.686Z</time></trkpt><trkpt lat="46.1376571" lon="9.4031768"><ele>214.0</ele><time>2026-04-26T07:07:37.686Z</time></trkpt><trkpt lat="46.1376081" lon="9.4033361"><ele>213.5</ele><time>2026-04-26T07:07:39.687Z</time></trkpt><trkpt lat="46.1375455" lon="9.4035812"><ele>213.0</ele><time>2026-04-26T07:07:42.687Z</time></trkpt><trkpt lat="46.137502" lon="9.4037519"><ele>213.2</ele><time>2026-04-26T07:07:44.687Z</time></trkpt><trkpt lat="46.1374572" lon="9.403911"><ele>213.4</ele><time>2026-04-26T07:07:46.687Z</time></trkpt><trkpt lat="46.1374364" lon="9.4040021"><ele>213.59999999999997</ele><time>2026-04-26T07:07:47.687Z</time></trkpt><trkpt lat="46.1373993" lon="9.4041513"><ele>213.79999999999998</ele><time>2026-04-26T07:07:49.687Z</time></trkpt><trkpt lat="46.1373564" lon="9.404292"><ele>214.0</ele><time>2026-04-26T07:07:51.687Z</time></trkpt><trkpt lat="46.1373183" lon="9.4044418"><ele>214.0</ele><time>2026-04-26T07:07:53.688Z</time></trkpt><trkpt lat="46.1372756" lon="9.4045854"><ele>213.99999999999997</ele><time>2026-04-26T07:07:55.687Z</time></trkpt><trkpt lat="46.1372358" lon="9.4047445"><ele>213.99999999999997</ele><time>2026-04-26T07:07:57.686Z</time></trkpt><trkpt lat="46.1372102" lon="9.4048301"><ele>214.0</ele><time>2026-04-26T07:07:58.686Z</time></trkpt><trkpt lat="46.1371863" lon="9.4049846"><ele>214.0</ele><time>2026-04-26T07:08:00.686Z</time></trkpt><trkpt lat="46.1371633" lon="9.4051442"><ele>213.79999999999998</ele><time>2026-04-26T07:08:02.686Z</time></trkpt><trkpt lat="46.1371231" lon="9.4052805"><ele>213.59999999999997</ele><time>2026-04-26T07:08:04.687Z</time></trkpt><trkpt lat="46.1371052" lon="9.4053711"><ele>213.4</ele><time>2026-04-26T07:08:05.687Z</time></trkpt><trkpt lat="46.1370718" lon="9.4055302"><ele>213.2</ele><time>2026-04-26T07:08:07.687Z</time></trkpt><trkpt lat="46.1370258" lon="9.4056958"><ele>213.0</ele><time>2026-04-26T07:08:09.688Z</time></trkpt><trkpt lat="46.1369934" lon="9.4058462"><ele>212.83333333333334</ele><time>2026-04-26T07:08:11.687Z</time></trkpt><trkpt lat="46.1369545" lon="9.4060151"><ele>212.66666666666669</ele><time>2026-04-26T07:08:13.688Z</time></trkpt><trkpt lat="46.1369143" lon="9.4061746"><ele>212.5</ele><time>2026-04-26T07:08:15.687Z</time></trkpt><trkpt lat="46.1368885" lon="9.4062654"><ele>212.33333333333334</ele><time>2026-04-26T07:08:16.687Z</time></trkpt><trkpt lat="46.1368682" lon="9.4063529"><ele>212.16666666666669</ele><time>2026-04-26T07:08:17.688Z</time></trkpt><trkpt lat="46.1368452" lon="9.4064405"><ele>212.0</ele><time>2026-04-26T07:08:18.686Z</time></trkpt><trkpt lat="46.136821" lon="9.4065253"><ele>212.00000000000003</ele><time>2026-04-26T07:08:19.686Z</time></trkpt><trkpt lat="46.1367966" lon="9.4066128"><ele>212.0</ele><time>2026-04-26T07:08:20.687Z</time></trkpt><trkpt lat="46.1367595" lon="9.4067807"><ele>212.0</ele><time>2026-04-26T07:08:22.688Z</time></trkpt><trkpt lat="46.136735" lon="9.4068709"><ele>212.0</ele><time>2026-04-26T07:08:23.687Z</time></trkpt><trkpt lat="46.1367147" lon="9.4069606"><ele>212.00000000000003</ele><time>2026-04-26T07:08:24.687Z</time></trkpt><trkpt lat="46.1366708" lon="9.4071234"><ele>212.0</ele><time>2026-04-26T07:08:26.687Z</time></trkpt><trkpt lat="46.1366486" lon="9.4072111"><ele>211.71428571428572</ele><time>2026-04-26T07:08:27.689Z</time></trkpt><trkpt lat="46.1366295" lon="9.4072978"><ele>211.42857142857142</ele><time>2026-04-26T07:08:28.687Z</time></trkpt><trkpt lat="46.1366063" lon="9.4073861"><ele>211.14285714285714</ele><time>2026-04-26T07:08:29.687Z</time></trkpt><trkpt lat="46.1365806" lon="9.407473"><ele>210.85714285714286</ele><time>2026-04-26T07:08:30.685Z</time></trkpt><trkpt lat="46.1365437" lon="9.4076453"><ele>210.57142857142856</ele><time>2026-04-26T07:08:32.687Z</time></trkpt><trkpt lat="46.1365222" lon="9.4077358"><ele>210.28571428571428</ele><time>2026-04-26T07:08:33.686Z</time></trkpt><trkpt lat="46.136501" lon="9.4078223"><ele>210.0</ele><time>2026-04-26T07:08:34.687Z</time></trkpt><trkpt lat="46.1364798" lon="9.407914"><ele>210.0</ele><time>2026-04-26T07:08:35.686Z</time></trkpt><trkpt lat="46.1364554" lon="9.4080028"><ele>210.0</ele><time>2026-04-26T07:08:36.686Z</time></trkpt><trkpt lat="46.1364343" lon="9.4080887"><ele>210.0</ele><time>2026-04-26T07:08:37.686Z</time></trkpt><trkpt lat="46.1364156" lon="9.4081756"><ele>210.0</ele><time>2026-04-26T07:08:38.687Z</time></trkpt><trkpt lat="46.1363695" lon="9.4083469"><ele>210.0</ele><time>2026-04-26T07:08:40.688Z</time></trkpt><trkpt lat="46.1363487" lon="9.4084327"><ele>210.0</ele><time>2026-04-26T07:08:41.686Z</time></trkpt><trkpt lat="46.1363017" lon="9.4085846"><ele>210.0</ele><time>2026-04-26T07:08:43.688Z</time></trkpt><trkpt lat="46.1362519" lon="9.4087583"><ele>210.0</ele><time>2026-04-26T07:08:45.687Z</time></trkpt><trkpt lat="46.1362203" lon="9.4089407"><ele>210.0</ele><time>2026-04-26T07:08:47.688Z</time></trkpt><trkpt lat="46.136204" lon="9.4090286"><ele>210.0</ele><time>2026-04-26T07:08:48.686Z</time></trkpt><trkpt lat="46.1361965" lon="9.4091273"><ele>210.0</ele><time>2026-04-26T07:08:49.687Z</time></trkpt><trkpt lat="46.1361929" lon="9.4092198"><ele>210.2</ele><time>2026-04-26T07:08:50.688Z</time></trkpt><trkpt lat="46.1361957" lon="9.4093852"><ele>210.4</ele><time>2026-04-26T07:08:52.687Z</time></trkpt><trkpt lat="46.1361991" lon="9.4094786"><ele>210.60000000000002</ele><time>2026-04-26T07:08:53.686Z</time></trkpt><trkpt lat="46.1362097" lon="9.4096532"><ele>210.8</ele><time>2026-04-26T07:08:55.688Z</time></trkpt><trkpt lat="46.1362424" lon="9.4098206"><ele>211.0</ele><time>2026-04-26T07:08:57.687Z</time></trkpt><trkpt lat="46.1362544" lon="9.4099111"><ele>212.75</ele><time>2026-04-26T07:08:58.686Z</time></trkpt><trkpt lat="46.136283" lon="9.4100852"><ele>214.5</ele><time>2026-04-26T07:09:00.686Z</time></trkpt><trkpt lat="46.136304" lon="9.4102504"><ele>216.25</ele><time>2026-04-26T07:09:02.687Z</time></trkpt><trkpt lat="46.1363304" lon="9.4104104"><ele>218.0</ele><time>2026-04-26T07:09:04.687Z</time></trkpt><trkpt lat="46.1363555" lon="9.4105764"><ele>218.4</ele><time>2026-04-26T07:09:06.687Z</time></trkpt><trkpt lat="46.1363791" lon="9.410735"><ele>218.8</ele><time>2026-04-26T07:09:08.687Z</time></trkpt><trkpt lat="46.1363829" lon="9.4108947"><ele>219.2</ele><time>2026-04-26T07:09:10.687Z</time></trkpt><trkpt lat="46.1364255" lon="9.4110368"><ele>219.6</ele><time>2026-04-26T07:09:12.687Z</time></trkpt><trkpt lat="46.1364696" lon="9.4111767"><ele>220.0</ele><time>2026-04-26T07:09:14.686Z</time></trkpt><trkpt lat="46.136504" lon="9.4112915"><ele>222.2</ele><time>2026-04-26T07:09:16.686Z</time></trkpt><trkpt lat="46.1365353" lon="9.4114183"><ele>224.4</ele><time>2026-04-26T07:09:18.688Z</time></trkpt><trkpt lat="46.1365635" lon="9.411546"><ele>226.60000000000002</ele><time>2026-04-26T07:09:20.687Z</time></trkpt><trkpt lat="46.1365928" lon="9.4117024"><ele>228.8</ele><time>2026-04-26T07:09:22.687Z</time></trkpt><trkpt lat="46.1366119" lon="9.4118531"><ele>231.0</ele><time>2026-04-26T07:09:24.688Z</time></trkpt><trkpt lat="46.1366345" lon="9.4119422"><ele>228.33333333333334</ele><time>2026-04-26T07:09:25.687Z</time></trkpt><trkpt lat="46.1366311" lon="9.412048"><ele>225.66666666666669</ele><time>2026-04-26T07:09:26.688Z</time></trkpt><trkpt lat="46.1366435" lon="9.4121415"><ele>223.0</ele><time>2026-04-26T07:09:27.687Z</time></trkpt><trkpt lat="46.1366347" lon="9.412262"><ele>220.33333333333334</ele><time>2026-04-26T07:09:28.687Z</time></trkpt><trkpt lat="46.1366555" lon="9.412359"><ele>217.66666666666669</ele><time>2026-04-26T07:09:29.687Z</time></trkpt><trkpt lat="46.1366649" lon="9.41248"><ele>215.0</ele><time>2026-04-26T07:09:30.688Z</time></trkpt><trkpt lat="46.1366799" lon="9.4125837"><ele>215.00000000000003</ele><time>2026-04-26T07:09:31.688Z</time></trkpt><trkpt lat="46.136701" lon="9.4126939"><ele>215.0</ele><time>2026-04-26T07:09:32.688Z</time></trkpt><trkpt lat="46.136717" lon="9.4127934"><ele>215.0</ele><time>2026-04-26T07:09:33.688Z</time></trkpt><trkpt lat="46.1367311" lon="9.4128867"><ele>215.0</ele><time>2026-04-26T07:09:34.688Z</time></trkpt><trkpt lat="46.1367277" lon="9.4130715"><ele>215.00000000000003</ele><time>2026-04-26T07:09:36.687Z</time></trkpt><trkpt lat="46.1367438" lon="9.4131675"><ele>215.0</ele><time>2026-04-26T07:09:37.688Z</time></trkpt><trkpt lat="46.1367748" lon="9.4133325"><ele>216.8</ele><time>2026-04-26T07:09:39.687Z</time></trkpt><trkpt lat="46.1368011" lon="9.4134977"><ele>218.6</ele><time>2026-04-26T07:09:41.687Z</time></trkpt><trkpt lat="46.1368499" lon="9.4135702"><ele>220.39999999999998</ele><time>2026-04-26T07:09:42.688Z</time></trkpt><trkpt lat="46.1369758" lon="9.4136215"><ele>222.2</ele><time>2026-04-26T07:09:44.686Z</time></trkpt><trkpt lat="46.1370378" lon="9.4135951"><ele>224.0</ele><time>2026-04-26T07:09:45.687Z</time></trkpt><trkpt lat="46.1371021" lon="9.4135652"><ele>224.0</ele><time>2026-04-26T07:09:46.687Z</time></trkpt><trkpt lat="46.1371679" lon="9.4135289"><ele>224.0</ele><time>2026-04-26T07:09:47.687Z</time></trkpt><trkpt lat="46.1372318" lon="9.4134877"><ele>224.0</ele><time>2026-04-26T07:09:48.687Z</time></trkpt><trkpt lat="46.137305" lon="9.4134766"><ele>224.0</ele><time>2026-04-26T07:09:49.688Z</time></trkpt><trkpt lat="46.1373713" lon="9.4135135"><ele>224.0</ele><time>2026-04-26T07:09:50.687Z</time></trkpt><trkpt lat="46.1374303" lon="9.4135806"><ele>224.0</ele><time>2026-04-26T07:09:51.688Z</time></trkpt><trkpt lat="46.1374681" lon="9.4136598"><ele>224.0</ele><time>2026-04-26T07:09:52.688Z</time></trkpt><trkpt lat="46.1375041" lon="9.4137397"><ele>220.71428571428572</ele><time>2026-04-26T07:09:53.688Z</time></trkpt><trkpt lat="46.1375523" lon="9.4138204"><ele>217.42857142857144</ele><time>2026-04-26T07:09:54.688Z</time></trkpt><trkpt lat="46.1376068" lon="9.4138951"><ele>214.14285714285714</ele><time>2026-04-26T07:09:55.688Z</time></trkpt><trkpt lat="46.1376685" lon="9.4139582"><ele>210.85714285714286</ele><time>2026-04-26T07:09:56.687Z</time></trkpt><trkpt lat="46.1377283" lon="9.4139942"><ele>207.57142857142858</ele><time>2026-04-26T07:09:57.687Z</time></trkpt><trkpt lat="46.1377959" lon="9.4140146"><ele>204.28571428571428</ele><time>2026-04-26T07:09:58.688Z</time></trkpt><trkpt lat="46.1378689" lon="9.4140184"><ele>201.0</ele><time>2026-04-26T07:09:59.688Z</time></trkpt><trkpt lat="46.1379356" lon="9.414006"><ele>201.0</ele><time>2026-04-26T07:10:00.687Z</time></trkpt><trkpt lat="46.1380087" lon="9.4139922"><ele>201.0</ele><time>2026-04-26T07:10:01.687Z</time></trkpt><trkpt lat="46.138073" lon="9.4139782"><ele>201.0</ele><time>2026-04-26T07:10:02.688Z</time></trkpt><trkpt lat="46.1381451" lon="9.4139554"><ele>201.0</ele><time>2026-04-26T07:10:03.687Z</time></trkpt><trkpt lat="46.1382655" lon="9.4139287"><ele>201.0</ele><time>2026-04-26T07:10:05.687Z</time></trkpt><trkpt lat="46.1383816" lon="9.4138922"><ele>200.83333333333334</ele><time>2026-04-26T07:10:07.687Z</time></trkpt><trkpt lat="46.1384442" lon="9.41387"><ele>200.66666666666669</ele><time>2026-04-26T07:10:08.687Z</time></trkpt><trkpt lat="46.1385552" lon="9.4138324"><ele>200.5</ele><time>2026-04-26T07:10:10.687Z</time></trkpt><trkpt lat="46.1386741" lon="9.4137952"><ele>200.33333333333334</ele><time>2026-04-26T07:10:12.688Z</time></trkpt><trkpt lat="46.1387424" lon="9.4137802"><ele>200.16666666666669</ele><time>2026-04-26T07:10:13.688Z</time></trkpt><trkpt lat="46.1388084" lon="9.4137637"><ele>200.0</ele><time>2026-04-26T07:10:14.687Z</time></trkpt><trkpt lat="46.138933" lon="9.4137451"><ele>200.0</ele><time>2026-04-26T07:10:16.688Z</time></trkpt><trkpt lat="46.1389953" lon="9.4137231"><ele>200.0</ele><time>2026-04-26T07:10:17.687Z</time></trkpt><trkpt lat="46.1391176" lon="9.4136878"><ele>200.0</ele><time>2026-04-26T07:10:19.687Z</time></trkpt><trkpt lat="46.1391795" lon="9.4136696"><ele>200.0</ele><time>2026-04-26T07:10:20.688Z</time></trkpt><trkpt lat="46.1392436" lon="9.4136522"><ele>200.0</ele><time>2026-04-26T07:10:21.687Z</time></trkpt><trkpt lat="46.1393758" lon="9.4136347"><ele>199.83333333333334</ele><time>2026-04-26T07:10:23.687Z</time></trkpt><trkpt lat="46.1394514" lon="9.4136154"><ele>199.66666666666669</ele><time>2026-04-26T07:10:24.687Z</time></trkpt><trkpt lat="46.1395183" lon="9.4135893"><ele>199.5</ele><time>2026-04-26T07:10:25.687Z</time></trkpt><trkpt lat="46.1395792" lon="9.4135628"><ele>199.33333333333331</ele><time>2026-04-26T07:10:26.687Z</time></trkpt><trkpt lat="46.1397073" lon="9.413533"><ele>199.16666666666666</ele><time>2026-04-26T07:10:28.688Z</time></trkpt><trkpt lat="46.1397797" lon="9.4135351"><ele>199.0</ele><time>2026-04-26T07:10:29.688Z</time></trkpt><trkpt lat="46.1398514" lon="9.4135585"><ele>198.79999999999998</ele><time>2026-04-26T07:10:30.687Z</time></trkpt><trkpt lat="46.1399103" lon="9.4136058"><ele>198.6</ele><time>2026-04-26T07:10:31.687Z</time></trkpt><trkpt lat="46.1400265" lon="9.4136823"><ele>198.4</ele><time>2026-04-26T07:10:33.688Z</time></trkpt><trkpt lat="46.1401223" lon="9.4137731"><ele>198.2</ele><time>2026-04-26T07:10:35.687Z</time></trkpt><trkpt lat="46.1402289" lon="9.4138562"><ele>198.0</ele><time>2026-04-26T07:10:37.688Z</time></trkpt><trkpt lat="46.1403197" lon="9.4139516"><ele>198.4</ele><time>2026-04-26T07:10:39.686Z</time></trkpt><trkpt lat="46.1404221" lon="9.4140399"><ele>198.8</ele><time>2026-04-26T07:10:41.688Z</time></trkpt><trkpt lat="46.1405259" lon="9.4141167"><ele>199.2</ele><time>2026-04-26T07:10:43.686Z</time></trkpt><trkpt lat="46.1406065" lon="9.4141823"><ele>199.6</ele><time>2026-04-26T07:10:45.687Z</time></trkpt><trkpt lat="46.1406545" lon="9.4142801"><ele>200.0</ele><time>2026-04-26T07:10:48.687Z</time></trkpt><trkpt lat="46.1406813" lon="9.414399"><ele>200.00000000000003</ele><time>2026-04-26T07:10:51.689Z</time></trkpt><trkpt lat="46.1406844" lon="9.4144995"><ele>200.0</ele><time>2026-04-26T07:10:53.687Z</time></trkpt><trkpt lat="46.1407271" lon="9.4145913"><ele>200.0</ele><time>2026-04-26T07:10:55.686Z</time></trkpt><trkpt lat="46.140806" lon="9.4146219"><ele>200.0</ele><time>2026-04-26T07:10:57.689Z</time></trkpt><trkpt lat="46.1408825" lon="9.4145657"><ele>200.00000000000003</ele><time>2026-04-26T07:10:59.687Z</time></trkpt><trkpt lat="46.1409274" lon="9.4144627"><ele>200.0</ele><time>2026-04-26T07:11:01.688Z</time></trkpt><trkpt lat="46.1409931" lon="9.4143574"><ele>199.8</ele><time>2026-04-26T07:11:03.688Z</time></trkpt><trkpt lat="46.1410873" lon="9.4143091"><ele>199.6</ele><time>2026-04-26T07:11:05.687Z</time></trkpt><trkpt lat="46.1411914" lon="9.4142722"><ele>199.39999999999998</ele><time>2026-04-26T07:11:07.686Z</time></trkpt><trkpt lat="46.1413005" lon="9.4142573"><ele>199.2</ele><time>2026-04-26T07:11:09.688Z</time></trkpt><trkpt lat="46.1414084" lon="9.4142532"><ele>199.0</ele><time>2026-04-26T07:11:11.687Z</time></trkpt><trkpt lat="46.1415095" lon="9.4142441"><ele>199.2</ele><time>2026-04-26T07:11:13.688Z</time></trkpt><trkpt lat="46.1416119" lon="9.4142438"><ele>199.39999999999998</ele><time>2026-04-26T07:11:15.687Z</time></trkpt><trkpt lat="46.1417061" lon="9.4143062"><ele>199.6</ele><time>2026-04-26T07:11:17.688Z</time></trkpt><trkpt lat="46.1417649" lon="9.4144278"><ele>199.8</ele><time>2026-04-26T07:11:19.687Z</time></trkpt><trkpt lat="46.1417779" lon="9.4145893"><ele>200.0</ele><time>2026-04-26T07:11:21.687Z</time></trkpt><trkpt lat="46.1417814" lon="9.4147399"><ele>200.0</ele><time>2026-04-26T07:11:23.688Z</time></trkpt><trkpt lat="46.1417916" lon="9.4148746"><ele>200.0</ele><time>2026-04-26T07:11:25.689Z</time></trkpt><trkpt lat="46.1418067" lon="9.4150342"><ele>200.0</ele><time>2026-04-26T07:11:27.688Z</time></trkpt><trkpt lat="46.141809" lon="9.4151603"><ele>200.0</ele><time>2026-04-26T07:11:29.688Z</time></trkpt><trkpt lat="46.141814" lon="9.4153134"><ele>200.0</ele><time>2026-04-26T07:11:31.688Z</time></trkpt><trkpt lat="46.1418286" lon="9.4154683"><ele>200.2</ele><time>2026-04-26T07:11:33.688Z</time></trkpt><trkpt lat="46.1418286" lon="9.4155994"><ele>200.4</ele><time>2026-04-26T07:11:35.687Z</time></trkpt><trkpt lat="46.1417915" lon="9.4157304"><ele>200.60000000000002</ele><time>2026-04-26T07:11:37.687Z</time></trkpt><trkpt lat="46.1417607" lon="9.4158852"><ele>200.8</ele><time>2026-04-26T07:11:39.688Z</time></trkpt><trkpt lat="46.1417685" lon="9.4160199"><ele>201.0</ele><time>2026-04-26T07:11:41.687Z</time></trkpt><trkpt lat="46.1417615" lon="9.4161242"><ele>201.0</ele><time>2026-04-26T07:11:43.688Z</time></trkpt><trkpt lat="46.1417492" lon="9.4162325"><ele>201.0</ele><time>2026-04-26T07:11:45.687Z</time></trkpt><trkpt lat="46.1417216" lon="9.4163463"><ele>201.0</ele><time>2026-04-26T07:11:47.688Z</time></trkpt><trkpt lat="46.1416967" lon="9.4164663"><ele>201.0</ele><time>2026-04-26T07:11:49.687Z</time></trkpt><trkpt lat="46.1417237" lon="9.4166022"><ele>201.0</ele><time>2026-04-26T07:11:51.687Z</time></trkpt><trkpt lat="46.1417978" lon="9.4166817"><ele>201.0</ele><time>2026-04-26T07:11:53.688Z</time></trkpt><trkpt lat="46.1418977" lon="9.4167027"><ele>201.0</ele><time>2026-04-26T07:11:55.687Z</time></trkpt><trkpt lat="46.1419944" lon="9.4166382"><ele>201.0</ele><time>2026-04-26T07:11:57.688Z</time></trkpt><trkpt lat="46.1420633" lon="9.4165199"><ele>201.0</ele><time>2026-04-26T07:11:59.687Z</time></trkpt><trkpt lat="46.1421081" lon="9.4163783"><ele>201.0</ele><time>2026-04-26T07:12:01.689Z</time></trkpt><trkpt lat="46.1421787" lon="9.4162578"><ele>201.0</ele><time>2026-04-26T07:12:03.688Z</time></trkpt><trkpt lat="46.1422737" lon="9.4161683"><ele>201.0</ele><time>2026-04-26T07:12:05.687Z</time></trkpt><trkpt lat="46.1423859" lon="9.4160825"><ele>201.0</ele><time>2026-04-26T07:12:07.689Z</time></trkpt><trkpt lat="46.1425065" lon="9.4160198"><ele>201.0</ele><time>2026-04-26T07:12:09.687Z</time></trkpt><trkpt lat="46.142639" lon="9.4160432"><ele>201.0</ele><time>2026-04-26T07:12:11.69Z</time></trkpt><trkpt lat="46.1427029" lon="9.4160644"><ele>201.0</ele><time>2026-04-26T07:12:12.687Z</time></trkpt><trkpt lat="46.1427699" lon="9.4160705"><ele>201.0</ele><time>2026-04-26T07:12:13.689Z</time></trkpt><trkpt lat="46.1428852" lon="9.4160602"><ele>201.0</ele><time>2026-04-26T07:12:15.688Z</time></trkpt><trkpt lat="46.1429962" lon="9.416041"><ele>201.0</ele><time>2026-04-26T07:12:17.689Z</time></trkpt><trkpt lat="46.1431006" lon="9.4160906"><ele>201.0</ele><time>2026-04-26T07:12:19.688Z</time></trkpt><trkpt lat="46.14314" lon="9.4162317"><ele>201.20000000000002</ele><time>2026-04-26T07:12:21.688Z</time></trkpt><trkpt lat="46.1431013" lon="9.4163712"><ele>201.4</ele><time>2026-04-26T07:12:23.687Z</time></trkpt><trkpt lat="46.1430741" lon="9.4165225"><ele>201.6</ele><time>2026-04-26T07:12:25.688Z</time></trkpt><trkpt lat="46.1430967" lon="9.4166679"><ele>201.8</ele><time>2026-04-26T07:12:27.687Z</time></trkpt><trkpt lat="46.1431752" lon="9.4167889"><ele>202.0</ele><time>2026-04-26T07:12:29.688Z</time></trkpt><trkpt lat="46.14326" lon="9.4168972"><ele>201.25</ele><time>2026-04-26T07:12:31.688Z</time></trkpt><trkpt lat="46.1433482" lon="9.4170089"><ele>200.5</ele><time>2026-04-26T07:12:33.688Z</time></trkpt><trkpt lat="46.1434287" lon="9.4171197"><ele>199.75</ele><time>2026-04-26T07:12:35.688Z</time></trkpt><trkpt lat="46.1434812" lon="9.4172749"><ele>199.0</ele><time>2026-04-26T07:12:37.687Z</time></trkpt><trkpt lat="46.1435045" lon="9.4174222"><ele>199.0</ele><time>2026-04-26T07:12:39.688Z</time></trkpt><trkpt lat="46.1435215" lon="9.4175665"><ele>199.0</ele><time>2026-04-26T07:12:41.687Z</time></trkpt><trkpt lat="46.1435305" lon="9.4177027"><ele>199.0</ele><time>2026-04-26T07:12:43.687Z</time></trkpt><trkpt lat="46.1435334" lon="9.4178629"><ele>199.0</ele><time>2026-04-26T07:12:45.689Z</time></trkpt><trkpt lat="46.1435371" lon="9.4180362"><ele>199.0</ele><time>2026-04-26T07:12:47.688Z</time></trkpt><trkpt lat="46.1435425" lon="9.4181809"><ele>199.0</ele><time>2026-04-26T07:12:49.688Z</time></trkpt><trkpt lat="46.1435897" lon="9.4183111"><ele>199.0</ele><time>2026-04-26T07:12:51.688Z</time></trkpt><trkpt lat="46.1436829" lon="9.4184036"><ele>199.0</ele><time>2026-04-26T07:12:53.687Z</time></trkpt><trkpt lat="46.1437809" lon="9.4184833"><ele>199.0</ele><time>2026-04-26T07:12:55.687Z</time></trkpt><trkpt lat="46.143868" lon="9.4185819"><ele>199.0</ele><time>2026-04-26T07:12:57.688Z</time></trkpt><trkpt lat="46.1439267" lon="9.4186944"><ele>199.2</ele><time>2026-04-26T07:12:59.688Z</time></trkpt><trkpt lat="46.1439597" lon="9.4188312"><ele>199.39999999999998</ele><time>2026-04-26T07:13:01.687Z</time></trkpt><trkpt lat="46.1439809" lon="9.4189869"><ele>199.6</ele><time>2026-04-26T07:13:03.689Z</time></trkpt><trkpt lat="46.1439961" lon="9.4191498"><ele>199.8</ele><time>2026-04-26T07:13:05.688Z</time></trkpt><trkpt lat="46.1440111" lon="9.4193055"><ele>200.0</ele><time>2026-04-26T07:13:07.688Z</time></trkpt><trkpt lat="46.1440237" lon="9.4194603"><ele>200.0</ele><time>2026-04-26T07:13:09.688Z</time></trkpt><trkpt lat="46.144037" lon="9.4196086"><ele>200.0</ele><time>2026-04-26T07:13:11.688Z</time></trkpt><trkpt lat="46.1440642" lon="9.4197627"><ele>200.0</ele><time>2026-04-26T07:13:13.688Z</time></trkpt><trkpt lat="46.1440822" lon="9.4199053"><ele>200.0</ele><time>2026-04-26T07:13:15.687Z</time></trkpt><trkpt lat="46.1440851" lon="9.4200655"><ele>200.0</ele><time>2026-04-26T07:13:17.687Z</time></trkpt><trkpt lat="46.1440916" lon="9.4201594"><ele>199.8</ele><time>2026-04-26T07:13:18.687Z</time></trkpt><trkpt lat="46.1440887" lon="9.4203007"><ele>199.6</ele><time>2026-04-26T07:13:20.688Z</time></trkpt><trkpt lat="46.1440834" lon="9.420444"><ele>199.39999999999998</ele><time>2026-04-26T07:13:22.689Z</time></trkpt><trkpt lat="46.1440586" lon="9.4205793"><ele>199.2</ele><time>2026-04-26T07:13:24.688Z</time></trkpt><trkpt lat="46.1440286" lon="9.4207017"><ele>199.0</ele><time>2026-04-26T07:13:26.689Z</time></trkpt><trkpt lat="46.1439917" lon="9.4208288"><ele>199.6</ele><time>2026-04-26T07:13:28.688Z</time></trkpt><trkpt lat="46.1439525" lon="9.4209357"><ele>200.2</ele><time>2026-04-26T07:13:30.689Z</time></trkpt><trkpt lat="46.1439192" lon="9.421057"><ele>200.79999999999998</ele><time>2026-04-26T07:13:32.688Z</time></trkpt><trkpt lat="46.1438883" lon="9.4211871"><ele>201.39999999999998</ele><time>2026-04-26T07:13:34.686Z</time></trkpt><trkpt lat="46.1438495" lon="9.4213101"><ele>202.0</ele><time>2026-04-26T07:13:36.688Z</time></trkpt><trkpt lat="46.1438139" lon="9.4214308"><ele>202.33333333333331</ele><time>2026-04-26T07:13:38.688Z</time></trkpt><trkpt lat="46.1437791" lon="9.4215465"><ele>202.66666666666666</ele><time>2026-04-26T07:13:40.688Z</time></trkpt><trkpt lat="46.1437436" lon="9.4216712"><ele>203.0</ele><time>2026-04-26T07:13:42.687Z</time></trkpt><trkpt lat="46.1437087" lon="9.4217801"><ele>203.33333333333331</ele><time>2026-04-26T07:13:44.687Z</time></trkpt><trkpt lat="46.1436826" lon="9.4218728"><ele>203.66666666666666</ele><time>2026-04-26T07:13:46.688Z</time></trkpt><trkpt lat="46.1436575" lon="9.4219656"><ele>204.0</ele><time>2026-04-26T07:13:50.688Z</time></trkpt><trkpt lat="46.1436489" lon="9.4220562"><ele>204.0</ele><time>2026-04-26T07:14:19.688Z</time></trkpt><trkpt lat="46.1436252" lon="9.4221471"><ele>204.0</ele><time>2026-04-26T07:14:22.687Z</time></trkpt><trkpt lat="46.1436032" lon="9.4222362"><ele>204.0</ele><time>2026-04-26T07:14:25.688Z</time></trkpt><trkpt lat="46.1435744" lon="9.422323"><ele>204.0</ele><time>2026-04-26T07:14:27.688Z</time></trkpt><trkpt lat="46.1435406" lon="9.4224196"><ele>204.0</ele><time>2026-04-26T07:14:29.687Z</time></trkpt><trkpt lat="46.1435075" lon="9.4225235"><ele>204.0</ele><time>2026-04-26T07:14:31.689Z</time></trkpt><trkpt lat="46.1434815" lon="9.4226406"><ele>204.0</ele><time>2026-04-26T07:14:33.688Z</time></trkpt><trkpt lat="46.1434384" lon="9.4227599"><ele>203.6</ele><time>2026-04-26T07:14:35.686Z</time></trkpt><trkpt lat="46.1433952" lon="9.4228831"><ele>203.2</ele><time>2026-04-26T07:14:37.688Z</time></trkpt><trkpt lat="46.1433591" lon="9.4229975"><ele>202.79999999999998</ele><time>2026-04-26T07:14:39.688Z</time></trkpt><trkpt lat="46.1433189" lon="9.4231193"><ele>202.39999999999998</ele><time>2026-04-26T07:14:41.688Z</time></trkpt><trkpt lat="46.1432812" lon="9.4232542"><ele>202.0</ele><time>2026-04-26T07:14:43.688Z</time></trkpt><trkpt lat="46.14325" lon="9.4233647"><ele>202.16666666666666</ele><time>2026-04-26T07:14:45.687Z</time></trkpt><trkpt lat="46.1432075" lon="9.4234835"><ele>202.33333333333331</ele><time>2026-04-26T07:14:47.687Z</time></trkpt><trkpt lat="46.143171" lon="9.4236075"><ele>202.5</ele><time>2026-04-26T07:14:49.688Z</time></trkpt><trkpt lat="46.1431439" lon="9.4237226"><ele>202.66666666666669</ele><time>2026-04-26T07:14:51.689Z</time></trkpt><trkpt lat="46.1431121" lon="9.4238382"><ele>202.83333333333334</ele><time>2026-04-26T07:14:53.688Z</time></trkpt><trkpt lat="46.1430732" lon="9.4239523"><ele>203.0</ele><time>2026-04-26T07:14:55.688Z</time></trkpt><trkpt lat="46.143037" lon="9.4240752"><ele>202.4</ele><time>2026-04-26T07:14:57.688Z</time></trkpt><trkpt lat="46.1430054" lon="9.424208"><ele>201.8</ele><time>2026-04-26T07:14:59.689Z</time></trkpt><trkpt lat="46.1429866" lon="9.4243112"><ele>201.2</ele><time>2026-04-26T07:15:01.688Z</time></trkpt><trkpt lat="46.1429599" lon="9.4244233"><ele>200.6</ele><time>2026-04-26T07:15:03.689Z</time></trkpt><trkpt lat="46.1429287" lon="9.4245649"><ele>200.0</ele><time>2026-04-26T07:15:05.687Z</time></trkpt><trkpt lat="46.142881" lon="9.4246929"><ele>200.0</ele><time>2026-04-26T07:15:07.688Z</time></trkpt><trkpt lat="46.1428308" lon="9.4248294"><ele>200.0</ele><time>2026-04-26T07:15:09.687Z</time></trkpt><trkpt lat="46.1428001" lon="9.4249638"><ele>200.0</ele><time>2026-04-26T07:15:11.688Z</time></trkpt><trkpt lat="46.1427608" lon="9.4251032"><ele>200.0</ele><time>2026-04-26T07:15:13.687Z</time></trkpt><trkpt lat="46.1427244" lon="9.4252273"><ele>200.0</ele><time>2026-04-26T07:15:15.689Z</time></trkpt><trkpt lat="46.1426898" lon="9.4253463"><ele>200.00000000000003</ele><time>2026-04-26T07:15:17.688Z</time></trkpt><trkpt lat="46.1426773" lon="9.4254383"><ele>200.0</ele><time>2026-04-26T07:15:19.688Z</time></trkpt><trkpt lat="46.142648" lon="9.4255263"><ele>200.0</ele><time>2026-04-26T07:15:21.689Z</time></trkpt><trkpt lat="46.1426257" lon="9.4256146"><ele>200.0</ele><time>2026-04-26T07:15:23.688Z</time></trkpt><trkpt lat="46.1425938" lon="9.4257188"><ele>200.0</ele><time>2026-04-26T07:15:25.688Z</time></trkpt><trkpt lat="46.1425572" lon="9.4258333"><ele>200.00000000000003</ele><time>2026-04-26T07:15:27.689Z</time></trkpt><trkpt lat="46.1425301" lon="9.4259491"><ele>200.0</ele><time>2026-04-26T07:15:29.688Z</time></trkpt><trkpt lat="46.142501" lon="9.4260505"><ele>200.16666666666669</ele><time>2026-04-26T07:15:31.688Z</time></trkpt><trkpt lat="46.1424655" lon="9.4261685"><ele>200.33333333333334</ele><time>2026-04-26T07:15:33.689Z</time></trkpt><trkpt lat="46.1424545" lon="9.4262666"><ele>200.5</ele><time>2026-04-26T07:15:35.688Z</time></trkpt><trkpt lat="46.1425238" lon="9.4263367"><ele>200.66666666666669</ele><time>2026-04-26T07:15:38.689Z</time></trkpt><trkpt lat="46.142599" lon="9.4263664"><ele>200.83333333333334</ele><time>2026-04-26T07:15:40.689Z</time></trkpt><trkpt lat="46.1426922" lon="9.4264023"><ele>201.0</ele><time>2026-04-26T07:15:42.688Z</time></trkpt><trkpt lat="46.1427909" lon="9.4264045"><ele>201.4</ele><time>2026-04-26T07:15:44.688Z</time></trkpt><trkpt lat="46.1428801" lon="9.4264192"><ele>201.8</ele><time>2026-04-26T07:15:46.689Z</time></trkpt><trkpt lat="46.1429846" lon="9.4264553"><ele>202.20000000000002</ele><time>2026-04-26T07:15:48.689Z</time></trkpt><trkpt lat="46.1431033" lon="9.4264811"><ele>202.60000000000002</ele><time>2026-04-26T07:15:50.688Z</time></trkpt><trkpt lat="46.1431679" lon="9.4264841"><ele>203.0</ele><time>2026-04-26T07:15:51.689Z</time></trkpt><trkpt lat="46.1432888" lon="9.4264852"><ele>203.0</ele><time>2026-04-26T07:15:53.688Z</time></trkpt><trkpt lat="46.1433998" lon="9.4264655"><ele>203.0</ele><time>2026-04-26T07:15:55.689Z</time></trkpt><trkpt lat="46.14351" lon="9.4264443"><ele>203.0</ele><time>2026-04-26T07:15:57.688Z</time></trkpt><trkpt lat="46.1436231" lon="9.4264123"><ele>203.0</ele><time>2026-04-26T07:15:59.688Z</time></trkpt><trkpt lat="46.1437396" lon="9.4263836"><ele>203.0</ele><time>2026-04-26T07:16:01.688Z</time></trkpt><trkpt lat="46.1438568" lon="9.4263617"><ele>203.0</ele><time>2026-04-26T07:16:03.689Z</time></trkpt><trkpt lat="46.1439745" lon="9.4263304"><ele>203.0</ele><time>2026-04-26T07:16:05.688Z</time></trkpt><trkpt lat="46.1440932" lon="9.4263039"><ele>203.0</ele><time>2026-04-26T07:16:07.689Z</time></trkpt><trkpt lat="46.1442121" lon="9.4262761"><ele>203.0</ele><time>2026-04-26T07:16:09.688Z</time></trkpt><trkpt lat="46.1443406" lon="9.4262823"><ele>203.0</ele><time>2026-04-26T07:16:11.689Z</time></trkpt><trkpt lat="46.1444084" lon="9.4262926"><ele>203.0</ele><time>2026-04-26T07:16:12.688Z</time></trkpt><trkpt lat="46.1445226" lon="9.4262935"><ele>203.0</ele><time>2026-04-26T07:16:14.688Z</time></trkpt><trkpt lat="46.1446298" lon="9.4263414"><ele>203.0</ele><time>2026-04-26T07:16:16.688Z</time></trkpt><trkpt lat="46.1446923" lon="9.4264548"><ele>203.00000000000003</ele><time>2026-04-26T07:16:18.689Z</time></trkpt><trkpt lat="46.1447027" lon="9.4266045"><ele>203.0</ele><time>2026-04-26T07:16:20.688Z</time></trkpt><trkpt lat="46.1446972" lon="9.4267434"><ele>203.0</ele><time>2026-04-26T07:16:22.688Z</time></trkpt><trkpt lat="46.1447035" lon="9.4268643"><ele>203.0</ele><time>2026-04-26T07:16:24.688Z</time></trkpt><trkpt lat="46.144734" lon="9.4269681"><ele>203.00000000000003</ele><time>2026-04-26T07:16:26.689Z</time></trkpt><trkpt lat="46.1447897" lon="9.4270397"><ele>203.0</ele><time>2026-04-26T07:16:28.689Z</time></trkpt><trkpt lat="46.1448478" lon="9.4270773"><ele>202.83333333333334</ele><time>2026-04-26T07:16:30.689Z</time></trkpt><trkpt lat="46.1449123" lon="9.4271077"><ele>202.66666666666669</ele><time>2026-04-26T07:16:32.689Z</time></trkpt><trkpt lat="46.1449681" lon="9.4272058"><ele>202.5</ele><time>2026-04-26T07:16:35.689Z</time></trkpt><trkpt lat="46.1449635" lon="9.4273072"><ele>202.33333333333331</ele><time>2026-04-26T07:16:37.689Z</time></trkpt><trkpt lat="46.1449312" lon="9.4274149"><ele>202.16666666666666</ele><time>2026-04-26T07:16:39.688Z</time></trkpt><trkpt lat="46.1448956" lon="9.4275371"><ele>202.0</ele><time>2026-04-26T07:16:41.688Z</time></trkpt><trkpt lat="46.1448528" lon="9.4276749"><ele>202.0</ele><time>2026-04-26T07:16:43.688Z</time></trkpt><trkpt lat="46.144808" lon="9.4278104"><ele>202.0</ele><time>2026-04-26T07:16:45.689Z</time></trkpt><trkpt lat="46.1447591" lon="9.4279448"><ele>202.0</ele><time>2026-04-26T07:16:47.688Z</time></trkpt><trkpt lat="46.144704" lon="9.4281073"><ele>202.0</ele><time>2026-04-26T07:16:49.688Z</time></trkpt><trkpt lat="46.1446429" lon="9.4282528"><ele>202.0</ele><time>2026-04-26T07:16:51.69Z</time></trkpt><trkpt lat="46.1445806" lon="9.4284139"><ele>202.0</ele><time>2026-04-26T07:16:53.689Z</time></trkpt><trkpt lat="46.1445218" lon="9.4285595"><ele>202.0</ele><time>2026-04-26T07:16:55.689Z</time></trkpt><trkpt lat="46.1444607" lon="9.4286974"><ele>202.0</ele><time>2026-04-26T07:16:57.688Z</time></trkpt><trkpt lat="46.1444066" lon="9.4288305"><ele>201.6</ele><time>2026-04-26T07:16:59.688Z</time></trkpt><trkpt lat="46.1443481" lon="9.4289712"><ele>201.2</ele><time>2026-04-26T07:17:01.689Z</time></trkpt><trkpt lat="46.14429" lon="9.4291054"><ele>200.8</ele><time>2026-04-26T07:17:03.688Z</time></trkpt><trkpt lat="46.1442419" lon="9.4292407"><ele>200.4</ele><time>2026-04-26T07:17:05.688Z</time></trkpt><trkpt lat="46.1441927" lon="9.4293639"><ele>200.0</ele><time>2026-04-26T07:17:07.689Z</time></trkpt><trkpt lat="46.1441524" lon="9.4294897"><ele>200.0</ele><time>2026-04-26T07:17:09.688Z</time></trkpt><trkpt lat="46.1441031" lon="9.4296191"><ele>200.0</ele><time>2026-04-26T07:17:11.689Z</time></trkpt><trkpt lat="46.1440436" lon="9.4297434"><ele>200.0</ele><time>2026-04-26T07:17:13.688Z</time></trkpt><trkpt lat="46.1439873" lon="9.4298788"><ele>200.0</ele><time>2026-04-26T07:17:15.688Z</time></trkpt><trkpt lat="46.1439386" lon="9.4299604"><ele>200.0</ele><time>2026-04-26T07:17:17.687Z</time></trkpt><trkpt lat="46.1438902" lon="9.4300873"><ele>200.2</ele><time>2026-04-26T07:17:19.688Z</time></trkpt><trkpt lat="46.1438444" lon="9.4302211"><ele>200.4</ele><time>2026-04-26T07:17:21.688Z</time></trkpt><trkpt lat="46.1437894" lon="9.4303547"><ele>200.60000000000002</ele><time>2026-04-26T07:17:23.689Z</time></trkpt><trkpt lat="46.1437419" lon="9.4304764"><ele>200.8</ele><time>2026-04-26T07:17:25.688Z</time></trkpt><trkpt lat="46.1437048" lon="9.4305857"><ele>201.0</ele><time>2026-04-26T07:17:27.688Z</time></trkpt><trkpt lat="46.1436553" lon="9.4307158"><ele>201.0</ele><time>2026-04-26T07:17:29.688Z</time></trkpt><trkpt lat="46.1436004" lon="9.4308576"><ele>201.0</ele><time>2026-04-26T07:17:31.689Z</time></trkpt><trkpt lat="46.1435462" lon="9.4309972"><ele>201.0</ele><time>2026-04-26T07:17:33.688Z</time></trkpt><trkpt lat="46.1434996" lon="9.4311363"><ele>201.0</ele><time>2026-04-26T07:17:35.688Z</time></trkpt><trkpt lat="46.1434441" lon="9.4312814"><ele>201.0</ele><time>2026-04-26T07:17:37.689Z</time></trkpt><trkpt lat="46.1433886" lon="9.4314186"><ele>201.0</ele><time>2026-04-26T07:17:39.689Z</time></trkpt><trkpt lat="46.1433329" lon="9.431552"><ele>201.0</ele><time>2026-04-26T07:17:41.689Z</time></trkpt><trkpt lat="46.1432868" lon="9.4316919"><ele>201.0</ele><time>2026-04-26T07:17:43.688Z</time></trkpt><trkpt lat="46.1432412" lon="9.4318308"><ele>201.0</ele><time>2026-04-26T07:17:45.69Z</time></trkpt><trkpt lat="46.1431953" lon="9.4319664"><ele>201.0</ele><time>2026-04-26T07:17:47.689Z</time></trkpt><trkpt lat="46.1431524" lon="9.4321045"><ele>200.8</ele><time>2026-04-26T07:17:49.688Z</time></trkpt><trkpt lat="46.1431097" lon="9.4322342"><ele>200.60000000000002</ele><time>2026-04-26T07:17:51.689Z</time></trkpt><trkpt lat="46.1430611" lon="9.4323708"><ele>200.4</ele><time>2026-04-26T07:17:53.688Z</time></trkpt><trkpt lat="46.1430206" lon="9.432518"><ele>200.2</ele><time>2026-04-26T07:17:55.689Z</time></trkpt><trkpt lat="46.14298" lon="9.4326594"><ele>200.0</ele><time>2026-04-26T07:17:57.688Z</time></trkpt><trkpt lat="46.1429451" lon="9.4327958"><ele>200.0</ele><time>2026-04-26T07:17:59.688Z</time></trkpt><trkpt lat="46.1429043" lon="9.4329455"><ele>200.0</ele><time>2026-04-26T07:18:01.689Z</time></trkpt><trkpt lat="46.1428664" lon="9.4330809"><ele>200.0</ele><time>2026-04-26T07:18:03.691Z</time></trkpt><trkpt lat="46.1428217" lon="9.4332258"><ele>200.0</ele><time>2026-04-26T07:18:05.688Z</time></trkpt><trkpt lat="46.1427816" lon="9.4333753"><ele>200.0</ele><time>2026-04-26T07:18:07.688Z</time></trkpt><trkpt lat="46.1427344" lon="9.4335175"><ele>200.2</ele><time>2026-04-26T07:18:09.689Z</time></trkpt><trkpt lat="46.1426916" lon="9.4336579"><ele>200.4</ele><time>2026-04-26T07:18:11.688Z</time></trkpt><trkpt lat="46.1426516" lon="9.4337985"><ele>200.60000000000002</ele><time>2026-04-26T07:18:13.689Z</time></trkpt><trkpt lat="46.1426017" lon="9.4339214"><ele>200.8</ele><time>2026-04-26T07:18:15.689Z</time></trkpt><trkpt lat="46.1425445" lon="9.4340473"><ele>201.0</ele><time>2026-04-26T07:18:17.689Z</time></trkpt><trkpt lat="46.1424633" lon="9.434132"><ele>201.0</ele><time>2026-04-26T07:18:19.688Z</time></trkpt><trkpt lat="46.1423697" lon="9.4341567"><ele>201.0</ele><time>2026-04-26T07:18:21.688Z</time></trkpt><trkpt lat="46.142265" lon="9.4341612"><ele>201.0</ele><time>2026-04-26T07:18:23.69Z</time></trkpt><trkpt lat="46.1421561" lon="9.4341527"><ele>201.0</ele><time>2026-04-26T07:18:25.688Z</time></trkpt><trkpt lat="46.1420543" lon="9.4341385"><ele>201.0</ele><time>2026-04-26T07:18:27.688Z</time></trkpt><trkpt lat="46.1419442" lon="9.4341569"><ele>201.0</ele><time>2026-04-26T07:18:29.689Z</time></trkpt><trkpt lat="46.1418295" lon="9.4341469"><ele>201.0</ele><time>2026-04-26T07:18:31.69Z</time></trkpt><trkpt lat="46.1417195" lon="9.4341503"><ele>201.0</ele><time>2026-04-26T07:18:33.689Z</time></trkpt><trkpt lat="46.1416116" lon="9.4341633"><ele>201.0</ele><time>2026-04-26T07:18:35.689Z</time></trkpt><trkpt lat="46.1415045" lon="9.4341673"><ele>201.0</ele><time>2026-04-26T07:18:37.688Z</time></trkpt><trkpt lat="46.1414011" lon="9.4341584"><ele>201.0</ele><time>2026-04-26T07:18:39.689Z</time></trkpt><trkpt lat="46.1412831" lon="9.4341625"><ele>201.0</ele><time>2026-04-26T07:18:41.689Z</time></trkpt><trkpt lat="46.1411147" lon="9.4341694"><ele>201.0</ele><time>2026-04-26T07:18:44.689Z</time></trkpt><trkpt lat="46.1410006" lon="9.4341659"><ele>201.0</ele><time>2026-04-26T07:18:46.688Z</time></trkpt><trkpt lat="46.1408856" lon="9.4341395"><ele>201.0</ele><time>2026-04-26T07:18:48.689Z</time></trkpt><trkpt lat="46.1407771" lon="9.4341231"><ele>201.0</ele><time>2026-04-26T07:18:50.69Z</time></trkpt><trkpt lat="46.1406691" lon="9.4341015"><ele>201.0</ele><time>2026-04-26T07:18:52.691Z</time></trkpt><trkpt lat="46.1405599" lon="9.4340861"><ele>201.0</ele><time>2026-04-26T07:18:54.688Z</time></trkpt><trkpt lat="46.1404383" lon="9.4340998"><ele>201.0</ele><time>2026-04-26T07:18:56.688Z</time></trkpt><trkpt lat="46.1403347" lon="9.4341698"><ele>201.0</ele><time>2026-04-26T07:18:58.689Z</time></trkpt><trkpt lat="46.1402665" lon="9.4342792"><ele>201.0</ele><time>2026-04-26T07:19:00.688Z</time></trkpt><trkpt lat="46.1402102" lon="9.4344284"><ele>201.0</ele><time>2026-04-26T07:19:02.688Z</time></trkpt><trkpt lat="46.1401574" lon="9.4345727"><ele>201.0</ele><time>2026-04-26T07:19:04.688Z</time></trkpt><trkpt lat="46.1401049" lon="9.4347166"><ele>201.0</ele><time>2026-04-26T07:19:06.688Z</time></trkpt><trkpt lat="46.1400655" lon="9.4348522"><ele>201.0</ele><time>2026-04-26T07:19:08.688Z</time></trkpt><trkpt lat="46.1400234" lon="9.4349975"><ele>201.0</ele><time>2026-04-26T07:19:10.688Z</time></trkpt><trkpt lat="46.1399825" lon="9.4351356"><ele>201.0</ele><time>2026-04-26T07:19:12.689Z</time></trkpt><trkpt lat="46.1399404" lon="9.4352693"><ele>201.0</ele><time>2026-04-26T07:19:14.69Z</time></trkpt><trkpt lat="46.1398935" lon="9.4354043"><ele>201.0</ele><time>2026-04-26T07:19:16.689Z</time></trkpt><trkpt lat="46.1398461" lon="9.4355388"><ele>201.0</ele><time>2026-04-26T07:19:18.688Z</time></trkpt><trkpt lat="46.1398123" lon="9.435688"><ele>201.0</ele><time>2026-04-26T07:19:20.69Z</time></trkpt><trkpt lat="46.1397733" lon="9.4358201"><ele>201.0</ele><time>2026-04-26T07:19:22.688Z</time></trkpt><trkpt lat="46.139725" lon="9.4359576"><ele>201.0</ele><time>2026-04-26T07:19:24.689Z</time></trkpt><trkpt lat="46.1396791" lon="9.4361082"><ele>201.0</ele><time>2026-04-26T07:19:26.69Z</time></trkpt><trkpt lat="46.1396418" lon="9.4362595"><ele>201.0</ele><time>2026-04-26T07:19:28.689Z</time></trkpt><trkpt lat="46.1396039" lon="9.4364093"><ele>201.0</ele><time>2026-04-26T07:19:30.688Z</time></trkpt><trkpt lat="46.1395545" lon="9.4365629"><ele>201.0</ele><time>2026-04-26T07:19:32.69Z</time></trkpt><trkpt lat="46.1395137" lon="9.4367063"><ele>201.0</ele><time>2026-04-26T07:19:34.689Z</time></trkpt><trkpt lat="46.1394738" lon="9.4368458"><ele>200.8</ele><time>2026-04-26T07:19:36.688Z</time></trkpt><trkpt lat="46.1394268" lon="9.4369964"><ele>200.60000000000002</ele><time>2026-04-26T07:19:38.69Z</time></trkpt><trkpt lat="46.1393936" lon="9.4371296"><ele>200.4</ele><time>2026-04-26T07:19:40.689Z</time></trkpt><trkpt lat="46.1393532" lon="9.4372731"><ele>200.2</ele><time>2026-04-26T07:19:42.69Z</time></trkpt><trkpt lat="46.13931" lon="9.4374389"><ele>200.0</ele><time>2026-04-26T07:19:44.69Z</time></trkpt><trkpt lat="46.1392859" lon="9.4375229"><ele>200.0</ele><time>2026-04-26T07:19:45.689Z</time></trkpt><trkpt lat="46.1392519" lon="9.437678"><ele>200.0</ele><time>2026-04-26T07:19:47.69Z</time></trkpt><trkpt lat="46.139213" lon="9.4378282"><ele>200.0</ele><time>2026-04-26T07:19:49.689Z</time></trkpt><trkpt lat="46.1391719" lon="9.4379681"><ele>200.0</ele><time>2026-04-26T07:19:51.69Z</time></trkpt><trkpt lat="46.1391432" lon="9.4381161"><ele>200.0</ele><time>2026-04-26T07:19:53.688Z</time></trkpt><trkpt lat="46.1391007" lon="9.4382567"><ele>200.2</ele><time>2026-04-26T07:19:55.688Z</time></trkpt><trkpt lat="46.1390554" lon="9.4384032"><ele>200.4</ele><time>2026-04-26T07:19:57.689Z</time></trkpt><trkpt lat="46.1390117" lon="9.4385511"><ele>200.60000000000002</ele><time>2026-04-26T07:19:59.688Z</time></trkpt><trkpt lat="46.1389827" lon="9.4386762"><ele>200.8</ele><time>2026-04-26T07:20:01.689Z</time></trkpt><trkpt lat="46.1389356" lon="9.4388186"><ele>201.0</ele><time>2026-04-26T07:20:03.69Z</time></trkpt><trkpt lat="46.1389067" lon="9.4389407"><ele>201.20000000000002</ele><time>2026-04-26T07:20:05.688Z</time></trkpt><trkpt lat="46.1388638" lon="9.4390906"><ele>201.4</ele><time>2026-04-26T07:20:07.689Z</time></trkpt><trkpt lat="46.1388252" lon="9.4392449"><ele>201.6</ele><time>2026-04-26T07:20:09.688Z</time></trkpt><trkpt lat="46.1387948" lon="9.4393945"><ele>201.8</ele><time>2026-04-26T07:20:11.69Z</time></trkpt><trkpt lat="46.1387743" lon="9.4395419"><ele>202.0</ele><time>2026-04-26T07:20:13.69Z</time></trkpt><trkpt lat="46.1387465" lon="9.4396871"><ele>202.2</ele><time>2026-04-26T07:20:15.688Z</time></trkpt><trkpt lat="46.1387294" lon="9.4398325"><ele>202.39999999999998</ele><time>2026-04-26T07:20:17.689Z</time></trkpt><trkpt lat="46.1387114" lon="9.4399906"><ele>202.60000000000002</ele><time>2026-04-26T07:20:19.69Z</time></trkpt><trkpt lat="46.1386938" lon="9.4401413"><ele>202.8</ele><time>2026-04-26T07:20:21.69Z</time></trkpt><trkpt lat="46.1386814" lon="9.4402927"><ele>203.0</ele><time>2026-04-26T07:20:23.688Z</time></trkpt><trkpt lat="46.1386739" lon="9.4404556"><ele>203.0</ele><time>2026-04-26T07:20:25.688Z</time></trkpt><trkpt lat="46.138667" lon="9.4406166"><ele>203.0</ele><time>2026-04-26T07:20:27.688Z</time></trkpt><trkpt lat="46.1386694" lon="9.4407741"><ele>203.0</ele><time>2026-04-26T07:20:29.688Z</time></trkpt><trkpt lat="46.1386696" lon="9.4409235"><ele>203.0</ele><time>2026-04-26T07:20:31.688Z</time></trkpt><trkpt lat="46.13867" lon="9.4410756"><ele>203.0</ele><time>2026-04-26T07:20:33.689Z</time></trkpt><trkpt lat="46.138674" lon="9.4412362"><ele>202.60000000000002</ele><time>2026-04-26T07:20:35.689Z</time></trkpt><trkpt lat="46.138667" lon="9.4413764"><ele>202.20000000000002</ele><time>2026-04-26T07:20:37.69Z</time></trkpt><trkpt lat="46.1386621" lon="9.4415249"><ele>201.8</ele><time>2026-04-26T07:20:39.689Z</time></trkpt><trkpt lat="46.1386693" lon="9.4416635"><ele>201.4</ele><time>2026-04-26T07:20:41.689Z</time></trkpt><trkpt lat="46.1386662" lon="9.4417861"><ele>201.0</ele><time>2026-04-26T07:20:43.221Z</time></trkpt><trkpt lat="46.1386665" lon="9.4419001"><ele>201.0</ele><time>2026-04-26T07:20:44.687Z</time></trkpt><trkpt lat="46.1386629" lon="9.4420498"><ele>201.0</ele><time>2026-04-26T07:20:46.694Z</time></trkpt><trkpt lat="46.138665" lon="9.4422031"><ele>201.0</ele><time>2026-04-26T07:20:48.695Z</time></trkpt><trkpt lat="46.1386602" lon="9.442364"><ele>201.0</ele><time>2026-04-26T07:20:50.695Z</time></trkpt><trkpt lat="46.1386639" lon="9.4425129"><ele>201.0</ele><time>2026-04-26T07:20:52.694Z</time></trkpt><trkpt lat="46.138659" lon="9.4426648"><ele>201.20000000000002</ele><time>2026-04-26T07:20:54.689Z</time></trkpt><trkpt lat="46.1386544" lon="9.4428141"><ele>201.4</ele><time>2026-04-26T07:20:56.684Z</time></trkpt><trkpt lat="46.1386566" lon="9.4429625"><ele>201.6</ele><time>2026-04-26T07:20:58.688Z</time></trkpt><trkpt lat="46.1386597" lon="9.4431026"><ele>201.8</ele><time>2026-04-26T07:21:00.696Z</time></trkpt><trkpt lat="46.1386649" lon="9.4432483"><ele>202.0</ele><time>2026-04-26T07:21:02.693Z</time></trkpt><trkpt lat="46.1386605" lon="9.4433931"><ele>202.0</ele><time>2026-04-26T07:21:04.684Z</time></trkpt><trkpt lat="46.138658" lon="9.443545"><ele>202.0</ele><time>2026-04-26T07:21:06.689Z</time></trkpt><trkpt lat="46.138661" lon="9.4436812"><ele>202.0</ele><time>2026-04-26T07:21:08.684Z</time></trkpt><trkpt lat="46.1386634" lon="9.4438174"><ele>202.0</ele><time>2026-04-26T07:21:10.685Z</time></trkpt><trkpt lat="46.1386695" lon="9.4439618"><ele>202.0</ele><time>2026-04-26T07:21:12.694Z</time></trkpt><trkpt lat="46.1386803" lon="9.4441064"><ele>202.2</ele><time>2026-04-26T07:21:14.696Z</time></trkpt><trkpt lat="46.1386765" lon="9.4442611"><ele>202.39999999999998</ele><time>2026-04-26T07:21:16.69Z</time></trkpt><trkpt lat="46.1386779" lon="9.4444111"><ele>202.60000000000002</ele><time>2026-04-26T07:21:18.686Z</time></trkpt><trkpt lat="46.1386779" lon="9.4445606"><ele>202.8</ele><time>2026-04-26T07:21:20.688Z</time></trkpt><trkpt lat="46.1386795" lon="9.4447013"><ele>203.0</ele><time>2026-04-26T07:21:22.691Z</time></trkpt><trkpt lat="46.1386782" lon="9.4448559"><ele>203.2</ele><time>2026-04-26T07:21:24.693Z</time></trkpt><trkpt lat="46.1386696" lon="9.4449964"><ele>203.4</ele><time>2026-04-26T07:21:26.694Z</time></trkpt><trkpt lat="46.1386651" lon="9.4451485"><ele>203.6</ele><time>2026-04-26T07:21:28.685Z</time></trkpt><trkpt lat="46.1386724" lon="9.4452962"><ele>203.79999999999998</ele><time>2026-04-26T07:21:30.689Z</time></trkpt><trkpt lat="46.1386643" lon="9.4454468"><ele>204.0</ele><time>2026-04-26T07:21:32.689Z</time></trkpt><trkpt lat="46.1386662" lon="9.445598"><ele>204.0</ele><time>2026-04-26T07:21:34.687Z</time></trkpt><trkpt lat="46.1386685" lon="9.4457402"><ele>204.0</ele><time>2026-04-26T07:21:36.696Z</time></trkpt><trkpt lat="46.1386727" lon="9.4458834"><ele>204.0</ele><time>2026-04-26T07:21:38.693Z</time></trkpt><trkpt lat="46.1386667" lon="9.4460225"><ele>204.0</ele><time>2026-04-26T07:21:40.689Z</time></trkpt><trkpt lat="46.1386601" lon="9.4461646"><ele>204.0</ele><time>2026-04-26T07:21:42.693Z</time></trkpt><trkpt lat="46.1386679" lon="9.4463045"><ele>204.0</ele><time>2026-04-26T07:21:44.691Z</time></trkpt><trkpt lat="46.1386729" lon="9.4464465"><ele>204.0</ele><time>2026-04-26T07:21:46.685Z</time></trkpt><trkpt lat="46.1386764" lon="9.4466027"><ele>204.0</ele><time>2026-04-26T07:21:48.685Z</time></trkpt><trkpt lat="46.1386747" lon="9.4467564"><ele>204.0</ele><time>2026-04-26T07:21:50.695Z</time></trkpt><trkpt lat="46.1386656" lon="9.4469121"><ele>204.0</ele><time>2026-04-26T07:21:52.685Z</time></trkpt><trkpt lat="46.1386633" lon="9.4470625"><ele>204.0</ele><time>2026-04-26T07:21:54.687Z</time></trkpt><trkpt lat="46.1386672" lon="9.4472044"><ele>204.0</ele><time>2026-04-26T07:21:56.693Z</time></trkpt><trkpt lat="46.1386619" lon="9.4473455"><ele>204.0</ele><time>2026-04-26T07:21:58.688Z</time></trkpt><trkpt lat="46.1386653" lon="9.4474841"><ele>204.0</ele><time>2026-04-26T07:22:00.683Z</time></trkpt><trkpt lat="46.1386642" lon="9.4476319"><ele>204.0</ele><time>2026-04-26T07:22:02.687Z</time></trkpt><trkpt lat="46.138659" lon="9.4477688"><ele>204.0</ele><time>2026-04-26T07:22:04.69Z</time></trkpt><trkpt lat="46.1386617" lon="9.4479166"><ele>204.0</ele><time>2026-04-26T07:22:06.694Z</time></trkpt><trkpt lat="46.138667" lon="9.4480594"><ele>204.0</ele><time>2026-04-26T07:22:08.686Z</time></trkpt><trkpt lat="46.1386717" lon="9.4482029"><ele>204.0</ele><time>2026-04-26T07:22:10.69Z</time></trkpt><trkpt lat="46.138667" lon="9.4483459"><ele>204.0</ele><time>2026-04-26T07:22:12.685Z</time></trkpt><trkpt lat="46.1386633" lon="9.4484961"><ele>204.0</ele><time>2026-04-26T07:22:14.69Z</time></trkpt><trkpt lat="46.1386627" lon="9.4486453"><ele>204.0</ele><time>2026-04-26T07:22:16.694Z</time></trkpt><trkpt lat="46.1386665" lon="9.4487984"><ele>204.0</ele><time>2026-04-26T07:22:18.686Z</time></trkpt><trkpt lat="46.1386583" lon="9.4489507"><ele>204.0</ele><time>2026-04-26T07:22:20.694Z</time></trkpt><trkpt lat="46.1386614" lon="9.4491068"><ele>204.0</ele><time>2026-04-26T07:22:22.686Z</time></trkpt><trkpt lat="46.1386706" lon="9.4492548"><ele>204.0</ele><time>2026-04-26T07:22:24.689Z</time></trkpt><trkpt lat="46.1386725" lon="9.4493971"><ele>204.0</ele><time>2026-04-26T07:22:26.694Z</time></trkpt><trkpt lat="46.1386683" lon="9.4495327"><ele>204.0</ele><time>2026-04-26T07:22:28.689Z</time></trkpt><trkpt lat="46.1386653" lon="9.4496779"><ele>204.0</ele><time>2026-04-26T07:22:30.688Z</time></trkpt><trkpt lat="46.1386654" lon="9.4498235"><ele>204.0</ele><time>2026-04-26T07:22:32.693Z</time></trkpt><trkpt lat="46.1386663" lon="9.4499821"><ele>204.2</ele><time>2026-04-26T07:22:34.684Z</time></trkpt><trkpt lat="46.1386691" lon="9.450135"><ele>204.39999999999998</ele><time>2026-04-26T07:22:36.692Z</time></trkpt><trkpt lat="46.1386669" lon="9.4502879"><ele>204.6</ele><time>2026-04-26T07:22:38.692Z</time></trkpt><trkpt lat="46.1386694" lon="9.4504347"><ele>204.8</ele><time>2026-04-26T07:22:40.694Z</time></trkpt><trkpt lat="46.1386645" lon="9.4505786"><ele>205.0</ele><time>2026-04-26T07:22:42.684Z</time></trkpt><trkpt lat="46.1386652" lon="9.4507193"><ele>205.2</ele><time>2026-04-26T07:22:44.691Z</time></trkpt><trkpt lat="46.1386653" lon="9.4508745"><ele>205.4</ele><time>2026-04-26T07:22:46.691Z</time></trkpt><trkpt lat="46.1386761" lon="9.4510125"><ele>205.60000000000002</ele><time>2026-04-26T07:22:48.683Z</time></trkpt><trkpt lat="46.1386822" lon="9.4511573"><ele>205.8</ele><time>2026-04-26T07:22:50.695Z</time></trkpt><trkpt lat="46.1386906" lon="9.4513025"><ele>206.0</ele><time>2026-04-26T07:22:52.687Z</time></trkpt><trkpt lat="46.1387095" lon="9.4514522"><ele>206.8</ele><time>2026-04-26T07:22:54.686Z</time></trkpt><trkpt lat="46.1387244" lon="9.451595"><ele>207.60000000000002</ele><time>2026-04-26T07:22:56.689Z</time></trkpt><trkpt lat="46.138738" lon="9.4517385"><ele>208.4</ele><time>2026-04-26T07:22:58.69Z</time></trkpt><trkpt lat="46.1387334" lon="9.4518817"><ele>209.2</ele><time>2026-04-26T07:23:00.696Z</time></trkpt><trkpt lat="46.1387205" lon="9.452023"><ele>210.0</ele><time>2026-04-26T07:23:02.691Z</time></trkpt><trkpt lat="46.1387095" lon="9.4521556"><ele>210.6</ele><time>2026-04-26T07:23:04.686Z</time></trkpt><trkpt lat="46.1386999" lon="9.4523019"><ele>211.2</ele><time>2026-04-26T07:23:06.694Z</time></trkpt><trkpt lat="46.1386908" lon="9.4524257"><ele>211.8</ele><time>2026-04-26T07:23:08.695Z</time></trkpt><trkpt lat="46.1386755" lon="9.4525592"><ele>212.4</ele><time>2026-04-26T07:23:10.685Z</time></trkpt><trkpt lat="46.1386679" lon="9.4527013"><ele>213.0</ele><time>2026-04-26T07:23:12.694Z</time></trkpt><trkpt lat="46.1386688" lon="9.4528391"><ele>213.0</ele><time>2026-04-26T07:23:14.692Z</time></trkpt><trkpt lat="46.138676" lon="9.452962"><ele>213.0</ele><time>2026-04-26T07:23:16.692Z</time></trkpt><trkpt lat="46.1386738" lon="9.4531031"><ele>213.0</ele><time>2026-04-26T07:23:18.695Z</time></trkpt><trkpt lat="46.1386827" lon="9.4532441"><ele>213.0</ele><time>2026-04-26T07:23:20.694Z</time></trkpt><trkpt lat="46.1386941" lon="9.453387"><ele>213.0</ele><time>2026-04-26T07:23:22.693Z</time></trkpt><trkpt lat="46.1387019" lon="9.4535435"><ele>213.0</ele><time>2026-04-26T07:23:24.689Z</time></trkpt><trkpt lat="46.1387012" lon="9.4536895"><ele>213.0</ele><time>2026-04-26T07:23:26.686Z</time></trkpt><trkpt lat="46.1387045" lon="9.4538293"><ele>213.0</ele><time>2026-04-26T07:23:28.685Z</time></trkpt><trkpt lat="46.1387043" lon="9.4539773"><ele>213.0</ele><time>2026-04-26T07:23:30.694Z</time></trkpt><trkpt lat="46.1387009" lon="9.4541184"><ele>213.0</ele><time>2026-04-26T07:23:32.684Z</time></trkpt><trkpt lat="46.1386951" lon="9.454251"><ele>213.0</ele><time>2026-04-26T07:23:34.685Z</time></trkpt><trkpt lat="46.1386849" lon="9.4543877"><ele>213.0</ele><time>2026-04-26T07:23:36.684Z</time></trkpt><trkpt lat="46.1386827" lon="9.4545271"><ele>213.0</ele><time>2026-04-26T07:23:38.693Z</time></trkpt><trkpt lat="46.138694" lon="9.4546723"><ele>213.0</ele><time>2026-04-26T07:23:40.683Z</time></trkpt><trkpt lat="46.1387009" lon="9.4548201"><ele>213.0</ele><time>2026-04-26T07:23:42.691Z</time></trkpt><trkpt lat="46.1386954" lon="9.454969"><ele>213.0</ele><time>2026-04-26T07:23:44.696Z</time></trkpt><trkpt lat="46.1387029" lon="9.4551213"><ele>213.0</ele><time>2026-04-26T07:23:46.693Z</time></trkpt><trkpt lat="46.138708" lon="9.4552712"><ele>213.0</ele><time>2026-04-26T07:23:48.696Z</time></trkpt><trkpt lat="46.1387131" lon="9.4554246"><ele>213.0</ele><time>2026-04-26T07:23:50.695Z</time></trkpt><trkpt lat="46.1387096" lon="9.4555756"><ele>213.0</ele><time>2026-04-26T07:23:52.684Z</time></trkpt><trkpt lat="46.1387153" lon="9.4557183"><ele>213.4</ele><time>2026-04-26T07:23:54.686Z</time></trkpt><trkpt lat="46.1387267" lon="9.4558673"><ele>213.8</ele><time>2026-04-26T07:23:56.694Z</time></trkpt><trkpt lat="46.1387713" lon="9.4559852"><ele>214.2</ele><time>2026-04-26T07:23:58.696Z</time></trkpt><trkpt lat="46.1388592" lon="9.4560583"><ele>214.6</ele><time>2026-04-26T07:24:00.686Z</time></trkpt><trkpt lat="46.1389726" lon="9.4560671"><ele>215.0</ele><time>2026-04-26T07:24:02.689Z</time></trkpt><trkpt lat="46.1390882" lon="9.4560625"><ele>213.4</ele><time>2026-04-26T07:24:04.686Z</time></trkpt><trkpt lat="46.1391551" lon="9.4560592"><ele>211.8</ele><time>2026-04-26T07:24:05.687Z</time></trkpt><trkpt lat="46.1392789" lon="9.456059"><ele>210.2</ele><time>2026-04-26T07:24:07.684Z</time></trkpt><trkpt lat="46.139395" lon="9.4560619"><ele>208.6</ele><time>2026-04-26T07:24:09.69Z</time></trkpt><trkpt lat="46.1395078" lon="9.4560743"><ele>207.0</ele><time>2026-04-26T07:24:11.69Z</time></trkpt><trkpt lat="46.1396198" lon="9.4560439"><ele>207.0</ele><time>2026-04-26T07:24:13.687Z</time></trkpt><trkpt lat="46.1397207" lon="9.456033"><ele>207.0</ele><time>2026-04-26T07:24:15.687Z</time></trkpt><trkpt lat="46.1398221" lon="9.4559669"><ele>207.0</ele><time>2026-04-26T07:24:17.695Z</time></trkpt><trkpt lat="46.1399051" lon="9.4558638"><ele>207.0</ele><time>2026-04-26T07:24:19.694Z</time></trkpt><trkpt lat="46.1399774" lon="9.4557406"><ele>207.0</ele><time>2026-04-26T07:24:21.69Z</time></trkpt><trkpt lat="46.1400537" lon="9.4555935"><ele>207.0</ele><time>2026-04-26T07:24:23.687Z</time></trkpt><trkpt lat="46.1401177" lon="9.4554335"><ele>207.0</ele><time>2026-04-26T07:24:25.689Z</time></trkpt><trkpt lat="46.1401454" lon="9.4553504"><ele>207.0</ele><time>2026-04-26T07:24:26.692Z</time></trkpt><trkpt lat="46.1401838" lon="9.4551784"><ele>207.0</ele><time>2026-04-26T07:24:28.696Z</time></trkpt><trkpt lat="46.1402058" lon="9.4550932"><ele>207.0</ele><time>2026-04-26T07:24:29.693Z</time></trkpt><trkpt lat="46.1402359" lon="9.4550109"><ele>207.0</ele><time>2026-04-26T07:24:30.696Z</time></trkpt><trkpt lat="46.1402777" lon="9.4548509"><ele>207.0</ele><time>2026-04-26T07:24:32.686Z</time></trkpt><trkpt lat="46.1403025" lon="9.4547664"><ele>207.0</ele><time>2026-04-26T07:24:33.69Z</time></trkpt><trkpt lat="46.1403265" lon="9.4546772"><ele>207.0</ele><time>2026-04-26T07:24:34.69Z</time></trkpt><trkpt lat="46.1403416" lon="9.4545842"><ele>207.0</ele><time>2026-04-26T07:24:35.683Z</time></trkpt><trkpt lat="46.1403917" lon="9.4544137"><ele>207.0</ele><time>2026-04-26T07:24:37.689Z</time></trkpt><trkpt lat="46.1404234" lon="9.4543273"><ele>207.0</ele><time>2026-04-26T07:24:38.692Z</time></trkpt><trkpt lat="46.1404592" lon="9.4542522"><ele>206.6</ele><time>2026-04-26T07:24:39.684Z</time></trkpt><trkpt lat="46.1405227" lon="9.4540942"><ele>206.2</ele><time>2026-04-26T07:24:41.69Z</time></trkpt><trkpt lat="46.1405875" lon="9.4539573"><ele>205.8</ele><time>2026-04-26T07:24:43.696Z</time></trkpt><trkpt lat="46.1406164" lon="9.4538699"><ele>205.4</ele><time>2026-04-26T07:24:44.693Z</time></trkpt><trkpt lat="46.1406527" lon="9.4537169"><ele>205.0</ele><time>2026-04-26T07:24:46.687Z</time></trkpt><trkpt lat="46.1407078" lon="9.4535851"><ele>204.83333333333331</ele><time>2026-04-26T07:24:48.684Z</time></trkpt><trkpt lat="46.1407988" lon="9.4535123"><ele>204.66666666666666</ele><time>2026-04-26T07:24:50.686Z</time></trkpt><trkpt lat="46.1409266" lon="9.4534374"><ele>204.5</ele><time>2026-04-26T07:24:52.694Z</time></trkpt><trkpt lat="46.1409911" lon="9.4534154"><ele>204.33333333333331</ele><time>2026-04-26T07:24:53.685Z</time></trkpt><trkpt lat="46.1410553" lon="9.4533859"><ele>204.16666666666666</ele><time>2026-04-26T07:24:54.691Z</time></trkpt><trkpt lat="46.1411179" lon="9.4533509"><ele>204.0</ele><time>2026-04-26T07:24:55.691Z</time></trkpt><trkpt lat="46.1411797" lon="9.4533106"><ele>204.0</ele><time>2026-04-26T07:24:56.693Z</time></trkpt><trkpt lat="46.1412405" lon="9.453277"><ele>204.0</ele><time>2026-04-26T07:24:57.692Z</time></trkpt><trkpt lat="46.1413016" lon="9.4532433"><ele>204.0</ele><time>2026-04-26T07:24:58.696Z</time></trkpt><trkpt lat="46.1413702" lon="9.4531967"><ele>204.0</ele><time>2026-04-26T07:24:59.688Z</time></trkpt><trkpt lat="46.1414378" lon="9.4531546"><ele>204.0</ele><time>2026-04-26T07:25:00.691Z</time></trkpt><trkpt lat="46.1415075" lon="9.4531209"><ele>204.0</ele><time>2026-04-26T07:25:01.689Z</time></trkpt><trkpt lat="46.1415761" lon="9.4530854"><ele>204.0</ele><time>2026-04-26T07:25:02.686Z</time></trkpt><trkpt lat="46.1416431" lon="9.4530501"><ele>204.0</ele><time>2026-04-26T07:25:03.686Z</time></trkpt><trkpt lat="46.1417179" lon="9.4530063"><ele>204.0</ele><time>2026-04-26T07:25:04.685Z</time></trkpt><trkpt lat="46.1417814" lon="9.452963"><ele>204.0</ele><time>2026-04-26T07:25:05.687Z</time></trkpt><trkpt lat="46.1418442" lon="9.4529351"><ele>204.0</ele><time>2026-04-26T07:25:06.684Z</time></trkpt><trkpt lat="46.1419615" lon="9.4528794"><ele>204.0</ele><time>2026-04-26T07:25:08.692Z</time></trkpt><trkpt lat="46.1420663" lon="9.4528007"><ele>203.79999999999998</ele><time>2026-04-26T07:25:10.693Z</time></trkpt><trkpt lat="46.1421601" lon="9.4527329"><ele>203.6</ele><time>2026-04-26T07:25:12.696Z</time></trkpt><trkpt lat="46.142271" lon="9.4527281"><ele>203.4</ele><time>2026-04-26T07:25:14.69Z</time></trkpt><trkpt lat="46.1423404" lon="9.4527572"><ele>203.2</ele><time>2026-04-26T07:25:15.693Z</time></trkpt><trkpt lat="46.1424503" lon="9.4528294"><ele>203.0</ele><time>2026-04-26T07:25:17.684Z</time></trkpt><trkpt lat="46.1425129" lon="9.4528523"><ele>203.0</ele><time>2026-04-26T07:25:18.693Z</time></trkpt><trkpt lat="46.1425856" lon="9.4528753"><ele>203.0</ele><time>2026-04-26T07:25:19.685Z</time></trkpt><trkpt lat="46.1426985" lon="9.4529167"><ele>203.0</ele><time>2026-04-26T07:25:21.687Z</time></trkpt><trkpt lat="46.1428192" lon="9.4529105"><ele>203.0</ele><time>2026-04-26T07:25:23.691Z</time></trkpt><trkpt lat="46.1429373" lon="9.4528997"><ele>203.0</ele><time>2026-04-26T07:25:25.689Z</time></trkpt><trkpt lat="46.1430039" lon="9.4528871"><ele>203.0</ele><time>2026-04-26T07:25:26.687Z</time></trkpt><trkpt lat="46.1431271" lon="9.452875"><ele>203.0</ele><time>2026-04-26T07:25:28.697Z</time></trkpt><trkpt lat="46.1432338" lon="9.4528704"><ele>203.0</ele><time>2026-04-26T07:25:30.688Z</time></trkpt><trkpt lat="46.1433471" lon="9.4528616"><ele>203.0</ele><time>2026-04-26T07:25:32.69Z</time></trkpt><trkpt lat="46.1434539" lon="9.4528583"><ele>203.0</ele><time>2026-04-26T07:25:34.694Z</time></trkpt><trkpt lat="46.1435754" lon="9.4528647"><ele>203.0</ele><time>2026-04-26T07:25:36.686Z</time></trkpt><trkpt lat="46.1436826" lon="9.4529111"><ele>203.0</ele><time>2026-04-26T07:25:38.689Z</time></trkpt><trkpt lat="46.1437867" lon="9.4529799"><ele>203.0</ele><time>2026-04-26T07:25:40.685Z</time></trkpt><trkpt lat="46.143872" lon="9.4530781"><ele>203.0</ele><time>2026-04-26T07:25:42.696Z</time></trkpt><trkpt lat="46.1439467" lon="9.4531849"><ele>203.0</ele><time>2026-04-26T07:25:44.696Z</time></trkpt><trkpt lat="46.1439836" lon="9.4533221"><ele>203.0</ele><time>2026-04-26T07:25:46.697Z</time></trkpt><trkpt lat="46.1440007" lon="9.4534606"><ele>203.0</ele><time>2026-04-26T07:25:48.697Z</time></trkpt><trkpt lat="46.1440242" lon="9.4536047"><ele>203.0</ele><time>2026-04-26T07:25:50.697Z</time></trkpt><trkpt lat="46.1440558" lon="9.453744"><ele>203.0</ele><time>2026-04-26T07:25:52.696Z</time></trkpt><trkpt lat="46.1440941" lon="9.4538869"><ele>203.0</ele><time>2026-04-26T07:25:54.696Z</time></trkpt><trkpt lat="46.1441321" lon="9.4540289"><ele>203.0</ele><time>2026-04-26T07:25:56.697Z</time></trkpt><trkpt lat="46.1441705" lon="9.4541661"><ele>203.0</ele><time>2026-04-26T07:25:58.696Z</time></trkpt><trkpt lat="46.1442097" lon="9.4542941"><ele>203.0</ele><time>2026-04-26T07:26:00.696Z</time></trkpt><trkpt lat="46.144272" lon="9.4543809"><ele>203.0</ele><time>2026-04-26T07:26:02.696Z</time></trkpt><trkpt lat="46.1443551" lon="9.4544347"><ele>203.0</ele><time>2026-04-26T07:26:04.696Z</time></trkpt><trkpt lat="46.1444401" lon="9.4544569"><ele>203.0</ele><time>2026-04-26T07:26:06.697Z</time></trkpt><trkpt lat="46.1445341" lon="9.4544749"><ele>203.0</ele><time>2026-04-26T07:26:08.696Z</time></trkpt><trkpt lat="46.1446232" lon="9.4545247"><ele>203.0</ele><time>2026-04-26T07:26:10.697Z</time></trkpt><trkpt lat="46.1447257" lon="9.4545694"><ele>203.60000000000002</ele><time>2026-04-26T07:26:12.697Z</time></trkpt><trkpt lat="46.144822" lon="9.4546314"><ele>204.20000000000002</ele><time>2026-04-26T07:26:14.696Z</time></trkpt><trkpt lat="46.1449217" lon="9.4546945"><ele>204.8</ele><time>2026-04-26T07:26:16.697Z</time></trkpt><trkpt lat="46.1450366" lon="9.4547376"><ele>205.4</ele><time>2026-04-26T07:26:18.696Z</time></trkpt><trkpt lat="46.1451275" lon="9.4548021"><ele>206.0</ele><time>2026-04-26T07:26:20.696Z</time></trkpt><trkpt lat="46.1452139" lon="9.4548631"><ele>206.0</ele><time>2026-04-26T07:26:22.696Z</time></trkpt><trkpt lat="46.1453078" lon="9.454921"><ele>206.0</ele><time>2026-04-26T07:26:24.696Z</time></trkpt><trkpt lat="46.1453955" lon="9.454983"><ele>206.0</ele><time>2026-04-26T07:26:26.696Z</time></trkpt><trkpt lat="46.1454922" lon="9.4550361"><ele>206.0</ele><time>2026-04-26T07:26:28.697Z</time></trkpt><trkpt lat="46.1456065" lon="9.4550802"><ele>206.0</ele><time>2026-04-26T07:26:30.697Z</time></trkpt><trkpt lat="46.1457206" lon="9.4551081"><ele>205.0</ele><time>2026-04-26T07:26:32.696Z</time></trkpt><trkpt lat="46.1458319" lon="9.4551344"><ele>204.0</ele><time>2026-04-26T07:26:34.697Z</time></trkpt><trkpt lat="46.1459278" lon="9.4551872"><ele>203.0</ele><time>2026-04-26T07:26:36.696Z</time></trkpt><trkpt lat="46.1460182" lon="9.4552361"><ele>202.0</ele><time>2026-04-26T07:26:38.696Z</time></trkpt><trkpt lat="46.1461289" lon="9.4552872"><ele>201.0</ele><time>2026-04-26T07:26:40.697Z</time></trkpt><trkpt lat="46.1462314" lon="9.4553347"><ele>201.0</ele><time>2026-04-26T07:26:42.697Z</time></trkpt><trkpt lat="46.1463415" lon="9.4553823"><ele>201.0</ele><time>2026-04-26T07:26:44.697Z</time></trkpt><trkpt lat="46.1464482" lon="9.4554314"><ele>201.0</ele><time>2026-04-26T07:26:46.697Z</time></trkpt><trkpt lat="46.1465388" lon="9.45549"><ele>201.0</ele><time>2026-04-26T07:26:48.696Z</time></trkpt><trkpt lat="46.1466406" lon="9.455553"><ele>201.0</ele><time>2026-04-26T07:26:50.697Z</time></trkpt><trkpt lat="46.1467435" lon="9.4556156"><ele>201.20000000000002</ele><time>2026-04-26T07:26:52.697Z</time></trkpt><trkpt lat="46.1468403" lon="9.45569"><ele>201.4</ele><time>2026-04-26T07:26:54.696Z</time></trkpt><trkpt lat="46.1469335" lon="9.4557568"><ele>201.6</ele><time>2026-04-26T07:26:56.696Z</time></trkpt><trkpt lat="46.1470291" lon="9.4558218"><ele>201.8</ele><time>2026-04-26T07:26:58.697Z</time></trkpt><trkpt lat="46.1471193" lon="9.4558923"><ele>202.0</ele><time>2026-04-26T07:27:00.697Z</time></trkpt><trkpt lat="46.1472154" lon="9.4559707"><ele>202.0</ele><time>2026-04-26T07:27:02.696Z</time></trkpt><trkpt lat="46.147314" lon="9.4560436"><ele>202.0</ele><time>2026-04-26T07:27:04.697Z</time></trkpt><trkpt lat="46.1474128" lon="9.4561189"><ele>202.0</ele><time>2026-04-26T07:27:06.697Z</time></trkpt><trkpt lat="46.1475013" lon="9.4562026"><ele>202.0</ele><time>2026-04-26T07:27:08.696Z</time></trkpt><trkpt lat="46.1475924" lon="9.4562794"><ele>202.0</ele><time>2026-04-26T07:27:10.696Z</time></trkpt><trkpt lat="46.1476835" lon="9.4563687"><ele>202.6</ele><time>2026-04-26T07:27:12.697Z</time></trkpt><trkpt lat="46.1477613" lon="9.4564457"><ele>203.2</ele><time>2026-04-26T07:27:14.697Z</time></trkpt><trkpt lat="46.1478387" lon="9.4565298"><ele>203.8</ele><time>2026-04-26T07:27:16.696Z</time></trkpt><trkpt lat="46.1479236" lon="9.4566283"><ele>204.4</ele><time>2026-04-26T07:27:18.696Z</time></trkpt><trkpt lat="46.1480029" lon="9.4567201"><ele>205.0</ele><time>2026-04-26T07:27:20.696Z</time></trkpt><trkpt lat="46.1480789" lon="9.4568043"><ele>205.0</ele><time>2026-04-26T07:27:22.697Z</time></trkpt><trkpt lat="46.1481482" lon="9.4568802"><ele>205.0</ele><time>2026-04-26T07:27:24.697Z</time></trkpt><trkpt lat="46.1482375" lon="9.4569522"><ele>205.0</ele><time>2026-04-26T07:27:26.697Z</time></trkpt><trkpt lat="46.1483486" lon="9.4571107"><ele>205.0</ele><time>2026-04-26T07:27:29.697Z</time></trkpt><trkpt lat="46.1484241" lon="9.4572185"><ele>204.4</ele><time>2026-04-26T07:27:31.696Z</time></trkpt><trkpt lat="46.148515" lon="9.4573222"><ele>203.8</ele><time>2026-04-26T07:27:33.697Z</time></trkpt><trkpt lat="46.1485847" lon="9.4574161"><ele>203.2</ele><time>2026-04-26T07:27:35.697Z</time></trkpt><trkpt lat="46.1486655" lon="9.4575303"><ele>202.6</ele><time>2026-04-26T07:27:37.696Z</time></trkpt><trkpt lat="46.1487405" lon="9.4576273"><ele>202.0</ele><time>2026-04-26T07:27:39.696Z</time></trkpt><trkpt lat="46.1488231" lon="9.4577468"><ele>202.0</ele><time>2026-04-26T07:27:41.697Z</time></trkpt><trkpt lat="46.1488978" lon="9.4578252"><ele>202.0</ele><time>2026-04-26T07:27:43.697Z</time></trkpt><trkpt lat="46.1489671" lon="9.4579305"><ele>202.0</ele><time>2026-04-26T07:27:45.696Z</time></trkpt><trkpt lat="46.1490339" lon="9.4580502"><ele>202.0</ele><time>2026-04-26T07:27:47.696Z</time></trkpt><trkpt lat="46.1490928" lon="9.4581556"><ele>202.0</ele><time>2026-04-26T07:27:49.696Z</time></trkpt><trkpt lat="46.1491557" lon="9.4582684"><ele>202.2</ele><time>2026-04-26T07:27:51.696Z</time></trkpt><trkpt lat="46.1492083" lon="9.4583997"><ele>202.39999999999998</ele><time>2026-04-26T07:27:53.697Z</time></trkpt><trkpt lat="46.1492801" lon="9.4585193"><ele>202.60000000000002</ele><time>2026-04-26T07:27:55.697Z</time></trkpt><trkpt lat="46.1493425" lon="9.4586408"><ele>202.8</ele><time>2026-04-26T07:27:57.696Z</time></trkpt><trkpt lat="46.1494043" lon="9.4587615"><ele>203.0</ele><time>2026-04-26T07:27:59.697Z</time></trkpt><trkpt lat="46.1494704" lon="9.4588918"><ele>203.0</ele><time>2026-04-26T07:28:01.696Z</time></trkpt><trkpt lat="46.1495138" lon="9.4590195"><ele>203.0</ele><time>2026-04-26T07:28:03.696Z</time></trkpt><trkpt lat="46.1495449" lon="9.4591642"><ele>203.0</ele><time>2026-04-26T07:28:05.696Z</time></trkpt><trkpt lat="46.1495397" lon="9.459321"><ele>203.0</ele><time>2026-04-26T07:28:07.697Z</time></trkpt><trkpt lat="46.1495452" lon="9.4594756"><ele>203.0</ele><time>2026-04-26T07:28:09.697Z</time></trkpt><trkpt lat="46.1495336" lon="9.4596237"><ele>203.0</ele><time>2026-04-26T07:28:11.696Z</time></trkpt><trkpt lat="46.1494913" lon="9.4597731"><ele>203.0</ele><time>2026-04-26T07:28:13.696Z</time></trkpt><trkpt lat="46.1494428" lon="9.4598965"><ele>203.0</ele><time>2026-04-26T07:28:15.696Z</time></trkpt><trkpt lat="46.1493996" lon="9.4600435"><ele>203.0</ele><time>2026-04-26T07:28:17.695Z</time></trkpt><trkpt lat="46.1493557" lon="9.460154"><ele>203.0</ele><time>2026-04-26T07:28:20.697Z</time></trkpt><trkpt lat="46.1493281" lon="9.4602465"><ele>203.00000000000003</ele><time>2026-04-26T07:28:21.697Z</time></trkpt><trkpt lat="46.1492915" lon="9.4603379"><ele>203.0</ele><time>2026-04-26T07:28:23.697Z</time></trkpt><trkpt lat="46.1492567" lon="9.4604159"><ele>203.0</ele><time>2026-04-26T07:28:25.697Z</time></trkpt><trkpt lat="46.1492152" lon="9.4605088"><ele>203.0</ele><time>2026-04-26T07:28:28.696Z</time></trkpt><trkpt lat="46.1491805" lon="9.4606381"><ele>203.00000000000003</ele><time>2026-04-26T07:28:31.696Z</time></trkpt><trkpt lat="46.1491573" lon="9.4607358"><ele>203.0</ele><time>2026-04-26T07:28:33.697Z</time></trkpt><trkpt lat="46.1491324" lon="9.4608462"><ele>203.0</ele><time>2026-04-26T07:28:35.696Z</time></trkpt><trkpt lat="46.1491046" lon="9.4609537"><ele>203.0</ele><time>2026-04-26T07:28:37.696Z</time></trkpt><trkpt lat="46.1490602" lon="9.4610733"><ele>203.0</ele><time>2026-04-26T07:28:39.696Z</time></trkpt><trkpt lat="46.1490167" lon="9.4611907"><ele>203.0</ele><time>2026-04-26T07:28:41.696Z</time></trkpt><trkpt lat="46.1489419" lon="9.4613095"><ele>203.0</ele><time>2026-04-26T07:28:43.697Z</time></trkpt><trkpt lat="46.1488671" lon="9.4614293"><ele>203.0</ele><time>2026-04-26T07:28:45.696Z</time></trkpt><trkpt lat="46.1487916" lon="9.4615276"><ele>203.0</ele><time>2026-04-26T07:28:47.697Z</time></trkpt><trkpt lat="46.1487036" lon="9.4616134"><ele>203.0</ele><time>2026-04-26T07:28:49.696Z</time></trkpt><trkpt lat="46.1486243" lon="9.4616932"><ele>203.0</ele><time>2026-04-26T07:28:51.697Z</time></trkpt><trkpt lat="46.1485346" lon="9.4617865"><ele>203.0</ele><time>2026-04-26T07:28:53.697Z</time></trkpt><trkpt lat="46.1484454" lon="9.4618862"><ele>203.0</ele><time>2026-04-26T07:28:55.697Z</time></trkpt><trkpt lat="46.1483566" lon="9.4619895"><ele>203.0</ele><time>2026-04-26T07:28:57.697Z</time></trkpt><trkpt lat="46.1482639" lon="9.4620918"><ele>203.0</ele><time>2026-04-26T07:28:59.696Z</time></trkpt><trkpt lat="46.1481786" lon="9.4621842"><ele>203.0</ele><time>2026-04-26T07:29:01.697Z</time></trkpt><trkpt lat="46.1480968" lon="9.4622752"><ele>203.0</ele><time>2026-04-26T07:29:03.696Z</time></trkpt><trkpt lat="46.1480141" lon="9.4623804"><ele>203.25</ele><time>2026-04-26T07:29:05.697Z</time></trkpt><trkpt lat="46.1479267" lon="9.4624775"><ele>203.5</ele><time>2026-04-26T07:29:07.697Z</time></trkpt><trkpt lat="46.1478349" lon="9.4625949"><ele>203.75</ele><time>2026-04-26T07:29:09.696Z</time></trkpt><trkpt lat="46.1477465" lon="9.4626965"><ele>204.0</ele><time>2026-04-26T07:29:11.697Z</time></trkpt><trkpt lat="46.1476711" lon="9.46282"><ele>204.0</ele><time>2026-04-26T07:29:13.696Z</time></trkpt><trkpt lat="46.1476252" lon="9.4628892"><ele>204.0</ele><time>2026-04-26T07:29:14.696Z</time></trkpt><trkpt lat="46.1475465" lon="9.4630093"><ele>204.0</ele><time>2026-04-26T07:29:16.696Z</time></trkpt><trkpt lat="46.1475028" lon="9.4630806"><ele>204.0</ele><time>2026-04-26T07:29:17.697Z</time></trkpt><trkpt lat="46.147424" lon="9.4632078"><ele>204.0</ele><time>2026-04-26T07:29:19.697Z</time></trkpt><trkpt lat="46.1473474" lon="9.4633477"><ele>204.2</ele><time>2026-04-26T07:29:21.697Z</time></trkpt><trkpt lat="46.147277" lon="9.4634815"><ele>204.39999999999998</ele><time>2026-04-26T07:29:23.696Z</time></trkpt><trkpt lat="46.1472222" lon="9.4636261"><ele>204.6</ele><time>2026-04-26T07:29:25.696Z</time></trkpt><trkpt lat="46.1471794" lon="9.463776"><ele>204.8</ele><time>2026-04-26T07:29:27.696Z</time></trkpt><trkpt lat="46.1471317" lon="9.4639011"><ele>205.0</ele><time>2026-04-26T07:29:29.696Z</time></trkpt><trkpt lat="46.1470746" lon="9.4640367"><ele>205.0</ele><time>2026-04-26T07:29:31.697Z</time></trkpt><trkpt lat="46.1470215" lon="9.4641753"><ele>205.0</ele><time>2026-04-26T07:29:33.697Z</time></trkpt><trkpt lat="46.1469584" lon="9.4643088"><ele>205.0</ele><time>2026-04-26T07:29:35.696Z</time></trkpt><trkpt lat="46.146908" lon="9.4644501"><ele>205.0</ele><time>2026-04-26T07:29:37.696Z</time></trkpt><trkpt lat="46.146872" lon="9.4645285"><ele>205.0</ele><time>2026-04-26T07:29:38.697Z</time></trkpt><trkpt lat="46.1468116" lon="9.4646663"><ele>204.8</ele><time>2026-04-26T07:29:40.696Z</time></trkpt><trkpt lat="46.1467858" lon="9.4648209"><ele>204.6</ele><time>2026-04-26T07:29:42.696Z</time></trkpt><trkpt lat="46.1467812" lon="9.4649993"><ele>204.39999999999998</ele><time>2026-04-26T07:29:44.697Z</time></trkpt><trkpt lat="46.1467776" lon="9.4651717"><ele>204.2</ele><time>2026-04-26T07:29:46.696Z</time></trkpt><trkpt lat="46.1467657" lon="9.4652659"><ele>204.0</ele><time>2026-04-26T07:29:47.696Z</time></trkpt><trkpt lat="46.1467553" lon="9.4653682"><ele>204.0</ele><time>2026-04-26T07:29:48.697Z</time></trkpt><trkpt lat="46.1467541" lon="9.4654606"><ele>204.0</ele><time>2026-04-26T07:29:49.696Z</time></trkpt><trkpt lat="46.1467599" lon="9.4656141"><ele>204.0</ele><time>2026-04-26T07:29:51.697Z</time></trkpt><trkpt lat="46.1467602" lon="9.4657951"><ele>204.0</ele><time>2026-04-26T07:29:53.696Z</time></trkpt><trkpt lat="46.1467939" lon="9.4659631"><ele>204.0</ele><time>2026-04-26T07:29:55.696Z</time></trkpt><trkpt lat="46.1468311" lon="9.46612"><ele>204.0</ele><time>2026-04-26T07:29:57.697Z</time></trkpt><trkpt lat="46.1468722" lon="9.4662653"><ele>204.0</ele><time>2026-04-26T07:29:59.696Z</time></trkpt><trkpt lat="46.1468985" lon="9.4664235"><ele>204.0</ele><time>2026-04-26T07:30:01.696Z</time></trkpt><trkpt lat="46.1469348" lon="9.4665565"><ele>204.0</ele><time>2026-04-26T07:30:03.697Z</time></trkpt><trkpt lat="46.1469703" lon="9.4666677"><ele>204.0</ele><time>2026-04-26T07:30:05.697Z</time></trkpt><trkpt lat="46.1470046" lon="9.4668199"><ele>204.0</ele><time>2026-04-26T07:30:07.696Z</time></trkpt><trkpt lat="46.1470355" lon="9.4669697"><ele>204.0</ele><time>2026-04-26T07:30:09.697Z</time></trkpt><trkpt lat="46.1470613" lon="9.4671299"><ele>204.0</ele><time>2026-04-26T07:30:11.696Z</time></trkpt><trkpt lat="46.1470787" lon="9.4672932"><ele>204.0</ele><time>2026-04-26T07:30:13.696Z</time></trkpt><trkpt lat="46.1471099" lon="9.4674488"><ele>204.0</ele><time>2026-04-26T07:30:15.697Z</time></trkpt><trkpt lat="46.1471291" lon="9.4675361"><ele>204.0</ele><time>2026-04-26T07:30:16.696Z</time></trkpt><trkpt lat="46.1471559" lon="9.4676733"><ele>204.0</ele><time>2026-04-26T07:30:18.697Z</time></trkpt><trkpt lat="46.1472123" lon="9.4677928"><ele>204.0</ele><time>2026-04-26T07:30:20.697Z</time></trkpt><trkpt lat="46.1472459" lon="9.4679465"><ele>204.0</ele><time>2026-04-26T07:30:22.697Z</time></trkpt><trkpt lat="46.147285" lon="9.4681235"><ele>204.0</ele><time>2026-04-26T07:30:24.697Z</time></trkpt><trkpt lat="46.1473183" lon="9.4682808"><ele>204.0</ele><time>2026-04-26T07:30:26.697Z</time></trkpt><trkpt lat="46.1473666" lon="9.468441"><ele>204.0</ele><time>2026-04-26T07:30:28.696Z</time></trkpt><trkpt lat="46.147412" lon="9.4685879"><ele>204.0</ele><time>2026-04-26T07:30:30.697Z</time></trkpt><trkpt lat="46.1474616" lon="9.4687484"><ele>204.0</ele><time>2026-04-26T07:30:32.696Z</time></trkpt><trkpt lat="46.1474772" lon="9.4689256"><ele>204.25</ele><time>2026-04-26T07:30:34.696Z</time></trkpt><trkpt lat="46.1474373" lon="9.469074"><ele>204.5</ele><time>2026-04-26T07:30:36.696Z</time></trkpt><trkpt lat="46.1473782" lon="9.4692216"><ele>204.75</ele><time>2026-04-26T07:30:38.696Z</time></trkpt><trkpt lat="46.1473294" lon="9.4693793"><ele>205.0</ele><time>2026-04-26T07:30:40.697Z</time></trkpt><trkpt lat="46.1472834" lon="9.4695146"><ele>204.99999999999997</ele><time>2026-04-26T07:30:42.697Z</time></trkpt><trkpt lat="46.1472446" lon="9.4696629"><ele>205.0</ele><time>2026-04-26T07:30:44.696Z</time></trkpt><trkpt lat="46.1471961" lon="9.4697927"><ele>205.0</ele><time>2026-04-26T07:30:46.696Z</time></trkpt><trkpt lat="46.1472167" lon="9.4699168"><ele>205.0</ele><time>2026-04-26T07:30:48.697Z</time></trkpt><trkpt lat="46.1472591" lon="9.4699981"><ele>204.99999999999997</ele><time>2026-04-26T07:30:50.697Z</time></trkpt><trkpt lat="46.147324" lon="9.4700468"><ele>205.0</ele><time>2026-04-26T07:30:52.697Z</time></trkpt><trkpt lat="46.1473958" lon="9.4700982"><ele>205.0</ele><time>2026-04-26T07:30:54.697Z</time></trkpt><trkpt lat="46.1474658" lon="9.4701509"><ele>205.0</ele><time>2026-04-26T07:30:56.696Z</time></trkpt><trkpt lat="46.1475455" lon="9.4702188"><ele>205.0</ele><time>2026-04-26T07:30:58.697Z</time></trkpt><trkpt lat="46.1476165" lon="9.4703067"><ele>205.0</ele><time>2026-04-26T07:31:00.696Z</time></trkpt><trkpt lat="46.1476743" lon="9.4704033"><ele>205.0</ele><time>2026-04-26T07:31:02.696Z</time></trkpt><trkpt lat="46.147749" lon="9.4705163"><ele>205.2</ele><time>2026-04-26T07:31:04.696Z</time></trkpt><trkpt lat="46.1477833" lon="9.4706386"><ele>205.4</ele><time>2026-04-26T07:31:06.696Z</time></trkpt><trkpt lat="46.1478354" lon="9.4707334"><ele>205.60000000000002</ele><time>2026-04-26T07:31:08.696Z</time></trkpt><trkpt lat="46.1478861" lon="9.4708676"><ele>205.8</ele><time>2026-04-26T07:31:10.697Z</time></trkpt><trkpt lat="46.1479395" lon="9.4710029"><ele>206.0</ele><time>2026-04-26T07:31:12.697Z</time></trkpt><trkpt lat="46.1479828" lon="9.4711559"><ele>206.0</ele><time>2026-04-26T07:31:14.696Z</time></trkpt><trkpt lat="46.147989" lon="9.4712996"><ele>206.0</ele><time>2026-04-26T07:31:16.697Z</time></trkpt><trkpt lat="46.1479819" lon="9.471437"><ele>206.0</ele><time>2026-04-26T07:31:18.697Z</time></trkpt><trkpt lat="46.1479539" lon="9.471528"><ele>206.0</ele><time>2026-04-26T07:31:19.696Z</time></trkpt><trkpt lat="46.1479407" lon="9.4716741"><ele>206.0</ele><time>2026-04-26T07:31:21.696Z</time></trkpt><trkpt lat="46.1478905" lon="9.4718238"><ele>206.0</ele><time>2026-04-26T07:31:23.697Z</time></trkpt><trkpt lat="46.147855" lon="9.4719792"><ele>206.0</ele><time>2026-04-26T07:31:25.697Z</time></trkpt><trkpt lat="46.1478326" lon="9.4721344"><ele>206.0</ele><time>2026-04-26T07:31:27.697Z</time></trkpt><trkpt lat="46.1478221" lon="9.4722835"><ele>206.0</ele><time>2026-04-26T07:31:29.696Z</time></trkpt><trkpt lat="46.1477998" lon="9.4723826"><ele>206.0</ele><time>2026-04-26T07:31:30.696Z</time></trkpt><trkpt lat="46.1477612" lon="9.4724918"><ele>206.4</ele><time>2026-04-26T07:31:31.697Z</time></trkpt><trkpt lat="46.1477289" lon="9.472649"><ele>206.8</ele><time>2026-04-26T07:31:33.697Z</time></trkpt><trkpt lat="46.1476883" lon="9.4727918"><ele>207.20000000000002</ele><time>2026-04-26T07:31:35.696Z</time></trkpt><trkpt lat="46.1476887" lon="9.4729079"><ele>207.60000000000002</ele><time>2026-04-26T07:31:37.696Z</time></trkpt><trkpt lat="46.1476541" lon="9.473073"><ele>208.0</ele><time>2026-04-26T07:31:39.697Z</time></trkpt><trkpt lat="46.1476231" lon="9.4732291"><ele>207.8</ele><time>2026-04-26T07:31:41.697Z</time></trkpt><trkpt lat="46.1476086" lon="9.4733294"><ele>207.60000000000002</ele><time>2026-04-26T07:31:42.697Z</time></trkpt><trkpt lat="46.1475634" lon="9.4734636"><ele>207.39999999999998</ele><time>2026-04-26T07:31:44.697Z</time></trkpt><trkpt lat="46.1475189" lon="9.4736145"><ele>207.2</ele><time>2026-04-26T07:31:46.697Z</time></trkpt><trkpt lat="46.1474914" lon="9.4737699"><ele>207.0</ele><time>2026-04-26T07:31:48.697Z</time></trkpt><trkpt lat="46.1474513" lon="9.4739285"><ele>207.0</ele><time>2026-04-26T07:31:50.697Z</time></trkpt><trkpt lat="46.1474084" lon="9.4740899"><ele>207.0</ele><time>2026-04-26T07:31:52.696Z</time></trkpt><trkpt lat="46.1473919" lon="9.4741853"><ele>207.0</ele><time>2026-04-26T07:31:53.697Z</time></trkpt><trkpt lat="46.147348" lon="9.4743079"><ele>207.0</ele><time>2026-04-26T07:31:55.696Z</time></trkpt><trkpt lat="46.1473194" lon="9.4744018"><ele>207.0</ele><time>2026-04-26T07:31:56.696Z</time></trkpt><trkpt lat="46.147294" lon="9.4744893"><ele>207.0</ele><time>2026-04-26T07:31:57.697Z</time></trkpt><trkpt lat="46.1472582" lon="9.4746173"><ele>207.6</ele><time>2026-04-26T07:31:59.696Z</time></trkpt><trkpt lat="46.1472151" lon="9.4747658"><ele>208.2</ele><time>2026-04-26T07:32:01.696Z</time></trkpt><trkpt lat="46.1471923" lon="9.4748639"><ele>208.8</ele><time>2026-04-26T07:32:02.697Z</time></trkpt><trkpt lat="46.1471433" lon="9.4749769"><ele>209.4</ele><time>2026-04-26T07:32:04.697Z</time></trkpt><trkpt lat="46.1471274" lon="9.4750794"><ele>210.0</ele><time>2026-04-26T07:32:05.697Z</time></trkpt><trkpt lat="46.1470678" lon="9.4752239"><ele>210.0</ele><time>2026-04-26T07:32:07.696Z</time></trkpt><trkpt lat="46.1470592" lon="9.4753959"><ele>210.0</ele><time>2026-04-26T07:32:09.697Z</time></trkpt><trkpt lat="46.1470641" lon="9.4755007"><ele>210.0</ele><time>2026-04-26T07:32:10.696Z</time></trkpt><trkpt lat="46.147089" lon="9.475625"><ele>210.0</ele><time>2026-04-26T07:32:12.697Z</time></trkpt><trkpt lat="46.1470803" lon="9.4757956"><ele>210.0</ele><time>2026-04-26T07:32:14.696Z</time></trkpt><trkpt lat="46.1470726" lon="9.4758883"><ele>209.0</ele><time>2026-04-26T07:32:15.696Z</time></trkpt><trkpt lat="46.1470836" lon="9.4760218"><ele>208.0</ele><time>2026-04-26T07:32:17.697Z</time></trkpt><trkpt lat="46.1471232" lon="9.4761425"><ele>207.0</ele><time>2026-04-26T07:32:19.697Z</time></trkpt><trkpt lat="46.147159" lon="9.4763056"><ele>206.0</ele><time>2026-04-26T07:32:21.696Z</time></trkpt><trkpt lat="46.1471737" lon="9.4764659"><ele>205.0</ele><time>2026-04-26T07:32:23.697Z</time></trkpt><trkpt lat="46.1471898" lon="9.4766302"><ele>205.0</ele><time>2026-04-26T07:32:25.696Z</time></trkpt><trkpt lat="46.1471985" lon="9.4767882"><ele>205.0</ele><time>2026-04-26T07:32:27.696Z</time></trkpt><trkpt lat="46.1472197" lon="9.4769461"><ele>205.0</ele><time>2026-04-26T07:32:29.696Z</time></trkpt><trkpt lat="46.1472526" lon="9.4771002"><ele>205.0</ele><time>2026-04-26T07:32:31.697Z</time></trkpt><trkpt lat="46.1472811" lon="9.4772609"><ele>205.0</ele><time>2026-04-26T07:32:33.696Z</time></trkpt><trkpt lat="46.1473126" lon="9.4774124"><ele>205.4</ele><time>2026-04-26T07:32:35.697Z</time></trkpt><trkpt lat="46.1473308" lon="9.4775804"><ele>205.8</ele><time>2026-04-26T07:32:37.697Z</time></trkpt><trkpt lat="46.1473215" lon="9.4777288"><ele>206.2</ele><time>2026-04-26T07:32:39.696Z</time></trkpt><trkpt lat="46.147308" lon="9.4778651"><ele>206.6</ele><time>2026-04-26T07:32:41.696Z</time></trkpt><trkpt lat="46.1473371" lon="9.477979"><ele>207.0</ele><time>2026-04-26T07:32:43.697Z</time></trkpt><trkpt lat="46.1474106" lon="9.4780418"><ele>207.0</ele><time>2026-04-26T07:32:45.697Z</time></trkpt><trkpt lat="46.1474939" lon="9.4780798"><ele>207.0</ele><time>2026-04-26T07:32:47.696Z</time></trkpt><trkpt lat="46.1475732" lon="9.4781037"><ele>207.0</ele><time>2026-04-26T07:32:49.696Z</time></trkpt><trkpt lat="46.1476487" lon="9.478111"><ele>207.0</ele><time>2026-04-26T07:32:51.697Z</time></trkpt><trkpt lat="46.1477224" lon="9.4781359"><ele>207.0</ele><time>2026-04-26T07:32:53.696Z</time></trkpt><trkpt lat="46.1478073" lon="9.4781517"><ele>207.0</ele><time>2026-04-26T07:32:55.696Z</time></trkpt><trkpt lat="46.1478838" lon="9.4781747"><ele>207.0</ele><time>2026-04-26T07:32:57.697Z</time></trkpt><trkpt lat="46.1479763" lon="9.4782164"><ele>207.0</ele><time>2026-04-26T07:32:59.697Z</time></trkpt><trkpt lat="46.1480645" lon="9.4782454"><ele>207.0</ele><time>2026-04-26T07:33:01.696Z</time></trkpt><trkpt lat="46.14816" lon="9.4782944"><ele>207.0</ele><time>2026-04-26T07:33:03.696Z</time></trkpt><trkpt lat="46.1482502" lon="9.4783332"><ele>207.0</ele><time>2026-04-26T07:33:05.697Z</time></trkpt><trkpt lat="46.1483542" lon="9.4783733"><ele>207.0</ele><time>2026-04-26T07:33:07.696Z</time></trkpt><trkpt lat="46.148445" lon="9.4784233"><ele>207.0</ele><time>2026-04-26T07:33:09.696Z</time></trkpt><trkpt lat="46.1485175" lon="9.4785212"><ele>207.0</ele><time>2026-04-26T07:33:11.696Z</time></trkpt><trkpt lat="46.1485535" lon="9.4786026"><ele>207.0</ele><time>2026-04-26T07:33:13.697Z</time></trkpt><trkpt lat="46.1485988" lon="9.4787087"><ele>207.0</ele><time>2026-04-26T07:33:15.697Z</time></trkpt><trkpt lat="46.1486252" lon="9.4788258"><ele>207.0</ele><time>2026-04-26T07:33:17.696Z</time></trkpt><trkpt lat="46.1486449" lon="9.478963"><ele>206.8</ele><time>2026-04-26T07:33:19.696Z</time></trkpt><trkpt lat="46.14868" lon="9.4790892"><ele>206.6</ele><time>2026-04-26T07:33:21.697Z</time></trkpt><trkpt lat="46.1487262" lon="9.4792265"><ele>206.4</ele><time>2026-04-26T07:33:23.696Z</time></trkpt><trkpt lat="46.1487721" lon="9.4793554"><ele>206.20000000000002</ele><time>2026-04-26T07:33:25.697Z</time></trkpt><trkpt lat="46.1488115" lon="9.4794772"><ele>206.0</ele><time>2026-04-26T07:33:27.697Z</time></trkpt><trkpt lat="46.148849" lon="9.4796103"><ele>206.0</ele><time>2026-04-26T07:33:29.697Z</time></trkpt><trkpt lat="46.1488852" lon="9.4797511"><ele>206.0</ele><time>2026-04-26T07:33:31.697Z</time></trkpt><trkpt lat="46.1489334" lon="9.4798913"><ele>206.0</ele><time>2026-04-26T07:33:33.696Z</time></trkpt><trkpt lat="46.1489858" lon="9.4800343"><ele>206.0</ele><time>2026-04-26T07:33:35.697Z</time></trkpt><trkpt lat="46.1490103" lon="9.4801819"><ele>206.0</ele><time>2026-04-26T07:33:37.696Z</time></trkpt><trkpt lat="46.1490601" lon="9.4803082"><ele>206.20000000000002</ele><time>2026-04-26T07:33:39.696Z</time></trkpt><trkpt lat="46.1491047" lon="9.4804489"><ele>206.4</ele><time>2026-04-26T07:33:41.696Z</time></trkpt><trkpt lat="46.1491465" lon="9.4805867"><ele>206.6</ele><time>2026-04-26T07:33:43.696Z</time></trkpt><trkpt lat="46.1491931" lon="9.4807169"><ele>206.8</ele><time>2026-04-26T07:33:45.697Z</time></trkpt><trkpt lat="46.1492503" lon="9.4808485"><ele>207.0</ele><time>2026-04-26T07:33:47.696Z</time></trkpt><trkpt lat="46.1492941" lon="9.4809849"><ele>207.0</ele><time>2026-04-26T07:33:49.697Z</time></trkpt><trkpt lat="46.1493454" lon="9.4811282"><ele>207.0</ele><time>2026-04-26T07:33:51.697Z</time></trkpt><trkpt lat="46.1493922" lon="9.4812743"><ele>207.0</ele><time>2026-04-26T07:33:53.697Z</time></trkpt><trkpt lat="46.1494206" lon="9.4813554"><ele>207.0</ele><time>2026-04-26T07:33:54.697Z</time></trkpt><trkpt lat="46.1494743" lon="9.4814742"><ele>207.0</ele><time>2026-04-26T07:33:56.696Z</time></trkpt><trkpt lat="46.1495104" lon="9.4816208"><ele>207.0</ele><time>2026-04-26T07:33:58.697Z</time></trkpt><trkpt lat="46.1495495" lon="9.4817659"><ele>207.0</ele><time>2026-04-26T07:34:00.697Z</time></trkpt><trkpt lat="46.1495899" lon="9.4819198"><ele>207.0</ele><time>2026-04-26T07:34:02.697Z</time></trkpt><trkpt lat="46.1496452" lon="9.4820643"><ele>207.0</ele><time>2026-04-26T07:34:04.696Z</time></trkpt><trkpt lat="46.1497038" lon="9.4822154"><ele>207.0</ele><time>2026-04-26T07:34:06.697Z</time></trkpt><trkpt lat="46.1497099" lon="9.4823169"><ele>207.0</ele><time>2026-04-26T07:34:07.696Z</time></trkpt><trkpt lat="46.1497519" lon="9.4824649"><ele>207.0</ele><time>2026-04-26T07:34:09.697Z</time></trkpt><trkpt lat="46.1498032" lon="9.4826124"><ele>207.0</ele><time>2026-04-26T07:34:11.696Z</time></trkpt><trkpt lat="46.1498185" lon="9.482707"><ele>207.0</ele><time>2026-04-26T07:34:12.696Z</time></trkpt><trkpt lat="46.1498644" lon="9.4828546"><ele>207.0</ele><time>2026-04-26T07:34:14.696Z</time></trkpt><trkpt lat="46.1499124" lon="9.4830256"><ele>207.0</ele><time>2026-04-26T07:34:16.696Z</time></trkpt><trkpt lat="46.149975" lon="9.4831497"><ele>207.0</ele><time>2026-04-26T07:34:18.696Z</time></trkpt><trkpt lat="46.1500178" lon="9.4832974"><ele>207.0</ele><time>2026-04-26T07:34:20.697Z</time></trkpt><trkpt lat="46.1500592" lon="9.4834557"><ele>207.0</ele><time>2026-04-26T07:34:22.697Z</time></trkpt><trkpt lat="46.1501234" lon="9.4836522"><ele>207.0</ele><time>2026-04-26T07:34:25.697Z</time></trkpt><trkpt lat="46.1501619" lon="9.4838058"><ele>207.0</ele><time>2026-04-26T07:34:27.696Z</time></trkpt><trkpt lat="46.1502025" lon="9.4839575"><ele>207.0</ele><time>2026-04-26T07:34:29.697Z</time></trkpt><trkpt lat="46.1502579" lon="9.4840962"><ele>206.6</ele><time>2026-04-26T07:34:31.696Z</time></trkpt><trkpt lat="46.1503155" lon="9.4842109"><ele>206.2</ele><time>2026-04-26T07:34:33.696Z</time></trkpt><trkpt lat="46.1503331" lon="9.4843714"><ele>205.8</ele><time>2026-04-26T07:34:35.697Z</time></trkpt><trkpt lat="46.1503501" lon="9.4845306"><ele>205.4</ele><time>2026-04-26T07:34:37.696Z</time></trkpt><trkpt lat="46.1503637" lon="9.4846901"><ele>205.0</ele><time>2026-04-26T07:34:39.697Z</time></trkpt><trkpt lat="46.1503584" lon="9.4848015"><ele>205.0</ele><time>2026-04-26T07:34:40.696Z</time></trkpt><trkpt lat="46.1503736" lon="9.4849739"><ele>205.0</ele><time>2026-04-26T07:34:42.696Z</time></trkpt><trkpt lat="46.1503732" lon="9.4851276"><ele>205.0</ele><time>2026-04-26T07:34:44.696Z</time></trkpt><trkpt lat="46.1503872" lon="9.4852713"><ele>205.0</ele><time>2026-04-26T07:34:46.696Z</time></trkpt><trkpt lat="46.1503853" lon="9.4854275"><ele>205.0</ele><time>2026-04-26T07:34:48.697Z</time></trkpt><trkpt lat="46.1503926" lon="9.4855518"><ele>205.33333333333331</ele><time>2026-04-26T07:34:50.697Z</time></trkpt><trkpt lat="46.1503989" lon="9.4857044"><ele>205.66666666666666</ele><time>2026-04-26T07:34:52.697Z</time></trkpt><trkpt lat="46.1504014" lon="9.4858033"><ele>206.0</ele><time>2026-04-26T07:34:53.696Z</time></trkpt><trkpt lat="46.1503934" lon="9.4859135"><ele>206.33333333333331</ele><time>2026-04-26T07:34:54.696Z</time></trkpt><trkpt lat="46.1503971" lon="9.4860268"><ele>206.66666666666666</ele><time>2026-04-26T07:34:55.697Z</time></trkpt><trkpt lat="46.1503986" lon="9.486139"><ele>207.0</ele><time>2026-04-26T07:34:56.697Z</time></trkpt><trkpt lat="46.1504" lon="9.4862588"><ele>206.83333333333334</ele><time>2026-04-26T07:34:57.696Z</time></trkpt><trkpt lat="46.150378" lon="9.48643"><ele>206.66666666666669</ele><time>2026-04-26T07:34:59.697Z</time></trkpt><trkpt lat="46.1503666" lon="9.486526"><ele>206.5</ele><time>2026-04-26T07:35:00.696Z</time></trkpt><trkpt lat="46.1503473" lon="9.4866728"><ele>206.33333333333334</ele><time>2026-04-26T07:35:02.696Z</time></trkpt><trkpt lat="46.150338" lon="9.4867683"><ele>206.16666666666669</ele><time>2026-04-26T07:35:04.697Z</time></trkpt><trkpt lat="46.1503082" lon="9.4868524"><ele>206.0</ele><time>2026-04-26T07:35:07.697Z</time></trkpt><trkpt lat="46.150291" lon="9.4869602"><ele>206.00000000000003</ele><time>2026-04-26T07:36:47.696Z</time></trkpt><trkpt lat="46.1502943" lon="9.4870567"><ele>206.0</ele><time>2026-04-26T07:36:50.696Z</time></trkpt><trkpt lat="46.1502887" lon="9.4872151"><ele>206.0</ele><time>2026-04-26T07:36:53.696Z</time></trkpt><trkpt lat="46.1502861" lon="9.4873264"><ele>206.0</ele><time>2026-04-26T07:36:55.696Z</time></trkpt><trkpt lat="46.1502883" lon="9.4874458"><ele>206.00000000000003</ele><time>2026-04-26T07:36:57.697Z</time></trkpt><trkpt lat="46.1502812" lon="9.4875781"><ele>206.0</ele><time>2026-04-26T07:36:59.696Z</time></trkpt><trkpt lat="46.1502864" lon="9.4877177"><ele>206.0</ele><time>2026-04-26T07:37:01.696Z</time></trkpt><trkpt lat="46.1503029" lon="9.487848"><ele>206.0</ele><time>2026-04-26T07:37:03.697Z</time></trkpt><trkpt lat="46.150302" lon="9.4879841"><ele>206.0</ele><time>2026-04-26T07:37:05.697Z</time></trkpt><trkpt lat="46.150315" lon="9.4881402"><ele>206.0</ele><time>2026-04-26T07:37:07.697Z</time></trkpt><trkpt lat="46.1503246" lon="9.4882974"><ele>206.0</ele><time>2026-04-26T07:37:09.696Z</time></trkpt><trkpt lat="46.1503358" lon="9.4884656"><ele>206.0</ele><time>2026-04-26T07:37:11.697Z</time></trkpt><trkpt lat="46.1503493" lon="9.4886204"><ele>206.0</ele><time>2026-04-26T07:37:13.696Z</time></trkpt><trkpt lat="46.1503654" lon="9.4887879"><ele>206.0</ele><time>2026-04-26T07:37:15.697Z</time></trkpt><trkpt lat="46.150375" lon="9.4888778"><ele>206.0</ele><time>2026-04-26T07:37:16.697Z</time></trkpt><trkpt lat="46.1504061" lon="9.4891158"><ele>206.0</ele><time>2026-04-26T07:37:19.696Z</time></trkpt><trkpt lat="46.1504255" lon="9.4892747"><ele>206.0</ele><time>2026-04-26T07:37:21.697Z</time></trkpt><trkpt lat="46.1504513" lon="9.4894289"><ele>206.0</ele><time>2026-04-26T07:37:23.697Z</time></trkpt><trkpt lat="46.1504948" lon="9.4895619"><ele>206.0</ele><time>2026-04-26T07:37:25.697Z</time></trkpt><trkpt lat="46.150518" lon="9.4897287"><ele>206.0</ele><time>2026-04-26T07:37:27.697Z</time></trkpt><trkpt lat="46.1505591" lon="9.4898594"><ele>206.0</ele><time>2026-04-26T07:37:29.697Z</time></trkpt><trkpt lat="46.1505867" lon="9.4900187"><ele>206.0</ele><time>2026-04-26T07:37:31.697Z</time></trkpt><trkpt lat="46.1506195" lon="9.4901639"><ele>206.0</ele><time>2026-04-26T07:37:33.696Z</time></trkpt><trkpt lat="46.1506649" lon="9.4903041"><ele>206.0</ele><time>2026-04-26T07:37:35.697Z</time></trkpt><trkpt lat="46.1507011" lon="9.4904465"><ele>206.0</ele><time>2026-04-26T07:37:37.696Z</time></trkpt><trkpt lat="46.1507375" lon="9.4906062"><ele>206.0</ele><time>2026-04-26T07:37:39.697Z</time></trkpt><trkpt lat="46.1507617" lon="9.4906918"><ele>206.0</ele><time>2026-04-26T07:37:40.697Z</time></trkpt><trkpt lat="46.1507844" lon="9.4908575"><ele>206.0</ele><time>2026-04-26T07:37:42.697Z</time></trkpt><trkpt lat="46.1508235" lon="9.4910187"><ele>206.0</ele><time>2026-04-26T07:37:44.696Z</time></trkpt><trkpt lat="46.1508703" lon="9.4912278"><ele>206.0</ele><time>2026-04-26T07:37:47.696Z</time></trkpt><trkpt lat="46.1509024" lon="9.4913746"><ele>206.0</ele><time>2026-04-26T07:37:49.696Z</time></trkpt><trkpt lat="46.1509409" lon="9.491519"><ele>206.0</ele><time>2026-04-26T07:37:51.697Z</time></trkpt><trkpt lat="46.1509777" lon="9.4916721"><ele>206.0</ele><time>2026-04-26T07:37:53.696Z</time></trkpt><trkpt lat="46.1510198" lon="9.4918159"><ele>206.0</ele><time>2026-04-26T07:37:55.696Z</time></trkpt><trkpt lat="46.1510472" lon="9.4919705"><ele>206.0</ele><time>2026-04-26T07:37:57.696Z</time></trkpt><trkpt lat="46.1510752" lon="9.4921214"><ele>206.0</ele><time>2026-04-26T07:37:59.696Z</time></trkpt><trkpt lat="46.1511228" lon="9.4922585"><ele>206.0</ele><time>2026-04-26T07:38:01.696Z</time></trkpt><trkpt lat="46.1511604" lon="9.4924052"><ele>206.0</ele><time>2026-04-26T07:38:03.696Z</time></trkpt><trkpt lat="46.151191" lon="9.4925577"><ele>206.0</ele><time>2026-04-26T07:38:05.696Z</time></trkpt><trkpt lat="46.1512223" lon="9.4927026"><ele>206.0</ele><time>2026-04-26T07:38:07.696Z</time></trkpt><trkpt lat="46.1512436" lon="9.4928582"><ele>206.0</ele><time>2026-04-26T07:38:09.696Z</time></trkpt><trkpt lat="46.1512615" lon="9.4930151"><ele>206.0</ele><time>2026-04-26T07:38:11.697Z</time></trkpt><trkpt lat="46.151281" lon="9.493169"><ele>206.0</ele><time>2026-04-26T07:38:13.696Z</time></trkpt><trkpt lat="46.1512994" lon="9.4933163"><ele>206.0</ele><time>2026-04-26T07:38:15.697Z</time></trkpt><trkpt lat="46.1513147" lon="9.493476"><ele>206.0</ele><time>2026-04-26T07:38:17.696Z</time></trkpt><trkpt lat="46.1513352" lon="9.4936472"><ele>206.0</ele><time>2026-04-26T07:38:19.697Z</time></trkpt><trkpt lat="46.1513477" lon="9.4938116"><ele>206.0</ele><time>2026-04-26T07:38:21.697Z</time></trkpt><trkpt lat="46.1513543" lon="9.4939721"><ele>206.0</ele><time>2026-04-26T07:38:23.696Z</time></trkpt><trkpt lat="46.1513495" lon="9.4941332"><ele>206.0</ele><time>2026-04-26T07:38:25.696Z</time></trkpt><trkpt lat="46.1513481" lon="9.4942901"><ele>206.0</ele><time>2026-04-26T07:38:27.697Z</time></trkpt><trkpt lat="46.1513411" lon="9.4944491"><ele>206.0</ele><time>2026-04-26T07:38:29.696Z</time></trkpt><trkpt lat="46.1513382" lon="9.4946118"><ele>206.0</ele><time>2026-04-26T07:38:31.696Z</time></trkpt><trkpt lat="46.1513353" lon="9.4947738"><ele>206.0</ele><time>2026-04-26T07:38:33.697Z</time></trkpt><trkpt lat="46.1513184" lon="9.4949403"><ele>206.20000000000002</ele><time>2026-04-26T07:38:35.697Z</time></trkpt><trkpt lat="46.1513027" lon="9.4950817"><ele>206.4</ele><time>2026-04-26T07:38:37.697Z</time></trkpt><trkpt lat="46.1512733" lon="9.4952325"><ele>206.6</ele><time>2026-04-26T07:38:39.697Z</time></trkpt><trkpt lat="46.151254" lon="9.495366"><ele>206.8</ele><time>2026-04-26T07:38:41.697Z</time></trkpt><trkpt lat="46.1512109" lon="9.4955365"><ele>207.0</ele><time>2026-04-26T07:38:43.697Z</time></trkpt><trkpt lat="46.1511753" lon="9.4956957"><ele>207.2</ele><time>2026-04-26T07:38:45.696Z</time></trkpt><trkpt lat="46.1511364" lon="9.4958552"><ele>207.39999999999998</ele><time>2026-04-26T07:38:47.697Z</time></trkpt><trkpt lat="46.1511023" lon="9.4959984"><ele>207.60000000000002</ele><time>2026-04-26T07:38:49.696Z</time></trkpt><trkpt lat="46.1510554" lon="9.496151"><ele>207.8</ele><time>2026-04-26T07:38:51.697Z</time></trkpt><trkpt lat="46.1510236" lon="9.4962308"><ele>208.0</ele><time>2026-04-26T07:38:52.696Z</time></trkpt><trkpt lat="46.1509757" lon="9.496379"><ele>208.0</ele><time>2026-04-26T07:38:54.696Z</time></trkpt><trkpt lat="46.1509132" lon="9.4965229"><ele>208.0</ele><time>2026-04-26T07:38:56.697Z</time></trkpt><trkpt lat="46.1508611" lon="9.4966724"><ele>208.0</ele><time>2026-04-26T07:38:58.696Z</time></trkpt><trkpt lat="46.1508064" lon="9.4968066"><ele>208.0</ele><time>2026-04-26T07:39:00.697Z</time></trkpt><trkpt lat="46.1507384" lon="9.4969325"><ele>208.5</ele><time>2026-04-26T07:39:02.696Z</time></trkpt><trkpt lat="46.1506707" lon="9.4970598"><ele>209.0</ele><time>2026-04-26T07:39:04.697Z</time></trkpt><trkpt lat="46.1506053" lon="9.4971859"><ele>209.5</ele><time>2026-04-26T07:39:06.696Z</time></trkpt><trkpt lat="46.1505339" lon="9.4973147"><ele>210.0</ele><time>2026-04-26T07:39:08.697Z</time></trkpt><trkpt lat="46.15045" lon="9.4974472"><ele>209.2</ele><time>2026-04-26T07:39:10.697Z</time></trkpt><trkpt lat="46.1503723" lon="9.4975644"><ele>208.4</ele><time>2026-04-26T07:39:12.696Z</time></trkpt><trkpt lat="46.1503055" lon="9.4976726"><ele>207.60000000000002</ele><time>2026-04-26T07:39:14.696Z</time></trkpt><trkpt lat="46.1502613" lon="9.4977429"><ele>206.8</ele><time>2026-04-26T07:39:15.696Z</time></trkpt><trkpt lat="46.1501969" lon="9.4978641"><ele>206.0</ele><time>2026-04-26T07:39:17.696Z</time></trkpt><trkpt lat="46.1501264" lon="9.4979985"><ele>205.8</ele><time>2026-04-26T07:39:19.696Z</time></trkpt><trkpt lat="46.1500553" lon="9.4981346"><ele>205.60000000000002</ele><time>2026-04-26T07:39:21.697Z</time></trkpt><trkpt lat="46.149979" lon="9.4982651"><ele>205.4</ele><time>2026-04-26T07:39:23.697Z</time></trkpt><trkpt lat="46.1499369" lon="9.4983375"><ele>205.2</ele><time>2026-04-26T07:39:24.696Z</time></trkpt><trkpt lat="46.1498716" lon="9.4984595"><ele>205.0</ele><time>2026-04-26T07:39:26.696Z</time></trkpt><trkpt lat="46.1497928" lon="9.4985861"><ele>205.33333333333331</ele><time>2026-04-26T07:39:28.697Z</time></trkpt><trkpt lat="46.1497174" lon="9.4987104"><ele>205.66666666666666</ele><time>2026-04-26T07:39:30.697Z</time></trkpt><trkpt lat="46.1496652" lon="9.4988307"><ele>206.0</ele><time>2026-04-26T07:39:32.696Z</time></trkpt><trkpt lat="46.1496133" lon="9.498897"><ele>206.33333333333331</ele><time>2026-04-26T07:39:33.696Z</time></trkpt><trkpt lat="46.1495681" lon="9.4989645"><ele>206.66666666666666</ele><time>2026-04-26T07:39:34.696Z</time></trkpt><trkpt lat="46.1495041" lon="9.499079"><ele>207.0</ele><time>2026-04-26T07:39:36.697Z</time></trkpt><trkpt lat="46.1494175" lon="9.4992153"><ele>207.0</ele><time>2026-04-26T07:39:38.696Z</time></trkpt><trkpt lat="46.1493502" lon="9.4993359"><ele>207.0</ele><time>2026-04-26T07:39:40.696Z</time></trkpt><trkpt lat="46.1492704" lon="9.499478"><ele>207.0</ele><time>2026-04-26T07:39:42.696Z</time></trkpt><trkpt lat="46.1492094" lon="9.4995962"><ele>207.0</ele><time>2026-04-26T07:39:44.696Z</time></trkpt><trkpt lat="46.1491246" lon="9.4997305"><ele>206.8</ele><time>2026-04-26T07:39:46.696Z</time></trkpt><trkpt lat="46.1490583" lon="9.499836"><ele>206.6</ele><time>2026-04-26T07:39:48.697Z</time></trkpt><trkpt lat="46.1489849" lon="9.4999593"><ele>206.4</ele><time>2026-04-26T07:39:50.696Z</time></trkpt><trkpt lat="46.1489056" lon="9.5000867"><ele>206.20000000000002</ele><time>2026-04-26T07:39:52.697Z</time></trkpt><trkpt lat="46.148833" lon="9.5001936"><ele>206.0</ele><time>2026-04-26T07:39:54.696Z</time></trkpt><trkpt lat="46.1487665" lon="9.5003109"><ele>207.5</ele><time>2026-04-26T07:39:56.696Z</time></trkpt><trkpt lat="46.1487004" lon="9.5004491"><ele>209.0</ele><time>2026-04-26T07:39:58.696Z</time></trkpt><trkpt lat="46.1486257" lon="9.5005803"><ele>210.5</ele><time>2026-04-26T07:40:00.697Z</time></trkpt><trkpt lat="46.1485433" lon="9.5006971"><ele>212.0</ele><time>2026-04-26T07:40:02.696Z</time></trkpt><trkpt lat="46.1484723" lon="9.5008171"><ele>212.0</ele><time>2026-04-26T07:40:04.696Z</time></trkpt><trkpt lat="46.1484114" lon="9.5009165"><ele>212.0</ele><time>2026-04-26T07:40:06.696Z</time></trkpt><trkpt lat="46.1483573" lon="9.5010317"><ele>212.0</ele><time>2026-04-26T07:40:08.696Z</time></trkpt><trkpt lat="46.1482805" lon="9.5011678"><ele>212.0</ele><time>2026-04-26T07:40:10.696Z</time></trkpt><trkpt lat="46.1481942" lon="9.5013033"><ele>212.0</ele><time>2026-04-26T07:40:12.697Z</time></trkpt><trkpt lat="46.1481264" lon="9.501436"><ele>211.5</ele><time>2026-04-26T07:40:14.697Z</time></trkpt><trkpt lat="46.1480553" lon="9.5015648"><ele>211.0</ele><time>2026-04-26T07:40:16.697Z</time></trkpt><trkpt lat="46.1479733" lon="9.5017028"><ele>210.5</ele><time>2026-04-26T07:40:18.696Z</time></trkpt><trkpt lat="46.1479113" lon="9.5018394"><ele>210.0</ele><time>2026-04-26T07:40:20.697Z</time></trkpt><trkpt lat="46.1478358" lon="9.5019714"><ele>210.0</ele><time>2026-04-26T07:40:22.697Z</time></trkpt><trkpt lat="46.1477906" lon="9.5020386"><ele>210.0</ele><time>2026-04-26T07:40:23.696Z</time></trkpt><trkpt lat="46.1477189" lon="9.5021745"><ele>210.0</ele><time>2026-04-26T07:40:25.697Z</time></trkpt><trkpt lat="46.1476723" lon="9.5022417"><ele>210.0</ele><time>2026-04-26T07:40:26.696Z</time></trkpt><trkpt lat="46.1475989" lon="9.5023837"><ele>210.0</ele><time>2026-04-26T07:40:28.696Z</time></trkpt><trkpt lat="46.1475555" lon="9.5024518"><ele>210.0</ele><time>2026-04-26T07:40:29.696Z</time></trkpt><trkpt lat="46.1475044" lon="9.5025079"><ele>209.4</ele><time>2026-04-26T07:40:30.696Z</time></trkpt><trkpt lat="46.1474633" lon="9.5025794"><ele>208.8</ele><time>2026-04-26T07:40:31.697Z</time></trkpt><trkpt lat="46.1473856" lon="9.5027151"><ele>208.2</ele><time>2026-04-26T07:40:33.696Z</time></trkpt><trkpt lat="46.1473221" lon="9.5028502"><ele>207.6</ele><time>2026-04-26T07:40:35.697Z</time></trkpt><trkpt lat="46.1472756" lon="9.502913"><ele>207.0</ele><time>2026-04-26T07:40:36.697Z</time></trkpt><trkpt lat="46.1471783" lon="9.5031058"><ele>206.6</ele><time>2026-04-26T07:40:39.694Z</time></trkpt><trkpt lat="46.1470983" lon="9.50323"><ele>206.2</ele><time>2026-04-26T07:40:41.692Z</time></trkpt><trkpt lat="46.1470563" lon="9.5032998"><ele>205.8</ele><time>2026-04-26T07:40:42.693Z</time></trkpt><trkpt lat="46.146983" lon="9.5034193"><ele>205.4</ele><time>2026-04-26T07:40:44.692Z</time></trkpt><trkpt lat="46.1469073" lon="9.5035436"><ele>205.0</ele><time>2026-04-26T07:40:46.692Z</time></trkpt><trkpt lat="46.1468328" lon="9.5036738"><ele>204.8</ele><time>2026-04-26T07:40:48.692Z</time></trkpt><trkpt lat="46.1467657" lon="9.50379"><ele>204.6</ele><time>2026-04-26T07:40:50.692Z</time></trkpt><trkpt lat="46.1466988" lon="9.5039165"><ele>204.39999999999998</ele><time>2026-04-26T07:40:52.693Z</time></trkpt><trkpt lat="46.1466333" lon="9.5040477"><ele>204.2</ele><time>2026-04-26T07:40:54.693Z</time></trkpt><trkpt lat="46.1465863" lon="9.5041103"><ele>204.0</ele><time>2026-04-26T07:40:55.692Z</time></trkpt><trkpt lat="46.1465094" lon="9.5042408"><ele>204.33333333333334</ele><time>2026-04-26T07:40:57.692Z</time></trkpt><trkpt lat="46.1464695" lon="9.5043162"><ele>204.66666666666669</ele><time>2026-04-26T07:40:58.692Z</time></trkpt><trkpt lat="46.146426" lon="9.5043915"><ele>205.0</ele><time>2026-04-26T07:40:59.692Z</time></trkpt><trkpt lat="46.1463555" lon="9.5045167"><ele>205.33333333333334</ele><time>2026-04-26T07:41:01.693Z</time></trkpt><trkpt lat="46.1463092" lon="9.5045891"><ele>205.66666666666669</ele><time>2026-04-26T07:41:02.692Z</time></trkpt><trkpt lat="46.1462398" lon="9.5047118"><ele>206.0</ele><time>2026-04-26T07:41:04.692Z</time></trkpt><trkpt lat="46.1461638" lon="9.5048298"><ele>206.0</ele><time>2026-04-26T07:41:06.693Z</time></trkpt><trkpt lat="46.146085" lon="9.5049502"><ele>206.0</ele><time>2026-04-26T07:41:08.692Z</time></trkpt><trkpt lat="46.1460043" lon="9.5050847"><ele>206.0</ele><time>2026-04-26T07:41:10.693Z</time></trkpt><trkpt lat="46.1459283" lon="9.5052255"><ele>206.0</ele><time>2026-04-26T07:41:12.692Z</time></trkpt><trkpt lat="46.1458899" lon="9.5052983"><ele>206.0</ele><time>2026-04-26T07:41:13.693Z</time></trkpt><trkpt lat="46.1458522" lon="9.5053712"><ele>206.0</ele><time>2026-04-26T07:41:14.692Z</time></trkpt><trkpt lat="46.145775" lon="9.505488"><ele>206.0</ele><time>2026-04-26T07:41:16.692Z</time></trkpt><trkpt lat="46.1457011" lon="9.5056261"><ele>206.0</ele><time>2026-04-26T07:41:18.692Z</time></trkpt><trkpt lat="46.1456334" lon="9.505749"><ele>206.0</ele><time>2026-04-26T07:41:20.693Z</time></trkpt><trkpt lat="46.145559" lon="9.5058897"><ele>206.60000000000002</ele><time>2026-04-26T07:41:22.693Z</time></trkpt><trkpt lat="46.1454923" lon="9.5060059"><ele>207.2</ele><time>2026-04-26T07:41:24.693Z</time></trkpt><trkpt lat="46.1454534" lon="9.5060778"><ele>207.8</ele><time>2026-04-26T07:41:25.692Z</time></trkpt><trkpt lat="46.145379" lon="9.5062088"><ele>208.39999999999998</ele><time>2026-04-26T07:41:27.692Z</time></trkpt><trkpt lat="46.1453154" lon="9.5063389"><ele>209.0</ele><time>2026-04-26T07:41:29.693Z</time></trkpt><trkpt lat="46.1452417" lon="9.5064639"><ele>209.2</ele><time>2026-04-26T07:41:31.692Z</time></trkpt><trkpt lat="46.1451961" lon="9.5065349"><ele>209.39999999999998</ele><time>2026-04-26T07:41:32.692Z</time></trkpt><trkpt lat="46.145114" lon="9.5066595"><ele>209.6</ele><time>2026-04-26T07:41:34.692Z</time></trkpt><trkpt lat="46.1450488" lon="9.506805"><ele>209.8</ele><time>2026-04-26T07:41:36.692Z</time></trkpt><trkpt lat="46.1449677" lon="9.5069277"><ele>210.0</ele><time>2026-04-26T07:41:38.692Z</time></trkpt><trkpt lat="46.1449232" lon="9.5069987"><ele>209.25</ele><time>2026-04-26T07:41:39.691Z</time></trkpt><trkpt lat="46.1448553" lon="9.5071361"><ele>208.5</ele><time>2026-04-26T07:41:41.692Z</time></trkpt><trkpt lat="46.1447808" lon="9.5072591"><ele>207.75</ele><time>2026-04-26T07:41:43.692Z</time></trkpt><trkpt lat="46.144715" lon="9.5073815"><ele>207.0</ele><time>2026-04-26T07:41:45.693Z</time></trkpt><trkpt lat="46.14464" lon="9.5075087"><ele>207.0</ele><time>2026-04-26T07:41:47.693Z</time></trkpt><trkpt lat="46.1445666" lon="9.5076364"><ele>207.0</ele><time>2026-04-26T07:41:49.692Z</time></trkpt><trkpt lat="46.1445247" lon="9.5077125"><ele>207.0</ele><time>2026-04-26T07:41:50.691Z</time></trkpt><trkpt lat="46.144463" lon="9.5078337"><ele>207.0</ele><time>2026-04-26T07:41:52.693Z</time></trkpt><trkpt lat="46.1443991" lon="9.5079618"><ele>207.0</ele><time>2026-04-26T07:41:54.693Z</time></trkpt><trkpt lat="46.1443256" lon="9.5080877"><ele>207.0</ele><time>2026-04-26T07:41:56.692Z</time></trkpt><trkpt lat="46.1442503" lon="9.5082066"><ele>207.0</ele><time>2026-04-26T07:41:58.693Z</time></trkpt><trkpt lat="46.1441825" lon="9.5083425"><ele>207.0</ele><time>2026-04-26T07:42:00.692Z</time></trkpt><trkpt lat="46.1441011" lon="9.5084635"><ele>207.0</ele><time>2026-04-26T07:42:02.692Z</time></trkpt><trkpt lat="46.1440187" lon="9.5085934"><ele>207.0</ele><time>2026-04-26T07:42:04.692Z</time></trkpt><trkpt lat="46.1439335" lon="9.508727"><ele>207.0</ele><time>2026-04-26T07:42:06.693Z</time></trkpt><trkpt lat="46.1438625" lon="9.5088579"><ele>207.0</ele><time>2026-04-26T07:42:08.693Z</time></trkpt><trkpt lat="46.1437929" lon="9.5089964"><ele>207.0</ele><time>2026-04-26T07:42:10.693Z</time></trkpt><trkpt lat="46.1437161" lon="9.5091343"><ele>207.2</ele><time>2026-04-26T07:42:12.693Z</time></trkpt><trkpt lat="46.1436493" lon="9.5092527"><ele>207.39999999999998</ele><time>2026-04-26T07:42:14.692Z</time></trkpt><trkpt lat="46.1435762" lon="9.5093695"><ele>207.60000000000002</ele><time>2026-04-26T07:42:16.693Z</time></trkpt><trkpt lat="46.1435103" lon="9.5094975"><ele>207.8</ele><time>2026-04-26T07:42:18.692Z</time></trkpt><trkpt lat="46.143442" lon="9.5096184"><ele>208.0</ele><time>2026-04-26T07:42:20.692Z</time></trkpt><trkpt lat="46.1433687" lon="9.5097543"><ele>208.0</ele><time>2026-04-26T07:42:22.692Z</time></trkpt><trkpt lat="46.1432918" lon="9.5098843"><ele>208.0</ele><time>2026-04-26T07:42:24.692Z</time></trkpt><trkpt lat="46.143206" lon="9.5100096"><ele>208.0</ele><time>2026-04-26T07:42:26.694Z</time></trkpt><trkpt lat="46.14315" lon="9.5101467"><ele>208.0</ele><time>2026-04-26T07:42:28.692Z</time></trkpt><trkpt lat="46.1430954" lon="9.510283"><ele>208.0</ele><time>2026-04-26T07:42:30.693Z</time></trkpt><trkpt lat="46.1430293" lon="9.5104269"><ele>208.0</ele><time>2026-04-26T07:42:32.694Z</time></trkpt><trkpt lat="46.142994" lon="9.5105255"><ele>208.0</ele><time>2026-04-26T07:42:33.692Z</time></trkpt><trkpt lat="46.1429318" lon="9.5106632"><ele>208.0</ele><time>2026-04-26T07:42:35.693Z</time></trkpt><trkpt lat="46.1428633" lon="9.5107979"><ele>208.0</ele><time>2026-04-26T07:42:37.692Z</time></trkpt><trkpt lat="46.1427997" lon="9.5109261"><ele>208.0</ele><time>2026-04-26T07:42:39.692Z</time></trkpt><trkpt lat="46.1427373" lon="9.5110366"><ele>208.0</ele><time>2026-04-26T07:42:41.693Z</time></trkpt><trkpt lat="46.1426616" lon="9.5111716"><ele>208.0</ele><time>2026-04-26T07:42:43.692Z</time></trkpt><trkpt lat="46.1425955" lon="9.5113101"><ele>208.0</ele><time>2026-04-26T07:42:45.692Z</time></trkpt><trkpt lat="46.1425228" lon="9.5114502"><ele>208.0</ele><time>2026-04-26T07:42:47.693Z</time></trkpt><trkpt lat="46.1424445" lon="9.5115822"><ele>208.0</ele><time>2026-04-26T07:42:49.694Z</time></trkpt><trkpt lat="46.1423741" lon="9.511724"><ele>208.0</ele><time>2026-04-26T07:42:51.693Z</time></trkpt><trkpt lat="46.14231" lon="9.5118636"><ele>208.0</ele><time>2026-04-26T07:42:53.693Z</time></trkpt><trkpt lat="46.1422367" lon="9.5119951"><ele>208.0</ele><time>2026-04-26T07:42:55.694Z</time></trkpt><trkpt lat="46.1421723" lon="9.5121342"><ele>208.0</ele><time>2026-04-26T07:42:57.692Z</time></trkpt><trkpt lat="46.1421073" lon="9.5122613"><ele>208.0</ele><time>2026-04-26T07:42:59.693Z</time></trkpt><trkpt lat="46.1420373" lon="9.5123957"><ele>208.0</ele><time>2026-04-26T07:43:01.693Z</time></trkpt><trkpt lat="46.1419704" lon="9.5125284"><ele>208.0</ele><time>2026-04-26T07:43:03.693Z</time></trkpt><trkpt lat="46.1419008" lon="9.5126628"><ele>208.0</ele><time>2026-04-26T07:43:05.692Z</time></trkpt><trkpt lat="46.1418538" lon="9.5127246"><ele>208.0</ele><time>2026-04-26T07:43:06.693Z</time></trkpt><trkpt lat="46.1417822" lon="9.5128571"><ele>208.0</ele><time>2026-04-26T07:43:08.692Z</time></trkpt><trkpt lat="46.1417137" lon="9.5129748"><ele>208.0</ele><time>2026-04-26T07:43:10.692Z</time></trkpt><trkpt lat="46.1416569" lon="9.5131026"><ele>208.0</ele><time>2026-04-26T07:43:12.692Z</time></trkpt><trkpt lat="46.1415998" lon="9.5132297"><ele>208.0</ele><time>2026-04-26T07:43:14.692Z</time></trkpt><trkpt lat="46.1415311" lon="9.513368"><ele>208.0</ele><time>2026-04-26T07:43:16.693Z</time></trkpt><trkpt lat="46.1414607" lon="9.5135072"><ele>208.0</ele><time>2026-04-26T07:43:18.693Z</time></trkpt><trkpt lat="46.1414239" lon="9.5135863"><ele>208.0</ele><time>2026-04-26T07:43:19.694Z</time></trkpt><trkpt lat="46.1413609" lon="9.5137224"><ele>208.4</ele><time>2026-04-26T07:43:21.693Z</time></trkpt><trkpt lat="46.1412993" lon="9.5138578"><ele>208.8</ele><time>2026-04-26T07:43:23.692Z</time></trkpt><trkpt lat="46.1412382" lon="9.5140019"><ele>209.2</ele><time>2026-04-26T07:43:25.692Z</time></trkpt><trkpt lat="46.1411905" lon="9.5141421"><ele>209.6</ele><time>2026-04-26T07:43:27.693Z</time></trkpt><trkpt lat="46.141133" lon="9.5142749"><ele>210.0</ele><time>2026-04-26T07:43:29.692Z</time></trkpt><trkpt lat="46.1410671" lon="9.5144121"><ele>210.0</ele><time>2026-04-26T07:43:31.693Z</time></trkpt><trkpt lat="46.1409994" lon="9.5145645"><ele>210.0</ele><time>2026-04-26T07:43:33.693Z</time></trkpt><trkpt lat="46.1409044" lon="9.5147764"><ele>210.0</ele><time>2026-04-26T07:43:36.693Z</time></trkpt><trkpt lat="46.1408486" lon="9.5149103"><ele>210.0</ele><time>2026-04-26T07:43:38.692Z</time></trkpt><trkpt lat="46.1408151" lon="9.5149924"><ele>210.0</ele><time>2026-04-26T07:43:39.693Z</time></trkpt><trkpt lat="46.1407506" lon="9.5151237"><ele>210.0</ele><time>2026-04-26T07:43:41.694Z</time></trkpt><trkpt lat="46.140717" lon="9.5152038"><ele>210.0</ele><time>2026-04-26T07:43:42.692Z</time></trkpt><trkpt lat="46.1406668" lon="9.5153307"><ele>210.0</ele><time>2026-04-26T07:43:44.693Z</time></trkpt><trkpt lat="46.1406373" lon="9.5154841"><ele>210.0</ele><time>2026-04-26T07:43:46.692Z</time></trkpt><trkpt lat="46.1405841" lon="9.515626"><ele>210.0</ele><time>2026-04-26T07:43:48.693Z</time></trkpt><trkpt lat="46.1405247" lon="9.5157713"><ele>210.0</ele><time>2026-04-26T07:43:50.692Z</time></trkpt><trkpt lat="46.1404851" lon="9.5159138"><ele>210.0</ele><time>2026-04-26T07:43:52.692Z</time></trkpt><trkpt lat="46.1404402" lon="9.5160526"><ele>210.0</ele><time>2026-04-26T07:43:54.693Z</time></trkpt><trkpt lat="46.1404143" lon="9.5161382"><ele>210.0</ele><time>2026-04-26T07:43:55.692Z</time></trkpt><trkpt lat="46.1403795" lon="9.5162432"><ele>210.0</ele><time>2026-04-26T07:43:57.693Z</time></trkpt><trkpt lat="46.1403146" lon="9.5163903"><ele>210.0</ele><time>2026-04-26T07:43:59.694Z</time></trkpt><trkpt lat="46.140255" lon="9.516585"><ele>210.0</ele><time>2026-04-26T07:44:02.693Z</time></trkpt><trkpt lat="46.1401789" lon="9.5167405"><ele>210.0</ele><time>2026-04-26T07:44:04.692Z</time></trkpt><trkpt lat="46.1401314" lon="9.5168825"><ele>210.0</ele><time>2026-04-26T07:44:06.693Z</time></trkpt><trkpt lat="46.1400949" lon="9.5170289"><ele>210.0</ele><time>2026-04-26T07:44:08.692Z</time></trkpt><trkpt lat="46.1400538" lon="9.5171717"><ele>210.0</ele><time>2026-04-26T07:44:10.692Z</time></trkpt><trkpt lat="46.140003" lon="9.5173167"><ele>210.0</ele><time>2026-04-26T07:44:12.693Z</time></trkpt><trkpt lat="46.1399591" lon="9.5174708"><ele>210.0</ele><time>2026-04-26T07:44:14.694Z</time></trkpt><trkpt lat="46.1399113" lon="9.5176196"><ele>209.75</ele><time>2026-04-26T07:44:16.692Z</time></trkpt><trkpt lat="46.1398635" lon="9.5177726"><ele>209.5</ele><time>2026-04-26T07:44:18.693Z</time></trkpt><trkpt lat="46.1398042" lon="9.5179252"><ele>209.25</ele><time>2026-04-26T07:44:20.692Z</time></trkpt><trkpt lat="46.13977" lon="9.518079"><ele>209.0</ele><time>2026-04-26T07:44:22.692Z</time></trkpt><trkpt lat="46.1397341" lon="9.5182213"><ele>209.39999999999998</ele><time>2026-04-26T07:44:24.694Z</time></trkpt><trkpt lat="46.1397059" lon="9.5183653"><ele>209.8</ele><time>2026-04-26T07:44:26.693Z</time></trkpt><trkpt lat="46.1396689" lon="9.5185062"><ele>210.2</ele><time>2026-04-26T07:44:28.692Z</time></trkpt><trkpt lat="46.1396244" lon="9.5186615"><ele>210.60000000000002</ele><time>2026-04-26T07:44:30.693Z</time></trkpt><trkpt lat="46.1395828" lon="9.5187928"><ele>211.0</ele><time>2026-04-26T07:44:32.692Z</time></trkpt><trkpt lat="46.1395427" lon="9.518949"><ele>211.0</ele><time>2026-04-26T07:44:34.694Z</time></trkpt><trkpt lat="46.1395041" lon="9.5190853"><ele>211.0</ele><time>2026-04-26T07:44:36.693Z</time></trkpt><trkpt lat="46.1394652" lon="9.5192301"><ele>211.0</ele><time>2026-04-26T07:44:38.694Z</time></trkpt><trkpt lat="46.1394208" lon="9.5193604"><ele>211.0</ele><time>2026-04-26T07:44:40.692Z</time></trkpt><trkpt lat="46.1393806" lon="9.5195056"><ele>211.0</ele><time>2026-04-26T07:44:42.693Z</time></trkpt><trkpt lat="46.1393456" lon="9.5196464"><ele>210.8</ele><time>2026-04-26T07:44:44.693Z</time></trkpt><trkpt lat="46.1393102" lon="9.5197832"><ele>210.60000000000002</ele><time>2026-04-26T07:44:46.694Z</time></trkpt><trkpt lat="46.1392762" lon="9.5199315"><ele>210.4</ele><time>2026-04-26T07:44:48.693Z</time></trkpt><trkpt lat="46.1392285" lon="9.5200671"><ele>210.2</ele><time>2026-04-26T07:44:50.693Z</time></trkpt><trkpt lat="46.1391863" lon="9.5202184"><ele>210.0</ele><time>2026-04-26T07:44:52.691Z</time></trkpt><trkpt lat="46.1391433" lon="9.520349"><ele>210.0</ele><time>2026-04-26T07:44:54.694Z</time></trkpt><trkpt lat="46.1391064" lon="9.5204829"><ele>210.0</ele><time>2026-04-26T07:44:56.692Z</time></trkpt><trkpt lat="46.1390679" lon="9.5206259"><ele>210.0</ele><time>2026-04-26T07:44:58.693Z</time></trkpt><trkpt lat="46.139042" lon="9.5207638"><ele>210.0</ele><time>2026-04-26T07:45:00.692Z</time></trkpt><trkpt lat="46.138992" lon="9.5208991"><ele>210.0</ele><time>2026-04-26T07:45:02.693Z</time></trkpt><trkpt lat="46.1389489" lon="9.5210407"><ele>210.0</ele><time>2026-04-26T07:45:04.692Z</time></trkpt><trkpt lat="46.1389055" lon="9.5211819"><ele>210.0</ele><time>2026-04-26T07:45:06.693Z</time></trkpt><trkpt lat="46.1388627" lon="9.5213235"><ele>210.0</ele><time>2026-04-26T07:45:08.693Z</time></trkpt><trkpt lat="46.1388109" lon="9.5214729"><ele>210.0</ele><time>2026-04-26T07:45:10.692Z</time></trkpt><trkpt lat="46.1387822" lon="9.5216107"><ele>210.0</ele><time>2026-04-26T07:45:12.694Z</time></trkpt><trkpt lat="46.1387383" lon="9.5217593"><ele>210.0</ele><time>2026-04-26T07:45:14.691Z</time></trkpt><trkpt lat="46.1387044" lon="9.5219129"><ele>210.0</ele><time>2026-04-26T07:45:16.693Z</time></trkpt><trkpt lat="46.1386632" lon="9.5220779"><ele>210.0</ele><time>2026-04-26T07:45:18.694Z</time></trkpt><trkpt lat="46.138632" lon="9.52223"><ele>210.0</ele><time>2026-04-26T07:45:20.692Z</time></trkpt><trkpt lat="46.1385943" lon="9.5223152"><ele>210.0</ele><time>2026-04-26T07:45:21.693Z</time></trkpt><trkpt lat="46.1385546" lon="9.5224811"><ele>210.2</ele><time>2026-04-26T07:45:23.695Z</time></trkpt><trkpt lat="46.1385214" lon="9.5226279"><ele>210.4</ele><time>2026-04-26T07:45:25.694Z</time></trkpt><trkpt lat="46.1385043" lon="9.522785"><ele>210.60000000000002</ele><time>2026-04-26T07:45:27.694Z</time></trkpt><trkpt lat="46.1384948" lon="9.5228811"><ele>210.8</ele><time>2026-04-26T07:45:28.694Z</time></trkpt><trkpt lat="46.1385008" lon="9.5230368"><ele>211.0</ele><time>2026-04-26T07:45:30.693Z</time></trkpt><trkpt lat="46.1384538" lon="9.5232069"><ele>211.0</ele><time>2026-04-26T07:45:32.693Z</time></trkpt><trkpt lat="46.1384359" lon="9.5233601"><ele>211.0</ele><time>2026-04-26T07:45:34.692Z</time></trkpt><trkpt lat="46.1384178" lon="9.523604"><ele>211.0</ele><time>2026-04-26T07:45:37.694Z</time></trkpt><trkpt lat="46.1384079" lon="9.5237328"><ele>211.0</ele><time>2026-04-26T07:45:39.694Z</time></trkpt><trkpt lat="46.1384208" lon="9.5238757"><ele>210.83333333333331</ele><time>2026-04-26T07:45:41.692Z</time></trkpt><trkpt lat="46.1384471" lon="9.5240166"><ele>210.66666666666666</ele><time>2026-04-26T07:45:43.693Z</time></trkpt><trkpt lat="46.1384467" lon="9.5241086"><ele>210.5</ele><time>2026-04-26T07:45:44.694Z</time></trkpt><trkpt lat="46.1384404" lon="9.5242951"><ele>210.33333333333331</ele><time>2026-04-26T07:45:46.693Z</time></trkpt><trkpt lat="46.1384358" lon="9.524398"><ele>210.16666666666666</ele><time>2026-04-26T07:45:47.693Z</time></trkpt><trkpt lat="46.1384393" lon="9.5244969"><ele>210.0</ele><time>2026-04-26T07:45:48.692Z</time></trkpt><trkpt lat="46.1384395" lon="9.5245988"><ele>210.0</ele><time>2026-04-26T07:45:49.692Z</time></trkpt><trkpt lat="46.1384345" lon="9.5247037"><ele>210.0</ele><time>2026-04-26T07:45:50.693Z</time></trkpt><trkpt lat="46.1384313" lon="9.5248199"><ele>210.0</ele><time>2026-04-26T07:45:51.693Z</time></trkpt><trkpt lat="46.1384298" lon="9.5249193"><ele>210.0</ele><time>2026-04-26T07:45:52.694Z</time></trkpt><trkpt lat="46.138421" lon="9.5250293"><ele>210.0</ele><time>2026-04-26T07:45:53.693Z</time></trkpt><trkpt lat="46.138411" lon="9.5251376"><ele>210.0</ele><time>2026-04-26T07:45:54.694Z</time></trkpt><trkpt lat="46.1384018" lon="9.525236"><ele>210.0</ele><time>2026-04-26T07:45:55.694Z</time></trkpt><trkpt lat="46.1383963" lon="9.5253403"><ele>209.83333333333334</ele><time>2026-04-26T07:45:56.692Z</time></trkpt><trkpt lat="46.1383962" lon="9.5254378"><ele>209.66666666666669</ele><time>2026-04-26T07:45:57.692Z</time></trkpt><trkpt lat="46.1383976" lon="9.5255299"><ele>209.5</ele><time>2026-04-26T07:45:58.694Z</time></trkpt><trkpt lat="46.1383946" lon="9.5256228"><ele>209.33333333333334</ele><time>2026-04-26T07:45:59.694Z</time></trkpt><trkpt lat="46.1383926" lon="9.5257185"><ele>209.16666666666669</ele><time>2026-04-26T07:46:00.693Z</time></trkpt><trkpt lat="46.1383957" lon="9.5259007"><ele>209.0</ele><time>2026-04-26T07:46:02.694Z</time></trkpt><trkpt lat="46.138388" lon="9.5260814"><ele>209.25</ele><time>2026-04-26T07:46:04.692Z</time></trkpt><trkpt lat="46.138377" lon="9.5262316"><ele>209.5</ele><time>2026-04-26T07:46:06.693Z</time></trkpt><trkpt lat="46.1383764" lon="9.5263987"><ele>209.75</ele><time>2026-04-26T07:46:08.694Z</time></trkpt><trkpt lat="46.1383678" lon="9.5265733"><ele>210.0</ele><time>2026-04-26T07:46:10.692Z</time></trkpt><trkpt lat="46.1383628" lon="9.5267495"><ele>210.0</ele><time>2026-04-26T07:46:12.694Z</time></trkpt><trkpt lat="46.138345" lon="9.526918"><ele>210.0</ele><time>2026-04-26T07:46:14.694Z</time></trkpt><trkpt lat="46.1383396" lon="9.5270884"><ele>210.0</ele><time>2026-04-26T07:46:16.693Z</time></trkpt><trkpt lat="46.1383322" lon="9.5272598"><ele>210.0</ele><time>2026-04-26T07:46:18.693Z</time></trkpt><trkpt lat="46.1383272" lon="9.5274416"><ele>210.0</ele><time>2026-04-26T07:46:20.695Z</time></trkpt><trkpt lat="46.1383056" lon="9.5275938"><ele>210.0</ele><time>2026-04-26T07:46:22.693Z</time></trkpt><trkpt lat="46.1382989" lon="9.5277346"><ele>210.0</ele><time>2026-04-26T07:46:24.694Z</time></trkpt><trkpt lat="46.1382791" lon="9.5278252"><ele>210.0</ele><time>2026-04-26T07:46:26.693Z</time></trkpt><trkpt lat="46.138257" lon="9.527927"><ele>210.0</ele><time>2026-04-26T07:46:28.693Z</time></trkpt><trkpt lat="46.1382483" lon="9.528034"><ele>210.0</ele><time>2026-04-26T07:46:30.693Z</time></trkpt><trkpt lat="46.1382414" lon="9.5281586"><ele>210.2</ele><time>2026-04-26T07:46:32.694Z</time></trkpt><trkpt lat="46.1382343" lon="9.5282989"><ele>210.4</ele><time>2026-04-26T07:46:34.693Z</time></trkpt><trkpt lat="46.1382248" lon="9.528433"><ele>210.60000000000002</ele><time>2026-04-26T07:46:36.693Z</time></trkpt><trkpt lat="46.138205" lon="9.5285734"><ele>210.8</ele><time>2026-04-26T07:46:38.694Z</time></trkpt><trkpt lat="46.1382057" lon="9.5287114"><ele>211.0</ele><time>2026-04-26T07:46:40.693Z</time></trkpt><trkpt lat="46.1381955" lon="9.5288657"><ele>211.20000000000002</ele><time>2026-04-26T07:46:42.694Z</time></trkpt><trkpt lat="46.1381913" lon="9.5290161"><ele>211.4</ele><time>2026-04-26T07:46:44.693Z</time></trkpt><trkpt lat="46.1381846" lon="9.5291641"><ele>211.6</ele><time>2026-04-26T07:46:46.694Z</time></trkpt><trkpt lat="46.1381737" lon="9.5293197"><ele>211.8</ele><time>2026-04-26T07:46:48.692Z</time></trkpt><trkpt lat="46.1381584" lon="9.5294776"><ele>212.0</ele><time>2026-04-26T07:46:50.694Z</time></trkpt><trkpt lat="46.1381405" lon="9.5296312"><ele>212.5</ele><time>2026-04-26T07:46:52.694Z</time></trkpt><trkpt lat="46.1380876" lon="9.529793"><ele>213.0</ele><time>2026-04-26T07:46:54.694Z</time></trkpt><trkpt lat="46.1380297" lon="9.5299496"><ele>213.5</ele><time>2026-04-26T07:46:56.693Z</time></trkpt><trkpt lat="46.1379999" lon="9.5301214"><ele>214.0</ele><time>2026-04-26T07:46:58.692Z</time></trkpt><trkpt lat="46.1379934" lon="9.5302772"><ele>214.5</ele><time>2026-04-26T07:47:00.693Z</time></trkpt><trkpt lat="46.1380029" lon="9.530444"><ele>215.0</ele><time>2026-04-26T07:47:02.693Z</time></trkpt><trkpt lat="46.1380009" lon="9.5305967"><ele>215.5</ele><time>2026-04-26T07:47:04.694Z</time></trkpt><trkpt lat="46.1380075" lon="9.5307577"><ele>216.0</ele><time>2026-04-26T07:47:06.693Z</time></trkpt><trkpt lat="46.1380006" lon="9.530932"><ele>216.0</ele><time>2026-04-26T07:47:08.694Z</time></trkpt><trkpt lat="46.1379982" lon="9.5310874"><ele>216.0</ele><time>2026-04-26T07:47:10.693Z</time></trkpt><trkpt lat="46.1379884" lon="9.5312505"><ele>216.0</ele><time>2026-04-26T07:47:12.693Z</time></trkpt><trkpt lat="46.1379761" lon="9.5314218"><ele>216.0</ele><time>2026-04-26T07:47:14.691Z</time></trkpt><trkpt lat="46.1379745" lon="9.5315809"><ele>216.0</ele><time>2026-04-26T07:47:16.693Z</time></trkpt><trkpt lat="46.137967" lon="9.5317381"><ele>216.00000000000003</ele><time>2026-04-26T07:47:18.693Z</time></trkpt><trkpt lat="46.1379547" lon="9.5318969"><ele>216.00000000000003</ele><time>2026-04-26T07:47:20.693Z</time></trkpt><trkpt lat="46.1379474" lon="9.5319877"><ele>216.0</ele><time>2026-04-26T07:47:21.694Z</time></trkpt><trkpt lat="46.1379521" lon="9.5321383"><ele>216.0</ele><time>2026-04-26T07:47:23.694Z</time></trkpt><trkpt lat="46.1379527" lon="9.5322994"><ele>215.8</ele><time>2026-04-26T07:47:25.694Z</time></trkpt><trkpt lat="46.1379384" lon="9.5324388"><ele>215.60000000000002</ele><time>2026-04-26T07:47:27.694Z</time></trkpt><trkpt lat="46.1379344" lon="9.5325977"><ele>215.4</ele><time>2026-04-26T07:47:29.693Z</time></trkpt><trkpt lat="46.137938" lon="9.5326925"><ele>215.2</ele><time>2026-04-26T07:47:30.694Z</time></trkpt><trkpt lat="46.1379245" lon="9.5328224"><ele>215.0</ele><time>2026-04-26T07:47:32.694Z</time></trkpt><trkpt lat="46.1379227" lon="9.532993"><ele>214.6</ele><time>2026-04-26T07:47:34.694Z</time></trkpt><trkpt lat="46.1379254" lon="9.5330897"><ele>214.2</ele><time>2026-04-26T07:47:35.693Z</time></trkpt><trkpt lat="46.1379086" lon="9.5332399"><ele>213.8</ele><time>2026-04-26T07:47:37.694Z</time></trkpt><trkpt lat="46.1378915" lon="9.5334043"><ele>213.4</ele><time>2026-04-26T07:47:39.693Z</time></trkpt><trkpt lat="46.1379115" lon="9.5335599"><ele>213.0</ele><time>2026-04-26T07:47:41.694Z</time></trkpt><trkpt lat="46.1379072" lon="9.533749"><ele>213.8</ele><time>2026-04-26T07:47:43.694Z</time></trkpt><trkpt lat="46.1378988" lon="9.5338392"><ele>214.60000000000002</ele><time>2026-04-26T07:47:44.694Z</time></trkpt><trkpt lat="46.1379074" lon="9.5339874"><ele>215.39999999999998</ele><time>2026-04-26T07:47:46.694Z</time></trkpt><trkpt lat="46.1378832" lon="9.53415"><ele>216.2</ele><time>2026-04-26T07:47:48.694Z</time></trkpt><trkpt lat="46.137873" lon="9.5343078"><ele>217.0</ele><time>2026-04-26T07:47:50.694Z</time></trkpt><trkpt lat="46.1378626" lon="9.5345414"><ele>217.33333333333331</ele><time>2026-04-26T07:47:53.693Z</time></trkpt><trkpt lat="46.137822" lon="9.5346382"><ele>217.66666666666666</ele><time>2026-04-26T07:47:54.694Z</time></trkpt><trkpt lat="46.1378038" lon="9.5347533"><ele>218.0</ele><time>2026-04-26T07:47:55.693Z</time></trkpt><trkpt lat="46.1377949" lon="9.5348596"><ele>218.33333333333331</ele><time>2026-04-26T07:47:56.694Z</time></trkpt><trkpt lat="46.1378141" lon="9.5350248"><ele>218.66666666666666</ele><time>2026-04-26T07:47:58.694Z</time></trkpt><trkpt lat="46.1378344" lon="9.5351142"><ele>219.0</ele><time>2026-04-26T07:47:59.694Z</time></trkpt><trkpt lat="46.137872" lon="9.535255"><ele>218.2</ele><time>2026-04-26T07:48:01.693Z</time></trkpt><trkpt lat="46.1379143" lon="9.5354041"><ele>217.39999999999998</ele><time>2026-04-26T07:48:03.693Z</time></trkpt><trkpt lat="46.1379488" lon="9.535517"><ele>216.6</ele><time>2026-04-26T07:48:05.693Z</time></trkpt><trkpt lat="46.1379761" lon="9.5356745"><ele>215.8</ele><time>2026-04-26T07:48:07.693Z</time></trkpt><trkpt lat="46.1380138" lon="9.5358208"><ele>215.0</ele><time>2026-04-26T07:48:09.693Z</time></trkpt><trkpt lat="46.1380403" lon="9.5359593"><ele>215.0</ele><time>2026-04-26T07:48:11.694Z</time></trkpt><trkpt lat="46.1380773" lon="9.5360891"><ele>215.0</ele><time>2026-04-26T07:48:13.693Z</time></trkpt><trkpt lat="46.1381037" lon="9.5362491"><ele>215.0</ele><time>2026-04-26T07:48:15.694Z</time></trkpt><trkpt lat="46.1381155" lon="9.5364195"><ele>215.0</ele><time>2026-04-26T07:48:17.693Z</time></trkpt><trkpt lat="46.1381336" lon="9.5365795"><ele>215.0</ele><time>2026-04-26T07:48:19.693Z</time></trkpt><trkpt lat="46.1381469" lon="9.5367471"><ele>215.0</ele><time>2026-04-26T07:48:21.694Z</time></trkpt><trkpt lat="46.1381601" lon="9.5369199"><ele>215.0</ele><time>2026-04-26T07:48:23.694Z</time></trkpt><trkpt lat="46.1381743" lon="9.5370906"><ele>215.0</ele><time>2026-04-26T07:48:25.693Z</time></trkpt><trkpt lat="46.1381813" lon="9.5372537"><ele>215.0</ele><time>2026-04-26T07:48:27.694Z</time></trkpt><trkpt lat="46.1381938" lon="9.5374157"><ele>215.0</ele><time>2026-04-26T07:48:29.693Z</time></trkpt><trkpt lat="46.1382027" lon="9.5375685"><ele>215.0</ele><time>2026-04-26T07:48:31.693Z</time></trkpt><trkpt lat="46.1382145" lon="9.537729"><ele>215.0</ele><time>2026-04-26T07:48:33.693Z</time></trkpt><trkpt lat="46.1382288" lon="9.5378867"><ele>215.0</ele><time>2026-04-26T07:48:35.693Z</time></trkpt><trkpt lat="46.1382364" lon="9.5380369"><ele>215.0</ele><time>2026-04-26T07:48:37.693Z</time></trkpt><trkpt lat="46.1382515" lon="9.5381875"><ele>216.0</ele><time>2026-04-26T07:48:39.694Z</time></trkpt><trkpt lat="46.1382675" lon="9.5383725"><ele>217.0</ele><time>2026-04-26T07:48:41.693Z</time></trkpt><trkpt lat="46.1382723" lon="9.5385266"><ele>218.0</ele><time>2026-04-26T07:48:43.694Z</time></trkpt><trkpt lat="46.1382882" lon="9.5386898"><ele>219.0</ele><time>2026-04-26T07:48:45.694Z</time></trkpt><trkpt lat="46.1382998" lon="9.5388578"><ele>219.0</ele><time>2026-04-26T07:48:47.694Z</time></trkpt><trkpt lat="46.1383129" lon="9.539019"><ele>218.99999999999997</ele><time>2026-04-26T07:48:49.694Z</time></trkpt><trkpt lat="46.1383261" lon="9.5391671"><ele>218.99999999999997</ele><time>2026-04-26T07:48:51.693Z</time></trkpt><trkpt lat="46.1383281" lon="9.5393058"><ele>219.0</ele><time>2026-04-26T07:48:53.693Z</time></trkpt><trkpt lat="46.1383431" lon="9.5394559"><ele>219.0</ele><time>2026-04-26T07:48:55.693Z</time></trkpt><trkpt lat="46.138365" lon="9.5395947"><ele>218.2</ele><time>2026-04-26T07:48:57.694Z</time></trkpt><trkpt lat="46.1383799" lon="9.5397541"><ele>217.39999999999998</ele><time>2026-04-26T07:48:59.693Z</time></trkpt><trkpt lat="46.1384031" lon="9.5398649"><ele>216.6</ele><time>2026-04-26T07:49:01.693Z</time></trkpt><trkpt lat="46.1384058" lon="9.5400008"><ele>215.8</ele><time>2026-04-26T07:49:03.694Z</time></trkpt><trkpt lat="46.1384249" lon="9.540115"><ele>215.0</ele><time>2026-04-26T07:49:05.693Z</time></trkpt><trkpt lat="46.1384532" lon="9.5402314"><ele>215.00000000000003</ele><time>2026-04-26T07:49:08.693Z</time></trkpt><trkpt lat="46.1385371" lon="9.5402643"><ele>215.0</ele><time>2026-04-26T07:49:10.694Z</time></trkpt><trkpt lat="46.1386041" lon="9.540268"><ele>215.0</ele><time>2026-04-26T07:49:12.695Z</time></trkpt><trkpt lat="46.1386815" lon="9.5403005"><ele>215.0</ele><time>2026-04-26T07:49:15.695Z</time></trkpt><trkpt lat="46.1388073" lon="9.5403775"><ele>215.00000000000003</ele><time>2026-04-26T07:49:17.695Z</time></trkpt><trkpt lat="46.1388075" lon="9.5404698"><ele>215.0</ele><time>2026-04-26T07:49:18.695Z</time></trkpt><trkpt lat="46.1388277" lon="9.5405623"><ele>215.2</ele><time>2026-04-26T07:49:19.694Z</time></trkpt><trkpt lat="46.1388521" lon="9.5406468"><ele>215.4</ele><time>2026-04-26T07:49:20.695Z</time></trkpt><trkpt lat="46.1388956" lon="9.5408141"><ele>215.60000000000002</ele><time>2026-04-26T07:49:22.695Z</time></trkpt><trkpt lat="46.1389207" lon="9.5409868"><ele>215.8</ele><time>2026-04-26T07:49:24.694Z</time></trkpt><trkpt lat="46.1389531" lon="9.5411484"><ele>216.0</ele><time>2026-04-26T07:49:26.693Z</time></trkpt><trkpt lat="46.1389957" lon="9.5413281"><ele>216.0</ele><time>2026-04-26T07:49:28.693Z</time></trkpt><trkpt lat="46.1390191" lon="9.5414149"><ele>216.00000000000003</ele><time>2026-04-26T07:49:29.693Z</time></trkpt><trkpt lat="46.1390707" lon="9.5415607"><ele>216.00000000000003</ele><time>2026-04-26T07:49:31.693Z</time></trkpt><trkpt lat="46.1390975" lon="9.5416518"><ele>216.0</ele><time>2026-04-26T07:49:32.694Z</time></trkpt><trkpt lat="46.1391383" lon="9.5418163"><ele>216.0</ele><time>2026-04-26T07:49:34.694Z</time></trkpt><trkpt lat="46.1391855" lon="9.5419725"><ele>216.0</ele><time>2026-04-26T07:49:36.693Z</time></trkpt><trkpt lat="46.1392171" lon="9.5421345"><ele>216.0</ele><time>2026-04-26T07:49:38.694Z</time></trkpt><trkpt lat="46.1392471" lon="9.5422948"><ele>216.0</ele><time>2026-04-26T07:49:40.693Z</time></trkpt><trkpt lat="46.1392705" lon="9.5424506"><ele>216.0</ele><time>2026-04-26T07:49:42.695Z</time></trkpt><trkpt lat="46.1393059" lon="9.5426084"><ele>216.0</ele><time>2026-04-26T07:49:44.693Z</time></trkpt><trkpt lat="46.1393506" lon="9.5427635"><ele>216.00000000000003</ele><time>2026-04-26T07:49:46.693Z</time></trkpt><trkpt lat="46.1393967" lon="9.5429316"><ele>216.00000000000003</ele><time>2026-04-26T07:49:48.694Z</time></trkpt><trkpt lat="46.1394174" lon="9.5430238"><ele>216.0</ele><time>2026-04-26T07:49:49.695Z</time></trkpt><trkpt lat="46.1394474" lon="9.5431716"><ele>216.0</ele><time>2026-04-26T07:49:51.695Z</time></trkpt><trkpt lat="46.1394905" lon="9.5433217"><ele>216.20000000000002</ele><time>2026-04-26T07:49:53.694Z</time></trkpt><trkpt lat="46.1395435" lon="9.5434556"><ele>216.40000000000003</ele><time>2026-04-26T07:49:55.694Z</time></trkpt><trkpt lat="46.1395863" lon="9.5435948"><ele>216.6</ele><time>2026-04-26T07:49:57.695Z</time></trkpt><trkpt lat="46.1396337" lon="9.5437179"><ele>216.8</ele><time>2026-04-26T07:49:59.694Z</time></trkpt><trkpt lat="46.1396665" lon="9.5438427"><ele>217.0</ele><time>2026-04-26T07:50:01.694Z</time></trkpt><trkpt lat="46.1397034" lon="9.5439722"><ele>217.0</ele><time>2026-04-26T07:50:03.694Z</time></trkpt><trkpt lat="46.1397539" lon="9.5440928"><ele>217.0</ele><time>2026-04-26T07:50:05.692Z</time></trkpt><trkpt lat="46.1397868" lon="9.5442384"><ele>217.0</ele><time>2026-04-26T07:50:07.695Z</time></trkpt><trkpt lat="46.1398095" lon="9.5443916"><ele>217.0</ele><time>2026-04-26T07:50:09.694Z</time></trkpt><trkpt lat="46.139829" lon="9.5444974"><ele>217.0</ele><time>2026-04-26T07:50:10.693Z</time></trkpt><trkpt lat="46.139854" lon="9.5446571"><ele>216.8</ele><time>2026-04-26T07:50:12.694Z</time></trkpt><trkpt lat="46.1398774" lon="9.5448052"><ele>216.6</ele><time>2026-04-26T07:50:14.695Z</time></trkpt><trkpt lat="46.1399185" lon="9.5449903"><ele>216.40000000000003</ele><time>2026-04-26T07:50:16.694Z</time></trkpt><trkpt lat="46.1399361" lon="9.5450833"><ele>216.20000000000002</ele><time>2026-04-26T07:50:17.693Z</time></trkpt><trkpt lat="46.1399718" lon="9.5452277"><ele>216.0</ele><time>2026-04-26T07:50:19.693Z</time></trkpt><trkpt lat="46.1399585" lon="9.5453196"><ele>216.0</ele><time>2026-04-26T07:50:20.695Z</time></trkpt><trkpt lat="46.139992" lon="9.5454665"><ele>216.00000000000003</ele><time>2026-04-26T07:50:22.694Z</time></trkpt><trkpt lat="46.1400093" lon="9.5456066"><ele>216.00000000000003</ele><time>2026-04-26T07:50:24.694Z</time></trkpt><trkpt lat="46.140071" lon="9.5457432"><ele>216.0</ele><time>2026-04-26T07:50:26.694Z</time></trkpt><trkpt lat="46.1400917" lon="9.5458733"><ele>216.0</ele><time>2026-04-26T07:50:28.693Z</time></trkpt><trkpt lat="46.1401088" lon="9.5459622"><ele>216.0</ele><time>2026-04-26T07:50:29.693Z</time></trkpt><trkpt lat="46.1401306" lon="9.5460487"><ele>216.00000000000003</ele><time>2026-04-26T07:50:30.692Z</time></trkpt><trkpt lat="46.1401794" lon="9.5461846"><ele>216.00000000000003</ele><time>2026-04-26T07:50:32.692Z</time></trkpt><trkpt lat="46.1402317" lon="9.5463258"><ele>216.0</ele><time>2026-04-26T07:50:34.693Z</time></trkpt><trkpt lat="46.1402802" lon="9.5464679"><ele>216.0</ele><time>2026-04-26T07:50:36.693Z</time></trkpt><trkpt lat="46.1403216" lon="9.5465779"><ele>216.60000000000002</ele><time>2026-04-26T07:50:38.694Z</time></trkpt><trkpt lat="46.1403498" lon="9.546712"><ele>217.20000000000002</ele><time>2026-04-26T07:50:40.693Z</time></trkpt><trkpt lat="46.1403879" lon="9.5468451"><ele>217.79999999999998</ele><time>2026-04-26T07:50:42.694Z</time></trkpt><trkpt lat="46.140395" lon="9.5469853"><ele>218.39999999999998</ele><time>2026-04-26T07:50:44.694Z</time></trkpt><trkpt lat="46.1404587" lon="9.5471084"><ele>219.0</ele><time>2026-04-26T07:50:46.694Z</time></trkpt><trkpt lat="46.1405236" lon="9.5472197"><ele>219.2</ele><time>2026-04-26T07:50:48.695Z</time></trkpt><trkpt lat="46.1405833" lon="9.5473432"><ele>219.39999999999998</ele><time>2026-04-26T07:50:50.694Z</time></trkpt><trkpt lat="46.1406414" lon="9.5474718"><ele>219.6</ele><time>2026-04-26T07:50:52.695Z</time></trkpt><trkpt lat="46.14071" lon="9.5475996"><ele>219.8</ele><time>2026-04-26T07:50:54.694Z</time></trkpt><trkpt lat="46.1407559" lon="9.5477368"><ele>220.0</ele><time>2026-04-26T07:50:56.693Z</time></trkpt><trkpt lat="46.1407867" lon="9.5478669"><ele>219.2</ele><time>2026-04-26T07:50:58.692Z</time></trkpt><trkpt lat="46.1408396" lon="9.5479637"><ele>218.4</ele><time>2026-04-26T07:51:00.694Z</time></trkpt><trkpt lat="46.1408985" lon="9.5480744"><ele>217.60000000000002</ele><time>2026-04-26T07:51:02.693Z</time></trkpt><trkpt lat="46.1409402" lon="9.5482197"><ele>216.8</ele><time>2026-04-26T07:51:04.693Z</time></trkpt><trkpt lat="46.1409272" lon="9.5483461"><ele>216.0</ele><time>2026-04-26T07:51:06.694Z</time></trkpt><trkpt lat="46.1408945" lon="9.5484807"><ele>216.0</ele><time>2026-04-26T07:51:08.692Z</time></trkpt><trkpt lat="46.1409153" lon="9.5485914"><ele>216.0</ele><time>2026-04-26T07:51:10.695Z</time></trkpt><trkpt lat="46.1410001" lon="9.5485955"><ele>216.0</ele><time>2026-04-26T07:51:13.694Z</time></trkpt><trkpt lat="46.1410829" lon="9.548547"><ele>216.0</ele><time>2026-04-26T07:51:16.694Z</time></trkpt><trkpt lat="46.1411441" lon="9.5484994"><ele>216.0</ele><time>2026-04-26T07:51:20.695Z</time></trkpt><trkpt lat="46.1412087" lon="9.5484822"><ele>216.0</ele><time>2026-04-26T07:51:22.694Z</time></trkpt><trkpt lat="46.1412998" lon="9.5484194"><ele>216.0</ele><time>2026-04-26T07:51:24.694Z</time></trkpt><trkpt lat="46.1413862" lon="9.5483266"><ele>216.00000000000003</ele><time>2026-04-26T07:51:26.695Z</time></trkpt><trkpt lat="46.1414515" lon="9.5482833"><ele>216.00000000000003</ele><time>2026-04-26T07:51:27.695Z</time></trkpt><trkpt lat="46.1415497" lon="9.5482278"><ele>216.0</ele><time>2026-04-26T07:51:29.694Z</time></trkpt><trkpt lat="46.1415966" lon="9.5483188"><ele>216.0</ele><time>2026-04-26T07:51:30.695Z</time></trkpt><trkpt lat="46.1416309" lon="9.5484522"><ele>216.8</ele><time>2026-04-26T07:51:32.693Z</time></trkpt><trkpt lat="46.1416543" lon="9.5486116"><ele>217.60000000000002</ele><time>2026-04-26T07:51:34.693Z</time></trkpt><trkpt lat="46.1416902" lon="9.5487448"><ele>218.4</ele><time>2026-04-26T07:51:36.694Z</time></trkpt><trkpt lat="46.1417622" lon="9.5488568"><ele>219.2</ele><time>2026-04-26T07:51:38.694Z</time></trkpt><trkpt lat="46.1418422" lon="9.5489666"><ele>220.0</ele><time>2026-04-26T07:51:40.693Z</time></trkpt><trkpt lat="46.1419192" lon="9.5490586"><ele>220.2</ele><time>2026-04-26T07:51:42.695Z</time></trkpt><trkpt lat="46.1419994" lon="9.5491808"><ele>220.4</ele><time>2026-04-26T07:51:44.693Z</time></trkpt><trkpt lat="46.1420829" lon="9.5492948"><ele>220.60000000000002</ele><time>2026-04-26T07:51:46.695Z</time></trkpt><trkpt lat="46.1421317" lon="9.549386"><ele>220.8</ele><time>2026-04-26T07:51:47.695Z</time></trkpt><trkpt lat="46.1422023" lon="9.5495064"><ele>221.0</ele><time>2026-04-26T07:51:49.695Z</time></trkpt><trkpt lat="46.1422794" lon="9.5496101"><ele>220.60000000000002</ele><time>2026-04-26T07:51:51.693Z</time></trkpt><trkpt lat="46.1423558" lon="9.5497219"><ele>220.20000000000002</ele><time>2026-04-26T07:51:53.694Z</time></trkpt><trkpt lat="46.142435" lon="9.5498447"><ele>219.79999999999998</ele><time>2026-04-26T07:51:55.694Z</time></trkpt><trkpt lat="46.1425069" lon="9.5499528"><ele>219.39999999999998</ele><time>2026-04-26T07:51:57.694Z</time></trkpt><trkpt lat="46.1425816" lon="9.5500715"><ele>219.0</ele><time>2026-04-26T07:51:59.694Z</time></trkpt><trkpt lat="46.1426484" lon="9.5501929"><ele>219.39999999999998</ele><time>2026-04-26T07:52:01.694Z</time></trkpt><trkpt lat="46.1427377" lon="9.5503003"><ele>219.79999999999998</ele><time>2026-04-26T07:52:03.694Z</time></trkpt><trkpt lat="46.1428135" lon="9.5503971"><ele>220.20000000000002</ele><time>2026-04-26T07:52:05.693Z</time></trkpt><trkpt lat="46.1428892" lon="9.5505268"><ele>220.60000000000002</ele><time>2026-04-26T07:52:07.694Z</time></trkpt><trkpt lat="46.1429601" lon="9.5506322"><ele>221.0</ele><time>2026-04-26T07:52:09.695Z</time></trkpt><trkpt lat="46.1430123" lon="9.5507535"><ele>221.00000000000003</ele><time>2026-04-26T07:52:11.693Z</time></trkpt><trkpt lat="46.1430665" lon="9.5508566"><ele>221.0</ele><time>2026-04-26T07:52:13.693Z</time></trkpt><trkpt lat="46.1431022" lon="9.5509727"><ele>221.0</ele><time>2026-04-26T07:52:16.694Z</time></trkpt><trkpt lat="46.1431646" lon="9.5510107"><ele>221.0</ele><time>2026-04-26T07:52:19.695Z</time></trkpt><trkpt lat="46.1432425" lon="9.5510311"><ele>221.00000000000003</ele><time>2026-04-26T07:52:22.694Z</time></trkpt><trkpt lat="46.1433132" lon="9.5510158"><ele>221.0</ele><time>2026-04-26T07:52:24.695Z</time></trkpt><trkpt lat="46.1433808" lon="9.5509663"><ele>220.83333333333334</ele><time>2026-04-26T07:52:26.694Z</time></trkpt><trkpt lat="46.1434413" lon="9.5509159"><ele>220.66666666666669</ele><time>2026-04-26T07:52:28.694Z</time></trkpt><trkpt lat="46.1435152" lon="9.5508469"><ele>220.5</ele><time>2026-04-26T07:52:31.694Z</time></trkpt><trkpt lat="46.1435727" lon="9.5507836"><ele>220.33333333333331</ele><time>2026-04-26T07:52:35.694Z</time></trkpt><trkpt lat="46.1436383" lon="9.5507246"><ele>220.16666666666666</ele><time>2026-04-26T07:52:38.692Z</time></trkpt><trkpt lat="46.1437068" lon="9.5506669"><ele>220.0</ele><time>2026-04-26T07:52:41.695Z</time></trkpt><trkpt lat="46.1438219" lon="9.5505691"><ele>220.0</ele><time>2026-04-26T07:52:43.694Z</time></trkpt><trkpt lat="46.1439399" lon="9.550565"><ele>220.0</ele><time>2026-04-26T07:52:45.694Z</time></trkpt><trkpt lat="46.1440414" lon="9.5506491"><ele>220.0</ele><time>2026-04-26T07:52:47.695Z</time></trkpt><trkpt lat="46.144129" lon="9.5507696"><ele>220.0</ele><time>2026-04-26T07:52:49.694Z</time></trkpt><trkpt lat="46.1441605" lon="9.5508497"><ele>220.0</ele><time>2026-04-26T07:52:50.695Z</time></trkpt><trkpt lat="46.1442019" lon="9.5509822"><ele>219.6</ele><time>2026-04-26T07:52:52.693Z</time></trkpt><trkpt lat="46.1442302" lon="9.5511322"><ele>219.2</ele><time>2026-04-26T07:52:54.694Z</time></trkpt><trkpt lat="46.1442494" lon="9.5512948"><ele>218.8</ele><time>2026-04-26T07:52:56.694Z</time></trkpt><trkpt lat="46.1442535" lon="9.5513878"><ele>218.4</ele><time>2026-04-26T07:52:57.694Z</time></trkpt><trkpt lat="46.1442655" lon="9.5515595"><ele>218.0</ele><time>2026-04-26T07:52:59.693Z</time></trkpt><trkpt lat="46.1443105" lon="9.5517309"><ele>218.0</ele><time>2026-04-26T07:53:01.694Z</time></trkpt><trkpt lat="46.1443708" lon="9.5518808"><ele>218.0</ele><time>2026-04-26T07:53:03.695Z</time></trkpt><trkpt lat="46.1444105" lon="9.5520111"><ele>218.0</ele><time>2026-04-26T07:53:05.694Z</time></trkpt><trkpt lat="46.1444618" lon="9.5521086"><ele>218.0</ele><time>2026-04-26T07:53:07.694Z</time></trkpt><trkpt lat="46.144517" lon="9.5522438"><ele>218.0</ele><time>2026-04-26T07:53:09.694Z</time></trkpt><trkpt lat="46.1445316" lon="9.5523358"><ele>218.0</ele><time>2026-04-26T07:53:10.694Z</time></trkpt><trkpt lat="46.1445655" lon="9.5524803"><ele>218.0</ele><time>2026-04-26T07:53:12.694Z</time></trkpt><trkpt lat="46.1446052" lon="9.5526465"><ele>218.0</ele><time>2026-04-26T07:53:14.694Z</time></trkpt><trkpt lat="46.144635" lon="9.552793"><ele>218.0</ele><time>2026-04-26T07:53:16.694Z</time></trkpt><trkpt lat="46.1446751" lon="9.55295"><ele>218.0</ele><time>2026-04-26T07:53:18.695Z</time></trkpt><trkpt lat="46.144691" lon="9.5531187"><ele>218.0</ele><time>2026-04-26T07:53:20.694Z</time></trkpt><trkpt lat="46.1447179" lon="9.553268"><ele>218.0</ele><time>2026-04-26T07:53:22.693Z</time></trkpt><trkpt lat="46.144726" lon="9.5534166"><ele>218.0</ele><time>2026-04-26T07:53:24.695Z</time></trkpt><trkpt lat="46.144779" lon="9.5535714"><ele>218.0</ele><time>2026-04-26T07:53:26.694Z</time></trkpt><trkpt lat="46.144786" lon="9.5537371"><ele>218.0</ele><time>2026-04-26T07:53:28.695Z</time></trkpt><trkpt lat="46.1448109" lon="9.5539254"><ele>219.0</ele><time>2026-04-26T07:53:30.695Z</time></trkpt><trkpt lat="46.1448207" lon="9.5540166"><ele>220.0</ele><time>2026-04-26T07:53:31.694Z</time></trkpt><trkpt lat="46.1448037" lon="9.5541251"><ele>221.0</ele><time>2026-04-26T07:53:32.695Z</time></trkpt><trkpt lat="46.14477" lon="9.5543975"><ele>222.0</ele><time>2026-04-26T07:53:35.766Z</time></trkpt><trkpt lat="46.1447731" lon="9.5545287"><ele>223.0</ele><time>2026-04-26T07:53:36.696Z</time></trkpt><trkpt lat="46.144782" lon="9.5546276"><ele>223.0</ele><time>2026-04-26T07:53:37.695Z</time></trkpt><trkpt lat="46.1447812" lon="9.5547282"><ele>223.0</ele><time>2026-04-26T07:53:38.695Z</time></trkpt><trkpt lat="46.1447858" lon="9.5548194"><ele>223.0</ele><time>2026-04-26T07:53:39.694Z</time></trkpt><trkpt lat="46.1447937" lon="9.5549161"><ele>223.0</ele><time>2026-04-26T07:53:40.694Z</time></trkpt><trkpt lat="46.1447934" lon="9.5550164"><ele>223.0</ele><time>2026-04-26T07:53:41.694Z</time></trkpt><trkpt lat="46.1447997" lon="9.5551123"><ele>223.0</ele><time>2026-04-26T07:53:42.694Z</time></trkpt><trkpt lat="46.1448209" lon="9.5552638"><ele>223.0</ele><time>2026-04-26T07:53:44.695Z</time></trkpt><trkpt lat="46.1448645" lon="9.5554811"><ele>223.2</ele><time>2026-04-26T07:53:47.693Z</time></trkpt><trkpt lat="46.1448702" lon="9.5556461"><ele>223.4</ele><time>2026-04-26T07:53:49.694Z</time></trkpt><trkpt lat="46.1448721" lon="9.5557414"><ele>223.59999999999997</ele><time>2026-04-26T07:53:50.694Z</time></trkpt><trkpt lat="46.1448715" lon="9.555909"><ele>223.79999999999998</ele><time>2026-04-26T07:53:52.693Z</time></trkpt><trkpt lat="46.144872" lon="9.5560798"><ele>224.0</ele><time>2026-04-26T07:53:54.694Z</time></trkpt><trkpt lat="46.1448844" lon="9.5562396"><ele>228.6</ele><time>2026-04-26T07:53:56.692Z</time></trkpt><trkpt lat="46.1449014" lon="9.5564096"><ele>233.2</ele><time>2026-04-26T07:53:58.694Z</time></trkpt><trkpt lat="46.1449257" lon="9.5565452"><ele>237.79999999999998</ele><time>2026-04-26T07:54:00.694Z</time></trkpt><trkpt lat="46.1449312" lon="9.5566382"><ele>242.39999999999998</ele><time>2026-04-26T07:54:01.694Z</time></trkpt><trkpt lat="46.1449541" lon="9.556803"><ele>247.0</ele><time>2026-04-26T07:54:03.694Z</time></trkpt><trkpt lat="46.1449586" lon="9.556975"><ele>243.8</ele><time>2026-04-26T07:54:05.695Z</time></trkpt><trkpt lat="46.1449885" lon="9.557113"><ele>240.6</ele><time>2026-04-26T07:54:07.695Z</time></trkpt><trkpt lat="46.1450054" lon="9.5572827"><ele>237.40000000000003</ele><time>2026-04-26T07:54:09.693Z</time></trkpt><trkpt lat="46.1450123" lon="9.5574394"><ele>234.20000000000002</ele><time>2026-04-26T07:54:11.694Z</time></trkpt><trkpt lat="46.1450475" lon="9.5575837"><ele>231.0</ele><time>2026-04-26T07:54:13.695Z</time></trkpt><trkpt lat="46.1450553" lon="9.5578487"><ele>230.20000000000002</ele><time>2026-04-26T07:54:16.694Z</time></trkpt><trkpt lat="46.1450662" lon="9.5580287"><ele>229.40000000000003</ele><time>2026-04-26T07:54:18.695Z</time></trkpt><trkpt lat="46.1450745" lon="9.5581796"><ele>228.6</ele><time>2026-04-26T07:54:20.695Z</time></trkpt><trkpt lat="46.1450964" lon="9.5583252"><ele>227.8</ele><time>2026-04-26T07:54:22.692Z</time></trkpt><trkpt lat="46.1451096" lon="9.5584725"><ele>227.0</ele><time>2026-04-26T07:54:24.695Z</time></trkpt><trkpt lat="46.1451107" lon="9.5585706"><ele>227.0</ele><time>2026-04-26T07:54:25.694Z</time></trkpt><trkpt lat="46.1451626" lon="9.5586668"><ele>227.0</ele><time>2026-04-26T07:54:27.694Z</time></trkpt><trkpt lat="46.1452066" lon="9.558807"><ele>227.0</ele><time>2026-04-26T07:54:29.694Z</time></trkpt><trkpt lat="46.1452243" lon="9.558957"><ele>227.0</ele><time>2026-04-26T07:54:31.695Z</time></trkpt><trkpt lat="46.1452368" lon="9.5591058"><ele>227.0</ele><time>2026-04-26T07:54:33.696Z</time></trkpt><trkpt lat="46.1452472" lon="9.5592588"><ele>226.8</ele><time>2026-04-26T07:54:35.694Z</time></trkpt><trkpt lat="46.1452499" lon="9.5594068"><ele>226.6</ele><time>2026-04-26T07:54:37.695Z</time></trkpt><trkpt lat="46.1452743" lon="9.5595393"><ele>226.40000000000003</ele><time>2026-04-26T07:54:39.694Z</time></trkpt><trkpt lat="46.1452993" lon="9.5596863"><ele>226.20000000000002</ele><time>2026-04-26T07:54:41.696Z</time></trkpt><trkpt lat="46.1453148" lon="9.5598484"><ele>226.0</ele><time>2026-04-26T07:54:43.694Z</time></trkpt><trkpt lat="46.1453326" lon="9.5600067"><ele>226.4</ele><time>2026-04-26T07:54:45.695Z</time></trkpt><trkpt lat="46.1453548" lon="9.5601583"><ele>226.8</ele><time>2026-04-26T07:54:47.695Z</time></trkpt><trkpt lat="46.1453547" lon="9.56026"><ele>227.20000000000002</ele><time>2026-04-26T07:54:48.695Z</time></trkpt><trkpt lat="46.1453751" lon="9.5604186"><ele>227.60000000000002</ele><time>2026-04-26T07:54:50.694Z</time></trkpt><trkpt lat="46.1453931" lon="9.560583"><ele>228.0</ele><time>2026-04-26T07:54:52.694Z</time></trkpt><trkpt lat="46.1454009" lon="9.5607488"><ele>227.0</ele><time>2026-04-26T07:54:54.694Z</time></trkpt><trkpt lat="46.1454175" lon="9.560895"><ele>226.0</ele><time>2026-04-26T07:54:56.694Z</time></trkpt><trkpt lat="46.1454421" lon="9.5610051"><ele>225.0</ele><time>2026-04-26T07:54:58.695Z</time></trkpt><trkpt lat="46.1454692" lon="9.5611375"><ele>224.0</ele><time>2026-04-26T07:55:00.695Z</time></trkpt><trkpt lat="46.1455033" lon="9.5612874"><ele>223.0</ele><time>2026-04-26T07:55:02.695Z</time></trkpt><trkpt lat="46.1455356" lon="9.5614382"><ele>222.2</ele><time>2026-04-26T07:55:04.695Z</time></trkpt><trkpt lat="46.1455524" lon="9.5615885"><ele>221.4</ele><time>2026-04-26T07:55:06.695Z</time></trkpt><trkpt lat="46.1455549" lon="9.5617217"><ele>220.59999999999997</ele><time>2026-04-26T07:55:08.694Z</time></trkpt><trkpt lat="46.1455785" lon="9.561852"><ele>219.79999999999998</ele><time>2026-04-26T07:55:10.694Z</time></trkpt><trkpt lat="46.1455841" lon="9.5619927"><ele>219.0</ele><time>2026-04-26T07:55:12.694Z</time></trkpt><trkpt lat="46.1455793" lon="9.5621305"><ele>219.0</ele><time>2026-04-26T07:55:14.694Z</time></trkpt><trkpt lat="46.1455919" lon="9.5622834"><ele>219.0</ele><time>2026-04-26T07:55:16.695Z</time></trkpt><trkpt lat="46.1455825" lon="9.562378"><ele>219.0</ele><time>2026-04-26T07:55:17.694Z</time></trkpt><trkpt lat="46.1455818" lon="9.5625172"><ele>219.0</ele><time>2026-04-26T07:55:19.696Z</time></trkpt><trkpt lat="46.1455957" lon="9.5626083"><ele>219.0</ele><time>2026-04-26T07:55:20.694Z</time></trkpt><trkpt lat="46.1456015" lon="9.5627549"><ele>219.0</ele><time>2026-04-26T07:55:22.695Z</time></trkpt><trkpt lat="46.1456277" lon="9.5629251"><ele>220.25</ele><time>2026-04-26T07:55:24.693Z</time></trkpt><trkpt lat="46.145646" lon="9.56309"><ele>221.5</ele><time>2026-04-26T07:55:26.695Z</time></trkpt><trkpt lat="46.1456629" lon="9.5632486"><ele>222.75</ele><time>2026-04-26T07:55:28.694Z</time></trkpt><trkpt lat="46.1456657" lon="9.5634307"><ele>224.0</ele><time>2026-04-26T07:55:30.694Z</time></trkpt><trkpt lat="46.1456914" lon="9.563582"><ele>224.00000000000003</ele><time>2026-04-26T07:55:32.695Z</time></trkpt><trkpt lat="46.1457037" lon="9.5636725"><ele>224.0</ele><time>2026-04-26T07:55:33.694Z</time></trkpt><trkpt lat="46.1457221" lon="9.5638397"><ele>224.0</ele><time>2026-04-26T07:55:35.695Z</time></trkpt><trkpt lat="46.1457335" lon="9.5639407"><ele>224.0</ele><time>2026-04-26T07:55:36.695Z</time></trkpt><trkpt lat="46.1457371" lon="9.5640327"><ele>224.00000000000003</ele><time>2026-04-26T07:55:37.695Z</time></trkpt><trkpt lat="46.1457458" lon="9.5641976"><ele>224.0</ele><time>2026-04-26T07:55:39.695Z</time></trkpt><trkpt lat="46.145749" lon="9.5642898"><ele>228.79999999999998</ele><time>2026-04-26T07:55:40.694Z</time></trkpt><trkpt lat="46.1457859" lon="9.5644439"><ele>233.59999999999997</ele><time>2026-04-26T07:55:42.694Z</time></trkpt><trkpt lat="46.1457988" lon="9.5646127"><ele>238.4</ele><time>2026-04-26T07:55:44.695Z</time></trkpt><trkpt lat="46.1457984" lon="9.5648019"><ele>243.2</ele><time>2026-04-26T07:55:46.695Z</time></trkpt><trkpt lat="46.1458135" lon="9.5648905"><ele>248.0</ele><time>2026-04-26T07:55:47.694Z</time></trkpt><trkpt lat="46.1458234" lon="9.56507"><ele>248.0</ele><time>2026-04-26T07:55:49.695Z</time></trkpt><trkpt lat="46.1458276" lon="9.5651609"><ele>248.0</ele><time>2026-04-26T07:55:51.695Z</time></trkpt><trkpt lat="46.1458399" lon="9.565318"><ele>248.0</ele><time>2026-04-26T07:55:53.695Z</time></trkpt><trkpt lat="46.1458494" lon="9.5654982"><ele>248.0</ele><time>2026-04-26T07:55:55.695Z</time></trkpt><trkpt lat="46.145857" lon="9.5656598"><ele>248.0</ele><time>2026-04-26T07:55:57.696Z</time></trkpt><trkpt lat="46.1458663" lon="9.5658284"><ele>247.60000000000002</ele><time>2026-04-26T07:55:59.696Z</time></trkpt><trkpt lat="46.1458864" lon="9.5659767"><ele>247.20000000000002</ele><time>2026-04-26T07:56:01.696Z</time></trkpt><trkpt lat="46.1458782" lon="9.5661067"><ele>246.8</ele><time>2026-04-26T07:56:02.695Z</time></trkpt><trkpt lat="46.1458838" lon="9.5662207"><ele>246.4</ele><time>2026-04-26T07:56:04.695Z</time></trkpt><trkpt lat="46.145906" lon="9.5663452"><ele>246.0</ele><time>2026-04-26T07:56:06.695Z</time></trkpt><trkpt lat="46.1459076" lon="9.566521"><ele>244.83333333333334</ele><time>2026-04-26T07:56:08.694Z</time></trkpt><trkpt lat="46.1459339" lon="9.5666635"><ele>243.66666666666669</ele><time>2026-04-26T07:56:10.696Z</time></trkpt><trkpt lat="46.1459555" lon="9.5667743"><ele>242.5</ele><time>2026-04-26T07:56:12.694Z</time></trkpt><trkpt lat="46.1459722" lon="9.5668695"><ele>241.33333333333334</ele><time>2026-04-26T07:56:13.694Z</time></trkpt><trkpt lat="46.1459589" lon="9.5669714"><ele>240.16666666666669</ele><time>2026-04-26T07:56:14.694Z</time></trkpt><trkpt lat="46.145968" lon="9.567142"><ele>239.0</ele><time>2026-04-26T07:56:16.694Z</time></trkpt><trkpt lat="46.145974" lon="9.5672754"><ele>238.6</ele><time>2026-04-26T07:56:18.694Z</time></trkpt><trkpt lat="46.1459781" lon="9.5674314"><ele>238.2</ele><time>2026-04-26T07:56:20.694Z</time></trkpt><trkpt lat="46.1459804" lon="9.5675257"><ele>237.79999999999998</ele><time>2026-04-26T07:56:21.695Z</time></trkpt><trkpt lat="46.1459833" lon="9.5676784"><ele>237.39999999999998</ele><time>2026-04-26T07:56:23.693Z</time></trkpt><trkpt lat="46.1460002" lon="9.567808"><ele>237.0</ele><time>2026-04-26T07:56:25.695Z</time></trkpt><trkpt lat="46.146011" lon="9.5679747"><ele>236.0</ele><time>2026-04-26T07:56:27.696Z</time></trkpt><trkpt lat="46.1460449" lon="9.5681238"><ele>235.0</ele><time>2026-04-26T07:56:29.695Z</time></trkpt><trkpt lat="46.1460486" lon="9.5682935"><ele>234.0</ele><time>2026-04-26T07:56:31.695Z</time></trkpt><trkpt lat="46.1460628" lon="9.5684446"><ele>233.0</ele><time>2026-04-26T07:56:33.694Z</time></trkpt><trkpt lat="46.1460799" lon="9.5686181"><ele>231.75</ele><time>2026-04-26T07:56:35.694Z</time></trkpt><trkpt lat="46.1460966" lon="9.5687791"><ele>230.5</ele><time>2026-04-26T07:56:37.695Z</time></trkpt><trkpt lat="46.1461073" lon="9.5689565"><ele>229.25</ele><time>2026-04-26T07:56:39.694Z</time></trkpt><trkpt lat="46.1461078" lon="9.5691204"><ele>228.0</ele><time>2026-04-26T07:56:41.695Z</time></trkpt><trkpt lat="46.1461216" lon="9.5692804"><ele>228.0</ele><time>2026-04-26T07:56:43.695Z</time></trkpt><trkpt lat="46.1461309" lon="9.5694221"><ele>228.0</ele><time>2026-04-26T07:56:45.694Z</time></trkpt><trkpt lat="46.1461335" lon="9.5695625"><ele>228.0</ele><time>2026-04-26T07:56:47.695Z</time></trkpt><trkpt lat="46.1461375" lon="9.5697233"><ele>228.0</ele><time>2026-04-26T07:56:49.695Z</time></trkpt><trkpt lat="46.14613" lon="9.569816"><ele>228.0</ele><time>2026-04-26T07:56:50.695Z</time></trkpt><trkpt lat="46.1461441" lon="9.5699557"><ele>227.8</ele><time>2026-04-26T07:56:52.694Z</time></trkpt><trkpt lat="46.146144" lon="9.5701078"><ele>227.60000000000002</ele><time>2026-04-26T07:56:54.694Z</time></trkpt><trkpt lat="46.1461664" lon="9.5702399"><ele>227.39999999999998</ele><time>2026-04-26T07:56:56.694Z</time></trkpt><trkpt lat="46.1461695" lon="9.5703813"><ele>227.2</ele><time>2026-04-26T07:56:58.695Z</time></trkpt><trkpt lat="46.1461461" lon="9.5705444"><ele>227.0</ele><time>2026-04-26T07:57:00.695Z</time></trkpt><trkpt lat="46.1461471" lon="9.570703"><ele>227.0</ele><time>2026-04-26T07:57:02.695Z</time></trkpt><trkpt lat="46.1461537" lon="9.5708485"><ele>227.0</ele><time>2026-04-26T07:57:04.695Z</time></trkpt><trkpt lat="46.1461626" lon="9.5710033"><ele>227.0</ele><time>2026-04-26T07:57:06.695Z</time></trkpt><trkpt lat="46.1461869" lon="9.5711306"><ele>227.0</ele><time>2026-04-26T07:57:08.695Z</time></trkpt><trkpt lat="46.1462313" lon="9.571232"><ele>227.0</ele><time>2026-04-26T07:57:10.695Z</time></trkpt><trkpt lat="46.1462555" lon="9.5713323"><ele>226.71428571428572</ele><time>2026-04-26T07:57:12.696Z</time></trkpt><trkpt lat="46.146274" lon="9.5714254"><ele>226.42857142857144</ele><time>2026-04-26T07:57:14.695Z</time></trkpt><trkpt lat="46.1463056" lon="9.5715154"><ele>226.14285714285717</ele><time>2026-04-26T07:57:17.694Z</time></trkpt><trkpt lat="46.1463331" lon="9.571623"><ele>225.8571428571429</ele><time>2026-04-26T07:57:20.694Z</time></trkpt><trkpt lat="46.1463486" lon="9.571716"><ele>225.57142857142858</ele><time>2026-04-26T07:57:24.695Z</time></trkpt><trkpt lat="46.14635" lon="9.5718271"><ele>225.28571428571433</ele><time>2026-04-26T07:57:27.695Z</time></trkpt><trkpt lat="46.14635" lon="9.5719371"><ele>225.00000000000003</ele><time>2026-04-26T07:57:29.694Z</time></trkpt><trkpt lat="46.1463478" lon="9.572029"><ele>225.0</ele><time>2026-04-26T07:57:30.694Z</time></trkpt><trkpt lat="46.1463679" lon="9.5721851"><ele>225.0</ele><time>2026-04-26T07:57:32.695Z</time></trkpt><trkpt lat="46.1463782" lon="9.5722811"><ele>225.0</ele><time>2026-04-26T07:57:33.696Z</time></trkpt><trkpt lat="46.1463933" lon="9.5723871"><ele>225.0</ele><time>2026-04-26T07:57:34.693Z</time></trkpt><trkpt lat="46.1464046" lon="9.5724907"><ele>225.0</ele><time>2026-04-26T07:57:35.695Z</time></trkpt><trkpt lat="46.1464152" lon="9.572604"><ele>225.0</ele><time>2026-04-26T07:57:36.694Z</time></trkpt><trkpt lat="46.146419" lon="9.572697"><ele>225.0</ele><time>2026-04-26T07:57:37.694Z</time></trkpt><trkpt lat="46.1464298" lon="9.5727871"><ele>225.0</ele><time>2026-04-26T07:57:38.695Z</time></trkpt><trkpt lat="46.1464318" lon="9.5728905"><ele>225.0</ele><time>2026-04-26T07:57:39.695Z</time></trkpt><trkpt lat="46.146441" lon="9.5730584"><ele>225.0</ele><time>2026-04-26T07:57:41.696Z</time></trkpt><trkpt lat="46.1464403" lon="9.5732202"><ele>225.0</ele><time>2026-04-26T07:57:43.696Z</time></trkpt><trkpt lat="46.14644" lon="9.5733128"><ele>225.0</ele><time>2026-04-26T07:57:44.694Z</time></trkpt><trkpt lat="46.1464569" lon="9.5734565"><ele>225.0</ele><time>2026-04-26T07:57:46.694Z</time></trkpt><trkpt lat="46.1464507" lon="9.5736277"><ele>225.0</ele><time>2026-04-26T07:57:48.695Z</time></trkpt><trkpt lat="46.1464482" lon="9.5737185"><ele>225.0</ele><time>2026-04-26T07:57:49.695Z</time></trkpt><trkpt lat="46.1464479" lon="9.5739311"><ele>225.0</ele><time>2026-04-26T07:57:51.697Z</time></trkpt><trkpt lat="46.1464798" lon="9.574065"><ele>225.0</ele><time>2026-04-26T07:57:53.696Z</time></trkpt><trkpt lat="46.1465196" lon="9.5741974"><ele>228.5</ele><time>2026-04-26T07:57:55.694Z</time></trkpt><trkpt lat="46.1465704" lon="9.5744181"><ele>232.0</ele><time>2026-04-26T07:57:58.696Z</time></trkpt><trkpt lat="46.1465995" lon="9.5745734"><ele>235.5</ele><time>2026-04-26T07:58:00.695Z</time></trkpt><trkpt lat="46.1466418" lon="9.5747242"><ele>239.0</ele><time>2026-04-26T07:58:02.695Z</time></trkpt><trkpt lat="46.146689" lon="9.5748582"><ele>239.0</ele><time>2026-04-26T07:58:04.694Z</time></trkpt><trkpt lat="46.1467277" lon="9.5750167"><ele>238.99999999999997</ele><time>2026-04-26T07:58:06.695Z</time></trkpt><trkpt lat="46.1467627" lon="9.575164"><ele>238.99999999999997</ele><time>2026-04-26T07:58:08.696Z</time></trkpt><trkpt lat="46.1467877" lon="9.5753191"><ele>239.0</ele><time>2026-04-26T07:58:10.694Z</time></trkpt><trkpt lat="46.146801" lon="9.5754816"><ele>239.0</ele><time>2026-04-26T07:58:12.695Z</time></trkpt><trkpt lat="46.1467841" lon="9.5756293"><ele>237.39999999999998</ele><time>2026-04-26T07:58:14.694Z</time></trkpt><trkpt lat="46.1467541" lon="9.5757117"><ele>235.79999999999998</ele><time>2026-04-26T07:58:15.694Z</time></trkpt><trkpt lat="46.1466956" lon="9.5758297"><ele>234.20000000000002</ele><time>2026-04-26T07:58:17.695Z</time></trkpt><trkpt lat="46.1466105" lon="9.5759272"><ele>232.60000000000002</ele><time>2026-04-26T07:58:19.694Z</time></trkpt><trkpt lat="46.1465075" lon="9.5760258"><ele>231.0</ele><time>2026-04-26T07:58:21.695Z</time></trkpt><trkpt lat="46.1464182" lon="9.5761178"><ele>229.8</ele><time>2026-04-26T07:58:23.694Z</time></trkpt><trkpt lat="46.1463209" lon="9.5762148"><ele>228.60000000000002</ele><time>2026-04-26T07:58:25.696Z</time></trkpt><trkpt lat="46.1462654" lon="9.5762617"><ele>227.4</ele><time>2026-04-26T07:58:26.696Z</time></trkpt><trkpt lat="46.1461753" lon="9.5763366"><ele>226.2</ele><time>2026-04-26T07:58:28.695Z</time></trkpt><trkpt lat="46.1460839" lon="9.5764248"><ele>225.0</ele><time>2026-04-26T07:58:30.695Z</time></trkpt><trkpt lat="46.1459927" lon="9.5765203"><ele>225.0</ele><time>2026-04-26T07:58:32.696Z</time></trkpt><trkpt lat="46.1459648" lon="9.5766721"><ele>225.0</ele><time>2026-04-26T07:58:34.694Z</time></trkpt><trkpt lat="46.1459719" lon="9.5768362"><ele>225.0</ele><time>2026-04-26T07:58:36.695Z</time></trkpt><trkpt lat="46.1459824" lon="9.5769978"><ele>225.0</ele><time>2026-04-26T07:58:38.695Z</time></trkpt><trkpt lat="46.1460012" lon="9.5771477"><ele>225.0</ele><time>2026-04-26T07:58:40.696Z</time></trkpt><trkpt lat="46.146023" lon="9.5772736"><ele>225.33333333333334</ele><time>2026-04-26T07:58:42.695Z</time></trkpt><trkpt lat="46.1459913" lon="9.5773754"><ele>225.66666666666669</ele><time>2026-04-26T07:58:44.694Z</time></trkpt><trkpt lat="46.1459215" lon="9.5774203"><ele>226.0</ele><time>2026-04-26T07:58:46.695Z</time></trkpt><trkpt lat="46.1458404" lon="9.577453"><ele>226.33333333333334</ele><time>2026-04-26T07:58:48.696Z</time></trkpt><trkpt lat="46.1457596" lon="9.5774906"><ele>226.66666666666669</ele><time>2026-04-26T07:58:50.695Z</time></trkpt><trkpt lat="46.1456882" lon="9.5775631"><ele>227.0</ele><time>2026-04-26T07:58:52.696Z</time></trkpt><trkpt lat="46.1456414" lon="9.5776576"><ele>227.0</ele><time>2026-04-26T07:58:54.694Z</time></trkpt><trkpt lat="46.1455958" lon="9.5777721"><ele>227.0</ele><time>2026-04-26T07:58:56.694Z</time></trkpt><trkpt lat="46.1455569" lon="9.5779231"><ele>227.0</ele><time>2026-04-26T07:58:58.696Z</time></trkpt><trkpt lat="46.1455439" lon="9.5780712"><ele>227.0</ele><time>2026-04-26T07:59:00.696Z</time></trkpt><trkpt lat="46.1455497" lon="9.5782085"><ele>227.0</ele><time>2026-04-26T07:59:02.694Z</time></trkpt><trkpt lat="46.1455418" lon="9.5783653"><ele>227.25</ele><time>2026-04-26T07:59:04.694Z</time></trkpt><trkpt lat="46.1455237" lon="9.5785281"><ele>227.5</ele><time>2026-04-26T07:59:06.695Z</time></trkpt><trkpt lat="46.1454974" lon="9.5786896"><ele>227.75</ele><time>2026-04-26T07:59:08.694Z</time></trkpt><trkpt lat="46.1454583" lon="9.5788536"><ele>228.0</ele><time>2026-04-26T07:59:10.695Z</time></trkpt><trkpt lat="46.1454135" lon="9.5790018"><ele>228.0</ele><time>2026-04-26T07:59:12.696Z</time></trkpt><trkpt lat="46.1453289" lon="9.5790925"><ele>228.0</ele><time>2026-04-26T07:59:14.694Z</time></trkpt><trkpt lat="46.145228" lon="9.579196"><ele>228.0</ele><time>2026-04-26T07:59:16.696Z</time></trkpt><trkpt lat="46.1451264" lon="9.579296"><ele>228.0</ele><time>2026-04-26T07:59:18.696Z</time></trkpt><trkpt lat="46.1450273" lon="9.579387"><ele>228.0</ele><time>2026-04-26T07:59:20.694Z</time></trkpt><trkpt lat="46.1449262" lon="9.5794806"><ele>228.0</ele><time>2026-04-26T07:59:22.696Z</time></trkpt><trkpt lat="46.1448257" lon="9.5795659"><ele>228.0</ele><time>2026-04-26T07:59:24.695Z</time></trkpt><trkpt lat="46.144737" lon="9.5796753"><ele>228.0</ele><time>2026-04-26T07:59:26.693Z</time></trkpt><trkpt lat="46.1446598" lon="9.5798052"><ele>228.2</ele><time>2026-04-26T07:59:28.695Z</time></trkpt><trkpt lat="46.1445936" lon="9.5799382"><ele>228.4</ele><time>2026-04-26T07:59:30.695Z</time></trkpt><trkpt lat="46.1445264" lon="9.5800737"><ele>228.59999999999997</ele><time>2026-04-26T07:59:32.696Z</time></trkpt><trkpt lat="46.1444694" lon="9.5802011"><ele>228.79999999999998</ele><time>2026-04-26T07:59:34.695Z</time></trkpt><trkpt lat="46.1444223" lon="9.5803175"><ele>229.0</ele><time>2026-04-26T07:59:36.696Z</time></trkpt><trkpt lat="46.14436" lon="9.5804446"><ele>229.2</ele><time>2026-04-26T07:59:38.696Z</time></trkpt><trkpt lat="46.14431" lon="9.5805724"><ele>229.39999999999998</ele><time>2026-04-26T07:59:40.694Z</time></trkpt><trkpt lat="46.1442582" lon="9.5806926"><ele>229.6</ele><time>2026-04-26T07:59:42.694Z</time></trkpt><trkpt lat="46.1442039" lon="9.5808249"><ele>229.8</ele><time>2026-04-26T07:59:44.694Z</time></trkpt><trkpt lat="46.1441353" lon="9.5809595"><ele>230.0</ele><time>2026-04-26T07:59:46.696Z</time></trkpt><trkpt lat="46.1440803" lon="9.5811053"><ele>229.6</ele><time>2026-04-26T07:59:48.695Z</time></trkpt><trkpt lat="46.1440153" lon="9.5812285"><ele>229.2</ele><time>2026-04-26T07:59:50.695Z</time></trkpt><trkpt lat="46.1439686" lon="9.5813407"><ele>228.8</ele><time>2026-04-26T07:59:52.695Z</time></trkpt><trkpt lat="46.1439188" lon="9.581479"><ele>228.4</ele><time>2026-04-26T07:59:54.694Z</time></trkpt><trkpt lat="46.1438738" lon="9.5815898"><ele>228.0</ele><time>2026-04-26T07:59:56.695Z</time></trkpt><trkpt lat="46.1438125" lon="9.5817375"><ele>228.0</ele><time>2026-04-26T07:59:58.696Z</time></trkpt><trkpt lat="46.1437532" lon="9.5818833"><ele>228.0</ele><time>2026-04-26T08:00:00.696Z</time></trkpt><trkpt lat="46.1436972" lon="9.581976"><ele>228.0</ele><time>2026-04-26T08:00:02.695Z</time></trkpt><trkpt lat="46.1436406" lon="9.5821092"><ele>228.0</ele><time>2026-04-26T08:00:04.696Z</time></trkpt><trkpt lat="46.1435867" lon="9.5822348"><ele>228.0</ele><time>2026-04-26T08:00:06.695Z</time></trkpt><trkpt lat="46.1435318" lon="9.5823498"><ele>228.0</ele><time>2026-04-26T08:00:08.695Z</time></trkpt><trkpt lat="46.1434744" lon="9.5824572"><ele>228.0</ele><time>2026-04-26T08:00:10.695Z</time></trkpt><trkpt lat="46.1434221" lon="9.5825723"><ele>228.0</ele><time>2026-04-26T08:00:12.696Z</time></trkpt><trkpt lat="46.1433667" lon="9.5826907"><ele>228.0</ele><time>2026-04-26T08:00:14.696Z</time></trkpt><trkpt lat="46.1433206" lon="9.5828079"><ele>228.0</ele><time>2026-04-26T08:00:16.695Z</time></trkpt><trkpt lat="46.1432692" lon="9.5829373"><ele>228.0</ele><time>2026-04-26T08:00:18.696Z</time></trkpt><trkpt lat="46.1432373" lon="9.5830719"><ele>228.0</ele><time>2026-04-26T08:00:20.695Z</time></trkpt><trkpt lat="46.1432083" lon="9.5832192"><ele>228.0</ele><time>2026-04-26T08:00:22.696Z</time></trkpt><trkpt lat="46.1431926" lon="9.5833742"><ele>228.0</ele><time>2026-04-26T08:00:24.696Z</time></trkpt><trkpt lat="46.1431942" lon="9.5835443"><ele>228.0</ele><time>2026-04-26T08:00:26.695Z</time></trkpt><trkpt lat="46.1431966" lon="9.5837016"><ele>228.60000000000002</ele><time>2026-04-26T08:00:28.694Z</time></trkpt><trkpt lat="46.1432016" lon="9.5838572"><ele>229.20000000000002</ele><time>2026-04-26T08:00:30.696Z</time></trkpt><trkpt lat="46.1431922" lon="9.584025"><ele>229.8</ele><time>2026-04-26T08:00:32.696Z</time></trkpt><trkpt lat="46.1431896" lon="9.5841752"><ele>230.4</ele><time>2026-04-26T08:00:34.696Z</time></trkpt><trkpt lat="46.1431837" lon="9.5843164"><ele>231.0</ele><time>2026-04-26T08:00:36.696Z</time></trkpt><trkpt lat="46.1431727" lon="9.584448"><ele>231.0</ele><time>2026-04-26T08:00:38.696Z</time></trkpt><trkpt lat="46.1431625" lon="9.5845613"><ele>231.0</ele><time>2026-04-26T08:00:40.695Z</time></trkpt><trkpt lat="46.1431464" lon="9.5846713"><ele>231.0</ele><time>2026-04-26T08:00:42.695Z</time></trkpt><trkpt lat="46.1431169" lon="9.5848035"><ele>231.0</ele><time>2026-04-26T08:00:44.695Z</time></trkpt><trkpt lat="46.1430688" lon="9.5849352"><ele>231.0</ele><time>2026-04-26T08:00:46.696Z</time></trkpt><trkpt lat="46.1430338" lon="9.5850476"><ele>231.0</ele><time>2026-04-26T08:00:48.696Z</time></trkpt><trkpt lat="46.143001" lon="9.5851903"><ele>231.0</ele><time>2026-04-26T08:00:50.694Z</time></trkpt><trkpt lat="46.1429705" lon="9.5853382"><ele>231.00000000000003</ele><time>2026-04-26T08:00:52.695Z</time></trkpt><trkpt lat="46.1429331" lon="9.5854761"><ele>231.00000000000003</ele><time>2026-04-26T08:00:54.695Z</time></trkpt><trkpt lat="46.1428976" lon="9.5856241"><ele>231.0</ele><time>2026-04-26T08:00:56.695Z</time></trkpt><trkpt lat="46.1428656" lon="9.5857723"><ele>231.0</ele><time>2026-04-26T08:00:58.695Z</time></trkpt><trkpt lat="46.1428322" lon="9.5859243"><ele>231.20000000000002</ele><time>2026-04-26T08:01:00.695Z</time></trkpt><trkpt lat="46.1428087" lon="9.5860791"><ele>231.40000000000003</ele><time>2026-04-26T08:01:02.696Z</time></trkpt><trkpt lat="46.1427933" lon="9.5862222"><ele>231.6</ele><time>2026-04-26T08:01:04.696Z</time></trkpt><trkpt lat="46.1427711" lon="9.5863613"><ele>231.8</ele><time>2026-04-26T08:01:06.696Z</time></trkpt><trkpt lat="46.1427358" lon="9.5865133"><ele>232.0</ele><time>2026-04-26T08:01:08.695Z</time></trkpt><trkpt lat="46.1427117" lon="9.5866656"><ele>232.0</ele><time>2026-04-26T08:01:10.695Z</time></trkpt><trkpt lat="46.1426799" lon="9.5868022"><ele>232.0</ele><time>2026-04-26T08:01:12.696Z</time></trkpt><trkpt lat="46.1426546" lon="9.5869409"><ele>232.0</ele><time>2026-04-26T08:01:14.694Z</time></trkpt><trkpt lat="46.1426186" lon="9.587083"><ele>232.0</ele><time>2026-04-26T08:01:16.695Z</time></trkpt><trkpt lat="46.142578" lon="9.5872381"><ele>232.0</ele><time>2026-04-26T08:01:18.695Z</time></trkpt><trkpt lat="46.1425484" lon="9.5873846"><ele>232.0</ele><time>2026-04-26T08:01:20.696Z</time></trkpt><trkpt lat="46.1425363" lon="9.5875352"><ele>232.0</ele><time>2026-04-26T08:01:22.697Z</time></trkpt><trkpt lat="46.1425443" lon="9.5877015"><ele>232.0</ele><time>2026-04-26T08:01:24.695Z</time></trkpt><trkpt lat="46.1425303" lon="9.5878475"><ele>232.0</ele><time>2026-04-26T08:01:26.695Z</time></trkpt><trkpt lat="46.142533" lon="9.5879389"><ele>232.0</ele><time>2026-04-26T08:01:27.696Z</time></trkpt><trkpt lat="46.1425256" lon="9.5881087"><ele>232.0</ele><time>2026-04-26T08:01:29.694Z</time></trkpt><trkpt lat="46.1425203" lon="9.5882781"><ele>232.0</ele><time>2026-04-26T08:01:31.695Z</time></trkpt><trkpt lat="46.142518" lon="9.5884265"><ele>232.0</ele><time>2026-04-26T08:01:33.696Z</time></trkpt><trkpt lat="46.1425164" lon="9.5885778"><ele>232.0</ele><time>2026-04-26T08:01:35.694Z</time></trkpt><trkpt lat="46.1425388" lon="9.588739"><ele>232.0</ele><time>2026-04-26T08:01:37.695Z</time></trkpt><trkpt lat="46.1425735" lon="9.5888849"><ele>232.0</ele><time>2026-04-26T08:01:39.696Z</time></trkpt><trkpt lat="46.142629" lon="9.5890294"><ele>232.0</ele><time>2026-04-26T08:01:41.696Z</time></trkpt><trkpt lat="46.1426656" lon="9.5891714"><ele>232.0</ele><time>2026-04-26T08:01:43.696Z</time></trkpt><trkpt lat="46.1426873" lon="9.5893148"><ele>232.0</ele><time>2026-04-26T08:01:45.695Z</time></trkpt><trkpt lat="46.1427423" lon="9.5894641"><ele>232.0</ele><time>2026-04-26T08:01:47.694Z</time></trkpt><trkpt lat="46.1427845" lon="9.5895999"><ele>231.8</ele><time>2026-04-26T08:01:49.696Z</time></trkpt><trkpt lat="46.1427955" lon="9.5897472"><ele>231.6</ele><time>2026-04-26T08:01:51.696Z</time></trkpt><trkpt lat="46.142816" lon="9.589909"><ele>231.40000000000003</ele><time>2026-04-26T08:01:53.696Z</time></trkpt><trkpt lat="46.1428511" lon="9.5900619"><ele>231.20000000000002</ele><time>2026-04-26T08:01:55.696Z</time></trkpt><trkpt lat="46.1428789" lon="9.5902127"><ele>231.0</ele><time>2026-04-26T08:01:57.696Z</time></trkpt><trkpt lat="46.1428747" lon="9.5903647"><ele>230.8</ele><time>2026-04-26T08:01:59.696Z</time></trkpt><trkpt lat="46.1428678" lon="9.5905081"><ele>230.60000000000002</ele><time>2026-04-26T08:02:01.696Z</time></trkpt><trkpt lat="46.1428727" lon="9.5906604"><ele>230.4</ele><time>2026-04-26T08:02:03.695Z</time></trkpt><trkpt lat="46.1428671" lon="9.5908165"><ele>230.2</ele><time>2026-04-26T08:02:05.695Z</time></trkpt><trkpt lat="46.1428808" lon="9.5909736"><ele>230.0</ele><time>2026-04-26T08:02:07.696Z</time></trkpt><trkpt lat="46.1428863" lon="9.591114"><ele>230.16666666666669</ele><time>2026-04-26T08:02:09.695Z</time></trkpt><trkpt lat="46.1429012" lon="9.591206"><ele>230.33333333333334</ele><time>2026-04-26T08:02:11.696Z</time></trkpt><trkpt lat="46.1428956" lon="9.5913051"><ele>230.5</ele><time>2026-04-26T08:02:12.696Z</time></trkpt><trkpt lat="46.1429142" lon="9.5914414"><ele>230.66666666666669</ele><time>2026-04-26T08:02:14.696Z</time></trkpt><trkpt lat="46.1429211" lon="9.5915994"><ele>230.83333333333334</ele><time>2026-04-26T08:02:16.695Z</time></trkpt><trkpt lat="46.1429442" lon="9.5917455"><ele>231.0</ele><time>2026-04-26T08:02:18.695Z</time></trkpt><trkpt lat="46.1429713" lon="9.5918875"><ele>230.5</ele><time>2026-04-26T08:02:20.696Z</time></trkpt><trkpt lat="46.1429774" lon="9.5920399"><ele>230.0</ele><time>2026-04-26T08:02:22.696Z</time></trkpt><trkpt lat="46.1429957" lon="9.5922378"><ele>229.5</ele><time>2026-04-26T08:02:24.696Z</time></trkpt><trkpt lat="46.1430193" lon="9.5923847"><ele>229.0</ele><time>2026-04-26T08:02:26.695Z</time></trkpt><trkpt lat="46.1430482" lon="9.59253"><ele>229.0</ele><time>2026-04-26T08:02:28.696Z</time></trkpt><trkpt lat="46.1430609" lon="9.5926683"><ele>228.99999999999997</ele><time>2026-04-26T08:02:30.695Z</time></trkpt><trkpt lat="46.1430905" lon="9.5927939"><ele>228.99999999999997</ele><time>2026-04-26T08:02:32.696Z</time></trkpt><trkpt lat="46.1431083" lon="9.5929607"><ele>229.0</ele><time>2026-04-26T08:02:34.696Z</time></trkpt><trkpt lat="46.1431527" lon="9.5930883"><ele>229.0</ele><time>2026-04-26T08:02:36.695Z</time></trkpt><trkpt lat="46.1431848" lon="9.5932457"><ele>229.2</ele><time>2026-04-26T08:02:38.695Z</time></trkpt><trkpt lat="46.1432263" lon="9.5933704"><ele>229.39999999999998</ele><time>2026-04-26T08:02:40.696Z</time></trkpt><trkpt lat="46.1432477" lon="9.5935327"><ele>229.6</ele><time>2026-04-26T08:02:42.695Z</time></trkpt><trkpt lat="46.1432752" lon="9.5936809"><ele>229.8</ele><time>2026-04-26T08:02:44.696Z</time></trkpt><trkpt lat="46.1432943" lon="9.5938317"><ele>230.0</ele><time>2026-04-26T08:02:46.696Z</time></trkpt><trkpt lat="46.1432899" lon="9.5939726"><ele>230.0</ele><time>2026-04-26T08:02:48.696Z</time></trkpt><trkpt lat="46.1433126" lon="9.5941203"><ele>230.0</ele><time>2026-04-26T08:02:50.696Z</time></trkpt><trkpt lat="46.1433484" lon="9.5942616"><ele>230.0</ele><time>2026-04-26T08:02:52.695Z</time></trkpt><trkpt lat="46.143388" lon="9.5944322"><ele>230.0</ele><time>2026-04-26T08:02:54.696Z</time></trkpt><trkpt lat="46.1434386" lon="9.5945696"><ele>230.0</ele><time>2026-04-26T08:02:56.696Z</time></trkpt><trkpt lat="46.14347" lon="9.5947174"><ele>230.0</ele><time>2026-04-26T08:02:58.695Z</time></trkpt><trkpt lat="46.1434938" lon="9.5948692"><ele>230.0</ele><time>2026-04-26T08:03:00.697Z</time></trkpt><trkpt lat="46.1434776" lon="9.5950122"><ele>230.0</ele><time>2026-04-26T08:03:02.696Z</time></trkpt><trkpt lat="46.1435017" lon="9.5951016"><ele>230.0</ele><time>2026-04-26T08:03:03.695Z</time></trkpt><trkpt lat="46.1435467" lon="9.5952551"><ele>230.0</ele><time>2026-04-26T08:03:05.696Z</time></trkpt><trkpt lat="46.1435774" lon="9.5953998"><ele>230.0</ele><time>2026-04-26T08:03:07.696Z</time></trkpt><trkpt lat="46.1436034" lon="9.5955322"><ele>230.0</ele><time>2026-04-26T08:03:09.696Z</time></trkpt><trkpt lat="46.1436249" lon="9.5957059"><ele>230.0</ele><time>2026-04-26T08:03:11.695Z</time></trkpt><trkpt lat="46.1436788" lon="9.595847"><ele>230.0</ele><time>2026-04-26T08:03:13.696Z</time></trkpt><trkpt lat="46.1437092" lon="9.596006"><ele>230.0</ele><time>2026-04-26T08:03:15.695Z</time></trkpt><trkpt lat="46.1437178" lon="9.5961474"><ele>229.8</ele><time>2026-04-26T08:03:17.696Z</time></trkpt><trkpt lat="46.1437722" lon="9.5962739"><ele>229.6</ele><time>2026-04-26T08:03:19.695Z</time></trkpt><trkpt lat="46.1438064" lon="9.5964162"><ele>229.39999999999998</ele><time>2026-04-26T08:03:21.696Z</time></trkpt><trkpt lat="46.143834" lon="9.5965482"><ele>229.2</ele><time>2026-04-26T08:03:23.696Z</time></trkpt><trkpt lat="46.1438566" lon="9.5966836"><ele>229.0</ele><time>2026-04-26T08:03:25.695Z</time></trkpt><trkpt lat="46.1438701" lon="9.5968214"><ele>228.99999999999997</ele><time>2026-04-26T08:03:27.696Z</time></trkpt><trkpt lat="46.1439022" lon="9.5969224"><ele>229.0</ele><time>2026-04-26T08:03:29.696Z</time></trkpt><trkpt lat="46.1439525" lon="9.5970213"><ele>229.0</ele><time>2026-04-26T08:03:31.694Z</time></trkpt><trkpt lat="46.1440308" lon="9.5970791"><ele>229.0</ele><time>2026-04-26T08:03:33.696Z</time></trkpt><trkpt lat="46.1441268" lon="9.5970884"><ele>228.99999999999997</ele><time>2026-04-26T08:03:35.696Z</time></trkpt><trkpt lat="46.1442167" lon="9.5970729"><ele>229.0</ele><time>2026-04-26T08:03:37.695Z</time></trkpt><trkpt lat="46.1442826" lon="9.5970735"><ele>229.33333333333331</ele><time>2026-04-26T08:03:39.694Z</time></trkpt><trkpt lat="46.1443096" lon="9.5971739"><ele>229.66666666666666</ele><time>2026-04-26T08:03:42.696Z</time></trkpt><trkpt lat="46.1443064" lon="9.597294"><ele>230.0</ele><time>2026-04-26T08:03:45.696Z</time></trkpt><trkpt lat="46.1442316" lon="9.5973466"><ele>230.33333333333331</ele><time>2026-04-26T08:03:47.696Z</time></trkpt><trkpt lat="46.1441484" lon="9.5973807"><ele>230.66666666666666</ele><time>2026-04-26T08:03:49.697Z</time></trkpt><trkpt lat="46.1440653" lon="9.597426"><ele>231.0</ele><time>2026-04-26T08:03:51.695Z</time></trkpt><trkpt lat="46.1440332" lon="9.5975162"><ele>231.0</ele><time>2026-04-26T08:03:53.694Z</time></trkpt><trkpt lat="46.1440314" lon="9.597622"><ele>231.0</ele><time>2026-04-26T08:03:55.697Z</time></trkpt><trkpt lat="46.1440481" lon="9.5977135"><ele>231.0</ele><time>2026-04-26T08:03:57.696Z</time></trkpt><trkpt lat="46.1440571" lon="9.5978275"><ele>231.0</ele><time>2026-04-26T08:03:59.694Z</time></trkpt><trkpt lat="46.144061" lon="9.5979395"><ele>231.0</ele><time>2026-04-26T08:04:01.695Z</time></trkpt><trkpt lat="46.1440869" lon="9.5980839"><ele>231.0</ele><time>2026-04-26T08:04:03.696Z</time></trkpt><trkpt lat="46.1441009" lon="9.5982147"><ele>231.8</ele><time>2026-04-26T08:04:05.696Z</time></trkpt><trkpt lat="46.144113" lon="9.5983677"><ele>232.60000000000002</ele><time>2026-04-26T08:04:07.697Z</time></trkpt><trkpt lat="46.1441245" lon="9.5984772"><ele>233.4</ele><time>2026-04-26T08:04:08.697Z</time></trkpt><trkpt lat="46.1441404" lon="9.5986274"><ele>234.2</ele><time>2026-04-26T08:04:10.696Z</time></trkpt><trkpt lat="46.1441475" lon="9.5987834"><ele>235.0</ele><time>2026-04-26T08:04:12.696Z</time></trkpt><trkpt lat="46.1441702" lon="9.5989511"><ele>234.99999999999997</ele><time>2026-04-26T08:04:14.695Z</time></trkpt><trkpt lat="46.1441822" lon="9.5990451"><ele>235.0</ele><time>2026-04-26T08:04:15.695Z</time></trkpt><trkpt lat="46.1442112" lon="9.5991717"><ele>235.0</ele><time>2026-04-26T08:04:17.697Z</time></trkpt><trkpt lat="46.1442447" lon="9.5992996"><ele>235.0</ele><time>2026-04-26T08:04:19.696Z</time></trkpt><trkpt lat="46.1442608" lon="9.5994418"><ele>234.99999999999997</ele><time>2026-04-26T08:04:21.696Z</time></trkpt><trkpt lat="46.144302" lon="9.5995503"><ele>235.0</ele><time>2026-04-26T08:04:23.696Z</time></trkpt><trkpt lat="46.144326" lon="9.5996908"><ele>234.83333333333331</ele><time>2026-04-26T08:04:25.696Z</time></trkpt><trkpt lat="46.1443063" lon="9.5998182"><ele>234.66666666666666</ele><time>2026-04-26T08:04:26.696Z</time></trkpt><trkpt lat="46.1443484" lon="9.5999009"><ele>234.5</ele><time>2026-04-26T08:04:28.695Z</time></trkpt><trkpt lat="46.144375" lon="9.6000102"><ele>234.33333333333331</ele><time>2026-04-26T08:04:29.695Z</time></trkpt><trkpt lat="46.1443947" lon="9.600164"><ele>234.16666666666666</ele><time>2026-04-26T08:04:31.697Z</time></trkpt><trkpt lat="46.1443996" lon="9.6002604"><ele>234.0</ele><time>2026-04-26T08:04:32.697Z</time></trkpt><trkpt lat="46.1444181" lon="9.6003906"><ele>234.33333333333334</ele><time>2026-04-26T08:04:34.697Z</time></trkpt><trkpt lat="46.1444337" lon="9.6004868"><ele>234.66666666666669</ele><time>2026-04-26T08:04:36.696Z</time></trkpt><trkpt lat="46.1444464" lon="9.6006252"><ele>235.0</ele><time>2026-04-26T08:04:38.696Z</time></trkpt><trkpt lat="46.1444586" lon="9.600746"><ele>235.33333333333334</ele><time>2026-04-26T08:04:40.694Z</time></trkpt><trkpt lat="46.14447" lon="9.6008539"><ele>235.66666666666669</ele><time>2026-04-26T08:04:42.697Z</time></trkpt><trkpt lat="46.144498" lon="9.600955"><ele>236.0</ele><time>2026-04-26T08:04:44.696Z</time></trkpt><trkpt lat="46.1445094" lon="9.6010798"><ele>236.20000000000002</ele><time>2026-04-26T08:04:46.697Z</time></trkpt><trkpt lat="46.1445199" lon="9.6011954"><ele>236.40000000000003</ele><time>2026-04-26T08:04:48.696Z</time></trkpt><trkpt lat="46.1445345" lon="9.6013084"><ele>236.6</ele><time>2026-04-26T08:04:50.696Z</time></trkpt><trkpt lat="46.1445647" lon="9.6014704"><ele>236.8</ele><time>2026-04-26T08:04:52.698Z</time></trkpt><trkpt lat="46.1445872" lon="9.6016177"><ele>237.0</ele><time>2026-04-26T08:04:54.697Z</time></trkpt><trkpt lat="46.1446137" lon="9.6017671"><ele>237.0</ele><time>2026-04-26T08:04:56.695Z</time></trkpt><trkpt lat="46.1446205" lon="9.6019259"><ele>237.0</ele><time>2026-04-26T08:04:58.696Z</time></trkpt><trkpt lat="46.1446157" lon="9.6020876"><ele>237.0</ele><time>2026-04-26T08:05:00.695Z</time></trkpt><trkpt lat="46.1446014" lon="9.6022441"><ele>237.0</ele><time>2026-04-26T08:05:02.696Z</time></trkpt><trkpt lat="46.144609" lon="9.602401"><ele>237.0</ele><time>2026-04-26T08:05:04.696Z</time></trkpt><trkpt lat="46.1446027" lon="9.6025541"><ele>237.0</ele><time>2026-04-26T08:05:06.696Z</time></trkpt><trkpt lat="46.1445977" lon="9.6027063"><ele>237.0</ele><time>2026-04-26T08:05:08.695Z</time></trkpt><trkpt lat="46.1445903" lon="9.6028476"><ele>237.0</ele><time>2026-04-26T08:05:10.695Z</time></trkpt><trkpt lat="46.1445897" lon="9.6029865"><ele>237.0</ele><time>2026-04-26T08:05:12.697Z</time></trkpt><trkpt lat="46.1445999" lon="9.603107"><ele>237.0</ele><time>2026-04-26T08:05:14.695Z</time></trkpt><trkpt lat="46.1445774" lon="9.6032836"><ele>237.2</ele><time>2026-04-26T08:05:16.695Z</time></trkpt><trkpt lat="46.1445386" lon="9.6034442"><ele>237.39999999999998</ele><time>2026-04-26T08:05:18.696Z</time></trkpt><trkpt lat="46.1445189" lon="9.603572"><ele>237.60000000000002</ele><time>2026-04-26T08:05:20.697Z</time></trkpt><trkpt lat="46.144483" lon="9.6037101"><ele>237.8</ele><time>2026-04-26T08:05:22.696Z</time></trkpt><trkpt lat="46.1444624" lon="9.6038519"><ele>238.0</ele><time>2026-04-26T08:05:24.696Z</time></trkpt><trkpt lat="46.1444348" lon="9.6039931"><ele>238.2</ele><time>2026-04-26T08:05:26.695Z</time></trkpt><trkpt lat="46.1444125" lon="9.6041495"><ele>238.4</ele><time>2026-04-26T08:05:28.697Z</time></trkpt><trkpt lat="46.1444004" lon="9.6042992"><ele>238.59999999999997</ele><time>2026-04-26T08:05:30.697Z</time></trkpt><trkpt lat="46.1443915" lon="9.6044533"><ele>238.79999999999998</ele><time>2026-04-26T08:05:32.696Z</time></trkpt><trkpt lat="46.1443838" lon="9.60461"><ele>239.0</ele><time>2026-04-26T08:05:34.695Z</time></trkpt><trkpt lat="46.1443804" lon="9.6047791"><ele>239.0</ele><time>2026-04-26T08:05:36.697Z</time></trkpt><trkpt lat="46.1443836" lon="9.6049367"><ele>238.99999999999997</ele><time>2026-04-26T08:05:38.696Z</time></trkpt><trkpt lat="46.1443936" lon="9.6050687"><ele>238.99999999999997</ele><time>2026-04-26T08:05:40.697Z</time></trkpt><trkpt lat="46.1443934" lon="9.605207"><ele>239.0</ele><time>2026-04-26T08:05:42.697Z</time></trkpt><trkpt lat="46.1443903" lon="9.6053335"><ele>239.0</ele><time>2026-04-26T08:05:44.697Z</time></trkpt><trkpt lat="46.1443965" lon="9.6054822"><ele>239.0</ele><time>2026-04-26T08:05:46.696Z</time></trkpt><trkpt lat="46.1443699" lon="9.6056256"><ele>238.99999999999997</ele><time>2026-04-26T08:05:48.696Z</time></trkpt><trkpt lat="46.1443647" lon="9.6057552"><ele>238.99999999999997</ele><time>2026-04-26T08:05:50.696Z</time></trkpt><trkpt lat="46.1443645" lon="9.6059021"><ele>239.0</ele><time>2026-04-26T08:05:52.697Z</time></trkpt><trkpt lat="46.1443634" lon="9.6060603"><ele>239.0</ele><time>2026-04-26T08:05:54.695Z</time></trkpt><trkpt lat="46.1443735" lon="9.6062099"><ele>239.2</ele><time>2026-04-26T08:05:56.697Z</time></trkpt><trkpt lat="46.1443437" lon="9.6063395"><ele>239.39999999999998</ele><time>2026-04-26T08:05:58.697Z</time></trkpt><trkpt lat="46.144351" lon="9.6064705"><ele>239.6</ele><time>2026-04-26T08:06:00.696Z</time></trkpt><trkpt lat="46.1443516" lon="9.6066111"><ele>239.8</ele><time>2026-04-26T08:06:02.695Z</time></trkpt><trkpt lat="46.1443392" lon="9.6067705"><ele>240.0</ele><time>2026-04-26T08:06:04.696Z</time></trkpt><trkpt lat="46.1443271" lon="9.6069144"><ele>240.2</ele><time>2026-04-26T08:06:06.696Z</time></trkpt><trkpt lat="46.1443079" lon="9.607058"><ele>240.4</ele><time>2026-04-26T08:06:08.697Z</time></trkpt><trkpt lat="46.1442819" lon="9.607211"><ele>240.60000000000002</ele><time>2026-04-26T08:06:10.697Z</time></trkpt><trkpt lat="46.1442612" lon="9.6073715"><ele>240.8</ele><time>2026-04-26T08:06:12.696Z</time></trkpt><trkpt lat="46.1442498" lon="9.6074964"><ele>241.0</ele><time>2026-04-26T08:06:14.696Z</time></trkpt><trkpt lat="46.1442533" lon="9.6076043"><ele>241.0</ele><time>2026-04-26T08:06:16.696Z</time></trkpt><trkpt lat="46.1442756" lon="9.6077234"><ele>241.00000000000003</ele><time>2026-04-26T08:06:18.696Z</time></trkpt><trkpt lat="46.1442935" lon="9.6078108"><ele>241.00000000000003</ele><time>2026-04-26T08:06:19.695Z</time></trkpt><trkpt lat="46.1443101" lon="9.6078994"><ele>241.0</ele><time>2026-04-26T08:06:20.697Z</time></trkpt><trkpt lat="46.1442956" lon="9.6080701"><ele>241.0</ele><time>2026-04-26T08:06:22.696Z</time></trkpt><trkpt lat="46.1442716" lon="9.6082419"><ele>241.20000000000002</ele><time>2026-04-26T08:06:24.696Z</time></trkpt><trkpt lat="46.1442433" lon="9.6083996"><ele>241.40000000000003</ele><time>2026-04-26T08:06:26.695Z</time></trkpt><trkpt lat="46.1442258" lon="9.608548"><ele>241.6</ele><time>2026-04-26T08:06:28.696Z</time></trkpt><trkpt lat="46.1441996" lon="9.6087087"><ele>241.8</ele><time>2026-04-26T08:06:30.696Z</time></trkpt><trkpt lat="46.1441844" lon="9.6088644"><ele>242.0</ele><time>2026-04-26T08:06:32.697Z</time></trkpt><trkpt lat="46.144168" lon="9.6090268"><ele>242.2</ele><time>2026-04-26T08:06:34.696Z</time></trkpt><trkpt lat="46.1441589" lon="9.6091841"><ele>242.39999999999998</ele><time>2026-04-26T08:06:36.697Z</time></trkpt><trkpt lat="46.1441346" lon="9.609346"><ele>242.60000000000002</ele><time>2026-04-26T08:06:38.696Z</time></trkpt><trkpt lat="46.1441179" lon="9.6094955"><ele>242.8</ele><time>2026-04-26T08:06:40.696Z</time></trkpt><trkpt lat="46.1440947" lon="9.6096521"><ele>243.0</ele><time>2026-04-26T08:06:42.697Z</time></trkpt><trkpt lat="46.1440779" lon="9.6098116"><ele>243.2</ele><time>2026-04-26T08:06:44.696Z</time></trkpt><trkpt lat="46.144064" lon="9.6099679"><ele>243.4</ele><time>2026-04-26T08:06:46.697Z</time></trkpt><trkpt lat="46.1440607" lon="9.6101136"><ele>243.59999999999997</ele><time>2026-04-26T08:06:48.696Z</time></trkpt><trkpt lat="46.1440911" lon="9.6102577"><ele>243.79999999999998</ele><time>2026-04-26T08:06:50.697Z</time></trkpt><trkpt lat="46.1441441" lon="9.6103946"><ele>244.0</ele><time>2026-04-26T08:06:52.697Z</time></trkpt><trkpt lat="46.144193" lon="9.6105293"><ele>244.2</ele><time>2026-04-26T08:06:54.696Z</time></trkpt><trkpt lat="46.1442586" lon="9.6106555"><ele>244.39999999999998</ele><time>2026-04-26T08:06:56.696Z</time></trkpt><trkpt lat="46.1443285" lon="9.6107771"><ele>244.6</ele><time>2026-04-26T08:06:58.697Z</time></trkpt><trkpt lat="46.1443931" lon="9.6109151"><ele>244.8</ele><time>2026-04-26T08:07:00.697Z</time></trkpt><trkpt lat="46.1444633" lon="9.6110402"><ele>245.0</ele><time>2026-04-26T08:07:02.696Z</time></trkpt><trkpt lat="46.1445274" lon="9.6111846"><ele>245.0</ele><time>2026-04-26T08:07:04.697Z</time></trkpt><trkpt lat="46.144577" lon="9.611336"><ele>245.0</ele><time>2026-04-26T08:07:06.697Z</time></trkpt><trkpt lat="46.1446271" lon="9.6114903"><ele>245.0</ele><time>2026-04-26T08:07:08.697Z</time></trkpt><trkpt lat="46.1446806" lon="9.6116407"><ele>245.0</ele><time>2026-04-26T08:07:10.695Z</time></trkpt><trkpt lat="46.1447446" lon="9.6117792"><ele>245.0</ele><time>2026-04-26T08:07:12.695Z</time></trkpt><trkpt lat="46.1448079" lon="9.6119296"><ele>245.0</ele><time>2026-04-26T08:07:14.696Z</time></trkpt><trkpt lat="46.14485" lon="9.6120804"><ele>245.0</ele><time>2026-04-26T08:07:16.695Z</time></trkpt><trkpt lat="46.1449102" lon="9.6122242"><ele>245.0</ele><time>2026-04-26T08:07:18.697Z</time></trkpt><trkpt lat="46.1449657" lon="9.612364"><ele>245.4</ele><time>2026-04-26T08:07:20.696Z</time></trkpt><trkpt lat="46.1450148" lon="9.61251"><ele>245.8</ele><time>2026-04-26T08:07:22.697Z</time></trkpt><trkpt lat="46.1450708" lon="9.6126587"><ele>246.2</ele><time>2026-04-26T08:07:24.696Z</time></trkpt><trkpt lat="46.1451274" lon="9.6127933"><ele>246.6</ele><time>2026-04-26T08:07:26.697Z</time></trkpt><trkpt lat="46.1451567" lon="9.6129112"><ele>247.0</ele><time>2026-04-26T08:07:28.696Z</time></trkpt><trkpt lat="46.1451967" lon="9.613028"><ele>247.33333333333331</ele><time>2026-04-26T08:07:30.695Z</time></trkpt><trkpt lat="46.1452289" lon="9.6131334"><ele>247.66666666666666</ele><time>2026-04-26T08:07:32.696Z</time></trkpt><trkpt lat="46.1452723" lon="9.6132363"><ele>248.0</ele><time>2026-04-26T08:07:34.695Z</time></trkpt><trkpt lat="46.1452954" lon="9.6133455"><ele>248.33333333333331</ele><time>2026-04-26T08:07:36.696Z</time></trkpt><trkpt lat="46.1453006" lon="9.6134497"><ele>248.66666666666666</ele><time>2026-04-26T08:07:38.696Z</time></trkpt><trkpt lat="46.1453397" lon="9.6135403"><ele>249.0</ele><time>2026-04-26T08:07:40.696Z</time></trkpt><trkpt lat="46.1453811" lon="9.6136413"><ele>249.0</ele><time>2026-04-26T08:07:42.696Z</time></trkpt><trkpt lat="46.1454164" lon="9.613743"><ele>249.0</ele><time>2026-04-26T08:07:44.696Z</time></trkpt><trkpt lat="46.1454487" lon="9.6138417"><ele>249.0</ele><time>2026-04-26T08:07:46.697Z</time></trkpt><trkpt lat="46.1454842" lon="9.6139508"><ele>249.0</ele><time>2026-04-26T08:07:48.696Z</time></trkpt><trkpt lat="46.1455119" lon="9.6140715"><ele>249.0</ele><time>2026-04-26T08:07:50.697Z</time></trkpt><trkpt lat="46.1455312" lon="9.6141974"><ele>249.0</ele><time>2026-04-26T08:07:52.697Z</time></trkpt><trkpt lat="46.1455416" lon="9.6143136"><ele>249.0</ele><time>2026-04-26T08:07:54.696Z</time></trkpt><trkpt lat="46.1455556" lon="9.6144435"><ele>248.99999999999997</ele><time>2026-04-26T08:07:56.696Z</time></trkpt><trkpt lat="46.1455682" lon="9.6145807"><ele>248.99999999999997</ele><time>2026-04-26T08:07:58.697Z</time></trkpt><trkpt lat="46.145582" lon="9.6147122"><ele>249.0</ele><time>2026-04-26T08:08:00.696Z</time></trkpt><trkpt lat="46.1456083" lon="9.6148371"><ele>249.0</ele><time>2026-04-26T08:08:02.697Z</time></trkpt><trkpt lat="46.1456021" lon="9.6149617"><ele>249.0</ele><time>2026-04-26T08:08:04.695Z</time></trkpt><trkpt lat="46.1456173" lon="9.6150991"><ele>248.99999999999997</ele><time>2026-04-26T08:08:06.697Z</time></trkpt><trkpt lat="46.1456314" lon="9.6152307"><ele>248.99999999999997</ele><time>2026-04-26T08:08:08.697Z</time></trkpt><trkpt lat="46.1456453" lon="9.6153628"><ele>249.0</ele><time>2026-04-26T08:08:10.695Z</time></trkpt><trkpt lat="46.145638" lon="9.6154955"><ele>249.0</ele><time>2026-04-26T08:08:12.695Z</time></trkpt><trkpt lat="46.1456421" lon="9.6156289"><ele>248.79999999999998</ele><time>2026-04-26T08:08:14.697Z</time></trkpt><trkpt lat="46.1456392" lon="9.615773"><ele>248.59999999999997</ele><time>2026-04-26T08:08:16.697Z</time></trkpt><trkpt lat="46.14565" lon="9.6159012"><ele>248.4</ele><time>2026-04-26T08:08:18.697Z</time></trkpt><trkpt lat="46.1456652" lon="9.6160183"><ele>248.2</ele><time>2026-04-26T08:08:20.698Z</time></trkpt><trkpt lat="46.1456705" lon="9.6161439"><ele>248.0</ele><time>2026-04-26T08:08:22.697Z</time></trkpt><trkpt lat="46.1456834" lon="9.6162913"><ele>248.00000000000003</ele><time>2026-04-26T08:08:24.696Z</time></trkpt><trkpt lat="46.145689" lon="9.6164342"><ele>248.0</ele><time>2026-04-26T08:08:26.697Z</time></trkpt><trkpt lat="46.1457052" lon="9.6165534"><ele>248.0</ele><time>2026-04-26T08:08:28.696Z</time></trkpt><trkpt lat="46.1457112" lon="9.6166687"><ele>248.0</ele><time>2026-04-26T08:08:30.697Z</time></trkpt><trkpt lat="46.1457184" lon="9.616796"><ele>248.00000000000003</ele><time>2026-04-26T08:08:32.697Z</time></trkpt><trkpt lat="46.1457305" lon="9.6169103"><ele>248.0</ele><time>2026-04-26T08:08:34.696Z</time></trkpt><trkpt lat="46.1457348" lon="9.6170195"><ele>251.83333333333334</ele><time>2026-04-26T08:08:36.697Z</time></trkpt><trkpt lat="46.1457385" lon="9.6171516"><ele>255.66666666666669</ele><time>2026-04-26T08:08:39.695Z</time></trkpt><trkpt lat="46.1457424" lon="9.6172817"><ele>259.5</ele><time>2026-04-26T08:08:42.696Z</time></trkpt><trkpt lat="46.145745" lon="9.6174181"><ele>263.3333333333333</ele><time>2026-04-26T08:08:45.695Z</time></trkpt><trkpt lat="46.1457602" lon="9.6175386"><ele>267.16666666666663</ele><time>2026-04-26T08:08:48.697Z</time></trkpt><trkpt lat="46.1457617" lon="9.6176645"><ele>271.0</ele><time>2026-04-26T08:08:51.696Z</time></trkpt><trkpt lat="46.1457665" lon="9.6177813"><ele>270.1428571428571</ele><time>2026-04-26T08:08:54.696Z</time></trkpt><trkpt lat="46.1457742" lon="9.6178934"><ele>269.2857142857143</ele><time>2026-04-26T08:08:57.696Z</time></trkpt><trkpt lat="46.1457795" lon="9.6180085"><ele>268.42857142857144</ele><time>2026-04-26T08:09:00.696Z</time></trkpt><trkpt lat="46.1457855" lon="9.6181008"><ele>267.57142857142856</ele><time>2026-04-26T08:09:02.696Z</time></trkpt><trkpt lat="46.1457984" lon="9.6181973"><ele>266.7142857142857</ele><time>2026-04-26T08:09:04.697Z</time></trkpt><trkpt lat="46.1458081" lon="9.6182958"><ele>265.85714285714283</ele><time>2026-04-26T08:09:06.696Z</time></trkpt><trkpt lat="46.1458043" lon="9.6183962"><ele>265.0</ele><time>2026-04-26T08:09:08.696Z</time></trkpt><trkpt lat="46.1458031" lon="9.6184906"><ele>265.0</ele><time>2026-04-26T08:09:10.697Z</time></trkpt><trkpt lat="46.1458089" lon="9.6185845"><ele>265.0</ele><time>2026-04-26T08:09:12.697Z</time></trkpt><trkpt lat="46.1458109" lon="9.6186851"><ele>265.0</ele><time>2026-04-26T08:09:14.697Z</time></trkpt><trkpt lat="46.1458173" lon="9.6187994"><ele>265.0</ele><time>2026-04-26T08:09:16.697Z</time></trkpt><trkpt lat="46.145816" lon="9.6189103"><ele>265.0</ele><time>2026-04-26T08:09:18.696Z</time></trkpt><trkpt lat="46.1458202" lon="9.619029"><ele>265.0</ele><time>2026-04-26T08:09:20.697Z</time></trkpt><trkpt lat="46.1458326" lon="9.6191378"><ele>264.8333333333333</ele><time>2026-04-26T08:09:22.696Z</time></trkpt><trkpt lat="46.1458435" lon="9.6192429"><ele>264.66666666666663</ele><time>2026-04-26T08:09:24.697Z</time></trkpt><trkpt lat="46.1458451" lon="9.6193529"><ele>264.5</ele><time>2026-04-26T08:09:26.696Z</time></trkpt><trkpt lat="46.1458489" lon="9.6194623"><ele>264.3333333333333</ele><time>2026-04-26T08:09:28.696Z</time></trkpt><trkpt lat="46.1458507" lon="9.6195812"><ele>264.1666666666667</ele><time>2026-04-26T08:09:30.697Z</time></trkpt><trkpt lat="46.145848" lon="9.6196928"><ele>264.0</ele><time>2026-04-26T08:09:32.697Z</time></trkpt><trkpt lat="46.1458538" lon="9.6198071"><ele>263.59999999999997</ele><time>2026-04-26T08:09:34.696Z</time></trkpt><trkpt lat="46.145883" lon="9.6199844"><ele>263.2</ele><time>2026-04-26T08:09:37.696Z</time></trkpt><trkpt lat="46.1459116" lon="9.6201059"><ele>262.79999999999995</ele><time>2026-04-26T08:09:39.696Z</time></trkpt><trkpt lat="46.1459457" lon="9.6202273"><ele>262.4</ele><time>2026-04-26T08:09:41.696Z</time></trkpt><trkpt lat="46.1459795" lon="9.6203382"><ele>262.0</ele><time>2026-04-26T08:09:43.696Z</time></trkpt><trkpt lat="46.146012" lon="9.6204565"><ele>260.6</ele><time>2026-04-26T08:09:45.697Z</time></trkpt><trkpt lat="46.1460452" lon="9.6205754"><ele>259.2</ele><time>2026-04-26T08:09:47.696Z</time></trkpt><trkpt lat="46.1460891" lon="9.6206941"><ele>257.8</ele><time>2026-04-26T08:09:49.696Z</time></trkpt><trkpt lat="46.1461205" lon="9.6208192"><ele>256.4</ele><time>2026-04-26T08:09:51.697Z</time></trkpt><trkpt lat="46.1461559" lon="9.6209557"><ele>255.0</ele><time>2026-04-26T08:09:53.697Z</time></trkpt><trkpt lat="46.1461721" lon="9.6210863"><ele>254.6</ele><time>2026-04-26T08:09:55.696Z</time></trkpt><trkpt lat="46.1462045" lon="9.6212197"><ele>254.2</ele><time>2026-04-26T08:09:57.696Z</time></trkpt><trkpt lat="46.1462327" lon="9.6213426"><ele>253.8</ele><time>2026-04-26T08:09:59.698Z</time></trkpt><trkpt lat="46.1462678" lon="9.621471"><ele>253.4</ele><time>2026-04-26T08:10:01.696Z</time></trkpt><trkpt lat="46.1462886" lon="9.6216091"><ele>253.0</ele><time>2026-04-26T08:10:03.697Z</time></trkpt><trkpt lat="46.1463173" lon="9.6217524"><ele>253.00000000000003</ele><time>2026-04-26T08:10:05.696Z</time></trkpt><trkpt lat="46.1463442" lon="9.621844"><ele>253.0</ele><time>2026-04-26T08:10:07.697Z</time></trkpt><trkpt lat="46.146375" lon="9.6219404"><ele>253.00000000000003</ele><time>2026-04-26T08:10:09.696Z</time></trkpt><trkpt lat="46.1463992" lon="9.6220348"><ele>253.00000000000003</ele><time>2026-04-26T08:10:11.697Z</time></trkpt><trkpt lat="46.1464197" lon="9.6221259"><ele>253.0</ele><time>2026-04-26T08:10:13.696Z</time></trkpt><trkpt lat="46.1464495" lon="9.6222255"><ele>253.00000000000003</ele><time>2026-04-26T08:10:16.696Z</time></trkpt><trkpt lat="46.1464886" lon="9.6223225"><ele>253.00000000000003</ele><time>2026-04-26T08:10:19.763Z</time></trkpt><trkpt lat="46.1465485" lon="9.622386"><ele>254.5714285714286</ele><time>2026-04-26T08:10:22.764Z</time></trkpt><trkpt lat="46.1465968" lon="9.6224657"><ele>256.14285714285717</ele><time>2026-04-26T08:10:26.697Z</time></trkpt><trkpt lat="46.1466331" lon="9.6225619"><ele>257.7142857142857</ele><time>2026-04-26T08:10:31.696Z</time></trkpt><trkpt lat="46.1466683" lon="9.6226532"><ele>259.28571428571433</ele><time>2026-04-26T08:10:36.697Z</time></trkpt><trkpt lat="46.1467079" lon="9.6227367"><ele>260.8571428571429</ele><time>2026-04-26T08:10:40.696Z</time></trkpt><trkpt lat="46.1467478" lon="9.6228095"><ele>262.42857142857144</ele><time>2026-04-26T08:10:45.697Z</time></trkpt><trkpt lat="46.1467466" lon="9.6229103"><ele>264.0</ele><time>2026-04-26T08:10:50.697Z</time></trkpt><trkpt lat="46.1467741" lon="9.6229952"><ele>264.0</ele><time>2026-04-26T08:10:54.696Z</time></trkpt><trkpt lat="46.1467824" lon="9.6230881"><ele>264.0</ele><time>2026-04-26T08:10:58.696Z</time></trkpt><trkpt lat="46.1468065" lon="9.6231769"><ele>264.0</ele><time>2026-04-26T08:11:02.698Z</time></trkpt><trkpt lat="46.1468365" lon="9.6232613"><ele>264.0</ele><time>2026-04-26T08:11:07.697Z</time></trkpt><trkpt lat="46.1468643" lon="9.6233612"><ele>264.0</ele><time>2026-04-26T08:11:12.696Z</time></trkpt><trkpt lat="46.1469055" lon="9.6234501"><ele>264.0</ele><time>2026-04-26T08:11:17.698Z</time></trkpt><trkpt lat="46.1469465" lon="9.6235236"><ele>264.0</ele><time>2026-04-26T08:11:21.696Z</time></trkpt><trkpt lat="46.1469637" lon="9.6236251"><ele>264.1428571428571</ele><time>2026-04-26T08:11:25.697Z</time></trkpt><trkpt lat="46.1470118" lon="9.6237122"><ele>264.2857142857143</ele><time>2026-04-26T08:11:30.696Z</time></trkpt><trkpt lat="46.1470408" lon="9.6237993"><ele>264.42857142857144</ele><time>2026-04-26T08:11:35.697Z</time></trkpt><trkpt lat="46.1470661" lon="9.623883"><ele>264.57142857142856</ele><time>2026-04-26T08:11:39.696Z</time></trkpt><trkpt lat="46.1470381" lon="9.6239759"><ele>264.7142857142857</ele><time>2026-04-26T08:11:44.697Z</time></trkpt><trkpt lat="46.1470367" lon="9.6240763"><ele>264.85714285714283</ele><time>2026-04-26T08:11:49.697Z</time></trkpt><trkpt lat="46.1470209" lon="9.6241714"><ele>265.0</ele><time>2026-04-26T08:11:54.697Z</time></trkpt><trkpt lat="46.1470037" lon="9.6242605"><ele>264.99999999999994</ele><time>2026-04-26T08:11:59.697Z</time></trkpt><trkpt lat="46.1469769" lon="9.624352"><ele>265.0</ele><time>2026-04-26T08:12:03.698Z</time></trkpt><trkpt lat="46.1469726" lon="9.6244624"><ele>265.0</ele><time>2026-04-26T08:12:08.697Z</time></trkpt><trkpt lat="46.1469668" lon="9.6245532"><ele>265.0</ele><time>2026-04-26T08:12:12.696Z</time></trkpt><trkpt lat="46.146967" lon="9.6246543"><ele>265.0</ele><time>2026-04-26T08:12:17.698Z</time></trkpt><trkpt lat="46.146977" lon="9.6247479"><ele>264.99999999999994</ele><time>2026-04-26T08:12:21.697Z</time></trkpt><trkpt lat="46.1469815" lon="9.6248534"><ele>265.0</ele><time>2026-04-26T08:12:26.696Z</time></trkpt><trkpt lat="46.1469977" lon="9.6249435"><ele>265.4285714285714</ele><time>2026-04-26T08:12:31.697Z</time></trkpt><trkpt lat="46.1469812" lon="9.6250322"><ele>265.85714285714283</ele><time>2026-04-26T08:12:35.697Z</time></trkpt><trkpt lat="46.1469508" lon="9.6251174"><ele>266.2857142857143</ele><time>2026-04-26T08:12:39.696Z</time></trkpt><trkpt lat="46.146936" lon="9.6252063"><ele>266.71428571428567</ele><time>2026-04-26T08:12:44.696Z</time></trkpt><trkpt lat="46.1469395" lon="9.6253172"><ele>267.1428571428571</ele><time>2026-04-26T08:12:49.697Z</time></trkpt><trkpt lat="46.1469305" lon="9.6254146"><ele>267.57142857142856</ele><time>2026-04-26T08:12:56.696Z</time></trkpt><trkpt lat="46.1469448" lon="9.6255141"><ele>268.0</ele><time>2026-04-26T08:13:03.698Z</time></trkpt><trkpt lat="46.1469494" lon="9.6256094"><ele>268.42857142857144</ele><time>2026-04-26T08:13:09.697Z</time></trkpt><trkpt lat="46.1469575" lon="9.6257041"><ele>268.85714285714283</ele><time>2026-04-26T08:13:15.695Z</time></trkpt><trkpt lat="46.1469473" lon="9.62581"><ele>269.2857142857143</ele><time>2026-04-26T08:13:22.697Z</time></trkpt><trkpt lat="46.1469612" lon="9.6259176"><ele>269.7142857142857</ele><time>2026-04-26T08:13:27.698Z</time></trkpt><trkpt lat="46.1469597" lon="9.6260085"><ele>270.14285714285717</ele><time>2026-04-26T08:13:32.696Z</time></trkpt><trkpt lat="46.1469523" lon="9.6261123"><ele>270.57142857142856</ele><time>2026-04-26T08:13:40.696Z</time></trkpt><trkpt lat="46.1469745" lon="9.6262059"><ele>271.0</ele><time>2026-04-26T08:13:46.698Z</time></trkpt><trkpt lat="46.1469759" lon="9.6263112"><ele>271.0</ele><time>2026-04-26T08:13:52.698Z</time></trkpt><trkpt lat="46.1470196" lon="9.626382"><ele>271.0</ele><time>2026-04-26T08:13:58.697Z</time></trkpt><trkpt lat="46.1470527" lon="9.6264601"><ele>271.0</ele><time>2026-04-26T08:14:04.697Z</time></trkpt><trkpt lat="46.1470799" lon="9.626549"><ele>271.0</ele><time>2026-04-26T08:14:10.698Z</time></trkpt><trkpt lat="46.1471213" lon="9.6266236"><ele>271.0</ele><time>2026-04-26T08:14:15.697Z</time></trkpt><trkpt lat="46.1471511" lon="9.6267054"><ele>271.0</ele><time>2026-04-26T08:14:20.697Z</time></trkpt><trkpt lat="46.1471901" lon="9.6267816"><ele>271.0</ele><time>2026-04-26T08:14:25.697Z</time></trkpt><trkpt lat="46.1472159" lon="9.6268686"><ele>271.0</ele><time>2026-04-26T08:14:30.697Z</time></trkpt><trkpt lat="46.1472422" lon="9.6269606"><ele>271.0</ele><time>2026-04-26T08:14:34.696Z</time></trkpt><trkpt lat="46.1472541" lon="9.6270518"><ele>271.0</ele><time>2026-04-26T08:14:38.698Z</time></trkpt><trkpt lat="46.1472639" lon="9.6271661"><ele>271.0</ele><time>2026-04-26T08:14:43.698Z</time></trkpt><trkpt lat="46.1473139" lon="9.6272432"><ele>271.0</ele><time>2026-04-26T08:14:47.697Z</time></trkpt><trkpt lat="46.1472879" lon="9.6271577"><ele>271.0</ele><time>2026-04-26T08:14:59.697Z</time></trkpt><trkpt lat="46.1472621" lon="9.6270577"><ele>271.0</ele><time>2026-04-26T08:15:02.698Z</time></trkpt><trkpt lat="46.1472325" lon="9.6269564"><ele>271.0</ele><time>2026-04-26T08:18:38.698Z</time></trkpt><trkpt lat="46.1472215" lon="9.6268394"><ele>271.0</ele><time>2026-04-26T08:18:42.698Z</time></trkpt><trkpt lat="46.1471783" lon="9.6267244"><ele>271.0</ele><time>2026-04-26T08:18:45.698Z</time></trkpt><trkpt lat="46.1471222" lon="9.6266271"><ele>271.0</ele><time>2026-04-26T08:18:47.698Z</time></trkpt><trkpt lat="46.1470627" lon="9.6264831"><ele>271.0</ele><time>2026-04-26T08:18:49.697Z</time></trkpt><trkpt lat="46.1470293" lon="9.6263991"><ele>271.0</ele><time>2026-04-26T08:18:50.697Z</time></trkpt><trkpt lat="46.1469945" lon="9.6263217"><ele>271.0</ele><time>2026-04-26T08:18:51.698Z</time></trkpt><trkpt lat="46.1469586" lon="9.6262264"><ele>271.0</ele><time>2026-04-26T08:18:52.698Z</time></trkpt><trkpt lat="46.146949" lon="9.6261131"><ele>271.0</ele><time>2026-04-26T08:18:53.697Z</time></trkpt><trkpt lat="46.1469393" lon="9.6259812"><ele>271.0</ele><time>2026-04-26T08:18:54.697Z</time></trkpt><trkpt lat="46.1469364" lon="9.6258313"><ele>271.0</ele><time>2026-04-26T08:18:55.697Z</time></trkpt><trkpt lat="46.1469441" lon="9.6256786"><ele>271.2</ele><time>2026-04-26T08:18:56.699Z</time></trkpt><trkpt lat="46.1469461" lon="9.62552"><ele>271.40000000000003</ele><time>2026-04-26T08:18:57.697Z</time></trkpt><trkpt lat="46.1469467" lon="9.6253593"><ele>271.6</ele><time>2026-04-26T08:18:58.697Z</time></trkpt><trkpt lat="46.1469504" lon="9.6251989"><ele>271.8</ele><time>2026-04-26T08:18:59.698Z</time></trkpt><trkpt lat="46.146956" lon="9.625035"><ele>272.0</ele><time>2026-04-26T08:19:00.697Z</time></trkpt><trkpt lat="46.146958" lon="9.6248691"><ele>271.2</ele><time>2026-04-26T08:19:01.697Z</time></trkpt><trkpt lat="46.1469538" lon="9.6247098"><ele>270.4</ele><time>2026-04-26T08:19:02.698Z</time></trkpt><trkpt lat="46.1469543" lon="9.6245644"><ele>269.6</ele><time>2026-04-26T08:19:03.698Z</time></trkpt><trkpt lat="46.1469624" lon="9.6244271"><ele>268.8</ele><time>2026-04-26T08:19:04.698Z</time></trkpt><trkpt lat="46.1469857" lon="9.6242923"><ele>268.0</ele><time>2026-04-26T08:19:05.698Z</time></trkpt><trkpt lat="46.1470051" lon="9.6241874"><ele>267.4</ele><time>2026-04-26T08:19:06.698Z</time></trkpt><trkpt lat="46.1470199" lon="9.6239736"><ele>266.8</ele><time>2026-04-26T08:19:08.698Z</time></trkpt><trkpt lat="46.1469606" lon="9.6238662"><ele>266.2</ele><time>2026-04-26T08:19:09.699Z</time></trkpt><trkpt lat="46.1469191" lon="9.6237526"><ele>265.6</ele><time>2026-04-26T08:19:10.697Z</time></trkpt><trkpt lat="46.146871" lon="9.6236211"><ele>265.0</ele><time>2026-04-26T08:19:11.698Z</time></trkpt><trkpt lat="46.1468289" lon="9.6234897"><ele>264.75</ele><time>2026-04-26T08:19:12.697Z</time></trkpt><trkpt lat="46.146792" lon="9.6233511"><ele>264.5</ele><time>2026-04-26T08:19:13.697Z</time></trkpt><trkpt lat="46.1467596" lon="9.6231968"><ele>264.25</ele><time>2026-04-26T08:19:14.699Z</time></trkpt><trkpt lat="46.1467119" lon="9.6230154"><ele>264.0</ele><time>2026-04-26T08:19:15.698Z</time></trkpt><trkpt lat="46.1466674" lon="9.6228479"><ele>262.5</ele><time>2026-04-26T08:19:16.698Z</time></trkpt><trkpt lat="46.1466211" lon="9.6226818"><ele>261.0</ele><time>2026-04-26T08:19:17.697Z</time></trkpt><trkpt lat="46.1465524" lon="9.6225276"><ele>259.5</ele><time>2026-04-26T08:19:18.698Z</time></trkpt><trkpt lat="46.1465067" lon="9.6223877"><ele>258.0</ele><time>2026-04-26T08:19:19.698Z</time></trkpt><trkpt lat="46.1464473" lon="9.6222327"><ele>258.0</ele><time>2026-04-26T08:19:20.698Z</time></trkpt><trkpt lat="46.1463869" lon="9.6220688"><ele>258.0</ele><time>2026-04-26T08:19:21.698Z</time></trkpt><trkpt lat="46.14636" lon="9.6219017"><ele>258.0</ele><time>2026-04-26T08:19:22.697Z</time></trkpt><trkpt lat="46.1463103" lon="9.6217296"><ele>258.0</ele><time>2026-04-26T08:19:23.698Z</time></trkpt><trkpt lat="46.1462761" lon="9.6215564"><ele>257.25</ele><time>2026-04-26T08:19:24.697Z</time></trkpt><trkpt lat="46.1462455" lon="9.6213871"><ele>256.5</ele><time>2026-04-26T08:19:25.698Z</time></trkpt><trkpt lat="46.1462043" lon="9.6212225"><ele>255.75</ele><time>2026-04-26T08:19:26.697Z</time></trkpt><trkpt lat="46.146169" lon="9.6210725"><ele>255.0</ele><time>2026-04-26T08:19:27.697Z</time></trkpt><trkpt lat="46.1461357" lon="9.6209216"><ele>255.0</ele><time>2026-04-26T08:19:28.697Z</time></trkpt><trkpt lat="46.1461012" lon="9.6207723"><ele>255.0</ele><time>2026-04-26T08:19:29.697Z</time></trkpt><trkpt lat="46.1460675" lon="9.6206267"><ele>255.0</ele><time>2026-04-26T08:19:30.697Z</time></trkpt><trkpt lat="46.1460738" lon="9.6204792"><ele>255.0</ele><time>2026-04-26T08:19:31.698Z</time></trkpt><trkpt lat="46.1460313" lon="9.6203486"><ele>255.0</ele><time>2026-04-26T08:19:32.698Z</time></trkpt><trkpt lat="46.1459756" lon="9.6202139"><ele>256.4</ele><time>2026-04-26T08:19:33.697Z</time></trkpt><trkpt lat="46.1459312" lon="9.6200844"><ele>257.8</ele><time>2026-04-26T08:19:34.698Z</time></trkpt><trkpt lat="46.145907" lon="9.61996"><ele>259.2</ele><time>2026-04-26T08:19:35.698Z</time></trkpt><trkpt lat="46.145898" lon="9.6198301"><ele>260.6</ele><time>2026-04-26T08:19:36.697Z</time></trkpt><trkpt lat="46.1458972" lon="9.6197098"><ele>262.0</ele><time>2026-04-26T08:19:37.697Z</time></trkpt><trkpt lat="46.1458875" lon="9.6195847"><ele>262.3333333333333</ele><time>2026-04-26T08:19:38.697Z</time></trkpt><trkpt lat="46.1458755" lon="9.6194499"><ele>262.66666666666663</ele><time>2026-04-26T08:19:39.698Z</time></trkpt><trkpt lat="46.1458698" lon="9.6193326"><ele>263.0</ele><time>2026-04-26T08:19:40.697Z</time></trkpt><trkpt lat="46.145872" lon="9.6192122"><ele>263.3333333333333</ele><time>2026-04-26T08:19:41.698Z</time></trkpt><trkpt lat="46.1458693" lon="9.6190946"><ele>263.6666666666667</ele><time>2026-04-26T08:19:42.698Z</time></trkpt><trkpt lat="46.1458655" lon="9.6189723"><ele>264.0</ele><time>2026-04-26T08:19:43.698Z</time></trkpt><trkpt lat="46.14586" lon="9.6188436"><ele>264.0</ele><time>2026-04-26T08:19:44.699Z</time></trkpt><trkpt lat="46.145856" lon="9.6187202"><ele>264.0</ele><time>2026-04-26T08:19:45.698Z</time></trkpt><trkpt lat="46.1458526" lon="9.6185951"><ele>264.0</ele><time>2026-04-26T08:19:46.699Z</time></trkpt><trkpt lat="46.1458399" lon="9.6184727"><ele>264.0</ele><time>2026-04-26T08:19:47.697Z</time></trkpt><trkpt lat="46.1458282" lon="9.6183545"><ele>264.0</ele><time>2026-04-26T08:19:48.698Z</time></trkpt><trkpt lat="46.1458266" lon="9.618236"><ele>264.0</ele><time>2026-04-26T08:19:49.697Z</time></trkpt><trkpt lat="46.1458275" lon="9.6181093"><ele>264.1666666666667</ele><time>2026-04-26T08:19:50.698Z</time></trkpt><trkpt lat="46.1458237" lon="9.6179867"><ele>264.3333333333333</ele><time>2026-04-26T08:19:51.698Z</time></trkpt><trkpt lat="46.1458187" lon="9.6178747"><ele>264.5</ele><time>2026-04-26T08:19:52.697Z</time></trkpt><trkpt lat="46.1458107" lon="9.6177565"><ele>264.66666666666663</ele><time>2026-04-26T08:19:53.698Z</time></trkpt><trkpt lat="46.1457966" lon="9.6176401"><ele>264.8333333333333</ele><time>2026-04-26T08:19:54.697Z</time></trkpt><trkpt lat="46.1457843" lon="9.6175178"><ele>265.0</ele><time>2026-04-26T08:19:55.699Z</time></trkpt><trkpt lat="46.145776" lon="9.6173983"><ele>266.2</ele><time>2026-04-26T08:19:56.697Z</time></trkpt><trkpt lat="46.1457694" lon="9.6172611"><ele>267.4</ele><time>2026-04-26T08:19:57.697Z</time></trkpt><trkpt lat="46.145758" lon="9.6171211"><ele>268.6</ele><time>2026-04-26T08:19:58.699Z</time></trkpt><trkpt lat="46.1457475" lon="9.6169673"><ele>269.8</ele><time>2026-04-26T08:19:59.697Z</time></trkpt><trkpt lat="46.1457361" lon="9.6168288"><ele>271.0</ele><time>2026-04-26T08:20:00.698Z</time></trkpt><trkpt lat="46.1457202" lon="9.6166751"><ele>266.40000000000003</ele><time>2026-04-26T08:20:01.697Z</time></trkpt><trkpt lat="46.1457016" lon="9.6165179"><ele>261.8</ele><time>2026-04-26T08:20:02.698Z</time></trkpt><trkpt lat="46.1456906" lon="9.6163709"><ele>257.20000000000005</ele><time>2026-04-26T08:20:03.697Z</time></trkpt><trkpt lat="46.1456849" lon="9.6162266"><ele>252.60000000000002</ele><time>2026-04-26T08:20:04.697Z</time></trkpt><trkpt lat="46.1456844" lon="9.616085"><ele>248.0</ele><time>2026-04-26T08:20:05.697Z</time></trkpt><trkpt lat="46.1456715" lon="9.6159515"><ele>248.0</ele><time>2026-04-26T08:20:06.698Z</time></trkpt><trkpt lat="46.1456557" lon="9.6158254"><ele>248.0</ele><time>2026-04-26T08:20:07.697Z</time></trkpt><trkpt lat="46.1456432" lon="9.6157109"><ele>248.0</ele><time>2026-04-26T08:20:08.697Z</time></trkpt><trkpt lat="46.1456306" lon="9.6155983"><ele>248.0</ele><time>2026-04-26T08:20:09.697Z</time></trkpt><trkpt lat="46.1456191" lon="9.6154821"><ele>248.0</ele><time>2026-04-26T08:20:10.697Z</time></trkpt><trkpt lat="46.1456048" lon="9.6152541"><ele>248.16666666666669</ele><time>2026-04-26T08:20:12.697Z</time></trkpt><trkpt lat="46.1456032" lon="9.6151331"><ele>248.33333333333334</ele><time>2026-04-26T08:20:13.697Z</time></trkpt><trkpt lat="46.145601" lon="9.6150233"><ele>248.5</ele><time>2026-04-26T08:20:14.699Z</time></trkpt><trkpt lat="46.145597" lon="9.6149103"><ele>248.66666666666669</ele><time>2026-04-26T08:20:15.697Z</time></trkpt><trkpt lat="46.1455827" lon="9.6147907"><ele>248.83333333333334</ele><time>2026-04-26T08:20:16.697Z</time></trkpt><trkpt lat="46.1455731" lon="9.6146795"><ele>249.0</ele><time>2026-04-26T08:20:17.698Z</time></trkpt><trkpt lat="46.1455736" lon="9.6145516"><ele>249.0</ele><time>2026-04-26T08:20:18.698Z</time></trkpt><trkpt lat="46.1455713" lon="9.6144356"><ele>248.99999999999997</ele><time>2026-04-26T08:20:19.697Z</time></trkpt><trkpt lat="46.1455676" lon="9.6143215"><ele>249.0</ele><time>2026-04-26T08:20:20.697Z</time></trkpt><trkpt lat="46.1455457" lon="9.6142126"><ele>249.0</ele><time>2026-04-26T08:20:21.698Z</time></trkpt><trkpt lat="46.1455208" lon="9.6141169"><ele>248.99999999999997</ele><time>2026-04-26T08:20:22.697Z</time></trkpt><trkpt lat="46.1454935" lon="9.6140188"><ele>249.0</ele><time>2026-04-26T08:20:23.698Z</time></trkpt><trkpt lat="46.1454713" lon="9.6139288"><ele>249.0</ele><time>2026-04-26T08:20:24.698Z</time></trkpt><trkpt lat="46.1454323" lon="9.6138566"><ele>249.0</ele><time>2026-04-26T08:20:25.697Z</time></trkpt><trkpt lat="46.1453652" lon="9.6137069"><ele>248.99999999999997</ele><time>2026-04-26T08:20:27.698Z</time></trkpt><trkpt lat="46.1453372" lon="9.6135839"><ele>248.99999999999997</ele><time>2026-04-26T08:20:29.698Z</time></trkpt><trkpt lat="46.1453039" lon="9.6134533"><ele>249.0</ele><time>2026-04-26T08:20:31.698Z</time></trkpt><trkpt lat="46.1453148" lon="9.6133616"><ele>249.0</ele><time>2026-04-26T08:20:32.698Z</time></trkpt><trkpt lat="46.1452861" lon="9.6131903"><ele>249.0</ele><time>2026-04-26T08:20:34.697Z</time></trkpt><trkpt lat="46.1452562" lon="9.613106"><ele>249.0</ele><time>2026-04-26T08:20:35.698Z</time></trkpt><trkpt lat="46.1452221" lon="9.6130075"><ele>249.0</ele><time>2026-04-26T08:20:36.697Z</time></trkpt><trkpt lat="46.1451947" lon="9.6129044"><ele>249.0</ele><time>2026-04-26T08:20:37.698Z</time></trkpt><trkpt lat="46.1451615" lon="9.6127952"><ele>249.0</ele><time>2026-04-26T08:20:38.697Z</time></trkpt><trkpt lat="46.1451223" lon="9.6126871"><ele>249.0</ele><time>2026-04-26T08:20:39.697Z</time></trkpt><trkpt lat="46.1450874" lon="9.6125729"><ele>248.66666666666666</ele><time>2026-04-26T08:20:40.697Z</time></trkpt><trkpt lat="46.1450377" lon="9.6124454"><ele>248.33333333333331</ele><time>2026-04-26T08:20:41.698Z</time></trkpt><trkpt lat="46.1449977" lon="9.6123294"><ele>248.0</ele><time>2026-04-26T08:20:42.698Z</time></trkpt><trkpt lat="46.1449654" lon="9.6122213"><ele>247.66666666666666</ele><time>2026-04-26T08:20:43.698Z</time></trkpt><trkpt lat="46.1449386" lon="9.6121275"><ele>247.33333333333331</ele><time>2026-04-26T08:20:44.697Z</time></trkpt><trkpt lat="46.1448923" lon="9.6120146"><ele>247.0</ele><time>2026-04-26T08:20:45.699Z</time></trkpt><trkpt lat="46.1448544" lon="9.6119176"><ele>246.66666666666666</ele><time>2026-04-26T08:20:46.698Z</time></trkpt><trkpt lat="46.1448171" lon="9.6118155"><ele>246.33333333333331</ele><time>2026-04-26T08:20:47.698Z</time></trkpt><trkpt lat="46.1447821" lon="9.6117181"><ele>246.0</ele><time>2026-04-26T08:20:48.698Z</time></trkpt><trkpt lat="46.1447393" lon="9.6116131"><ele>245.66666666666669</ele><time>2026-04-26T08:20:49.697Z</time></trkpt><trkpt lat="46.1447073" lon="9.6115103"><ele>245.33333333333334</ele><time>2026-04-26T08:20:50.698Z</time></trkpt><trkpt lat="46.1446634" lon="9.6114041"><ele>245.0</ele><time>2026-04-26T08:20:51.698Z</time></trkpt><trkpt lat="46.1446242" lon="9.6113043"><ele>245.00000000000003</ele><time>2026-04-26T08:20:52.698Z</time></trkpt><trkpt lat="46.1445756" lon="9.6111893"><ele>245.0</ele><time>2026-04-26T08:20:53.697Z</time></trkpt><trkpt lat="46.144532" lon="9.6110981"><ele>245.0</ele><time>2026-04-26T08:20:54.697Z</time></trkpt><trkpt lat="46.1444877" lon="9.6110082"><ele>245.0</ele><time>2026-04-26T08:20:55.698Z</time></trkpt><trkpt lat="46.1444504" lon="9.6109178"><ele>245.00000000000003</ele><time>2026-04-26T08:20:56.697Z</time></trkpt><trkpt lat="46.1444014" lon="9.6108341"><ele>245.0</ele><time>2026-04-26T08:20:57.699Z</time></trkpt><trkpt lat="46.1443528" lon="9.6107366"><ele>245.00000000000003</ele><time>2026-04-26T08:20:58.697Z</time></trkpt><trkpt lat="46.1443126" lon="9.6106522"><ele>245.0</ele><time>2026-04-26T08:20:59.697Z</time></trkpt><trkpt lat="46.1442742" lon="9.6105714"><ele>245.0</ele><time>2026-04-26T08:21:00.698Z</time></trkpt><trkpt lat="46.1442354" lon="9.6104953"><ele>245.0</ele><time>2026-04-26T08:21:01.697Z</time></trkpt><trkpt lat="46.1441481" lon="9.6103804"><ele>245.00000000000003</ele><time>2026-04-26T08:21:03.698Z</time></trkpt><trkpt lat="46.144091" lon="9.6102292"><ele>245.0</ele><time>2026-04-26T08:21:05.698Z</time></trkpt><trkpt lat="46.1440908" lon="9.6100622"><ele>244.8</ele><time>2026-04-26T08:21:07.696Z</time></trkpt><trkpt lat="46.1441053" lon="9.6098848"><ele>244.6</ele><time>2026-04-26T08:21:09.697Z</time></trkpt><trkpt lat="46.1441139" lon="9.6097852"><ele>244.39999999999998</ele><time>2026-04-26T08:21:10.698Z</time></trkpt><trkpt lat="46.1441255" lon="9.6096059"><ele>244.2</ele><time>2026-04-26T08:21:12.697Z</time></trkpt><trkpt lat="46.1441428" lon="9.6094994"><ele>244.0</ele><time>2026-04-26T08:21:13.699Z</time></trkpt><trkpt lat="46.1441668" lon="9.6094138"><ele>243.83333333333331</ele><time>2026-04-26T08:21:14.697Z</time></trkpt><trkpt lat="46.1441763" lon="9.6093222"><ele>243.66666666666666</ele><time>2026-04-26T08:21:15.698Z</time></trkpt><trkpt lat="46.1441894" lon="9.6092282"><ele>243.5</ele><time>2026-04-26T08:21:16.698Z</time></trkpt><trkpt lat="46.1441995" lon="9.609125"><ele>243.33333333333331</ele><time>2026-04-26T08:21:17.697Z</time></trkpt><trkpt lat="46.1442235" lon="9.6089499"><ele>243.16666666666666</ele><time>2026-04-26T08:21:19.696Z</time></trkpt><trkpt lat="46.144248" lon="9.6087819"><ele>243.0</ele><time>2026-04-26T08:21:21.698Z</time></trkpt><trkpt lat="46.1442645" lon="9.6086088"><ele>242.8</ele><time>2026-04-26T08:21:23.699Z</time></trkpt><trkpt lat="46.1443025" lon="9.6084585"><ele>242.60000000000002</ele><time>2026-04-26T08:21:25.698Z</time></trkpt><trkpt lat="46.144335" lon="9.6083047"><ele>242.39999999999998</ele><time>2026-04-26T08:21:27.698Z</time></trkpt><trkpt lat="46.1443538" lon="9.6081938"><ele>242.2</ele><time>2026-04-26T08:21:29.699Z</time></trkpt><trkpt lat="46.1443604" lon="9.6080796"><ele>242.0</ele><time>2026-04-26T08:21:32.697Z</time></trkpt><trkpt lat="46.1443449" lon="9.6079787"><ele>242.00000000000003</ele><time>2026-04-26T08:22:58.697Z</time></trkpt><trkpt lat="46.1443621" lon="9.6078791"><ele>242.0</ele><time>2026-04-26T08:23:01.697Z</time></trkpt><trkpt lat="46.1443758" lon="9.6077729"><ele>242.0</ele><time>2026-04-26T08:23:03.698Z</time></trkpt><trkpt lat="46.144391" lon="9.6076391"><ele>242.0</ele><time>2026-04-26T08:23:05.699Z</time></trkpt><trkpt lat="46.14441" lon="9.6074955"><ele>242.00000000000003</ele><time>2026-04-26T08:23:07.697Z</time></trkpt><trkpt lat="46.1444242" lon="9.6074049"><ele>242.0</ele><time>2026-04-26T08:23:08.697Z</time></trkpt><trkpt lat="46.1444454" lon="9.6072427"><ele>241.83333333333334</ele><time>2026-04-26T08:23:10.698Z</time></trkpt><trkpt lat="46.1444618" lon="9.6071531"><ele>241.66666666666669</ele><time>2026-04-26T08:23:11.698Z</time></trkpt><trkpt lat="46.1444897" lon="9.6069671"><ele>241.5</ele><time>2026-04-26T08:23:13.699Z</time></trkpt><trkpt lat="46.1445123" lon="9.6068663"><ele>241.33333333333331</ele><time>2026-04-26T08:23:14.698Z</time></trkpt><trkpt lat="46.1445205" lon="9.6067751"><ele>241.16666666666666</ele><time>2026-04-26T08:23:15.698Z</time></trkpt><trkpt lat="46.1445287" lon="9.6066789"><ele>241.0</ele><time>2026-04-26T08:23:16.698Z</time></trkpt><trkpt lat="46.1445371" lon="9.6065665"><ele>240.8</ele><time>2026-04-26T08:23:17.697Z</time></trkpt><trkpt lat="46.1445444" lon="9.6064536"><ele>240.60000000000002</ele><time>2026-04-26T08:23:18.696Z</time></trkpt><trkpt lat="46.1445832" lon="9.6062186"><ele>240.4</ele><time>2026-04-26T08:23:20.698Z</time></trkpt><trkpt lat="46.1445948" lon="9.606108"><ele>240.2</ele><time>2026-04-26T08:23:21.698Z</time></trkpt><trkpt lat="46.1446155" lon="9.6059982"><ele>240.0</ele><time>2026-04-26T08:23:22.698Z</time></trkpt><trkpt lat="46.1446295" lon="9.6058848"><ele>240.0</ele><time>2026-04-26T08:23:23.698Z</time></trkpt><trkpt lat="46.1446429" lon="9.6057698"><ele>240.0</ele><time>2026-04-26T08:23:24.699Z</time></trkpt><trkpt lat="46.1446625" lon="9.6056334"><ele>240.0</ele><time>2026-04-26T08:23:25.698Z</time></trkpt><trkpt lat="46.144676" lon="9.6055269"><ele>240.0</ele><time>2026-04-26T08:23:26.697Z</time></trkpt><trkpt lat="46.1446873" lon="9.6054019"><ele>240.0</ele><time>2026-04-26T08:23:27.698Z</time></trkpt><trkpt lat="46.1446982" lon="9.6052875"><ele>240.0</ele><time>2026-04-26T08:23:28.697Z</time></trkpt><trkpt lat="46.1447135" lon="9.6051658"><ele>240.0</ele><time>2026-04-26T08:23:29.697Z</time></trkpt><trkpt lat="46.1447295" lon="9.6050607"><ele>240.0</ele><time>2026-04-26T08:23:30.699Z</time></trkpt><trkpt lat="46.1447356" lon="9.6049558"><ele>240.0</ele><time>2026-04-26T08:23:31.698Z</time></trkpt><trkpt lat="46.1447484" lon="9.6048421"><ele>240.0</ele><time>2026-04-26T08:23:32.698Z</time></trkpt><trkpt lat="46.144773" lon="9.6047143"><ele>240.0</ele><time>2026-04-26T08:23:33.697Z</time></trkpt><trkpt lat="46.1447806" lon="9.6046086"><ele>240.0</ele><time>2026-04-26T08:23:34.698Z</time></trkpt><trkpt lat="46.1447927" lon="9.6045069"><ele>240.0</ele><time>2026-04-26T08:23:35.699Z</time></trkpt><trkpt lat="46.1448044" lon="9.6043839"><ele>240.0</ele><time>2026-04-26T08:23:36.697Z</time></trkpt><trkpt lat="46.1448165" lon="9.6042711"><ele>240.0</ele><time>2026-04-26T08:23:37.698Z</time></trkpt><trkpt lat="46.1448324" lon="9.604145"><ele>240.0</ele><time>2026-04-26T08:23:38.698Z</time></trkpt><trkpt lat="46.1448436" lon="9.6040266"><ele>240.0</ele><time>2026-04-26T08:23:39.696Z</time></trkpt><trkpt lat="46.144859" lon="9.6038963"><ele>240.0</ele><time>2026-04-26T08:23:40.698Z</time></trkpt><trkpt lat="46.1448796" lon="9.6037863"><ele>240.0</ele><time>2026-04-26T08:23:41.698Z</time></trkpt><trkpt lat="46.1448934" lon="9.6036492"><ele>240.0</ele><time>2026-04-26T08:23:42.699Z</time></trkpt><trkpt lat="46.1449034" lon="9.6035318"><ele>240.0</ele><time>2026-04-26T08:23:43.697Z</time></trkpt><trkpt lat="46.1449205" lon="9.603426"><ele>240.0</ele><time>2026-04-26T08:23:44.698Z</time></trkpt><trkpt lat="46.144939" lon="9.60331"><ele>240.0</ele><time>2026-04-26T08:23:45.698Z</time></trkpt><trkpt lat="46.1449519" lon="9.6032024"><ele>240.0</ele><time>2026-04-26T08:23:46.698Z</time></trkpt><trkpt lat="46.1449633" lon="9.6030915"><ele>240.0</ele><time>2026-04-26T08:23:47.698Z</time></trkpt><trkpt lat="46.1449811" lon="9.6029672"><ele>240.0</ele><time>2026-04-26T08:23:48.699Z</time></trkpt><trkpt lat="46.1449928" lon="9.6028334"><ele>240.0</ele><time>2026-04-26T08:23:49.698Z</time></trkpt><trkpt lat="46.1450102" lon="9.6027176"><ele>240.0</ele><time>2026-04-26T08:23:50.697Z</time></trkpt><trkpt lat="46.1450216" lon="9.6025994"><ele>240.0</ele><time>2026-04-26T08:23:51.697Z</time></trkpt><trkpt lat="46.1450413" lon="9.6024878"><ele>240.0</ele><time>2026-04-26T08:23:52.698Z</time></trkpt><trkpt lat="46.1450486" lon="9.6023739"><ele>239.83333333333334</ele><time>2026-04-26T08:23:53.698Z</time></trkpt><trkpt lat="46.1450585" lon="9.6022647"><ele>239.66666666666669</ele><time>2026-04-26T08:23:54.699Z</time></trkpt><trkpt lat="46.1450714" lon="9.602148"><ele>239.5</ele><time>2026-04-26T08:23:55.699Z</time></trkpt><trkpt lat="46.14508" lon="9.6020314"><ele>239.33333333333334</ele><time>2026-04-26T08:23:56.698Z</time></trkpt><trkpt lat="46.1450993" lon="9.6019191"><ele>239.16666666666669</ele><time>2026-04-26T08:23:57.698Z</time></trkpt><trkpt lat="46.1451095" lon="9.6018019"><ele>239.0</ele><time>2026-04-26T08:23:58.699Z</time></trkpt><trkpt lat="46.1451229" lon="9.6016813"><ele>239.00000000000003</ele><time>2026-04-26T08:23:59.697Z</time></trkpt><trkpt lat="46.1451319" lon="9.6015565"><ele>239.0</ele><time>2026-04-26T08:24:00.697Z</time></trkpt><trkpt lat="46.1451471" lon="9.6014294"><ele>239.0</ele><time>2026-04-26T08:24:01.697Z</time></trkpt><trkpt lat="46.1451582" lon="9.6013181"><ele>239.0</ele><time>2026-04-26T08:24:02.699Z</time></trkpt><trkpt lat="46.1451781" lon="9.6012055"><ele>239.00000000000003</ele><time>2026-04-26T08:24:03.699Z</time></trkpt><trkpt lat="46.1451755" lon="9.6010879"><ele>239.0</ele><time>2026-04-26T08:24:04.698Z</time></trkpt><trkpt lat="46.1451891" lon="9.6009648"><ele>238.83333333333334</ele><time>2026-04-26T08:24:05.698Z</time></trkpt><trkpt lat="46.1451973" lon="9.6008527"><ele>238.66666666666669</ele><time>2026-04-26T08:24:06.698Z</time></trkpt><trkpt lat="46.1452318" lon="9.6007436"><ele>238.5</ele><time>2026-04-26T08:24:07.697Z</time></trkpt><trkpt lat="46.1452413" lon="9.6006293"><ele>238.33333333333331</ele><time>2026-04-26T08:24:08.698Z</time></trkpt><trkpt lat="46.145268" lon="9.6004921"><ele>238.16666666666666</ele><time>2026-04-26T08:24:09.698Z</time></trkpt><trkpt lat="46.1452716" lon="9.6003715"><ele>238.0</ele><time>2026-04-26T08:24:10.698Z</time></trkpt><trkpt lat="46.1452888" lon="9.6002407"><ele>237.99999999999997</ele><time>2026-04-26T08:24:11.698Z</time></trkpt><trkpt lat="46.1452933" lon="9.6001134"><ele>238.0</ele><time>2026-04-26T08:24:12.698Z</time></trkpt><trkpt lat="46.1453011" lon="9.5999839"><ele>238.0</ele><time>2026-04-26T08:24:13.697Z</time></trkpt><trkpt lat="46.1453247" lon="9.5998786"><ele>238.0</ele><time>2026-04-26T08:24:14.699Z</time></trkpt><trkpt lat="46.1453346" lon="9.5997486"><ele>237.99999999999997</ele><time>2026-04-26T08:24:15.699Z</time></trkpt><trkpt lat="46.1453285" lon="9.5996335"><ele>238.0</ele><time>2026-04-26T08:24:16.699Z</time></trkpt><trkpt lat="46.1453281" lon="9.5995197"><ele>237.83333333333331</ele><time>2026-04-26T08:24:17.699Z</time></trkpt><trkpt lat="46.1453402" lon="9.5993999"><ele>237.66666666666666</ele><time>2026-04-26T08:24:18.698Z</time></trkpt><trkpt lat="46.1453535" lon="9.5992855"><ele>237.5</ele><time>2026-04-26T08:24:19.698Z</time></trkpt><trkpt lat="46.1453611" lon="9.599172"><ele>237.33333333333331</ele><time>2026-04-26T08:24:20.697Z</time></trkpt><trkpt lat="46.14538" lon="9.5990589"><ele>237.16666666666666</ele><time>2026-04-26T08:24:21.697Z</time></trkpt><trkpt lat="46.1453795" lon="9.5989479"><ele>237.0</ele><time>2026-04-26T08:24:22.698Z</time></trkpt><trkpt lat="46.1453823" lon="9.5988318"><ele>237.0</ele><time>2026-04-26T08:24:23.699Z</time></trkpt><trkpt lat="46.1453838" lon="9.5987144"><ele>237.0</ele><time>2026-04-26T08:24:24.699Z</time></trkpt><trkpt lat="46.1453809" lon="9.5986112"><ele>237.0</ele><time>2026-04-26T08:24:25.697Z</time></trkpt><trkpt lat="46.1453928" lon="9.598494"><ele>237.0</ele><time>2026-04-26T08:24:26.699Z</time></trkpt><trkpt lat="46.1453916" lon="9.598375"><ele>237.0</ele><time>2026-04-26T08:24:27.698Z</time></trkpt><trkpt lat="46.1453927" lon="9.5982719"><ele>237.0</ele><time>2026-04-26T08:24:28.696Z</time></trkpt><trkpt lat="46.1453876" lon="9.598175"><ele>237.33333333333334</ele><time>2026-04-26T08:24:29.699Z</time></trkpt><trkpt lat="46.1453831" lon="9.5980648"><ele>237.66666666666669</ele><time>2026-04-26T08:24:30.696Z</time></trkpt><trkpt lat="46.1453793" lon="9.5979615"><ele>238.0</ele><time>2026-04-26T08:24:31.697Z</time></trkpt><trkpt lat="46.1453839" lon="9.5977805"><ele>238.33333333333334</ele><time>2026-04-26T08:24:33.699Z</time></trkpt><trkpt lat="46.1453721" lon="9.5976712"><ele>238.66666666666669</ele><time>2026-04-26T08:24:34.698Z</time></trkpt><trkpt lat="46.1453739" lon="9.597574"><ele>239.0</ele><time>2026-04-26T08:24:35.699Z</time></trkpt><trkpt lat="46.1453777" lon="9.597482"><ele>239.0</ele><time>2026-04-26T08:24:36.699Z</time></trkpt><trkpt lat="46.1453892" lon="9.5973912"><ele>238.99999999999997</ele><time>2026-04-26T08:24:37.698Z</time></trkpt><trkpt lat="46.145411" lon="9.5972197"><ele>238.99999999999997</ele><time>2026-04-26T08:24:39.698Z</time></trkpt><trkpt lat="46.1454108" lon="9.5970549"><ele>239.0</ele><time>2026-04-26T08:24:41.698Z</time></trkpt><trkpt lat="46.1454184" lon="9.5968807"><ele>239.0</ele><time>2026-04-26T08:24:43.698Z</time></trkpt><trkpt lat="46.1454168" lon="9.5967643"><ele>239.00000000000003</ele><time>2026-04-26T08:24:44.698Z</time></trkpt><trkpt lat="46.1454119" lon="9.5966679"><ele>239.0</ele><time>2026-04-26T08:24:45.696Z</time></trkpt><trkpt lat="46.1454068" lon="9.5965687"><ele>239.0</ele><time>2026-04-26T08:24:46.698Z</time></trkpt><trkpt lat="46.1454182" lon="9.5964045"><ele>239.0</ele><time>2026-04-26T08:24:48.699Z</time></trkpt><trkpt lat="46.1454134" lon="9.5963068"><ele>239.00000000000003</ele><time>2026-04-26T08:24:49.697Z</time></trkpt><trkpt lat="46.1454142" lon="9.5962062"><ele>239.0</ele><time>2026-04-26T08:24:50.697Z</time></trkpt><trkpt lat="46.1453919" lon="9.5961155"><ele>238.79999999999998</ele><time>2026-04-26T08:24:51.698Z</time></trkpt><trkpt lat="46.1453988" lon="9.5960125"><ele>238.59999999999997</ele><time>2026-04-26T08:24:52.699Z</time></trkpt><trkpt lat="46.1453851" lon="9.595827"><ele>238.4</ele><time>2026-04-26T08:24:54.698Z</time></trkpt><trkpt lat="46.1453817" lon="9.5956572"><ele>238.2</ele><time>2026-04-26T08:24:56.699Z</time></trkpt><trkpt lat="46.1453801" lon="9.5955099"><ele>238.0</ele><time>2026-04-26T08:24:58.698Z</time></trkpt><trkpt lat="46.1453787" lon="9.5953386"><ele>237.8</ele><time>2026-04-26T08:25:00.697Z</time></trkpt><trkpt lat="46.1453725" lon="9.5951632"><ele>237.60000000000002</ele><time>2026-04-26T08:25:02.698Z</time></trkpt><trkpt lat="46.1453678" lon="9.5949981"><ele>237.39999999999998</ele><time>2026-04-26T08:25:04.698Z</time></trkpt><trkpt lat="46.1453763" lon="9.5949021"><ele>237.2</ele><time>2026-04-26T08:25:05.698Z</time></trkpt><trkpt lat="46.1453884" lon="9.5948017"><ele>237.0</ele><time>2026-04-26T08:25:06.699Z</time></trkpt><trkpt lat="46.1453899" lon="9.5946255"><ele>236.99999999999997</ele><time>2026-04-26T08:25:08.699Z</time></trkpt><trkpt lat="46.1453833" lon="9.5945186"><ele>237.0</ele><time>2026-04-26T08:25:09.698Z</time></trkpt><trkpt lat="46.1453827" lon="9.5944255"><ele>236.99999999999997</ele><time>2026-04-26T08:25:10.699Z</time></trkpt><trkpt lat="46.1453814" lon="9.5943238"><ele>236.99999999999997</ele><time>2026-04-26T08:25:11.697Z</time></trkpt><trkpt lat="46.1453826" lon="9.5942304"><ele>237.0</ele><time>2026-04-26T08:25:12.698Z</time></trkpt><trkpt lat="46.1453906" lon="9.5941329"><ele>236.99999999999997</ele><time>2026-04-26T08:25:13.698Z</time></trkpt><trkpt lat="46.1453983" lon="9.5940105"><ele>236.99999999999997</ele><time>2026-04-26T08:25:14.698Z</time></trkpt><trkpt lat="46.1453875" lon="9.5938958"><ele>237.0</ele><time>2026-04-26T08:25:15.698Z</time></trkpt><trkpt lat="46.1453757" lon="9.5937849"><ele>237.0</ele><time>2026-04-26T08:25:16.698Z</time></trkpt><trkpt lat="46.1453846" lon="9.593673"><ele>237.0</ele><time>2026-04-26T08:25:17.699Z</time></trkpt><trkpt lat="46.1453812" lon="9.5935644"><ele>237.0</ele><time>2026-04-26T08:25:18.698Z</time></trkpt><trkpt lat="46.145379" lon="9.5934528"><ele>237.0</ele><time>2026-04-26T08:25:19.698Z</time></trkpt><trkpt lat="46.1453719" lon="9.5933111"><ele>237.0</ele><time>2026-04-26T08:25:20.698Z</time></trkpt><trkpt lat="46.1453803" lon="9.5932002"><ele>237.0</ele><time>2026-04-26T08:25:21.698Z</time></trkpt><trkpt lat="46.145388" lon="9.5930883"><ele>237.0</ele><time>2026-04-26T08:25:22.698Z</time></trkpt><trkpt lat="46.1453855" lon="9.5929705"><ele>237.0</ele><time>2026-04-26T08:25:23.697Z</time></trkpt><trkpt lat="46.1453805" lon="9.5928518"><ele>237.0</ele><time>2026-04-26T08:25:24.698Z</time></trkpt><trkpt lat="46.1453808" lon="9.5927344"><ele>237.0</ele><time>2026-04-26T08:25:25.699Z</time></trkpt><trkpt lat="46.1453802" lon="9.5926183"><ele>237.0</ele><time>2026-04-26T08:25:26.697Z</time></trkpt><trkpt lat="46.1453778" lon="9.5924976"><ele>237.0</ele><time>2026-04-26T08:25:27.699Z</time></trkpt><trkpt lat="46.14538" lon="9.5923806"><ele>237.0</ele><time>2026-04-26T08:25:28.697Z</time></trkpt><trkpt lat="46.1453774" lon="9.5922624"><ele>237.0</ele><time>2026-04-26T08:25:29.697Z</time></trkpt><trkpt lat="46.1453851" lon="9.5921504"><ele>237.0</ele><time>2026-04-26T08:25:30.698Z</time></trkpt><trkpt lat="46.1453877" lon="9.5920354"><ele>237.0</ele><time>2026-04-26T08:25:31.699Z</time></trkpt><trkpt lat="46.1453981" lon="9.5919269"><ele>237.0</ele><time>2026-04-26T08:25:32.698Z</time></trkpt><trkpt lat="46.1454106" lon="9.5918031"><ele>236.66666666666666</ele><time>2026-04-26T08:25:33.699Z</time></trkpt><trkpt lat="46.1454184" lon="9.5916873"><ele>236.33333333333331</ele><time>2026-04-26T08:25:34.698Z</time></trkpt><trkpt lat="46.145432" lon="9.5915633"><ele>236.0</ele><time>2026-04-26T08:25:35.698Z</time></trkpt><trkpt lat="46.1454522" lon="9.5914544"><ele>235.66666666666666</ele><time>2026-04-26T08:25:36.699Z</time></trkpt><trkpt lat="46.1454655" lon="9.5913397"><ele>235.33333333333331</ele><time>2026-04-26T08:25:37.698Z</time></trkpt><trkpt lat="46.1454862" lon="9.5912298"><ele>235.0</ele><time>2026-04-26T08:25:38.699Z</time></trkpt><trkpt lat="46.1455044" lon="9.5911226"><ele>234.83333333333331</ele><time>2026-04-26T08:25:39.698Z</time></trkpt><trkpt lat="46.145521" lon="9.5910112"><ele>234.66666666666666</ele><time>2026-04-26T08:25:40.699Z</time></trkpt><trkpt lat="46.1455466" lon="9.5909001"><ele>234.5</ele><time>2026-04-26T08:25:41.697Z</time></trkpt><trkpt lat="46.1455696" lon="9.5907893"><ele>234.33333333333331</ele><time>2026-04-26T08:25:42.698Z</time></trkpt><trkpt lat="46.1455929" lon="9.5906701"><ele>234.16666666666666</ele><time>2026-04-26T08:25:43.698Z</time></trkpt><trkpt lat="46.1456226" lon="9.5905625"><ele>234.0</ele><time>2026-04-26T08:25:44.698Z</time></trkpt><trkpt lat="46.1456491" lon="9.590435"><ele>234.16666666666666</ele><time>2026-04-26T08:25:45.699Z</time></trkpt><trkpt lat="46.1456844" lon="9.5903161"><ele>234.33333333333331</ele><time>2026-04-26T08:25:46.698Z</time></trkpt><trkpt lat="46.1457212" lon="9.5901961"><ele>234.5</ele><time>2026-04-26T08:25:47.698Z</time></trkpt><trkpt lat="46.1457639" lon="9.5900643"><ele>234.66666666666666</ele><time>2026-04-26T08:25:48.697Z</time></trkpt><trkpt lat="46.1458046" lon="9.589946"><ele>234.83333333333331</ele><time>2026-04-26T08:25:49.697Z</time></trkpt><trkpt lat="46.1458355" lon="9.5898501"><ele>235.0</ele><time>2026-04-26T08:25:50.699Z</time></trkpt><trkpt lat="46.1458791" lon="9.5897549"><ele>234.99999999999997</ele><time>2026-04-26T08:25:51.698Z</time></trkpt><trkpt lat="46.1459083" lon="9.5896569"><ele>235.0</ele><time>2026-04-26T08:25:52.699Z</time></trkpt><trkpt lat="46.1459435" lon="9.5895491"><ele>235.0</ele><time>2026-04-26T08:25:53.698Z</time></trkpt><trkpt lat="46.1459697" lon="9.5894267"><ele>235.0</ele><time>2026-04-26T08:25:54.699Z</time></trkpt><trkpt lat="46.1460022" lon="9.5893112"><ele>234.99999999999997</ele><time>2026-04-26T08:25:55.699Z</time></trkpt><trkpt lat="46.1460172" lon="9.5891862"><ele>235.0</ele><time>2026-04-26T08:25:56.698Z</time></trkpt><trkpt lat="46.1460407" lon="9.5890456"><ele>234.8</ele><time>2026-04-26T08:25:57.698Z</time></trkpt><trkpt lat="46.1460752" lon="9.5889076"><ele>234.6</ele><time>2026-04-26T08:25:58.698Z</time></trkpt><trkpt lat="46.1460948" lon="9.588779"><ele>234.39999999999998</ele><time>2026-04-26T08:25:59.699Z</time></trkpt><trkpt lat="46.1461129" lon="9.5886514"><ele>234.2</ele><time>2026-04-26T08:26:00.698Z</time></trkpt><trkpt lat="46.1461412" lon="9.5885485"><ele>234.0</ele><time>2026-04-26T08:26:01.698Z</time></trkpt><trkpt lat="46.1461619" lon="9.5884169"><ele>233.79999999999998</ele><time>2026-04-26T08:26:02.698Z</time></trkpt><trkpt lat="46.1461765" lon="9.5882834"><ele>233.59999999999997</ele><time>2026-04-26T08:26:03.698Z</time></trkpt><trkpt lat="46.1461874" lon="9.5881503"><ele>233.4</ele><time>2026-04-26T08:26:04.699Z</time></trkpt><trkpt lat="46.1461929" lon="9.5880128"><ele>233.2</ele><time>2026-04-26T08:26:05.699Z</time></trkpt><trkpt lat="46.1462014" lon="9.5878828"><ele>233.0</ele><time>2026-04-26T08:26:06.697Z</time></trkpt><trkpt lat="46.1462066" lon="9.587739"><ele>232.4</ele><time>2026-04-26T08:26:07.698Z</time></trkpt><trkpt lat="46.1462071" lon="9.5876039"><ele>231.8</ele><time>2026-04-26T08:26:08.699Z</time></trkpt><trkpt lat="46.1462054" lon="9.5874511"><ele>231.2</ele><time>2026-04-26T08:26:09.697Z</time></trkpt><trkpt lat="46.1462033" lon="9.5873209"><ele>230.6</ele><time>2026-04-26T08:26:10.699Z</time></trkpt><trkpt lat="46.1462145" lon="9.5871767"><ele>230.0</ele><time>2026-04-26T08:26:11.698Z</time></trkpt><trkpt lat="46.1462012" lon="9.587039"><ele>230.16666666666669</ele><time>2026-04-26T08:26:12.7Z</time></trkpt><trkpt lat="46.1462036" lon="9.5868974"><ele>230.33333333333334</ele><time>2026-04-26T08:26:13.698Z</time></trkpt><trkpt lat="46.1462052" lon="9.5867677"><ele>230.5</ele><time>2026-04-26T08:26:14.697Z</time></trkpt><trkpt lat="46.1462013" lon="9.5866308"><ele>230.66666666666669</ele><time>2026-04-26T08:26:15.698Z</time></trkpt><trkpt lat="46.1461965" lon="9.5865015"><ele>230.83333333333334</ele><time>2026-04-26T08:26:16.699Z</time></trkpt><trkpt lat="46.1461952" lon="9.5863949"><ele>231.0</ele><time>2026-04-26T08:26:17.699Z</time></trkpt><trkpt lat="46.1461905" lon="9.5862705"><ele>231.0</ele><time>2026-04-26T08:26:18.698Z</time></trkpt><trkpt lat="46.1461999" lon="9.5861357"><ele>231.00000000000003</ele><time>2026-04-26T08:26:19.697Z</time></trkpt><trkpt lat="46.1462017" lon="9.5860018"><ele>231.00000000000003</ele><time>2026-04-26T08:26:20.698Z</time></trkpt><trkpt lat="46.1462002" lon="9.5858624"><ele>231.0</ele><time>2026-04-26T08:26:21.699Z</time></trkpt><trkpt lat="46.1462123" lon="9.5857277"><ele>231.0</ele><time>2026-04-26T08:26:22.698Z</time></trkpt><trkpt lat="46.1462242" lon="9.5855913"><ele>231.0</ele><time>2026-04-26T08:26:23.699Z</time></trkpt><trkpt lat="46.1462302" lon="9.5854637"><ele>231.0</ele><time>2026-04-26T08:26:24.699Z</time></trkpt><trkpt lat="46.1462321" lon="9.5853138"><ele>231.0</ele><time>2026-04-26T08:26:25.698Z</time></trkpt><trkpt lat="46.1462276" lon="9.5851916"><ele>231.0</ele><time>2026-04-26T08:26:26.7Z</time></trkpt><trkpt lat="46.1462421" lon="9.5850779"><ele>231.0</ele><time>2026-04-26T08:26:27.698Z</time></trkpt><trkpt lat="46.1462421" lon="9.584948"><ele>231.0</ele><time>2026-04-26T08:26:28.698Z</time></trkpt><trkpt lat="46.1462491" lon="9.5848348"><ele>230.66666666666666</ele><time>2026-04-26T08:26:29.699Z</time></trkpt><trkpt lat="46.1462432" lon="9.5847208"><ele>230.33333333333331</ele><time>2026-04-26T08:26:30.699Z</time></trkpt><trkpt lat="46.1462398" lon="9.5846075"><ele>230.0</ele><time>2026-04-26T08:26:31.697Z</time></trkpt><trkpt lat="46.1462335" lon="9.584481"><ele>229.66666666666666</ele><time>2026-04-26T08:26:32.699Z</time></trkpt><trkpt lat="46.1462371" lon="9.5843667"><ele>229.33333333333331</ele><time>2026-04-26T08:26:33.697Z</time></trkpt><trkpt lat="46.1462334" lon="9.5842566"><ele>229.0</ele><time>2026-04-26T08:26:34.699Z</time></trkpt><trkpt lat="46.1462277" lon="9.5841535"><ele>228.71428571428572</ele><time>2026-04-26T08:26:35.699Z</time></trkpt><trkpt lat="46.1462304" lon="9.5840542"><ele>228.42857142857144</ele><time>2026-04-26T08:26:36.699Z</time></trkpt><trkpt lat="46.1462337" lon="9.5839518"><ele>228.14285714285717</ele><time>2026-04-26T08:26:37.699Z</time></trkpt><trkpt lat="46.1462481" lon="9.5838478"><ele>227.85714285714286</ele><time>2026-04-26T08:26:38.698Z</time></trkpt><trkpt lat="46.1462504" lon="9.5837362"><ele>227.5714285714286</ele><time>2026-04-26T08:26:39.698Z</time></trkpt><trkpt lat="46.1462659" lon="9.583629"><ele>227.2857142857143</ele><time>2026-04-26T08:26:40.697Z</time></trkpt><trkpt lat="46.1462745" lon="9.5835228"><ele>227.0</ele><time>2026-04-26T08:26:41.697Z</time></trkpt><trkpt lat="46.1462816" lon="9.5834215"><ele>227.00000000000003</ele><time>2026-04-26T08:26:42.698Z</time></trkpt><trkpt lat="46.1462889" lon="9.5833182"><ele>227.0</ele><time>2026-04-26T08:26:43.699Z</time></trkpt><trkpt lat="46.1462975" lon="9.5832108"><ele>227.0</ele><time>2026-04-26T08:26:44.698Z</time></trkpt><trkpt lat="46.1463054" lon="9.5831016"><ele>227.0</ele><time>2026-04-26T08:26:45.699Z</time></trkpt><trkpt lat="46.1463169" lon="9.5830015"><ele>227.00000000000003</ele><time>2026-04-26T08:26:46.697Z</time></trkpt><trkpt lat="46.1463259" lon="9.58288"><ele>227.0</ele><time>2026-04-26T08:26:47.698Z</time></trkpt><trkpt lat="46.1463426" lon="9.5827753"><ele>227.16666666666669</ele><time>2026-04-26T08:26:48.699Z</time></trkpt><trkpt lat="46.1463531" lon="9.5826817"><ele>227.33333333333334</ele><time>2026-04-26T08:26:49.698Z</time></trkpt><trkpt lat="46.1463609" lon="9.5825761"><ele>227.5</ele><time>2026-04-26T08:26:50.697Z</time></trkpt><trkpt lat="46.1463774" lon="9.5824841"><ele>227.66666666666669</ele><time>2026-04-26T08:26:51.699Z</time></trkpt><trkpt lat="46.146393" lon="9.5823041"><ele>227.83333333333334</ele><time>2026-04-26T08:26:53.698Z</time></trkpt><trkpt lat="46.1464061" lon="9.5822082"><ele>228.0</ele><time>2026-04-26T08:26:54.698Z</time></trkpt><trkpt lat="46.1464355" lon="9.5820438"><ele>227.83333333333334</ele><time>2026-04-26T08:26:56.698Z</time></trkpt><trkpt lat="46.1464568" lon="9.5818716"><ele>227.66666666666669</ele><time>2026-04-26T08:26:58.699Z</time></trkpt><trkpt lat="46.1464741" lon="9.5817788"><ele>227.5</ele><time>2026-04-26T08:26:59.698Z</time></trkpt><trkpt lat="46.1464914" lon="9.5816821"><ele>227.33333333333334</ele><time>2026-04-26T08:27:00.698Z</time></trkpt><trkpt lat="46.146506" lon="9.5815796"><ele>227.16666666666669</ele><time>2026-04-26T08:27:01.697Z</time></trkpt><trkpt lat="46.1465274" lon="9.5814881"><ele>227.0</ele><time>2026-04-26T08:27:02.699Z</time></trkpt><trkpt lat="46.1465435" lon="9.5813855"><ele>227.2857142857143</ele><time>2026-04-26T08:27:03.699Z</time></trkpt><trkpt lat="46.1465692" lon="9.5812996"><ele>227.5714285714286</ele><time>2026-04-26T08:27:04.698Z</time></trkpt><trkpt lat="46.1465863" lon="9.5811986"><ele>227.85714285714286</ele><time>2026-04-26T08:27:05.699Z</time></trkpt><trkpt lat="46.1465918" lon="9.5810944"><ele>228.14285714285717</ele><time>2026-04-26T08:27:06.698Z</time></trkpt><trkpt lat="46.1466051" lon="9.5809936"><ele>228.42857142857144</ele><time>2026-04-26T08:27:07.698Z</time></trkpt><trkpt lat="46.1466232" lon="9.5808795"><ele>228.71428571428572</ele><time>2026-04-26T08:27:08.699Z</time></trkpt><trkpt lat="46.1466389" lon="9.5807801"><ele>229.0</ele><time>2026-04-26T08:27:09.698Z</time></trkpt><trkpt lat="46.1466512" lon="9.5806798"><ele>228.99999999999997</ele><time>2026-04-26T08:27:10.698Z</time></trkpt><trkpt lat="46.1466643" lon="9.5805784"><ele>229.0</ele><time>2026-04-26T08:27:11.697Z</time></trkpt><trkpt lat="46.1467117" lon="9.5803716"><ele>229.0</ele><time>2026-04-26T08:27:13.698Z</time></trkpt><trkpt lat="46.1467356" lon="9.5802792"><ele>229.0</ele><time>2026-04-26T08:27:14.699Z</time></trkpt><trkpt lat="46.1467618" lon="9.5801783"><ele>228.99999999999997</ele><time>2026-04-26T08:27:15.697Z</time></trkpt><trkpt lat="46.1467905" lon="9.5800717"><ele>229.0</ele><time>2026-04-26T08:27:16.698Z</time></trkpt><trkpt lat="46.1468166" lon="9.5799556"><ele>228.99999999999997</ele><time>2026-04-26T08:27:17.699Z</time></trkpt><trkpt lat="46.1468429" lon="9.5798491"><ele>229.0</ele><time>2026-04-26T08:27:18.699Z</time></trkpt><trkpt lat="46.146872" lon="9.5797436"><ele>229.0</ele><time>2026-04-26T08:27:19.697Z</time></trkpt><trkpt lat="46.1468933" lon="9.5796387"><ele>229.0</ele><time>2026-04-26T08:27:20.699Z</time></trkpt><trkpt lat="46.1469151" lon="9.5795403"><ele>228.99999999999997</ele><time>2026-04-26T08:27:21.699Z</time></trkpt><trkpt lat="46.1469436" lon="9.5794344"><ele>229.0</ele><time>2026-04-26T08:27:22.698Z</time></trkpt><trkpt lat="46.1469663" lon="9.5793276"><ele>228.49999999999997</ele><time>2026-04-26T08:27:23.699Z</time></trkpt><trkpt lat="46.1469962" lon="9.5792195"><ele>228.0</ele><time>2026-04-26T08:27:24.698Z</time></trkpt><trkpt lat="46.1470186" lon="9.57911"><ele>227.5</ele><time>2026-04-26T08:27:25.697Z</time></trkpt><trkpt lat="46.1470377" lon="9.5789961"><ele>227.0</ele><time>2026-04-26T08:27:26.696Z</time></trkpt><trkpt lat="46.1470572" lon="9.5788879"><ele>226.49999999999997</ele><time>2026-04-26T08:27:27.698Z</time></trkpt><trkpt lat="46.147066" lon="9.5787676"><ele>226.0</ele><time>2026-04-26T08:27:28.698Z</time></trkpt><trkpt lat="46.1470738" lon="9.5786544"><ele>225.99999999999997</ele><time>2026-04-26T08:27:29.698Z</time></trkpt><trkpt lat="46.147079" lon="9.5785518"><ele>226.0</ele><time>2026-04-26T08:27:30.698Z</time></trkpt><trkpt lat="46.1470899" lon="9.5784504"><ele>226.0</ele><time>2026-04-26T08:27:31.699Z</time></trkpt><trkpt lat="46.1470876" lon="9.5783293"><ele>226.0</ele><time>2026-04-26T08:27:32.699Z</time></trkpt><trkpt lat="46.1471052" lon="9.5782174"><ele>225.99999999999997</ele><time>2026-04-26T08:27:33.698Z</time></trkpt><trkpt lat="46.1471056" lon="9.5781177"><ele>226.0</ele><time>2026-04-26T08:27:34.698Z</time></trkpt><trkpt lat="46.1471132" lon="9.5780105"><ele>227.20000000000002</ele><time>2026-04-26T08:27:35.699Z</time></trkpt><trkpt lat="46.1471206" lon="9.5777916"><ele>228.40000000000003</ele><time>2026-04-26T08:27:37.698Z</time></trkpt><trkpt lat="46.1471223" lon="9.5776818"><ele>229.6</ele><time>2026-04-26T08:27:38.699Z</time></trkpt><trkpt lat="46.1471312" lon="9.5775691"><ele>230.8</ele><time>2026-04-26T08:27:39.697Z</time></trkpt><trkpt lat="46.1471317" lon="9.5774513"><ele>232.0</ele><time>2026-04-26T08:27:40.698Z</time></trkpt><trkpt lat="46.1471198" lon="9.5773478"><ele>232.00000000000003</ele><time>2026-04-26T08:27:41.698Z</time></trkpt><trkpt lat="46.147132" lon="9.5772483"><ele>232.0</ele><time>2026-04-26T08:27:42.699Z</time></trkpt><trkpt lat="46.1471241" lon="9.5771476"><ele>232.00000000000003</ele><time>2026-04-26T08:27:43.699Z</time></trkpt><trkpt lat="46.1470965" lon="9.5770309"><ele>232.00000000000003</ele><time>2026-04-26T08:27:44.7Z</time></trkpt><trkpt lat="46.1470784" lon="9.5769264"><ele>232.0</ele><time>2026-04-26T08:27:45.698Z</time></trkpt><trkpt lat="46.1470689" lon="9.5768327"><ele>232.00000000000003</ele><time>2026-04-26T08:27:46.699Z</time></trkpt><trkpt lat="46.1470535" lon="9.5767256"><ele>232.00000000000003</ele><time>2026-04-26T08:27:47.699Z</time></trkpt><trkpt lat="46.1470441" lon="9.5766284"><ele>231.83333333333331</ele><time>2026-04-26T08:27:48.698Z</time></trkpt><trkpt lat="46.1470272" lon="9.5765251"><ele>231.66666666666666</ele><time>2026-04-26T08:27:49.699Z</time></trkpt><trkpt lat="46.1470057" lon="9.5764297"><ele>231.5</ele><time>2026-04-26T08:27:50.699Z</time></trkpt><trkpt lat="46.1469863" lon="9.576339"><ele>231.33333333333331</ele><time>2026-04-26T08:27:51.698Z</time></trkpt><trkpt lat="46.1469673" lon="9.576244"><ele>231.16666666666666</ele><time>2026-04-26T08:27:52.698Z</time></trkpt><trkpt lat="46.1469352" lon="9.5760694"><ele>231.0</ele><time>2026-04-26T08:27:54.699Z</time></trkpt><trkpt lat="46.1469244" lon="9.575965"><ele>231.0</ele><time>2026-04-26T08:27:55.699Z</time></trkpt><trkpt lat="46.1469368" lon="9.5757726"><ele>231.0</ele><time>2026-04-26T08:27:57.699Z</time></trkpt><trkpt lat="46.1469422" lon="9.5756739"><ele>231.0</ele><time>2026-04-26T08:27:58.698Z</time></trkpt><trkpt lat="46.1469384" lon="9.5755716"><ele>231.0</ele><time>2026-04-26T08:27:59.698Z</time></trkpt><trkpt lat="46.1469282" lon="9.5754749"><ele>231.0</ele><time>2026-04-26T08:28:00.697Z</time></trkpt><trkpt lat="46.1469166" lon="9.5753733"><ele>231.0</ele><time>2026-04-26T08:28:01.698Z</time></trkpt><trkpt lat="46.1468956" lon="9.5752722"><ele>232.33333333333334</ele><time>2026-04-26T08:28:02.699Z</time></trkpt><trkpt lat="46.1468679" lon="9.5751706"><ele>233.66666666666669</ele><time>2026-04-26T08:28:03.699Z</time></trkpt><trkpt lat="46.146832" lon="9.5750622"><ele>235.0</ele><time>2026-04-26T08:28:04.699Z</time></trkpt><trkpt lat="46.1467895" lon="9.574959"><ele>236.33333333333334</ele><time>2026-04-26T08:28:05.699Z</time></trkpt><trkpt lat="46.1467562" lon="9.5748645"><ele>237.66666666666669</ele><time>2026-04-26T08:28:06.699Z</time></trkpt><trkpt lat="46.1467293" lon="9.574763"><ele>239.0</ele><time>2026-04-26T08:28:07.698Z</time></trkpt><trkpt lat="46.1467009" lon="9.5746634"><ele>239.00000000000003</ele><time>2026-04-26T08:28:08.698Z</time></trkpt><trkpt lat="46.1466998" lon="9.5745656"><ele>239.0</ele><time>2026-04-26T08:28:09.699Z</time></trkpt><trkpt lat="46.1466754" lon="9.574471"><ele>239.00000000000003</ele><time>2026-04-26T08:28:10.699Z</time></trkpt><trkpt lat="46.1466493" lon="9.5743634"><ele>239.00000000000003</ele><time>2026-04-26T08:28:11.698Z</time></trkpt><trkpt lat="46.1466378" lon="9.5742578"><ele>239.0</ele><time>2026-04-26T08:28:12.696Z</time></trkpt><trkpt lat="46.1466123" lon="9.5741621"><ele>239.00000000000003</ele><time>2026-04-26T08:28:13.698Z</time></trkpt><trkpt lat="46.1465986" lon="9.5740724"><ele>239.00000000000003</ele><time>2026-04-26T08:28:14.698Z</time></trkpt><trkpt lat="46.1465758" lon="9.5739727"><ele>240.50000000000003</ele><time>2026-04-26T08:28:15.698Z</time></trkpt><trkpt lat="46.1465659" lon="9.573864"><ele>242.0</ele><time>2026-04-26T08:28:16.698Z</time></trkpt><trkpt lat="46.1465533" lon="9.5737598"><ele>243.5</ele><time>2026-04-26T08:28:17.698Z</time></trkpt><trkpt lat="46.1465528" lon="9.5736655"><ele>245.0</ele><time>2026-04-26T08:28:18.699Z</time></trkpt><trkpt lat="46.1465437" lon="9.5735561"><ele>246.50000000000003</ele><time>2026-04-26T08:28:19.698Z</time></trkpt><trkpt lat="46.1465377" lon="9.5734374"><ele>248.0</ele><time>2026-04-26T08:28:20.699Z</time></trkpt><trkpt lat="46.1465349" lon="9.5733201"><ele>244.50000000000003</ele><time>2026-04-26T08:28:21.697Z</time></trkpt><trkpt lat="46.1465281" lon="9.5732068"><ele>241.0</ele><time>2026-04-26T08:28:22.699Z</time></trkpt><trkpt lat="46.1465221" lon="9.5730997"><ele>237.5</ele><time>2026-04-26T08:28:23.699Z</time></trkpt><trkpt lat="46.1465179" lon="9.5729859"><ele>234.0</ele><time>2026-04-26T08:28:24.699Z</time></trkpt><trkpt lat="46.1465073" lon="9.5728783"><ele>230.50000000000003</ele><time>2026-04-26T08:28:25.699Z</time></trkpt><trkpt lat="46.1464981" lon="9.5727724"><ele>227.0</ele><time>2026-04-26T08:28:26.698Z</time></trkpt><trkpt lat="46.1464898" lon="9.572664"><ele>226.66666666666669</ele><time>2026-04-26T08:28:27.698Z</time></trkpt><trkpt lat="46.1464885" lon="9.5725618"><ele>226.33333333333334</ele><time>2026-04-26T08:28:28.7Z</time></trkpt><trkpt lat="46.1464595" lon="9.5723872"><ele>226.0</ele><time>2026-04-26T08:28:30.698Z</time></trkpt><trkpt lat="46.1464505" lon="9.5722911"><ele>225.66666666666669</ele><time>2026-04-26T08:28:31.699Z</time></trkpt><trkpt lat="46.1464391" lon="9.5721945"><ele>225.33333333333334</ele><time>2026-04-26T08:28:32.697Z</time></trkpt><trkpt lat="46.1464302" lon="9.5720343"><ele>225.0</ele><time>2026-04-26T08:28:34.699Z</time></trkpt><trkpt lat="46.1464117" lon="9.5718949"><ele>224.66666666666666</ele><time>2026-04-26T08:28:36.699Z</time></trkpt><trkpt lat="46.1463991" lon="9.5717789"><ele>224.33333333333331</ele><time>2026-04-26T08:28:38.698Z</time></trkpt><trkpt lat="46.1464261" lon="9.5716823"><ele>224.0</ele><time>2026-04-26T08:28:41.699Z</time></trkpt><trkpt lat="46.1463735" lon="9.5717439"><ele>223.66666666666666</ele><time>2026-04-26T08:31:00.698Z</time></trkpt><trkpt lat="46.1463185" lon="9.5716639"><ele>223.33333333333331</ele><time>2026-04-26T08:31:03.697Z</time></trkpt><trkpt lat="46.1462726" lon="9.5715304"><ele>223.0</ele><time>2026-04-26T08:31:05.699Z</time></trkpt><trkpt lat="46.1462309" lon="9.5714073"><ele>223.0</ele><time>2026-04-26T08:31:07.699Z</time></trkpt><trkpt lat="46.1461957" lon="9.5712635"><ele>223.0</ele><time>2026-04-26T08:31:09.698Z</time></trkpt><trkpt lat="46.1461538" lon="9.5711118"><ele>223.0</ele><time>2026-04-26T08:31:11.698Z</time></trkpt><trkpt lat="46.1461881" lon="9.5709719"><ele>223.0</ele><time>2026-04-26T08:31:13.699Z</time></trkpt><trkpt lat="46.1462107" lon="9.5708066"><ele>223.0</ele><time>2026-04-26T08:31:15.699Z</time></trkpt><trkpt lat="46.1462089" lon="9.5706409"><ele>223.8</ele><time>2026-04-26T08:31:17.698Z</time></trkpt><trkpt lat="46.1461928" lon="9.5704667"><ele>224.60000000000002</ele><time>2026-04-26T08:31:19.699Z</time></trkpt><trkpt lat="46.1461792" lon="9.5702857"><ele>225.39999999999998</ele><time>2026-04-26T08:31:21.699Z</time></trkpt><trkpt lat="46.146187" lon="9.5701908"><ele>226.2</ele><time>2026-04-26T08:31:22.699Z</time></trkpt><trkpt lat="46.1461801" lon="9.5699991"><ele>227.0</ele><time>2026-04-26T08:31:24.698Z</time></trkpt><trkpt lat="46.1461802" lon="9.5698178"><ele>227.16666666666669</ele><time>2026-04-26T08:31:26.698Z</time></trkpt><trkpt lat="46.1461868" lon="9.5697162"><ele>227.33333333333334</ele><time>2026-04-26T08:31:27.698Z</time></trkpt><trkpt lat="46.1461718" lon="9.5696094"><ele>227.5</ele><time>2026-04-26T08:31:28.698Z</time></trkpt><trkpt lat="46.1461598" lon="9.5695072"><ele>227.66666666666669</ele><time>2026-04-26T08:31:29.699Z</time></trkpt><trkpt lat="46.1461501" lon="9.5694025"><ele>227.83333333333334</ele><time>2026-04-26T08:31:30.699Z</time></trkpt><trkpt lat="46.1461418" lon="9.5693114"><ele>228.0</ele><time>2026-04-26T08:31:31.699Z</time></trkpt><trkpt lat="46.1461354" lon="9.5691293"><ele>228.0</ele><time>2026-04-26T08:31:33.699Z</time></trkpt><trkpt lat="46.1461221" lon="9.5690255"><ele>227.99999999999997</ele><time>2026-04-26T08:31:34.698Z</time></trkpt><trkpt lat="46.1461093" lon="9.5689247"><ele>228.0</ele><time>2026-04-26T08:31:35.699Z</time></trkpt><trkpt lat="46.146098" lon="9.5688155"><ele>228.0</ele><time>2026-04-26T08:31:36.699Z</time></trkpt><trkpt lat="46.1460913" lon="9.5687106"><ele>227.99999999999997</ele><time>2026-04-26T08:31:37.698Z</time></trkpt><trkpt lat="46.1460805" lon="9.5686058"><ele>228.0</ele><time>2026-04-26T08:31:38.699Z</time></trkpt><trkpt lat="46.1460714" lon="9.5684992"><ele>228.0</ele><time>2026-04-26T08:31:39.699Z</time></trkpt><trkpt lat="46.1460588" lon="9.5683975"><ele>228.83333333333334</ele><time>2026-04-26T08:31:40.7Z</time></trkpt><trkpt lat="46.1460435" lon="9.5682969"><ele>229.66666666666669</ele><time>2026-04-26T08:31:41.699Z</time></trkpt><trkpt lat="46.1460298" lon="9.5681966"><ele>230.5</ele><time>2026-04-26T08:31:42.698Z</time></trkpt><trkpt lat="46.1460383" lon="9.5680957"><ele>231.33333333333334</ele><time>2026-04-26T08:31:43.698Z</time></trkpt><trkpt lat="46.1460273" lon="9.5679912"><ele>232.16666666666669</ele><time>2026-04-26T08:31:44.7Z</time></trkpt><trkpt lat="46.1460152" lon="9.567878"><ele>233.0</ele><time>2026-04-26T08:31:45.7Z</time></trkpt><trkpt lat="46.146005" lon="9.5676793"><ele>233.66666666666669</ele><time>2026-04-26T08:31:47.7Z</time></trkpt><trkpt lat="46.1459963" lon="9.5675678"><ele>234.33333333333334</ele><time>2026-04-26T08:31:48.698Z</time></trkpt><trkpt lat="46.1459913" lon="9.5674644"><ele>235.0</ele><time>2026-04-26T08:31:49.698Z</time></trkpt><trkpt lat="46.1459884" lon="9.5673558"><ele>235.66666666666669</ele><time>2026-04-26T08:31:50.699Z</time></trkpt><trkpt lat="46.145984" lon="9.5672563"><ele>236.33333333333334</ele><time>2026-04-26T08:31:51.699Z</time></trkpt><trkpt lat="46.145975" lon="9.5671564"><ele>237.0</ele><time>2026-04-26T08:31:52.699Z</time></trkpt><trkpt lat="46.1459586" lon="9.5669511"><ele>237.39999999999998</ele><time>2026-04-26T08:31:54.698Z</time></trkpt><trkpt lat="46.1459416" lon="9.5667615"><ele>237.79999999999998</ele><time>2026-04-26T08:31:56.698Z</time></trkpt><trkpt lat="46.1459294" lon="9.5666714"><ele>238.2</ele><time>2026-04-26T08:31:57.698Z</time></trkpt><trkpt lat="46.145909" lon="9.5665705"><ele>238.6</ele><time>2026-04-26T08:31:58.698Z</time></trkpt><trkpt lat="46.1458827" lon="9.5663662"><ele>239.0</ele><time>2026-04-26T08:32:00.698Z</time></trkpt><trkpt lat="46.145865" lon="9.5662751"><ele>240.16666666666669</ele><time>2026-04-26T08:32:01.698Z</time></trkpt><trkpt lat="46.1458551" lon="9.566179"><ele>241.33333333333334</ele><time>2026-04-26T08:32:02.699Z</time></trkpt><trkpt lat="46.1458456" lon="9.5660571"><ele>242.5</ele><time>2026-04-26T08:32:03.699Z</time></trkpt><trkpt lat="46.1458187" lon="9.5658797"><ele>243.66666666666669</ele><time>2026-04-26T08:32:05.698Z</time></trkpt><trkpt lat="46.1458095" lon="9.5657783"><ele>244.83333333333334</ele><time>2026-04-26T08:32:06.699Z</time></trkpt><trkpt lat="46.1458053" lon="9.5656564"><ele>246.0</ele><time>2026-04-26T08:32:07.699Z</time></trkpt><trkpt lat="46.1458137" lon="9.5655555"><ele>246.0</ele><time>2026-04-26T08:32:08.698Z</time></trkpt><trkpt lat="46.1458072" lon="9.5654514"><ele>246.0</ele><time>2026-04-26T08:32:09.699Z</time></trkpt><trkpt lat="46.1458325" lon="9.565351"><ele>246.0</ele><time>2026-04-26T08:32:10.698Z</time></trkpt><trkpt lat="46.145821" lon="9.5652607"><ele>246.0</ele><time>2026-04-26T08:32:11.698Z</time></trkpt><trkpt lat="46.1458389" lon="9.5651573"><ele>246.0</ele><time>2026-04-26T08:32:12.699Z</time></trkpt><trkpt lat="46.1458307" lon="9.5649842"><ele>246.0</ele><time>2026-04-26T08:32:14.698Z</time></trkpt><trkpt lat="46.1458542" lon="9.5648309"><ele>246.28571428571433</ele><time>2026-04-26T08:32:16.698Z</time></trkpt><trkpt lat="46.1458342" lon="9.5647352"><ele>246.57142857142858</ele><time>2026-04-26T08:32:17.699Z</time></trkpt><trkpt lat="46.145832" lon="9.5646354"><ele>246.8571428571429</ele><time>2026-04-26T08:32:18.699Z</time></trkpt><trkpt lat="46.1458366" lon="9.564501"><ele>247.14285714285717</ele><time>2026-04-26T08:32:19.7Z</time></trkpt><trkpt lat="46.1458202" lon="9.564413"><ele>247.42857142857144</ele><time>2026-04-26T08:32:20.7Z</time></trkpt><trkpt lat="46.1458118" lon="9.5643137"><ele>247.71428571428572</ele><time>2026-04-26T08:32:21.698Z</time></trkpt><trkpt lat="46.1458092" lon="9.5641992"><ele>248.0</ele><time>2026-04-26T08:32:22.699Z</time></trkpt><trkpt lat="46.1457685" lon="9.5639842"><ele>248.14285714285717</ele><time>2026-04-26T08:32:24.699Z</time></trkpt><trkpt lat="46.1457543" lon="9.5638797"><ele>248.2857142857143</ele><time>2026-04-26T08:32:25.7Z</time></trkpt><trkpt lat="46.1457445" lon="9.5637767"><ele>248.42857142857144</ele><time>2026-04-26T08:32:26.7Z</time></trkpt><trkpt lat="46.1457366" lon="9.563682"><ele>248.57142857142856</ele><time>2026-04-26T08:32:27.7Z</time></trkpt><trkpt lat="46.1457245" lon="9.5635775"><ele>248.7142857142857</ele><time>2026-04-26T08:32:28.7Z</time></trkpt><trkpt lat="46.1457101" lon="9.5634714"><ele>248.85714285714283</ele><time>2026-04-26T08:32:29.7Z</time></trkpt><trkpt lat="46.1456912" lon="9.563374"><ele>249.0</ele><time>2026-04-26T08:32:30.699Z</time></trkpt><trkpt lat="46.1456765" lon="9.5632724"><ele>244.0</ele><time>2026-04-26T08:32:31.699Z</time></trkpt><trkpt lat="46.1456653" lon="9.5631754"><ele>238.99999999999997</ele><time>2026-04-26T08:32:32.699Z</time></trkpt><trkpt lat="46.1456683" lon="9.5629959"><ele>233.99999999999997</ele><time>2026-04-26T08:32:34.699Z</time></trkpt><trkpt lat="46.1456514" lon="9.5628089"><ele>229.0</ele><time>2026-04-26T08:32:36.7Z</time></trkpt><trkpt lat="46.1456362" lon="9.562708"><ele>224.0</ele><time>2026-04-26T08:32:37.699Z</time></trkpt><trkpt lat="46.1456198" lon="9.5626151"><ele>223.16666666666669</ele><time>2026-04-26T08:32:38.698Z</time></trkpt><trkpt lat="46.1456125" lon="9.5625111"><ele>222.33333333333334</ele><time>2026-04-26T08:32:39.7Z</time></trkpt><trkpt lat="46.1456051" lon="9.5624165"><ele>221.5</ele><time>2026-04-26T08:32:40.698Z</time></trkpt><trkpt lat="46.1455992" lon="9.5623175"><ele>220.66666666666669</ele><time>2026-04-26T08:32:41.699Z</time></trkpt><trkpt lat="46.1455797" lon="9.5621317"><ele>219.83333333333334</ele><time>2026-04-26T08:32:43.698Z</time></trkpt><trkpt lat="46.1455663" lon="9.5620247"><ele>219.0</ele><time>2026-04-26T08:32:44.698Z</time></trkpt><trkpt lat="46.1455384" lon="9.5619275"><ele>218.83333333333334</ele><time>2026-04-26T08:32:45.699Z</time></trkpt><trkpt lat="46.1455283" lon="9.5618218"><ele>218.66666666666669</ele><time>2026-04-26T08:32:46.699Z</time></trkpt><trkpt lat="46.1455116" lon="9.5617283"><ele>218.5</ele><time>2026-04-26T08:32:47.699Z</time></trkpt><trkpt lat="46.145498" lon="9.561633"><ele>218.33333333333334</ele><time>2026-04-26T08:32:48.698Z</time></trkpt><trkpt lat="46.1454861" lon="9.5615345"><ele>218.16666666666669</ele><time>2026-04-26T08:32:49.699Z</time></trkpt><trkpt lat="46.1454733" lon="9.5614439"><ele>218.0</ele><time>2026-04-26T08:32:50.7Z</time></trkpt><trkpt lat="46.1454429" lon="9.5612564"><ele>218.71428571428572</ele><time>2026-04-26T08:32:52.698Z</time></trkpt><trkpt lat="46.1454327" lon="9.5611644"><ele>219.42857142857144</ele><time>2026-04-26T08:32:53.699Z</time></trkpt><trkpt lat="46.145415" lon="9.5610732"><ele>220.14285714285714</ele><time>2026-04-26T08:32:54.699Z</time></trkpt><trkpt lat="46.1454008" lon="9.560978"><ele>220.85714285714286</ele><time>2026-04-26T08:32:55.699Z</time></trkpt><trkpt lat="46.1453918" lon="9.5608817"><ele>221.57142857142856</ele><time>2026-04-26T08:32:56.698Z</time></trkpt><trkpt lat="46.1453825" lon="9.5607784"><ele>222.28571428571428</ele><time>2026-04-26T08:32:57.699Z</time></trkpt><trkpt lat="46.1453748" lon="9.5606807"><ele>223.0</ele><time>2026-04-26T08:32:58.698Z</time></trkpt><trkpt lat="46.1453693" lon="9.56058"><ele>223.0</ele><time>2026-04-26T08:32:59.699Z</time></trkpt><trkpt lat="46.1453521" lon="9.5604826"><ele>223.0</ele><time>2026-04-26T08:33:00.699Z</time></trkpt><trkpt lat="46.1453361" lon="9.5603838"><ele>223.0</ele><time>2026-04-26T08:33:01.699Z</time></trkpt><trkpt lat="46.1453208" lon="9.5602817"><ele>223.0</ele><time>2026-04-26T08:33:02.7Z</time></trkpt><trkpt lat="46.1453125" lon="9.5601768"><ele>223.0</ele><time>2026-04-26T08:33:03.699Z</time></trkpt><trkpt lat="46.1452982" lon="9.5600657"><ele>223.0</ele><time>2026-04-26T08:33:04.698Z</time></trkpt><trkpt lat="46.1452855" lon="9.5599612"><ele>223.0</ele><time>2026-04-26T08:33:05.698Z</time></trkpt><trkpt lat="46.145275" lon="9.5598634"><ele>223.49999999999997</ele><time>2026-04-26T08:33:06.699Z</time></trkpt><trkpt lat="46.1452562" lon="9.5597558"><ele>224.0</ele><time>2026-04-26T08:33:07.699Z</time></trkpt><trkpt lat="46.1452393" lon="9.5596433"><ele>224.5</ele><time>2026-04-26T08:33:08.698Z</time></trkpt><trkpt lat="46.1452553" lon="9.55954"><ele>225.0</ele><time>2026-04-26T08:33:09.699Z</time></trkpt><trkpt lat="46.145248" lon="9.5594349"><ele>225.49999999999997</ele><time>2026-04-26T08:33:10.698Z</time></trkpt><trkpt lat="46.1452378" lon="9.559331"><ele>226.0</ele><time>2026-04-26T08:33:11.699Z</time></trkpt><trkpt lat="46.1452337" lon="9.5592224"><ele>225.99999999999997</ele><time>2026-04-26T08:33:12.698Z</time></trkpt><trkpt lat="46.1452218" lon="9.5591165"><ele>226.0</ele><time>2026-04-26T08:33:13.698Z</time></trkpt><trkpt lat="46.1452037" lon="9.5590122"><ele>226.0</ele><time>2026-04-26T08:33:14.699Z</time></trkpt><trkpt lat="46.145187" lon="9.5589055"><ele>226.0</ele><time>2026-04-26T08:33:15.699Z</time></trkpt><trkpt lat="46.1451672" lon="9.5588033"><ele>225.99999999999997</ele><time>2026-04-26T08:33:16.7Z</time></trkpt><trkpt lat="46.1451498" lon="9.5586882"><ele>226.0</ele><time>2026-04-26T08:33:17.698Z</time></trkpt><trkpt lat="46.1451316" lon="9.5585847"><ele>226.20000000000002</ele><time>2026-04-26T08:33:18.699Z</time></trkpt><trkpt lat="46.1451265" lon="9.5584627"><ele>226.40000000000003</ele><time>2026-04-26T08:33:19.699Z</time></trkpt><trkpt lat="46.145112" lon="9.55836"><ele>226.6</ele><time>2026-04-26T08:33:20.698Z</time></trkpt><trkpt lat="46.1451005" lon="9.5581554"><ele>226.8</ele><time>2026-04-26T08:33:22.698Z</time></trkpt><trkpt lat="46.1451011" lon="9.5580471"><ele>227.0</ele><time>2026-04-26T08:33:23.7Z</time></trkpt><trkpt lat="46.1450796" lon="9.5579256"><ele>227.66666666666669</ele><time>2026-04-26T08:33:24.699Z</time></trkpt><trkpt lat="46.1450808" lon="9.5578053"><ele>228.33333333333334</ele><time>2026-04-26T08:33:25.699Z</time></trkpt><trkpt lat="46.14506" lon="9.5576977"><ele>229.0</ele><time>2026-04-26T08:33:26.698Z</time></trkpt><trkpt lat="46.1450349" lon="9.5575857"><ele>229.66666666666669</ele><time>2026-04-26T08:33:27.699Z</time></trkpt><trkpt lat="46.1450232" lon="9.557469"><ele>230.33333333333334</ele><time>2026-04-26T08:33:28.699Z</time></trkpt><trkpt lat="46.1450092" lon="9.55736"><ele>231.0</ele><time>2026-04-26T08:33:29.698Z</time></trkpt><trkpt lat="46.1450017" lon="9.5572303"><ele>231.0</ele><time>2026-04-26T08:33:30.698Z</time></trkpt><trkpt lat="46.144988" lon="9.5571227"><ele>231.0</ele><time>2026-04-26T08:33:31.699Z</time></trkpt><trkpt lat="46.1449889" lon="9.5570291"><ele>231.0</ele><time>2026-04-26T08:33:32.7Z</time></trkpt><trkpt lat="46.1449744" lon="9.5569121"><ele>231.0</ele><time>2026-04-26T08:33:33.698Z</time></trkpt><trkpt lat="46.1449694" lon="9.5567907"><ele>231.0</ele><time>2026-04-26T08:33:34.699Z</time></trkpt><trkpt lat="46.1449565" lon="9.5566714"><ele>231.0</ele><time>2026-04-26T08:33:35.7Z</time></trkpt><trkpt lat="46.1449428" lon="9.5565694"><ele>233.66666666666666</ele><time>2026-04-26T08:33:36.698Z</time></trkpt><trkpt lat="46.1449354" lon="9.5564584"><ele>236.33333333333331</ele><time>2026-04-26T08:33:37.7Z</time></trkpt><trkpt lat="46.1449231" lon="9.556344"><ele>239.0</ele><time>2026-04-26T08:33:38.699Z</time></trkpt><trkpt lat="46.1449052" lon="9.5562395"><ele>241.66666666666666</ele><time>2026-04-26T08:33:39.697Z</time></trkpt><trkpt lat="46.1448882" lon="9.5561304"><ele>244.33333333333331</ele><time>2026-04-26T08:33:40.699Z</time></trkpt><trkpt lat="46.1448831" lon="9.5560192"><ele>247.0</ele><time>2026-04-26T08:33:41.698Z</time></trkpt><trkpt lat="46.1448798" lon="9.5559069"><ele>247.33333333333331</ele><time>2026-04-26T08:33:42.698Z</time></trkpt><trkpt lat="46.1448874" lon="9.5557847"><ele>247.66666666666666</ele><time>2026-04-26T08:33:43.7Z</time></trkpt><trkpt lat="46.1448807" lon="9.5556715"><ele>248.0</ele><time>2026-04-26T08:33:44.699Z</time></trkpt><trkpt lat="46.144872" lon="9.5555584"><ele>248.33333333333331</ele><time>2026-04-26T08:33:45.698Z</time></trkpt><trkpt lat="46.1448676" lon="9.5554443"><ele>248.66666666666666</ele><time>2026-04-26T08:33:46.698Z</time></trkpt><trkpt lat="46.1448542" lon="9.5553395"><ele>249.0</ele><time>2026-04-26T08:33:47.699Z</time></trkpt><trkpt lat="46.144844" lon="9.5552333"><ele>245.28571428571428</ele><time>2026-04-26T08:33:48.699Z</time></trkpt><trkpt lat="46.1448401" lon="9.5551237"><ele>241.57142857142856</ele><time>2026-04-26T08:33:49.698Z</time></trkpt><trkpt lat="46.1448304" lon="9.5550285"><ele>237.85714285714283</ele><time>2026-04-26T08:33:50.699Z</time></trkpt><trkpt lat="46.1448232" lon="9.5549301"><ele>234.14285714285714</ele><time>2026-04-26T08:33:51.699Z</time></trkpt><trkpt lat="46.1448115" lon="9.5548339"><ele>230.42857142857142</ele><time>2026-04-26T08:33:52.698Z</time></trkpt><trkpt lat="46.1448114" lon="9.5547272"><ele>226.71428571428572</ele><time>2026-04-26T08:33:53.699Z</time></trkpt><trkpt lat="46.1448044" lon="9.5546184"><ele>223.0</ele><time>2026-04-26T08:33:54.698Z</time></trkpt><trkpt lat="46.1448252" lon="9.5545297"><ele>222.99999999999997</ele><time>2026-04-26T08:33:55.698Z</time></trkpt><trkpt lat="46.1448237" lon="9.5544206"><ele>223.0</ele><time>2026-04-26T08:33:56.699Z</time></trkpt><trkpt lat="46.144814" lon="9.5543101"><ele>223.0</ele><time>2026-04-26T08:33:57.699Z</time></trkpt><trkpt lat="46.1448051" lon="9.5542048"><ele>223.0</ele><time>2026-04-26T08:33:58.698Z</time></trkpt><trkpt lat="46.1448093" lon="9.5540952"><ele>222.99999999999997</ele><time>2026-04-26T08:33:59.699Z</time></trkpt><trkpt lat="46.1447788" lon="9.5539375"><ele>223.0</ele><time>2026-04-26T08:34:01.699Z</time></trkpt><trkpt lat="46.1447691" lon="9.5538164"><ele>222.99999999999997</ele><time>2026-04-26T08:34:02.7Z</time></trkpt><trkpt lat="46.1447653" lon="9.5537208"><ele>223.0</ele><time>2026-04-26T08:34:03.698Z</time></trkpt><trkpt lat="46.1447565" lon="9.5536304"><ele>223.0</ele><time>2026-04-26T08:34:04.699Z</time></trkpt><trkpt lat="46.1447389" lon="9.5535348"><ele>223.0</ele><time>2026-04-26T08:34:05.7Z</time></trkpt><trkpt lat="46.144716" lon="9.5533865"><ele>222.99999999999997</ele><time>2026-04-26T08:34:07.701Z</time></trkpt><trkpt lat="46.1446903" lon="9.5532156"><ele>223.0</ele><time>2026-04-26T08:34:09.699Z</time></trkpt><trkpt lat="46.1446581" lon="9.5530319"><ele>221.99999999999997</ele><time>2026-04-26T08:34:11.699Z</time></trkpt><trkpt lat="46.1446297" lon="9.5528486"><ele>221.0</ele><time>2026-04-26T08:34:13.699Z</time></trkpt><trkpt lat="46.1446102" lon="9.5527596"><ele>220.0</ele><time>2026-04-26T08:34:14.699Z</time></trkpt><trkpt lat="46.1445772" lon="9.5526537"><ele>219.0</ele><time>2026-04-26T08:34:15.7Z</time></trkpt><trkpt lat="46.144554" lon="9.5525652"><ele>217.99999999999997</ele><time>2026-04-26T08:34:16.699Z</time></trkpt><trkpt lat="46.1445204" lon="9.5524468"><ele>217.0</ele><time>2026-04-26T08:34:17.7Z</time></trkpt><trkpt lat="46.1444891" lon="9.5523501"><ele>216.99999999999997</ele><time>2026-04-26T08:34:18.699Z</time></trkpt><trkpt lat="46.1444564" lon="9.5522489"><ele>217.0</ele><time>2026-04-26T08:34:19.701Z</time></trkpt><trkpt lat="46.1444278" lon="9.5521615"><ele>217.0</ele><time>2026-04-26T08:34:20.7Z</time></trkpt><trkpt lat="46.1444016" lon="9.5520611"><ele>217.0</ele><time>2026-04-26T08:34:21.699Z</time></trkpt><trkpt lat="46.1443676" lon="9.551895"><ele>216.99999999999997</ele><time>2026-04-26T08:34:23.699Z</time></trkpt><trkpt lat="46.1443405" lon="9.5518073"><ele>217.0</ele><time>2026-04-26T08:34:24.7Z</time></trkpt><trkpt lat="46.1442795" lon="9.5516454"><ele>217.2</ele><time>2026-04-26T08:34:26.698Z</time></trkpt><trkpt lat="46.1442237" lon="9.5514716"><ele>217.39999999999998</ele><time>2026-04-26T08:34:28.7Z</time></trkpt><trkpt lat="46.144218" lon="9.5513722"><ele>217.60000000000002</ele><time>2026-04-26T08:34:29.7Z</time></trkpt><trkpt lat="46.1442613" lon="9.551218"><ele>217.8</ele><time>2026-04-26T08:34:31.699Z</time></trkpt><trkpt lat="46.1442419" lon="9.551054"><ele>218.0</ele><time>2026-04-26T08:34:33.699Z</time></trkpt><trkpt lat="46.1441879" lon="9.5509167"><ele>218.4</ele><time>2026-04-26T08:34:35.699Z</time></trkpt><trkpt lat="46.1441651" lon="9.550793"><ele>218.8</ele><time>2026-04-26T08:34:37.698Z</time></trkpt><trkpt lat="46.1440786" lon="9.5506726"><ele>219.2</ele><time>2026-04-26T08:34:39.699Z</time></trkpt><trkpt lat="46.1439927" lon="9.5505633"><ele>219.6</ele><time>2026-04-26T08:34:41.699Z</time></trkpt><trkpt lat="46.1438892" lon="9.5505476"><ele>220.0</ele><time>2026-04-26T08:34:43.699Z</time></trkpt><trkpt lat="46.1437972" lon="9.5506072"><ele>220.0</ele><time>2026-04-26T08:34:45.699Z</time></trkpt><trkpt lat="46.1437178" lon="9.5506722"><ele>220.0</ele><time>2026-04-26T08:34:47.701Z</time></trkpt><trkpt lat="46.1436545" lon="9.5507333"><ele>220.0</ele><time>2026-04-26T08:34:49.7Z</time></trkpt><trkpt lat="46.1436037" lon="9.550792"><ele>220.0</ele><time>2026-04-26T08:34:51.698Z</time></trkpt><trkpt lat="46.1435089" lon="9.5509255"><ele>220.0</ele><time>2026-04-26T08:34:53.699Z</time></trkpt><trkpt lat="46.1434249" lon="9.5509737"><ele>219.99999999999997</ele><time>2026-04-26T08:34:55.698Z</time></trkpt><trkpt lat="46.1433572" lon="9.5510202"><ele>220.0</ele><time>2026-04-26T08:34:57.698Z</time></trkpt><trkpt lat="46.1432566" lon="9.551039"><ele>220.0</ele><time>2026-04-26T08:34:59.699Z</time></trkpt><trkpt lat="46.1431562" lon="9.5509998"><ele>220.0</ele><time>2026-04-26T08:35:01.699Z</time></trkpt><trkpt lat="46.143104" lon="9.5509417"><ele>219.99999999999997</ele><time>2026-04-26T08:35:02.699Z</time></trkpt><trkpt lat="46.1430613" lon="9.550864"><ele>220.0</ele><time>2026-04-26T08:35:03.699Z</time></trkpt><trkpt lat="46.1430271" lon="9.5507861"><ele>220.16666666666666</ele><time>2026-04-26T08:35:04.7Z</time></trkpt><trkpt lat="46.1429821" lon="9.5507037"><ele>220.33333333333331</ele><time>2026-04-26T08:35:05.699Z</time></trkpt><trkpt lat="46.1429367" lon="9.5506313"><ele>220.5</ele><time>2026-04-26T08:35:06.699Z</time></trkpt><trkpt lat="46.1428889" lon="9.5505417"><ele>220.66666666666669</ele><time>2026-04-26T08:35:07.699Z</time></trkpt><trkpt lat="46.142802" lon="9.550394"><ele>220.83333333333334</ele><time>2026-04-26T08:35:09.699Z</time></trkpt><trkpt lat="46.1427515" lon="9.5503179"><ele>221.0</ele><time>2026-04-26T08:35:10.699Z</time></trkpt><trkpt lat="46.1426996" lon="9.5502503"><ele>220.66666666666669</ele><time>2026-04-26T08:35:11.7Z</time></trkpt><trkpt lat="46.1426422" lon="9.5501822"><ele>220.33333333333334</ele><time>2026-04-26T08:35:12.699Z</time></trkpt><trkpt lat="46.1425824" lon="9.5501076"><ele>220.0</ele><time>2026-04-26T08:35:13.699Z</time></trkpt><trkpt lat="46.1425266" lon="9.5500198"><ele>219.66666666666669</ele><time>2026-04-26T08:35:14.698Z</time></trkpt><trkpt lat="46.1424728" lon="9.5499483"><ele>219.33333333333334</ele><time>2026-04-26T08:35:15.7Z</time></trkpt><trkpt lat="46.1424203" lon="9.5498747"><ele>219.0</ele><time>2026-04-26T08:35:16.7Z</time></trkpt><trkpt lat="46.1423695" lon="9.5497878"><ele>219.0</ele><time>2026-04-26T08:35:17.698Z</time></trkpt><trkpt lat="46.142317" lon="9.5497113"><ele>218.99999999999997</ele><time>2026-04-26T08:35:18.699Z</time></trkpt><trkpt lat="46.142235" lon="9.5495831"><ele>218.99999999999997</ele><time>2026-04-26T08:35:20.7Z</time></trkpt><trkpt lat="46.1421894" lon="9.549512"><ele>219.0</ele><time>2026-04-26T08:35:21.699Z</time></trkpt><trkpt lat="46.1421121" lon="9.5493628"><ele>219.0</ele><time>2026-04-26T08:35:23.699Z</time></trkpt><trkpt lat="46.1420606" lon="9.54929"><ele>219.33333333333334</ele><time>2026-04-26T08:35:24.699Z</time></trkpt><trkpt lat="46.1420159" lon="9.5492123"><ele>219.66666666666669</ele><time>2026-04-26T08:35:25.699Z</time></trkpt><trkpt lat="46.1419756" lon="9.5491385"><ele>220.0</ele><time>2026-04-26T08:35:26.698Z</time></trkpt><trkpt lat="46.1419186" lon="9.5490642"><ele>220.33333333333334</ele><time>2026-04-26T08:35:27.7Z</time></trkpt><trkpt lat="46.141878" lon="9.5489947"><ele>220.66666666666669</ele><time>2026-04-26T08:35:28.699Z</time></trkpt><trkpt lat="46.1418287" lon="9.5489244"><ele>221.0</ele><time>2026-04-26T08:35:29.699Z</time></trkpt><trkpt lat="46.1417348" lon="9.5488051"><ele>221.00000000000003</ele><time>2026-04-26T08:35:31.7Z</time></trkpt><trkpt lat="46.1416928" lon="9.5487348"><ele>221.0</ele><time>2026-04-26T08:35:32.699Z</time></trkpt><trkpt lat="46.1416573" lon="9.5486437"><ele>221.0</ele><time>2026-04-26T08:35:33.699Z</time></trkpt><trkpt lat="46.1416482" lon="9.5485523"><ele>221.0</ele><time>2026-04-26T08:35:34.7Z</time></trkpt><trkpt lat="46.1416439" lon="9.5484523"><ele>221.00000000000003</ele><time>2026-04-26T08:35:35.699Z</time></trkpt><trkpt lat="46.1416122" lon="9.5483044"><ele>221.0</ele><time>2026-04-26T08:35:37.7Z</time></trkpt><trkpt lat="46.1415224" lon="9.5482696"><ele>220.16666666666669</ele><time>2026-04-26T08:35:39.698Z</time></trkpt><trkpt lat="46.141436" lon="9.5482973"><ele>219.33333333333334</ele><time>2026-04-26T08:35:41.699Z</time></trkpt><trkpt lat="46.141361" lon="9.5483495"><ele>218.5</ele><time>2026-04-26T08:35:43.699Z</time></trkpt><trkpt lat="46.1412825" lon="9.5483701"><ele>217.66666666666669</ele><time>2026-04-26T08:35:47.699Z</time></trkpt><trkpt lat="46.1412109" lon="9.5484091"><ele>216.83333333333334</ele><time>2026-04-26T08:35:49.699Z</time></trkpt><trkpt lat="46.1411067" lon="9.548475"><ele>216.0</ele><time>2026-04-26T08:35:51.699Z</time></trkpt><trkpt lat="46.1410136" lon="9.5485724"><ele>216.0</ele><time>2026-04-26T08:35:52.7Z</time></trkpt><trkpt lat="46.1409056" lon="9.5485936"><ele>216.00000000000003</ele><time>2026-04-26T08:35:54.7Z</time></trkpt><trkpt lat="46.1408783" lon="9.5484605"><ele>216.00000000000003</ele><time>2026-04-26T08:35:56.699Z</time></trkpt><trkpt lat="46.1409353" lon="9.5483134"><ele>216.0</ele><time>2026-04-26T08:35:58.7Z</time></trkpt><trkpt lat="46.1409354" lon="9.5481537"><ele>216.0</ele><time>2026-04-26T08:36:00.7Z</time></trkpt><trkpt lat="46.1409029" lon="9.5480143"><ele>216.0</ele><time>2026-04-26T08:36:02.699Z</time></trkpt><trkpt lat="46.140854" lon="9.5478749"><ele>216.0</ele><time>2026-04-26T08:36:04.699Z</time></trkpt><trkpt lat="46.1407973" lon="9.5477434"><ele>216.0</ele><time>2026-04-26T08:36:06.699Z</time></trkpt><trkpt lat="46.1407348" lon="9.5475951"><ele>216.0</ele><time>2026-04-26T08:36:08.698Z</time></trkpt><trkpt lat="46.1406725" lon="9.5474532"><ele>216.60000000000002</ele><time>2026-04-26T08:36:10.697Z</time></trkpt><trkpt lat="46.1406212" lon="9.5473067"><ele>217.20000000000002</ele><time>2026-04-26T08:36:12.698Z</time></trkpt><trkpt lat="46.1405739" lon="9.5472307"><ele>217.79999999999998</ele><time>2026-04-26T08:36:13.698Z</time></trkpt><trkpt lat="46.1404881" lon="9.5471107"><ele>218.39999999999998</ele><time>2026-04-26T08:36:15.699Z</time></trkpt><trkpt lat="46.1404378" lon="9.5470439"><ele>219.0</ele><time>2026-04-26T08:36:16.7Z</time></trkpt><trkpt lat="46.1403965" lon="9.5468724"><ele>219.0</ele><time>2026-04-26T08:36:18.699Z</time></trkpt><trkpt lat="46.1403531" lon="9.5467052"><ele>218.99999999999997</ele><time>2026-04-26T08:36:20.699Z</time></trkpt><trkpt lat="46.1403203" lon="9.5465402"><ele>218.99999999999997</ele><time>2026-04-26T08:36:22.698Z</time></trkpt><trkpt lat="46.1402859" lon="9.5464417"><ele>219.0</ele><time>2026-04-26T08:36:23.699Z</time></trkpt><trkpt lat="46.1402499" lon="9.5463542"><ele>219.0</ele><time>2026-04-26T08:36:24.699Z</time></trkpt><trkpt lat="46.1402124" lon="9.5462576"><ele>218.5</ele><time>2026-04-26T08:36:25.699Z</time></trkpt><trkpt lat="46.1401826" lon="9.546159"><ele>218.0</ele><time>2026-04-26T08:36:26.699Z</time></trkpt><trkpt lat="46.1401311" lon="9.5459798"><ele>217.5</ele><time>2026-04-26T08:36:28.699Z</time></trkpt><trkpt lat="46.1401118" lon="9.5458842"><ele>217.0</ele><time>2026-04-26T08:36:29.699Z</time></trkpt><trkpt lat="46.1400856" lon="9.5457966"><ele>216.5</ele><time>2026-04-26T08:36:30.699Z</time></trkpt><trkpt lat="46.1400578" lon="9.5457056"><ele>216.0</ele><time>2026-04-26T08:36:31.699Z</time></trkpt><trkpt lat="46.140043" lon="9.545616"><ele>216.0</ele><time>2026-04-26T08:36:32.7Z</time></trkpt><trkpt lat="46.140015" lon="9.5455305"><ele>216.0</ele><time>2026-04-26T08:36:33.7Z</time></trkpt><trkpt lat="46.1399875" lon="9.5454358"><ele>216.0</ele><time>2026-04-26T08:36:34.7Z</time></trkpt><trkpt lat="46.1399557" lon="9.5453402"><ele>216.0</ele><time>2026-04-26T08:36:35.699Z</time></trkpt><trkpt lat="46.1399302" lon="9.5452475"><ele>216.0</ele><time>2026-04-26T08:36:36.698Z</time></trkpt><trkpt lat="46.139912" lon="9.5450529"><ele>216.0</ele><time>2026-04-26T08:36:38.7Z</time></trkpt><trkpt lat="46.139878" lon="9.5449636"><ele>216.0</ele><time>2026-04-26T08:36:39.7Z</time></trkpt><trkpt lat="46.1398364" lon="9.5448701"><ele>216.0</ele><time>2026-04-26T08:36:40.7Z</time></trkpt><trkpt lat="46.139802" lon="9.5447771"><ele>216.0</ele><time>2026-04-26T08:36:41.7Z</time></trkpt><trkpt lat="46.1397638" lon="9.5446511"><ele>216.0</ele><time>2026-04-26T08:36:42.699Z</time></trkpt><trkpt lat="46.1397403" lon="9.5445468"><ele>216.0</ele><time>2026-04-26T08:36:43.699Z</time></trkpt><trkpt lat="46.1397658" lon="9.5444352"><ele>216.0</ele><time>2026-04-26T08:36:44.698Z</time></trkpt><trkpt lat="46.1397405" lon="9.544342"><ele>216.20000000000002</ele><time>2026-04-26T08:36:45.699Z</time></trkpt><trkpt lat="46.1397255" lon="9.5441722"><ele>216.40000000000003</ele><time>2026-04-26T08:36:47.7Z</time></trkpt><trkpt lat="46.1396827" lon="9.5439967"><ele>216.6</ele><time>2026-04-26T08:36:49.698Z</time></trkpt><trkpt lat="46.1396589" lon="9.5439118"><ele>216.8</ele><time>2026-04-26T08:36:50.699Z</time></trkpt><trkpt lat="46.1396327" lon="9.5438261"><ele>217.0</ele><time>2026-04-26T08:36:51.699Z</time></trkpt><trkpt lat="46.1395922" lon="9.5436894"><ele>216.99999999999997</ele><time>2026-04-26T08:36:53.698Z</time></trkpt><trkpt lat="46.1395688" lon="9.5435652"><ele>217.0</ele><time>2026-04-26T08:36:55.698Z</time></trkpt><trkpt lat="46.1395368" lon="9.5434861"><ele>217.0</ele><time>2026-04-26T08:36:57.699Z</time></trkpt><trkpt lat="46.1395093" lon="9.5433993"><ele>217.0</ele><time>2026-04-26T08:36:59.699Z</time></trkpt><trkpt lat="46.1394768" lon="9.543315"><ele>216.99999999999997</ele><time>2026-04-26T08:37:01.7Z</time></trkpt><trkpt lat="46.1394527" lon="9.543209"><ele>217.0</ele><time>2026-04-26T08:37:03.7Z</time></trkpt><trkpt lat="46.1394249" lon="9.5430813"><ele>217.0</ele><time>2026-04-26T08:37:05.697Z</time></trkpt><trkpt lat="46.1393747" lon="9.5429306"><ele>217.0</ele><time>2026-04-26T08:37:07.699Z</time></trkpt><trkpt lat="46.1393422" lon="9.5427708"><ele>217.0</ele><time>2026-04-26T08:37:09.7Z</time></trkpt><trkpt lat="46.1393156" lon="9.5426351"><ele>217.0</ele><time>2026-04-26T08:37:11.698Z</time></trkpt><trkpt lat="46.1392599" lon="9.5424465"><ele>216.85714285714286</ele><time>2026-04-26T08:37:13.698Z</time></trkpt><trkpt lat="46.1392341" lon="9.542357"><ele>216.71428571428572</ele><time>2026-04-26T08:37:14.699Z</time></trkpt><trkpt lat="46.1392171" lon="9.5422682"><ele>216.57142857142856</ele><time>2026-04-26T08:37:15.698Z</time></trkpt><trkpt lat="46.1391935" lon="9.5421791"><ele>216.42857142857144</ele><time>2026-04-26T08:37:16.699Z</time></trkpt><trkpt lat="46.1391935" lon="9.5420703"><ele>216.28571428571428</ele><time>2026-04-26T08:37:17.698Z</time></trkpt><trkpt lat="46.1391731" lon="9.5419693"><ele>216.14285714285714</ele><time>2026-04-26T08:37:18.698Z</time></trkpt><trkpt lat="46.1391681" lon="9.5418727"><ele>216.0</ele><time>2026-04-26T08:37:19.699Z</time></trkpt><trkpt lat="46.1391474" lon="9.5417779"><ele>216.0</ele><time>2026-04-26T08:37:20.698Z</time></trkpt><trkpt lat="46.139124" lon="9.5416892"><ele>216.0</ele><time>2026-04-26T08:37:21.699Z</time></trkpt><trkpt lat="46.1390975" lon="9.5415911"><ele>216.0</ele><time>2026-04-26T08:37:22.698Z</time></trkpt><trkpt lat="46.1390845" lon="9.5414979"><ele>216.0</ele><time>2026-04-26T08:37:23.7Z</time></trkpt><trkpt lat="46.1390614" lon="9.5414001"><ele>216.0</ele><time>2026-04-26T08:37:24.699Z</time></trkpt><trkpt lat="46.1390306" lon="9.5413048"><ele>216.0</ele><time>2026-04-26T08:37:25.7Z</time></trkpt><trkpt lat="46.1390098" lon="9.5412093"><ele>216.0</ele><time>2026-04-26T08:37:26.699Z</time></trkpt><trkpt lat="46.1389964" lon="9.541116"><ele>216.0</ele><time>2026-04-26T08:37:27.7Z</time></trkpt><trkpt lat="46.1389766" lon="9.5410234"><ele>216.0</ele><time>2026-04-26T08:37:28.698Z</time></trkpt><trkpt lat="46.1389531" lon="9.5409321"><ele>216.0</ele><time>2026-04-26T08:37:29.7Z</time></trkpt><trkpt lat="46.1389267" lon="9.540825"><ele>216.0</ele><time>2026-04-26T08:37:30.7Z</time></trkpt><trkpt lat="46.1389002" lon="9.5407391"><ele>216.0</ele><time>2026-04-26T08:37:31.699Z</time></trkpt><trkpt lat="46.1388808" lon="9.5406474"><ele>216.0</ele><time>2026-04-26T08:37:32.698Z</time></trkpt><trkpt lat="46.1388596" lon="9.5405595"><ele>216.0</ele><time>2026-04-26T08:37:33.699Z</time></trkpt><trkpt lat="46.1388198" lon="9.5403968"><ele>215.8</ele><time>2026-04-26T08:37:35.699Z</time></trkpt><trkpt lat="46.1387187" lon="9.5403078"><ele>215.60000000000002</ele><time>2026-04-26T08:37:37.699Z</time></trkpt><trkpt lat="46.1386356" lon="9.5403118"><ele>215.4</ele><time>2026-04-26T08:37:39.699Z</time></trkpt><trkpt lat="46.1384852" lon="9.5402676"><ele>215.2</ele><time>2026-04-26T08:37:42.7Z</time></trkpt><trkpt lat="46.1384187" lon="9.540191"><ele>215.0</ele><time>2026-04-26T08:37:44.699Z</time></trkpt><trkpt lat="46.1384011" lon="9.5400567"><ele>215.0</ele><time>2026-04-26T08:37:46.699Z</time></trkpt><trkpt lat="46.1383882" lon="9.5398959"><ele>215.0</ele><time>2026-04-26T08:37:48.699Z</time></trkpt><trkpt lat="46.1383714" lon="9.539758"><ele>215.0</ele><time>2026-04-26T08:37:50.698Z</time></trkpt><trkpt lat="46.1383467" lon="9.5396741"><ele>215.0</ele><time>2026-04-26T08:37:51.699Z</time></trkpt><trkpt lat="46.1383455" lon="9.5394989"><ele>215.0</ele><time>2026-04-26T08:37:53.699Z</time></trkpt><trkpt lat="46.1383398" lon="9.5393254"><ele>215.66666666666669</ele><time>2026-04-26T08:37:55.698Z</time></trkpt><trkpt lat="46.1383184" lon="9.5391497"><ele>216.33333333333334</ele><time>2026-04-26T08:37:57.699Z</time></trkpt><trkpt lat="46.1383155" lon="9.5390548"><ele>217.0</ele><time>2026-04-26T08:37:58.699Z</time></trkpt><trkpt lat="46.1383061" lon="9.5389551"><ele>217.66666666666669</ele><time>2026-04-26T08:37:59.699Z</time></trkpt><trkpt lat="46.1382954" lon="9.5387751"><ele>218.33333333333334</ele><time>2026-04-26T08:38:01.698Z</time></trkpt><trkpt lat="46.138297" lon="9.5386828"><ele>219.0</ele><time>2026-04-26T08:38:02.7Z</time></trkpt><trkpt lat="46.1382828" lon="9.5385094"><ele>218.83333333333334</ele><time>2026-04-26T08:38:04.7Z</time></trkpt><trkpt lat="46.1382673" lon="9.538327"><ele>218.66666666666669</ele><time>2026-04-26T08:38:06.698Z</time></trkpt><trkpt lat="46.1382614" lon="9.5382288"><ele>218.5</ele><time>2026-04-26T08:38:07.699Z</time></trkpt><trkpt lat="46.1382452" lon="9.5381379"><ele>218.33333333333334</ele><time>2026-04-26T08:38:08.698Z</time></trkpt><trkpt lat="46.1382391" lon="9.5380471"><ele>218.16666666666669</ele><time>2026-04-26T08:38:09.699Z</time></trkpt><trkpt lat="46.13824" lon="9.5379505"><ele>218.0</ele><time>2026-04-26T08:38:10.699Z</time></trkpt><trkpt lat="46.138237" lon="9.537852"><ele>218.0</ele><time>2026-04-26T08:38:11.7Z</time></trkpt><trkpt lat="46.1382337" lon="9.537732"><ele>218.0</ele><time>2026-04-26T08:38:12.699Z</time></trkpt><trkpt lat="46.1382243" lon="9.5375511"><ele>218.0</ele><time>2026-04-26T08:38:14.7Z</time></trkpt><trkpt lat="46.1382177" lon="9.5373934"><ele>218.0</ele><time>2026-04-26T08:38:16.698Z</time></trkpt><trkpt lat="46.1381993" lon="9.5372462"><ele>218.0</ele><time>2026-04-26T08:38:18.699Z</time></trkpt><trkpt lat="46.1381842" lon="9.5370927"><ele>217.0</ele><time>2026-04-26T08:38:20.699Z</time></trkpt><trkpt lat="46.1381829" lon="9.5369443"><ele>216.0</ele><time>2026-04-26T08:38:22.698Z</time></trkpt><trkpt lat="46.1381668" lon="9.5367716"><ele>215.0</ele><time>2026-04-26T08:38:24.7Z</time></trkpt><trkpt lat="46.1381557" lon="9.536588"><ele>214.0</ele><time>2026-04-26T08:38:26.699Z</time></trkpt><trkpt lat="46.1381305" lon="9.5364171"><ele>213.99999999999997</ele><time>2026-04-26T08:38:28.699Z</time></trkpt><trkpt lat="46.138102" lon="9.5362469"><ele>214.0</ele><time>2026-04-26T08:38:30.699Z</time></trkpt><trkpt lat="46.1380909" lon="9.5361562"><ele>214.0</ele><time>2026-04-26T08:38:31.699Z</time></trkpt><trkpt lat="46.1380741" lon="9.5360557"><ele>214.0</ele><time>2026-04-26T08:38:32.698Z</time></trkpt><trkpt lat="46.1380583" lon="9.5359542"><ele>213.99999999999997</ele><time>2026-04-26T08:38:33.699Z</time></trkpt><trkpt lat="46.138047" lon="9.5358532"><ele>214.0</ele><time>2026-04-26T08:38:34.7Z</time></trkpt><trkpt lat="46.1380279" lon="9.5357582"><ele>214.16666666666666</ele><time>2026-04-26T08:38:35.7Z</time></trkpt><trkpt lat="46.1380039" lon="9.5356639"><ele>214.33333333333331</ele><time>2026-04-26T08:38:36.699Z</time></trkpt><trkpt lat="46.1379814" lon="9.5355654"><ele>214.5</ele><time>2026-04-26T08:38:37.699Z</time></trkpt><trkpt lat="46.137964" lon="9.5354681"><ele>214.66666666666669</ele><time>2026-04-26T08:38:38.699Z</time></trkpt><trkpt lat="46.1379552" lon="9.5353612"><ele>214.83333333333334</ele><time>2026-04-26T08:38:39.699Z</time></trkpt><trkpt lat="46.137923" lon="9.5351781"><ele>215.0</ele><time>2026-04-26T08:38:41.699Z</time></trkpt><trkpt lat="46.1379002" lon="9.5350798"><ele>215.28571428571428</ele><time>2026-04-26T08:38:42.7Z</time></trkpt><trkpt lat="46.1378788" lon="9.5349604"><ele>215.57142857142858</ele><time>2026-04-26T08:38:43.699Z</time></trkpt><trkpt lat="46.1378762" lon="9.5348602"><ele>215.85714285714286</ele><time>2026-04-26T08:38:44.699Z</time></trkpt><trkpt lat="46.1378733" lon="9.5347502"><ele>216.14285714285714</ele><time>2026-04-26T08:38:45.7Z</time></trkpt><trkpt lat="46.1378682" lon="9.5346467"><ele>216.42857142857144</ele><time>2026-04-26T08:38:46.699Z</time></trkpt><trkpt lat="46.1378599" lon="9.5345406"><ele>216.71428571428572</ele><time>2026-04-26T08:38:47.699Z</time></trkpt><trkpt lat="46.1378638" lon="9.5344487"><ele>217.0</ele><time>2026-04-26T08:38:48.699Z</time></trkpt><trkpt lat="46.1378663" lon="9.5343437"><ele>217.0</ele><time>2026-04-26T08:38:49.698Z</time></trkpt><trkpt lat="46.1378761" lon="9.5342385"><ele>217.0</ele><time>2026-04-26T08:38:50.7Z</time></trkpt><trkpt lat="46.1378794" lon="9.5341459"><ele>217.0</ele><time>2026-04-26T08:38:51.7Z</time></trkpt><trkpt lat="46.1378784" lon="9.5340521"><ele>217.0</ele><time>2026-04-26T08:38:52.699Z</time></trkpt><trkpt lat="46.1378839" lon="9.5339442"><ele>217.0</ele><time>2026-04-26T08:38:53.698Z</time></trkpt><trkpt lat="46.1378846" lon="9.5338507"><ele>217.0</ele><time>2026-04-26T08:38:54.698Z</time></trkpt><trkpt lat="46.1378889" lon="9.5337538"><ele>217.0</ele><time>2026-04-26T08:38:55.7Z</time></trkpt><trkpt lat="46.1378949" lon="9.5336403"><ele>216.33333333333331</ele><time>2026-04-26T08:38:56.699Z</time></trkpt><trkpt lat="46.1378976" lon="9.5335323"><ele>215.66666666666666</ele><time>2026-04-26T08:38:57.7Z</time></trkpt><trkpt lat="46.1378962" lon="9.5334311"><ele>215.0</ele><time>2026-04-26T08:38:58.698Z</time></trkpt><trkpt lat="46.1378985" lon="9.5333328"><ele>214.33333333333331</ele><time>2026-04-26T08:38:59.698Z</time></trkpt><trkpt lat="46.1379056" lon="9.5332341"><ele>213.66666666666666</ele><time>2026-04-26T08:39:00.699Z</time></trkpt><trkpt lat="46.1379158" lon="9.5330689"><ele>213.0</ele><time>2026-04-26T08:39:02.7Z</time></trkpt><trkpt lat="46.1379251" lon="9.5328939"><ele>213.4</ele><time>2026-04-26T08:39:04.699Z</time></trkpt><trkpt lat="46.1379355" lon="9.5328031"><ele>213.8</ele><time>2026-04-26T08:39:05.7Z</time></trkpt><trkpt lat="46.1379335" lon="9.5327077"><ele>214.2</ele><time>2026-04-26T08:39:06.7Z</time></trkpt><trkpt lat="46.1379468" lon="9.5325283"><ele>214.6</ele><time>2026-04-26T08:39:08.699Z</time></trkpt><trkpt lat="46.137925" lon="9.5323396"><ele>215.0</ele><time>2026-04-26T08:39:10.699Z</time></trkpt><trkpt lat="46.1379434" lon="9.5321469"><ele>215.16666666666669</ele><time>2026-04-26T08:39:12.699Z</time></trkpt><trkpt lat="46.1379532" lon="9.5320524"><ele>215.33333333333334</ele><time>2026-04-26T08:39:13.699Z</time></trkpt><trkpt lat="46.1379545" lon="9.5318829"><ele>215.5</ele><time>2026-04-26T08:39:15.699Z</time></trkpt><trkpt lat="46.1379557" lon="9.531789"><ele>215.66666666666669</ele><time>2026-04-26T08:39:16.699Z</time></trkpt><trkpt lat="46.1379689" lon="9.531613"><ele>215.83333333333334</ele><time>2026-04-26T08:39:18.7Z</time></trkpt><trkpt lat="46.1379644" lon="9.5315102"><ele>216.0</ele><time>2026-04-26T08:39:19.699Z</time></trkpt><trkpt lat="46.1379734" lon="9.5313221"><ele>216.0</ele><time>2026-04-26T08:39:21.699Z</time></trkpt><trkpt lat="46.1379779" lon="9.5312263"><ele>216.0</ele><time>2026-04-26T08:39:22.699Z</time></trkpt><trkpt lat="46.1379845" lon="9.531128"><ele>216.0</ele><time>2026-04-26T08:39:23.699Z</time></trkpt><trkpt lat="46.13799" lon="9.5310306"><ele>216.0</ele><time>2026-04-26T08:39:24.7Z</time></trkpt><trkpt lat="46.1379946" lon="9.5309248"><ele>216.0</ele><time>2026-04-26T08:39:25.699Z</time></trkpt><trkpt lat="46.1380015" lon="9.5308257"><ele>216.0</ele><time>2026-04-26T08:39:26.699Z</time></trkpt><trkpt lat="46.1380103" lon="9.5306271"><ele>216.0</ele><time>2026-04-26T08:39:28.699Z</time></trkpt><trkpt lat="46.1380164" lon="9.530523"><ele>216.0</ele><time>2026-04-26T08:39:29.699Z</time></trkpt><trkpt lat="46.1380262" lon="9.5304173"><ele>216.0</ele><time>2026-04-26T08:39:30.7Z</time></trkpt><trkpt lat="46.1380352" lon="9.5303039"><ele>216.0</ele><time>2026-04-26T08:39:31.699Z</time></trkpt><trkpt lat="46.1380411" lon="9.5302107"><ele>216.0</ele><time>2026-04-26T08:39:32.698Z</time></trkpt><trkpt lat="46.1380494" lon="9.5301012"><ele>216.0</ele><time>2026-04-26T08:39:33.699Z</time></trkpt><trkpt lat="46.1380704" lon="9.5299389"><ele>215.66666666666666</ele><time>2026-04-26T08:39:35.698Z</time></trkpt><trkpt lat="46.1381235" lon="9.5297833"><ele>215.33333333333331</ele><time>2026-04-26T08:39:37.698Z</time></trkpt><trkpt lat="46.1381331" lon="9.5296917"><ele>215.0</ele><time>2026-04-26T08:39:38.7Z</time></trkpt><trkpt lat="46.1381582" lon="9.5295179"><ele>214.66666666666666</ele><time>2026-04-26T08:39:40.7Z</time></trkpt><trkpt lat="46.1381662" lon="9.5294208"><ele>214.33333333333331</ele><time>2026-04-26T08:39:41.699Z</time></trkpt><trkpt lat="46.1381714" lon="9.5293288"><ele>214.0</ele><time>2026-04-26T08:39:42.699Z</time></trkpt><trkpt lat="46.1381796" lon="9.5292384"><ele>213.6</ele><time>2026-04-26T08:39:43.7Z</time></trkpt><trkpt lat="46.1381952" lon="9.5290608"><ele>213.2</ele><time>2026-04-26T08:39:45.7Z</time></trkpt><trkpt lat="46.1382053" lon="9.5289571"><ele>212.79999999999998</ele><time>2026-04-26T08:39:46.701Z</time></trkpt><trkpt lat="46.1382181" lon="9.5287965"><ele>212.39999999999998</ele><time>2026-04-26T08:39:48.698Z</time></trkpt><trkpt lat="46.138221" lon="9.5286438"><ele>212.0</ele><time>2026-04-26T08:39:50.699Z</time></trkpt><trkpt lat="46.1382296" lon="9.5284763"><ele>211.8</ele><time>2026-04-26T08:39:52.7Z</time></trkpt><trkpt lat="46.138242" lon="9.5283624"><ele>211.6</ele><time>2026-04-26T08:39:53.699Z</time></trkpt><trkpt lat="46.138258" lon="9.5281969"><ele>211.4</ele><time>2026-04-26T08:39:55.699Z</time></trkpt><trkpt lat="46.1382669" lon="9.5280528"><ele>211.20000000000002</ele><time>2026-04-26T08:39:57.698Z</time></trkpt><trkpt lat="46.1382734" lon="9.5279075"><ele>211.0</ele><time>2026-04-26T08:39:59.699Z</time></trkpt><trkpt lat="46.138285" lon="9.5277758"><ele>210.83333333333331</ele><time>2026-04-26T08:40:01.699Z</time></trkpt><trkpt lat="46.1382822" lon="9.5276406"><ele>210.66666666666666</ele><time>2026-04-26T08:40:03.7Z</time></trkpt><trkpt lat="46.1382616" lon="9.527533"><ele>210.5</ele><time>2026-04-26T08:40:05.7Z</time></trkpt><trkpt lat="46.1382444" lon="9.5274381"><ele>210.33333333333331</ele><time>2026-04-26T08:40:08.698Z</time></trkpt><trkpt lat="46.1383151" lon="9.5273993"><ele>210.16666666666666</ele><time>2026-04-26T08:40:12.699Z</time></trkpt><trkpt lat="46.1383919" lon="9.5274053"><ele>210.0</ele><time>2026-04-26T08:40:14.699Z</time></trkpt><trkpt lat="46.138482" lon="9.5273854"><ele>210.0</ele><time>2026-04-26T08:40:16.7Z</time></trkpt><trkpt lat="46.1385775" lon="9.5273937"><ele>210.0</ele><time>2026-04-26T08:40:18.7Z</time></trkpt><trkpt lat="46.1386741" lon="9.5273909"><ele>210.0</ele><time>2026-04-26T08:40:20.7Z</time></trkpt><trkpt lat="46.1387846" lon="9.5273915"><ele>210.0</ele><time>2026-04-26T08:40:22.7Z</time></trkpt><trkpt lat="46.1389021" lon="9.5273947"><ele>210.0</ele><time>2026-04-26T08:40:24.699Z</time></trkpt><trkpt lat="46.1390079" lon="9.5274017"><ele>209.83333333333334</ele><time>2026-04-26T08:40:26.699Z</time></trkpt><trkpt lat="46.1391181" lon="9.5274085"><ele>209.66666666666669</ele><time>2026-04-26T08:40:28.699Z</time></trkpt><trkpt lat="46.1392147" lon="9.5274133"><ele>209.5</ele><time>2026-04-26T08:40:30.7Z</time></trkpt><trkpt lat="46.1393045" lon="9.5274198"><ele>209.33333333333334</ele><time>2026-04-26T08:40:32.699Z</time></trkpt><trkpt lat="46.1393675" lon="9.5274256"><ele>209.16666666666669</ele><time>2026-04-26T08:40:34.7Z</time></trkpt><trkpt lat="46.1394476" lon="9.5274257"><ele>209.0</ele><time>2026-04-26T08:40:46.699Z</time></trkpt><trkpt lat="46.1395269" lon="9.5274281"><ele>209.0</ele><time>2026-04-26T08:40:49.699Z</time></trkpt><trkpt lat="46.1396161" lon="9.5274306"><ele>209.0</ele><time>2026-04-26T08:40:52.699Z</time></trkpt><trkpt lat="46.1396868" lon="9.5274324"><ele>209.0</ele><time>2026-04-26T08:40:54.698Z</time></trkpt><trkpt lat="46.1397763" lon="9.5274451"><ele>209.0</ele><time>2026-04-26T08:40:56.699Z</time></trkpt><trkpt lat="46.1398871" lon="9.5274492"><ele>209.0</ele><time>2026-04-26T08:40:58.7Z</time></trkpt><trkpt lat="46.1399978" lon="9.5274597"><ele>209.14285714285714</ele><time>2026-04-26T08:41:00.7Z</time></trkpt><trkpt lat="46.1400663" lon="9.5274684"><ele>209.28571428571428</ele><time>2026-04-26T08:41:01.7Z</time></trkpt><trkpt lat="46.1401336" lon="9.5274735"><ele>209.42857142857144</ele><time>2026-04-26T08:41:02.699Z</time></trkpt><trkpt lat="46.1402015" lon="9.5274793"><ele>209.57142857142856</ele><time>2026-04-26T08:41:03.7Z</time></trkpt><trkpt lat="46.1402685" lon="9.5274725"><ele>209.71428571428572</ele><time>2026-04-26T08:41:04.7Z</time></trkpt><trkpt lat="46.1403368" lon="9.5274756"><ele>209.85714285714286</ele><time>2026-04-26T08:41:05.698Z</time></trkpt><trkpt lat="46.1404077" lon="9.5274765"><ele>210.0</ele><time>2026-04-26T08:41:06.699Z</time></trkpt><trkpt lat="46.1404755" lon="9.5274829"><ele>210.0</ele><time>2026-04-26T08:41:07.699Z</time></trkpt><trkpt lat="46.1405472" lon="9.5274845"><ele>210.0</ele><time>2026-04-26T08:41:08.7Z</time></trkpt><trkpt lat="46.1406145" lon="9.5274873"><ele>210.0</ele><time>2026-04-26T08:41:09.7Z</time></trkpt><trkpt lat="46.140684" lon="9.5274922"><ele>210.0</ele><time>2026-04-26T08:41:10.699Z</time></trkpt><trkpt lat="46.1407528" lon="9.5274973"><ele>210.0</ele><time>2026-04-26T08:41:11.699Z</time></trkpt><trkpt lat="46.1408281" lon="9.527509"><ele>210.0</ele><time>2026-04-26T08:41:12.7Z</time></trkpt><trkpt lat="46.1409141" lon="9.5275121"><ele>210.0</ele><time>2026-04-26T08:41:13.7Z</time></trkpt><trkpt lat="46.1409889" lon="9.5275113"><ele>210.42857142857142</ele><time>2026-04-26T08:41:14.699Z</time></trkpt><trkpt lat="46.1410637" lon="9.5275095"><ele>210.85714285714286</ele><time>2026-04-26T08:41:15.7Z</time></trkpt><trkpt lat="46.1411378" lon="9.5275174"><ele>211.28571428571428</ele><time>2026-04-26T08:41:16.698Z</time></trkpt><trkpt lat="46.1412122" lon="9.5275151"><ele>211.71428571428572</ele><time>2026-04-26T08:41:17.699Z</time></trkpt><trkpt lat="46.1412825" lon="9.5275175"><ele>212.14285714285714</ele><time>2026-04-26T08:41:18.699Z</time></trkpt><trkpt lat="46.1413534" lon="9.5275242"><ele>212.57142857142856</ele><time>2026-04-26T08:41:19.7Z</time></trkpt><trkpt lat="46.1414264" lon="9.5275249"><ele>213.0</ele><time>2026-04-26T08:41:20.699Z</time></trkpt><trkpt lat="46.1414933" lon="9.5275316"><ele>213.0</ele><time>2026-04-26T08:41:21.7Z</time></trkpt><trkpt lat="46.1415599" lon="9.5275452"><ele>213.0</ele><time>2026-04-26T08:41:22.7Z</time></trkpt><trkpt lat="46.1416853" lon="9.5275465"><ele>213.0</ele><time>2026-04-26T08:41:24.7Z</time></trkpt><trkpt lat="46.1417587" lon="9.5275464"><ele>213.0</ele><time>2026-04-26T08:41:25.7Z</time></trkpt><trkpt lat="46.1418264" lon="9.527544"><ele>213.0</ele><time>2026-04-26T08:41:26.7Z</time></trkpt><trkpt lat="46.1418945" lon="9.527547"><ele>213.0</ele><time>2026-04-26T08:41:27.699Z</time></trkpt><trkpt lat="46.142026" lon="9.5275409"><ele>213.0</ele><time>2026-04-26T08:41:29.699Z</time></trkpt><trkpt lat="46.1420915" lon="9.5275354"><ele>213.0</ele><time>2026-04-26T08:41:30.7Z</time></trkpt><trkpt lat="46.1421578" lon="9.5275317"><ele>213.0</ele><time>2026-04-26T08:41:31.7Z</time></trkpt><trkpt lat="46.1422283" lon="9.5275286"><ele>213.0</ele><time>2026-04-26T08:41:32.699Z</time></trkpt><trkpt lat="46.1422977" lon="9.5275333"><ele>213.0</ele><time>2026-04-26T08:41:33.7Z</time></trkpt><trkpt lat="46.1423635" lon="9.5275305"><ele>213.0</ele><time>2026-04-26T08:41:34.7Z</time></trkpt><trkpt lat="46.1424893" lon="9.5275415"><ele>212.83333333333334</ele><time>2026-04-26T08:41:36.701Z</time></trkpt><trkpt lat="46.1426199" lon="9.5275557"><ele>212.66666666666669</ele><time>2026-04-26T08:41:38.7Z</time></trkpt><trkpt lat="46.1426891" lon="9.5275519"><ele>212.5</ele><time>2026-04-26T08:41:39.7Z</time></trkpt><trkpt lat="46.1427555" lon="9.5275528"><ele>212.33333333333334</ele><time>2026-04-26T08:41:40.7Z</time></trkpt><trkpt lat="46.1428219" lon="9.5275513"><ele>212.16666666666669</ele><time>2026-04-26T08:41:41.7Z</time></trkpt><trkpt lat="46.1429" lon="9.5275628"><ele>212.0</ele><time>2026-04-26T08:41:42.699Z</time></trkpt><trkpt lat="46.1430227" lon="9.5275764"><ele>212.00000000000003</ele><time>2026-04-26T08:41:44.7Z</time></trkpt><trkpt lat="46.14309" lon="9.5275846"><ele>212.0</ele><time>2026-04-26T08:41:45.699Z</time></trkpt><trkpt lat="46.1431536" lon="9.527589"><ele>212.0</ele><time>2026-04-26T08:41:46.7Z</time></trkpt><trkpt lat="46.1432174" lon="9.5275909"><ele>212.0</ele><time>2026-04-26T08:41:47.7Z</time></trkpt><trkpt lat="46.143351" lon="9.527584"><ele>212.00000000000003</ele><time>2026-04-26T08:41:49.699Z</time></trkpt><trkpt lat="46.1434138" lon="9.5275934"><ele>212.0</ele><time>2026-04-26T08:41:50.7Z</time></trkpt><trkpt lat="46.1435303" lon="9.5275973"><ele>212.25</ele><time>2026-04-26T08:41:52.699Z</time></trkpt><trkpt lat="46.1436537" lon="9.5276013"><ele>212.5</ele><time>2026-04-26T08:41:54.7Z</time></trkpt><trkpt lat="46.1437657" lon="9.5276055"><ele>212.75</ele><time>2026-04-26T08:41:56.7Z</time></trkpt><trkpt lat="46.1438811" lon="9.5276057"><ele>213.0</ele><time>2026-04-26T08:41:58.699Z</time></trkpt><trkpt lat="46.1439943" lon="9.5276086"><ele>213.60000000000002</ele><time>2026-04-26T08:42:00.699Z</time></trkpt><trkpt lat="46.1441076" lon="9.5276044"><ele>214.20000000000002</ele><time>2026-04-26T08:42:02.699Z</time></trkpt><trkpt lat="46.1442129" lon="9.5275963"><ele>214.8</ele><time>2026-04-26T08:42:04.699Z</time></trkpt><trkpt lat="46.144276" lon="9.5276037"><ele>215.4</ele><time>2026-04-26T08:42:05.7Z</time></trkpt><trkpt lat="46.1443827" lon="9.5275952"><ele>216.0</ele><time>2026-04-26T08:42:07.7Z</time></trkpt><trkpt lat="46.1444898" lon="9.5276042"><ele>216.0</ele><time>2026-04-26T08:42:09.699Z</time></trkpt><trkpt lat="46.1445956" lon="9.5276203"><ele>216.0</ele><time>2026-04-26T08:42:11.699Z</time></trkpt><trkpt lat="46.144677" lon="9.5276138"><ele>216.0</ele><time>2026-04-26T08:42:13.699Z</time></trkpt><trkpt lat="46.1447635" lon="9.5276179"><ele>216.0</ele><time>2026-04-26T08:42:15.7Z</time></trkpt><trkpt lat="46.1448543" lon="9.5276102"><ele>216.0</ele><time>2026-04-26T08:42:17.7Z</time></trkpt><trkpt lat="46.1449321" lon="9.5276144"><ele>216.0</ele><time>2026-04-26T08:42:19.7Z</time></trkpt><trkpt lat="46.1450319" lon="9.5276246"><ele>216.5</ele><time>2026-04-26T08:42:21.701Z</time></trkpt><trkpt lat="46.145113" lon="9.5276287"><ele>217.0</ele><time>2026-04-26T08:42:23.699Z</time></trkpt><trkpt lat="46.1451971" lon="9.5276256"><ele>217.5</ele><time>2026-04-26T08:42:25.7Z</time></trkpt><trkpt lat="46.1452785" lon="9.5276355"><ele>218.0</ele><time>2026-04-26T08:42:27.698Z</time></trkpt><trkpt lat="46.1453585" lon="9.5276338"><ele>218.5</ele><time>2026-04-26T08:42:29.7Z</time></trkpt><trkpt lat="46.1454422" lon="9.5276346"><ele>219.0</ele><time>2026-04-26T08:42:31.701Z</time></trkpt><trkpt lat="46.1455092" lon="9.527632"><ele>219.0</ele><time>2026-04-26T08:42:33.7Z</time></trkpt><trkpt lat="46.1456042" lon="9.5276399"><ele>219.0</ele><time>2026-04-26T08:42:36.699Z</time></trkpt><trkpt lat="46.1456744" lon="9.5276464"><ele>219.0</ele><time>2026-04-26T08:42:38.7Z</time></trkpt><trkpt lat="46.1457513" lon="9.5276476"><ele>219.0</ele><time>2026-04-26T08:42:40.7Z</time></trkpt><trkpt lat="46.145824" lon="9.5276569"><ele>219.0</ele><time>2026-04-26T08:42:42.699Z</time></trkpt><trkpt lat="46.1458965" lon="9.5276586"><ele>219.0</ele><time>2026-04-26T08:42:44.699Z</time></trkpt><trkpt lat="46.1459932" lon="9.5276483"><ele>219.33333333333334</ele><time>2026-04-26T08:42:47.699Z</time></trkpt><trkpt lat="46.1460643" lon="9.5276379"><ele>219.66666666666669</ele><time>2026-04-26T08:42:49.7Z</time></trkpt><trkpt lat="46.1461343" lon="9.5276248"><ele>220.0</ele><time>2026-04-26T08:42:51.699Z</time></trkpt><trkpt lat="46.1462205" lon="9.5276073"><ele>220.33333333333334</ele><time>2026-04-26T08:42:54.7Z</time></trkpt><trkpt lat="46.1462976" lon="9.5276107"><ele>220.66666666666669</ele><time>2026-04-26T08:42:58.701Z</time></trkpt><trkpt lat="46.1463644" lon="9.5276698"><ele>221.0</ele><time>2026-04-26T08:43:17.701Z</time></trkpt><trkpt lat="46.1464403" lon="9.5276404"><ele>221.00000000000003</ele><time>2026-04-26T08:43:22.699Z</time></trkpt><trkpt lat="46.1464983" lon="9.5275437"><ele>221.0</ele><time>2026-04-26T08:43:25.699Z</time></trkpt><trkpt lat="46.1465377" lon="9.527454"><ele>221.0</ele><time>2026-04-26T08:43:27.699Z</time></trkpt><trkpt lat="46.1465839" lon="9.5273422"><ele>221.0</ele><time>2026-04-26T08:43:29.699Z</time></trkpt><trkpt lat="46.1466262" lon="9.5272214"><ele>221.00000000000003</ele><time>2026-04-26T08:43:31.699Z</time></trkpt><trkpt lat="46.1466618" lon="9.5270851"><ele>221.0</ele><time>2026-04-26T08:43:33.7Z</time></trkpt><trkpt lat="46.1467128" lon="9.5269382"><ele>221.33333333333334</ele><time>2026-04-26T08:43:35.699Z</time></trkpt><trkpt lat="46.1467385" lon="9.5268542"><ele>221.66666666666669</ele><time>2026-04-26T08:43:36.7Z</time></trkpt><trkpt lat="46.1468164" lon="9.526711"><ele>222.0</ele><time>2026-04-26T08:43:38.699Z</time></trkpt><trkpt lat="46.1468531" lon="9.5266207"><ele>222.33333333333331</ele><time>2026-04-26T08:43:39.699Z</time></trkpt><trkpt lat="46.1468874" lon="9.5265336"><ele>222.66666666666666</ele><time>2026-04-26T08:43:40.699Z</time></trkpt><trkpt lat="46.1469238" lon="9.5264557"><ele>223.0</ele><time>2026-04-26T08:43:41.699Z</time></trkpt><trkpt lat="46.1469671" lon="9.5263782"><ele>223.0</ele><time>2026-04-26T08:43:42.699Z</time></trkpt><trkpt lat="46.1470025" lon="9.5262958"><ele>223.0</ele><time>2026-04-26T08:43:43.7Z</time></trkpt><trkpt lat="46.1470383" lon="9.5262203"><ele>223.0</ele><time>2026-04-26T08:43:44.7Z</time></trkpt><trkpt lat="46.1471185" lon="9.5260675"><ele>223.0</ele><time>2026-04-26T08:43:46.7Z</time></trkpt><trkpt lat="46.1471562" lon="9.5259819"><ele>223.0</ele><time>2026-04-26T08:43:47.7Z</time></trkpt><trkpt lat="46.1472305" lon="9.5258263"><ele>223.16666666666666</ele><time>2026-04-26T08:43:49.699Z</time></trkpt><trkpt lat="46.1472793" lon="9.5257591"><ele>223.33333333333331</ele><time>2026-04-26T08:43:50.701Z</time></trkpt><trkpt lat="46.14732" lon="9.5256817"><ele>223.5</ele><time>2026-04-26T08:43:51.7Z</time></trkpt><trkpt lat="46.1473583" lon="9.5255954"><ele>223.66666666666669</ele><time>2026-04-26T08:43:52.701Z</time></trkpt><trkpt lat="46.1473958" lon="9.5255136"><ele>223.83333333333334</ele><time>2026-04-26T08:43:53.7Z</time></trkpt><trkpt lat="46.1474414" lon="9.5254405"><ele>224.0</ele><time>2026-04-26T08:43:54.699Z</time></trkpt><trkpt lat="46.1475039" lon="9.5252832"><ele>224.00000000000003</ele><time>2026-04-26T08:43:56.699Z</time></trkpt><trkpt lat="46.1475433" lon="9.5252053"><ele>224.0</ele><time>2026-04-26T08:43:57.7Z</time></trkpt><trkpt lat="46.1475808" lon="9.5251207"><ele>224.0</ele><time>2026-04-26T08:43:58.699Z</time></trkpt><trkpt lat="46.1476163" lon="9.5250419"><ele>224.0</ele><time>2026-04-26T08:43:59.699Z</time></trkpt><trkpt lat="46.1476518" lon="9.5249615"><ele>224.00000000000003</ele><time>2026-04-26T08:44:00.7Z</time></trkpt><trkpt lat="46.1476893" lon="9.5248797"><ele>224.0</ele><time>2026-04-26T08:44:01.699Z</time></trkpt><trkpt lat="46.1477585" lon="9.5247365"><ele>224.0</ele><time>2026-04-26T08:44:03.699Z</time></trkpt><trkpt lat="46.1478355" lon="9.5246069"><ele>223.99999999999997</ele><time>2026-04-26T08:44:05.699Z</time></trkpt><trkpt lat="46.1479166" lon="9.5244919"><ele>223.99999999999997</ele><time>2026-04-26T08:44:07.699Z</time></trkpt><trkpt lat="46.1479663" lon="9.5243393"><ele>224.0</ele><time>2026-04-26T08:44:09.7Z</time></trkpt><trkpt lat="46.148005" lon="9.5242577"><ele>224.0</ele><time>2026-04-26T08:44:10.699Z</time></trkpt><trkpt lat="46.14805" lon="9.5241737"><ele>223.85714285714286</ele><time>2026-04-26T08:44:11.7Z</time></trkpt><trkpt lat="46.1480947" lon="9.5240848"><ele>223.71428571428572</ele><time>2026-04-26T08:44:12.701Z</time></trkpt><trkpt lat="46.1481372" lon="9.523997"><ele>223.57142857142856</ele><time>2026-04-26T08:44:13.7Z</time></trkpt><trkpt lat="46.1481793" lon="9.5239171"><ele>223.42857142857144</ele><time>2026-04-26T08:44:14.7Z</time></trkpt><trkpt lat="46.1482193" lon="9.523828"><ele>223.28571428571428</ele><time>2026-04-26T08:44:15.699Z</time></trkpt><trkpt lat="46.1482595" lon="9.5237359"><ele>223.14285714285714</ele><time>2026-04-26T08:44:16.701Z</time></trkpt><trkpt lat="46.1483079" lon="9.5236529"><ele>223.0</ele><time>2026-04-26T08:44:17.7Z</time></trkpt><trkpt lat="46.1483464" lon="9.5235589"><ele>222.83333333333331</ele><time>2026-04-26T08:44:18.699Z</time></trkpt><trkpt lat="46.1483861" lon="9.5234703"><ele>222.66666666666666</ele><time>2026-04-26T08:44:19.7Z</time></trkpt><trkpt lat="46.1484303" lon="9.5233786"><ele>222.5</ele><time>2026-04-26T08:44:20.7Z</time></trkpt><trkpt lat="46.1484765" lon="9.523266"><ele>222.33333333333331</ele><time>2026-04-26T08:44:21.701Z</time></trkpt><trkpt lat="46.1485118" lon="9.5231639"><ele>222.16666666666666</ele><time>2026-04-26T08:44:22.701Z</time></trkpt><trkpt lat="46.1485476" lon="9.5230543"><ele>222.0</ele><time>2026-04-26T08:44:23.699Z</time></trkpt><trkpt lat="46.1485856" lon="9.5229511"><ele>221.5</ele><time>2026-04-26T08:44:24.7Z</time></trkpt><trkpt lat="46.1486178" lon="9.5228461"><ele>221.0</ele><time>2026-04-26T08:44:25.701Z</time></trkpt><trkpt lat="46.148651" lon="9.5227473"><ele>220.5</ele><time>2026-04-26T08:44:26.7Z</time></trkpt><trkpt lat="46.148683" lon="9.5226241"><ele>220.0</ele><time>2026-04-26T08:44:27.7Z</time></trkpt><trkpt lat="46.148727" lon="9.5225081"><ele>219.5</ele><time>2026-04-26T08:44:28.7Z</time></trkpt><trkpt lat="46.148766" lon="9.5223966"><ele>219.0</ele><time>2026-04-26T08:44:29.699Z</time></trkpt><trkpt lat="46.1488556" lon="9.5221572"><ele>218.83333333333334</ele><time>2026-04-26T08:44:31.7Z</time></trkpt><trkpt lat="46.1488791" lon="9.5220525"><ele>218.66666666666669</ele><time>2026-04-26T08:44:32.699Z</time></trkpt><trkpt lat="46.1489183" lon="9.5219358"><ele>218.5</ele><time>2026-04-26T08:44:33.699Z</time></trkpt><trkpt lat="46.1489542" lon="9.5218245"><ele>218.33333333333334</ele><time>2026-04-26T08:44:34.7Z</time></trkpt><trkpt lat="46.1489912" lon="9.5217204"><ele>218.16666666666669</ele><time>2026-04-26T08:44:35.699Z</time></trkpt><trkpt lat="46.1490405" lon="9.521617"><ele>218.0</ele><time>2026-04-26T08:44:36.701Z</time></trkpt><trkpt lat="46.1490707" lon="9.5215036"><ele>218.16666666666669</ele><time>2026-04-26T08:44:37.699Z</time></trkpt><trkpt lat="46.1491057" lon="9.5213967"><ele>218.33333333333334</ele><time>2026-04-26T08:44:38.701Z</time></trkpt><trkpt lat="46.1491462" lon="9.5212792"><ele>218.5</ele><time>2026-04-26T08:44:39.701Z</time></trkpt><trkpt lat="46.1491838" lon="9.5211706"><ele>218.66666666666669</ele><time>2026-04-26T08:44:40.7Z</time></trkpt><trkpt lat="46.1492254" lon="9.5210544"><ele>218.83333333333334</ele><time>2026-04-26T08:44:41.699Z</time></trkpt><trkpt lat="46.1492596" lon="9.5209404"><ele>219.0</ele><time>2026-04-26T08:44:42.699Z</time></trkpt><trkpt lat="46.1492971" lon="9.5208313"><ele>219.0</ele><time>2026-04-26T08:44:43.701Z</time></trkpt><trkpt lat="46.1493319" lon="9.5207195"><ele>219.0</ele><time>2026-04-26T08:44:44.699Z</time></trkpt><trkpt lat="46.1493663" lon="9.5206061"><ele>219.0</ele><time>2026-04-26T08:44:45.7Z</time></trkpt><trkpt lat="46.1494064" lon="9.5204935"><ele>219.0</ele><time>2026-04-26T08:44:46.699Z</time></trkpt><trkpt lat="46.1494465" lon="9.520383"><ele>219.0</ele><time>2026-04-26T08:44:47.699Z</time></trkpt><trkpt lat="46.1494833" lon="9.5202747"><ele>219.0</ele><time>2026-04-26T08:44:48.699Z</time></trkpt><trkpt lat="46.1495237" lon="9.5201577"><ele>218.0</ele><time>2026-04-26T08:44:49.7Z</time></trkpt><trkpt lat="46.1495696" lon="9.5200448"><ele>216.99999999999997</ele><time>2026-04-26T08:44:50.7Z</time></trkpt><trkpt lat="46.1496078" lon="9.519932"><ele>215.99999999999997</ele><time>2026-04-26T08:44:51.7Z</time></trkpt><trkpt lat="46.149655" lon="9.5197965"><ele>215.0</ele><time>2026-04-26T08:44:52.699Z</time></trkpt><trkpt lat="46.1496919" lon="9.5196829"><ele>214.0</ele><time>2026-04-26T08:44:53.7Z</time></trkpt><trkpt lat="46.1497241" lon="9.51957"><ele>214.33333333333331</ele><time>2026-04-26T08:44:54.7Z</time></trkpt><trkpt lat="46.1497632" lon="9.5194551"><ele>214.66666666666666</ele><time>2026-04-26T08:44:55.699Z</time></trkpt><trkpt lat="46.1497965" lon="9.5193518"><ele>215.0</ele><time>2026-04-26T08:44:56.7Z</time></trkpt><trkpt lat="46.1498438" lon="9.5192413"><ele>215.33333333333331</ele><time>2026-04-26T08:44:57.699Z</time></trkpt><trkpt lat="46.1498791" lon="9.5191328"><ele>215.66666666666666</ele><time>2026-04-26T08:44:58.699Z</time></trkpt><trkpt lat="46.1499191" lon="9.5190296"><ele>216.0</ele><time>2026-04-26T08:44:59.7Z</time></trkpt><trkpt lat="46.1499626" lon="9.5189353"><ele>216.0</ele><time>2026-04-26T08:45:00.701Z</time></trkpt><trkpt lat="46.1500085" lon="9.5188656"><ele>216.0</ele><time>2026-04-26T08:45:01.701Z</time></trkpt><trkpt lat="46.1500462" lon="9.5187875"><ele>216.0</ele><time>2026-04-26T08:45:02.7Z</time></trkpt><trkpt lat="46.1500674" lon="9.5186984"><ele>216.0</ele><time>2026-04-26T08:45:03.699Z</time></trkpt><trkpt lat="46.1500822" lon="9.518539"><ele>216.0</ele><time>2026-04-26T08:45:05.7Z</time></trkpt><trkpt lat="46.1500933" lon="9.5184219"><ele>216.0</ele><time>2026-04-26T08:45:07.701Z</time></trkpt><trkpt lat="46.15005" lon="9.5183426"><ele>212.0</ele><time>2026-04-26T08:45:09.7Z</time></trkpt><trkpt lat="46.1499645" lon="9.5184007"><ele>212.0</ele><time>2026-04-26T08:45:12.7Z</time></trkpt><trkpt lat="46.1499012" lon="9.5184769"><ele>212.0</ele><time>2026-04-26T08:45:15.7Z</time></trkpt><trkpt lat="46.1498408" lon="9.5184495"><ele>208.0</ele><time>2026-04-26T08:46:03.7Z</time></trkpt></trkseg><trkseg><trkpt lat="46.1499046" lon="9.5184841"><ele>211.50000000000003</ele><time>2026-04-26T08:59:32.7Z</time></trkpt><trkpt lat="46.1498693" lon="9.5186206"><ele>211.0</ele><time>2026-04-26T09:01:00.742Z</time></trkpt><trkpt lat="46.1498669" lon="9.5187391"><ele>210.5</ele><time>2026-04-26T09:01:02.701Z</time></trkpt><trkpt lat="46.1498654" lon="9.5188368"><ele>210.0</ele><time>2026-04-26T09:01:04.701Z</time></trkpt><trkpt lat="46.149853" lon="9.5189438"><ele>209.50000000000003</ele><time>2026-04-26T09:01:06.767Z</time></trkpt><trkpt lat="46.1498353" lon="9.5190559"><ele>209.0</ele><time>2026-04-26T09:01:08.701Z</time></trkpt><trkpt lat="46.149804" lon="9.5191936"><ele>209.00000000000003</ele><time>2026-04-26T09:01:10.766Z</time></trkpt><trkpt lat="46.1497697" lon="9.519289"><ele>209.0</ele><time>2026-04-26T09:01:12.753Z</time></trkpt><trkpt lat="46.1497309" lon="9.5193945"><ele>209.0</ele><time>2026-04-26T09:01:14.699Z</time></trkpt><trkpt lat="46.149694" lon="9.5194994"><ele>209.0</ele><time>2026-04-26T09:01:16.7Z</time></trkpt><trkpt lat="46.149652" lon="9.5196077"><ele>209.00000000000003</ele><time>2026-04-26T09:01:18.699Z</time></trkpt><trkpt lat="46.1496101" lon="9.5197197"><ele>209.0</ele><time>2026-04-26T09:01:20.748Z</time></trkpt><trkpt lat="46.1495626" lon="9.5198265"><ele>209.83333333333334</ele><time>2026-04-26T09:01:22.701Z</time></trkpt><trkpt lat="46.1495194" lon="9.519935"><ele>210.66666666666669</ele><time>2026-04-26T09:01:24.701Z</time></trkpt><trkpt lat="46.1494824" lon="9.5200474"><ele>211.5</ele><time>2026-04-26T09:01:26.701Z</time></trkpt><trkpt lat="46.1494572" lon="9.5201648"><ele>212.33333333333331</ele><time>2026-04-26T09:01:28.7Z</time></trkpt><trkpt lat="46.1494261" lon="9.52027"><ele>213.16666666666666</ele><time>2026-04-26T09:01:30.7Z</time></trkpt><trkpt lat="46.1493884" lon="9.5203757"><ele>214.0</ele><time>2026-04-26T09:01:32.701Z</time></trkpt><trkpt lat="46.149353" lon="9.5204872"><ele>214.83333333333331</ele><time>2026-04-26T09:01:34.7Z</time></trkpt><trkpt lat="46.1493105" lon="9.5205943"><ele>215.66666666666666</ele><time>2026-04-26T09:01:36.7Z</time></trkpt><trkpt lat="46.149272" lon="9.5206961"><ele>216.5</ele><time>2026-04-26T09:01:38.701Z</time></trkpt><trkpt lat="46.1492394" lon="9.5208029"><ele>217.33333333333331</ele><time>2026-04-26T09:01:40.7Z</time></trkpt><trkpt lat="46.1492077" lon="9.5209036"><ele>218.16666666666666</ele><time>2026-04-26T09:01:42.7Z</time></trkpt><trkpt lat="46.1491777" lon="9.5210051"><ele>219.0</ele><time>2026-04-26T09:01:44.699Z</time></trkpt><trkpt lat="46.1491461" lon="9.5210982"><ele>219.0</ele><time>2026-04-26T09:01:46.7Z</time></trkpt><trkpt lat="46.1491098" lon="9.521203"><ele>219.0</ele><time>2026-04-26T09:01:48.7Z</time></trkpt><trkpt lat="46.1490811" lon="9.5213011"><ele>219.0</ele><time>2026-04-26T09:01:50.7Z</time></trkpt><trkpt lat="46.1490481" lon="9.5214065"><ele>219.0</ele><time>2026-04-26T09:01:52.7Z</time></trkpt><trkpt lat="46.1490069" lon="9.5215161"><ele>219.0</ele><time>2026-04-26T09:01:54.701Z</time></trkpt><trkpt lat="46.1489688" lon="9.5216154"><ele>219.0</ele><time>2026-04-26T09:01:56.7Z</time></trkpt><trkpt lat="46.1489262" lon="9.5217209"><ele>219.0</ele><time>2026-04-26T09:01:58.7Z</time></trkpt><trkpt lat="46.1488881" lon="9.521824"><ele>219.0</ele><time>2026-04-26T09:02:00.7Z</time></trkpt><trkpt lat="46.1488531" lon="9.5219207"><ele>219.0</ele><time>2026-04-26T09:02:02.7Z</time></trkpt><trkpt lat="46.1488169" lon="9.5220251"><ele>219.0</ele><time>2026-04-26T09:02:04.7Z</time></trkpt><trkpt lat="46.1487778" lon="9.5221333"><ele>219.0</ele><time>2026-04-26T09:02:06.699Z</time></trkpt><trkpt lat="46.1487423" lon="9.5222352"><ele>219.0</ele><time>2026-04-26T09:02:08.699Z</time></trkpt><trkpt lat="46.1487069" lon="9.522339"><ele>219.0</ele><time>2026-04-26T09:02:10.7Z</time></trkpt><trkpt lat="46.1486708" lon="9.5224318"><ele>219.0</ele><time>2026-04-26T09:02:12.701Z</time></trkpt><trkpt lat="46.14864" lon="9.5225267"><ele>219.0</ele><time>2026-04-26T09:02:14.7Z</time></trkpt><trkpt lat="46.1486132" lon="9.5226262"><ele>219.0</ele><time>2026-04-26T09:02:16.701Z</time></trkpt><trkpt lat="46.1485824" lon="9.5227345"><ele>219.0</ele><time>2026-04-26T09:02:18.701Z</time></trkpt><trkpt lat="46.1485483" lon="9.522835"><ele>219.0</ele><time>2026-04-26T09:02:20.701Z</time></trkpt><trkpt lat="46.148511" lon="9.5229309"><ele>219.6</ele><time>2026-04-26T09:02:22.701Z</time></trkpt><trkpt lat="46.1484753" lon="9.5230458"><ele>220.2</ele><time>2026-04-26T09:02:24.701Z</time></trkpt><trkpt lat="46.1484373" lon="9.5231581"><ele>220.79999999999998</ele><time>2026-04-26T09:02:26.7Z</time></trkpt><trkpt lat="46.1483915" lon="9.5232746"><ele>221.39999999999998</ele><time>2026-04-26T09:02:28.7Z</time></trkpt><trkpt lat="46.1483432" lon="9.5233928"><ele>222.0</ele><time>2026-04-26T09:02:30.7Z</time></trkpt><trkpt lat="46.1482912" lon="9.5235025"><ele>222.0</ele><time>2026-04-26T09:02:32.7Z</time></trkpt><trkpt lat="46.1482338" lon="9.5236227"><ele>222.0</ele><time>2026-04-26T09:02:34.701Z</time></trkpt><trkpt lat="46.1481785" lon="9.523736"><ele>222.0</ele><time>2026-04-26T09:02:36.699Z</time></trkpt><trkpt lat="46.1481321" lon="9.5238369"><ele>222.0</ele><time>2026-04-26T09:02:38.7Z</time></trkpt><trkpt lat="46.1480761" lon="9.5239435"><ele>222.0</ele><time>2026-04-26T09:02:40.7Z</time></trkpt><trkpt lat="46.1480325" lon="9.5240314"><ele>222.0</ele><time>2026-04-26T09:02:42.7Z</time></trkpt><trkpt lat="46.1479768" lon="9.5241329"><ele>222.16666666666666</ele><time>2026-04-26T09:02:44.7Z</time></trkpt><trkpt lat="46.1479293" lon="9.5242335"><ele>222.33333333333331</ele><time>2026-04-26T09:02:46.7Z</time></trkpt><trkpt lat="46.1478621" lon="9.5243083"><ele>222.5</ele><time>2026-04-26T09:02:48.701Z</time></trkpt><trkpt lat="46.1477971" lon="9.5244081"><ele>222.66666666666666</ele><time>2026-04-26T09:02:50.7Z</time></trkpt><trkpt lat="46.1477552" lon="9.5245346"><ele>222.83333333333331</ele><time>2026-04-26T09:02:52.701Z</time></trkpt><trkpt lat="46.1477183" lon="9.5246124"><ele>223.0</ele><time>2026-04-26T09:02:53.7Z</time></trkpt><trkpt lat="46.1476783" lon="9.5247298"><ele>223.2</ele><time>2026-04-26T09:02:55.701Z</time></trkpt><trkpt lat="46.1476152" lon="9.5248491"><ele>223.4</ele><time>2026-04-26T09:02:57.7Z</time></trkpt><trkpt lat="46.1475492" lon="9.5249653"><ele>223.59999999999997</ele><time>2026-04-26T09:02:59.699Z</time></trkpt><trkpt lat="46.1474864" lon="9.5250862"><ele>223.79999999999998</ele><time>2026-04-26T09:03:01.7Z</time></trkpt><trkpt lat="46.1474368" lon="9.5252019"><ele>224.0</ele><time>2026-04-26T09:03:03.701Z</time></trkpt><trkpt lat="46.1473712" lon="9.5253272"><ele>223.0</ele><time>2026-04-26T09:03:05.701Z</time></trkpt><trkpt lat="46.147305" lon="9.5254514"><ele>221.99999999999997</ele><time>2026-04-26T09:03:07.701Z</time></trkpt><trkpt lat="46.1472448" lon="9.52557"><ele>220.99999999999997</ele><time>2026-04-26T09:03:09.7Z</time></trkpt><trkpt lat="46.1471868" lon="9.5257022"><ele>220.0</ele><time>2026-04-26T09:03:11.701Z</time></trkpt><trkpt lat="46.1471218" lon="9.5258374"><ele>219.0</ele><time>2026-04-26T09:03:13.701Z</time></trkpt><trkpt lat="46.1470628" lon="9.5259802"><ele>219.0</ele><time>2026-04-26T09:03:15.7Z</time></trkpt><trkpt lat="46.1469999" lon="9.5261102"><ele>218.99999999999997</ele><time>2026-04-26T09:03:17.701Z</time></trkpt><trkpt lat="46.1469471" lon="9.5262495"><ele>218.99999999999997</ele><time>2026-04-26T09:03:19.7Z</time></trkpt><trkpt lat="46.1468752" lon="9.5263796"><ele>219.0</ele><time>2026-04-26T09:03:21.7Z</time></trkpt><trkpt lat="46.146836" lon="9.5264581"><ele>219.0</ele><time>2026-04-26T09:03:22.7Z</time></trkpt><trkpt lat="46.1467682" lon="9.5265887"><ele>219.39999999999998</ele><time>2026-04-26T09:03:24.7Z</time></trkpt><trkpt lat="46.1467078" lon="9.5267406"><ele>219.79999999999998</ele><time>2026-04-26T09:03:26.7Z</time></trkpt><trkpt lat="46.1466699" lon="9.5268803"><ele>220.20000000000002</ele><time>2026-04-26T09:03:28.7Z</time></trkpt><trkpt lat="46.1466204" lon="9.5270109"><ele>220.60000000000002</ele><time>2026-04-26T09:03:30.701Z</time></trkpt><trkpt lat="46.1465668" lon="9.5271509"><ele>221.0</ele><time>2026-04-26T09:03:32.7Z</time></trkpt><trkpt lat="46.1465037" lon="9.527279"><ele>221.0</ele><time>2026-04-26T09:03:34.7Z</time></trkpt><trkpt lat="46.1464195" lon="9.5273815"><ele>221.00000000000003</ele><time>2026-04-26T09:03:36.701Z</time></trkpt><trkpt lat="46.1463594" lon="9.5274237"><ele>221.00000000000003</ele><time>2026-04-26T09:03:37.701Z</time></trkpt><trkpt lat="46.1462664" lon="9.5275054"><ele>221.0</ele><time>2026-04-26T09:03:39.7Z</time></trkpt><trkpt lat="46.1461499" lon="9.5275698"><ele>221.0</ele><time>2026-04-26T09:03:41.7Z</time></trkpt><trkpt lat="46.1460861" lon="9.5276048"><ele>221.00000000000003</ele><time>2026-04-26T09:03:42.701Z</time></trkpt><trkpt lat="46.1460225" lon="9.5276231"><ele>221.0</ele><time>2026-04-26T09:03:43.701Z</time></trkpt><trkpt lat="46.1459577" lon="9.5276273"><ele>221.0</ele><time>2026-04-26T09:03:44.7Z</time></trkpt><trkpt lat="46.1458831" lon="9.5276232"><ele>221.0</ele><time>2026-04-26T09:03:45.7Z</time></trkpt><trkpt lat="46.1458001" lon="9.5276235"><ele>221.0</ele><time>2026-04-26T09:03:46.7Z</time></trkpt><trkpt lat="46.1457183" lon="9.5276176"><ele>221.00000000000003</ele><time>2026-04-26T09:03:47.701Z</time></trkpt><trkpt lat="46.1456492" lon="9.5276"><ele>221.0</ele><time>2026-04-26T09:03:48.7Z</time></trkpt><trkpt lat="46.1455733" lon="9.5275993"><ele>220.66666666666669</ele><time>2026-04-26T09:03:49.699Z</time></trkpt><trkpt lat="46.1454971" lon="9.527597"><ele>220.33333333333334</ele><time>2026-04-26T09:03:50.701Z</time></trkpt><trkpt lat="46.14542" lon="9.5275878"><ele>220.0</ele><time>2026-04-26T09:03:51.7Z</time></trkpt><trkpt lat="46.1453292" lon="9.5275888"><ele>219.66666666666669</ele><time>2026-04-26T09:03:52.701Z</time></trkpt><trkpt lat="46.1452482" lon="9.5275846"><ele>219.33333333333334</ele><time>2026-04-26T09:03:53.7Z</time></trkpt><trkpt lat="46.1451561" lon="9.5275778"><ele>219.0</ele><time>2026-04-26T09:03:54.701Z</time></trkpt><trkpt lat="46.1450689" lon="9.5275754"><ele>219.0</ele><time>2026-04-26T09:03:55.701Z</time></trkpt><trkpt lat="46.1449793" lon="9.5275706"><ele>218.99999999999997</ele><time>2026-04-26T09:03:56.699Z</time></trkpt><trkpt lat="46.1448866" lon="9.5275732"><ele>218.99999999999997</ele><time>2026-04-26T09:03:57.701Z</time></trkpt><trkpt lat="46.1447994" lon="9.5275617"><ele>219.0</ele><time>2026-04-26T09:03:58.7Z</time></trkpt><trkpt lat="46.1447092" lon="9.527562"><ele>219.0</ele><time>2026-04-26T09:03:59.7Z</time></trkpt><trkpt lat="46.1446083" lon="9.5275653"><ele>218.39999999999998</ele><time>2026-04-26T09:04:00.701Z</time></trkpt><trkpt lat="46.1445172" lon="9.5275623"><ele>217.79999999999998</ele><time>2026-04-26T09:04:01.701Z</time></trkpt><trkpt lat="46.1444342" lon="9.5275577"><ele>217.20000000000002</ele><time>2026-04-26T09:04:02.7Z</time></trkpt><trkpt lat="46.1443382" lon="9.5275543"><ele>216.60000000000002</ele><time>2026-04-26T09:04:03.7Z</time></trkpt><trkpt lat="46.1442491" lon="9.5275526"><ele>216.0</ele><time>2026-04-26T09:04:04.7Z</time></trkpt><trkpt lat="46.1441586" lon="9.5275511"><ele>216.0</ele><time>2026-04-26T09:04:05.699Z</time></trkpt><trkpt lat="46.1440686" lon="9.5275461"><ele>216.00000000000003</ele><time>2026-04-26T09:04:06.7Z</time></trkpt><trkpt lat="46.1439722" lon="9.5275398"><ele>216.00000000000003</ele><time>2026-04-26T09:04:07.701Z</time></trkpt><trkpt lat="46.1438839" lon="9.5275342"><ele>216.0</ele><time>2026-04-26T09:04:08.701Z</time></trkpt><trkpt lat="46.1437942" lon="9.5275284"><ele>216.0</ele><time>2026-04-26T09:04:09.701Z</time></trkpt><trkpt lat="46.1437014" lon="9.5275228"><ele>215.5</ele><time>2026-04-26T09:04:10.699Z</time></trkpt><trkpt lat="46.1436123" lon="9.5275251"><ele>215.0</ele><time>2026-04-26T09:04:11.7Z</time></trkpt><trkpt lat="46.1435317" lon="9.5275177"><ele>214.5</ele><time>2026-04-26T09:04:12.701Z</time></trkpt><trkpt lat="46.1434534" lon="9.5275209"><ele>214.0</ele><time>2026-04-26T09:04:13.699Z</time></trkpt><trkpt lat="46.1433694" lon="9.5275168"><ele>213.5</ele><time>2026-04-26T09:04:14.7Z</time></trkpt><trkpt lat="46.1432909" lon="9.5275182"><ele>213.0</ele><time>2026-04-26T09:04:15.7Z</time></trkpt><trkpt lat="46.1432108" lon="9.5275163"><ele>212.83333333333334</ele><time>2026-04-26T09:04:16.7Z</time></trkpt><trkpt lat="46.1431347" lon="9.5275118"><ele>212.66666666666669</ele><time>2026-04-26T09:04:17.7Z</time></trkpt><trkpt lat="46.1430589" lon="9.5275138"><ele>212.5</ele><time>2026-04-26T09:04:18.7Z</time></trkpt><trkpt lat="46.1429753" lon="9.5275162"><ele>212.33333333333334</ele><time>2026-04-26T09:04:19.699Z</time></trkpt><trkpt lat="46.1428877" lon="9.5275131"><ele>212.16666666666669</ele><time>2026-04-26T09:04:20.701Z</time></trkpt><trkpt lat="46.1428018" lon="9.5275162"><ele>212.0</ele><time>2026-04-26T09:04:21.7Z</time></trkpt><trkpt lat="46.1427263" lon="9.5275105"><ele>212.0</ele><time>2026-04-26T09:04:22.701Z</time></trkpt><trkpt lat="46.1426457" lon="9.5275091"><ele>212.0</ele><time>2026-04-26T09:04:23.701Z</time></trkpt><trkpt lat="46.1425656" lon="9.5275009"><ele>212.0</ele><time>2026-04-26T09:04:24.7Z</time></trkpt><trkpt lat="46.1424865" lon="9.5274975"><ele>212.0</ele><time>2026-04-26T09:04:25.7Z</time></trkpt><trkpt lat="46.1423964" lon="9.5274889"><ele>212.0</ele><time>2026-04-26T09:04:26.701Z</time></trkpt><trkpt lat="46.1422688" lon="9.5274954"><ele>212.16666666666669</ele><time>2026-04-26T09:04:28.7Z</time></trkpt><trkpt lat="46.142194" lon="9.5274992"><ele>212.33333333333334</ele><time>2026-04-26T09:04:29.701Z</time></trkpt><trkpt lat="46.1420629" lon="9.5274939"><ele>212.5</ele><time>2026-04-26T09:04:31.7Z</time></trkpt><trkpt lat="46.1419861" lon="9.5274944"><ele>212.66666666666669</ele><time>2026-04-26T09:04:32.701Z</time></trkpt><trkpt lat="46.1419073" lon="9.5274877"><ele>212.83333333333334</ele><time>2026-04-26T09:04:33.7Z</time></trkpt><trkpt lat="46.1418242" lon="9.5274835"><ele>213.0</ele><time>2026-04-26T09:04:34.7Z</time></trkpt><trkpt lat="46.141747" lon="9.5274835"><ele>212.99999999999997</ele><time>2026-04-26T09:04:35.7Z</time></trkpt><trkpt lat="46.1416731" lon="9.5274844"><ele>213.0</ele><time>2026-04-26T09:04:36.7Z</time></trkpt><trkpt lat="46.1416037" lon="9.5274826"><ele>213.0</ele><time>2026-04-26T09:04:37.7Z</time></trkpt><trkpt lat="46.141533" lon="9.5274796"><ele>213.0</ele><time>2026-04-26T09:04:38.701Z</time></trkpt><trkpt lat="46.1414646" lon="9.5274803"><ele>213.0</ele><time>2026-04-26T09:04:39.7Z</time></trkpt><trkpt lat="46.1413979" lon="9.5274797"><ele>212.99999999999997</ele><time>2026-04-26T09:04:40.701Z</time></trkpt><trkpt lat="46.1413295" lon="9.5274739"><ele>213.0</ele><time>2026-04-26T09:04:41.7Z</time></trkpt><trkpt lat="46.1412563" lon="9.5274726"><ele>213.0</ele><time>2026-04-26T09:04:42.7Z</time></trkpt><trkpt lat="46.1411849" lon="9.5274677"><ele>213.0</ele><time>2026-04-26T09:04:43.7Z</time></trkpt><trkpt lat="46.1411061" lon="9.5274549"><ele>213.0</ele><time>2026-04-26T09:04:44.701Z</time></trkpt><trkpt lat="46.1410346" lon="9.5274493"><ele>213.0</ele><time>2026-04-26T09:04:45.7Z</time></trkpt><trkpt lat="46.1409688" lon="9.5274476"><ele>213.0</ele><time>2026-04-26T09:04:46.7Z</time></trkpt><trkpt lat="46.1408979" lon="9.527443"><ele>213.0</ele><time>2026-04-26T09:04:47.699Z</time></trkpt><trkpt lat="46.1407562" lon="9.5274396"><ele>212.4</ele><time>2026-04-26T09:04:49.7Z</time></trkpt><trkpt lat="46.140631" lon="9.5274397"><ele>211.8</ele><time>2026-04-26T09:04:51.701Z</time></trkpt><trkpt lat="46.1405585" lon="9.5274394"><ele>211.2</ele><time>2026-04-26T09:04:52.701Z</time></trkpt><trkpt lat="46.140494" lon="9.5274339"><ele>210.6</ele><time>2026-04-26T09:04:53.7Z</time></trkpt><trkpt lat="46.1403682" lon="9.5274309"><ele>210.0</ele><time>2026-04-26T09:04:55.7Z</time></trkpt><trkpt lat="46.1402509" lon="9.5274194"><ele>210.0</ele><time>2026-04-26T09:04:57.7Z</time></trkpt><trkpt lat="46.1401877" lon="9.5274192"><ele>210.0</ele><time>2026-04-26T09:04:58.7Z</time></trkpt><trkpt lat="46.140068" lon="9.5274103"><ele>210.0</ele><time>2026-04-26T09:05:00.7Z</time></trkpt><trkpt lat="46.1399517" lon="9.5273994"><ele>210.0</ele><time>2026-04-26T09:05:02.701Z</time></trkpt><trkpt lat="46.1398333" lon="9.5273983"><ele>210.0</ele><time>2026-04-26T09:05:04.701Z</time></trkpt><trkpt lat="46.1397272" lon="9.5273911"><ele>209.8</ele><time>2026-04-26T09:05:06.7Z</time></trkpt><trkpt lat="46.1396269" lon="9.5273745"><ele>209.6</ele><time>2026-04-26T09:05:08.7Z</time></trkpt><trkpt lat="46.1395278" lon="9.5273695"><ele>209.39999999999998</ele><time>2026-04-26T09:05:10.701Z</time></trkpt><trkpt lat="46.139425" lon="9.5273612"><ele>209.2</ele><time>2026-04-26T09:05:12.7Z</time></trkpt><trkpt lat="46.1393177" lon="9.52736"><ele>209.0</ele><time>2026-04-26T09:05:14.7Z</time></trkpt><trkpt lat="46.1392173" lon="9.5273568"><ele>209.0</ele><time>2026-04-26T09:05:16.7Z</time></trkpt><trkpt lat="46.1391123" lon="9.5273539"><ele>209.0</ele><time>2026-04-26T09:05:18.7Z</time></trkpt><trkpt lat="46.139008" lon="9.5273522"><ele>209.0</ele><time>2026-04-26T09:05:20.701Z</time></trkpt><trkpt lat="46.1388951" lon="9.5273518"><ele>209.0</ele><time>2026-04-26T09:05:22.701Z</time></trkpt><trkpt lat="46.138787" lon="9.5273554"><ele>209.0</ele><time>2026-04-26T09:05:24.701Z</time></trkpt><trkpt lat="46.1386795" lon="9.5273472"><ele>209.2</ele><time>2026-04-26T09:05:26.701Z</time></trkpt><trkpt lat="46.1385602" lon="9.5273492"><ele>209.39999999999998</ele><time>2026-04-26T09:05:28.7Z</time></trkpt><trkpt lat="46.1384429" lon="9.5273439"><ele>209.6</ele><time>2026-04-26T09:05:30.7Z</time></trkpt><trkpt lat="46.1383247" lon="9.5273342"><ele>209.8</ele><time>2026-04-26T09:05:32.7Z</time></trkpt><trkpt lat="46.1382558" lon="9.5273302"><ele>210.0</ele><time>2026-04-26T09:05:33.7Z</time></trkpt><trkpt lat="46.1381324" lon="9.527307"><ele>210.0</ele><time>2026-04-26T09:05:35.7Z</time></trkpt><trkpt lat="46.1380489" lon="9.5272046"><ele>210.0</ele><time>2026-04-26T09:05:37.7Z</time></trkpt><trkpt lat="46.1380308" lon="9.527117"><ele>210.0</ele><time>2026-04-26T09:05:38.7Z</time></trkpt><trkpt lat="46.1380327" lon="9.5270243"><ele>210.0</ele><time>2026-04-26T09:05:39.699Z</time></trkpt><trkpt lat="46.1380363" lon="9.5269288"><ele>210.0</ele><time>2026-04-26T09:05:40.699Z</time></trkpt><trkpt lat="46.1380391" lon="9.5268272"><ele>210.0</ele><time>2026-04-26T09:05:41.7Z</time></trkpt><trkpt lat="46.138044" lon="9.526717"><ele>210.0</ele><time>2026-04-26T09:05:42.701Z</time></trkpt><trkpt lat="46.1380407" lon="9.5265977"><ele>210.0</ele><time>2026-04-26T09:05:43.701Z</time></trkpt><trkpt lat="46.138049" lon="9.5264859"><ele>210.0</ele><time>2026-04-26T09:05:44.7Z</time></trkpt><trkpt lat="46.138054" lon="9.5263638"><ele>210.0</ele><time>2026-04-26T09:05:45.7Z</time></trkpt><trkpt lat="46.1380573" lon="9.5262377"><ele>210.0</ele><time>2026-04-26T09:05:46.701Z</time></trkpt><trkpt lat="46.1380633" lon="9.5261106"><ele>210.0</ele><time>2026-04-26T09:05:47.7Z</time></trkpt><trkpt lat="46.1380591" lon="9.5259935"><ele>209.83333333333334</ele><time>2026-04-26T09:05:48.701Z</time></trkpt><trkpt lat="46.1380642" lon="9.525876"><ele>209.66666666666669</ele><time>2026-04-26T09:05:49.701Z</time></trkpt><trkpt lat="46.1380655" lon="9.5257616"><ele>209.5</ele><time>2026-04-26T09:05:50.701Z</time></trkpt><trkpt lat="46.1380635" lon="9.5256426"><ele>209.33333333333334</ele><time>2026-04-26T09:05:51.701Z</time></trkpt><trkpt lat="46.1380637" lon="9.5255284"><ele>209.16666666666669</ele><time>2026-04-26T09:05:52.7Z</time></trkpt><trkpt lat="46.1380591" lon="9.5254164"><ele>209.0</ele><time>2026-04-26T09:05:53.7Z</time></trkpt><trkpt lat="46.1380525" lon="9.5253171"><ele>208.83333333333334</ele><time>2026-04-26T09:05:54.7Z</time></trkpt><trkpt lat="46.138051" lon="9.5252103"><ele>208.66666666666669</ele><time>2026-04-26T09:05:55.7Z</time></trkpt><trkpt lat="46.1380469" lon="9.5251016"><ele>208.5</ele><time>2026-04-26T09:05:56.7Z</time></trkpt><trkpt lat="46.1380429" lon="9.5249958"><ele>208.33333333333331</ele><time>2026-04-26T09:05:57.7Z</time></trkpt><trkpt lat="46.1380415" lon="9.5248937"><ele>208.16666666666666</ele><time>2026-04-26T09:05:58.701Z</time></trkpt><trkpt lat="46.1380435" lon="9.5247797"><ele>208.0</ele><time>2026-04-26T09:05:59.701Z</time></trkpt><trkpt lat="46.1380418" lon="9.5246675"><ele>208.33333333333331</ele><time>2026-04-26T09:06:00.7Z</time></trkpt><trkpt lat="46.1380506" lon="9.524547"><ele>208.66666666666666</ele><time>2026-04-26T09:06:01.701Z</time></trkpt><trkpt lat="46.1380514" lon="9.5244269"><ele>209.0</ele><time>2026-04-26T09:06:02.702Z</time></trkpt><trkpt lat="46.1380491" lon="9.5243156"><ele>209.33333333333331</ele><time>2026-04-26T09:06:03.701Z</time></trkpt><trkpt lat="46.1380583" lon="9.5242045"><ele>209.66666666666666</ele><time>2026-04-26T09:06:04.7Z</time></trkpt><trkpt lat="46.1380645" lon="9.5240863"><ele>210.0</ele><time>2026-04-26T09:06:05.701Z</time></trkpt><trkpt lat="46.1380812" lon="9.5239796"><ele>210.0</ele><time>2026-04-26T09:06:06.7Z</time></trkpt><trkpt lat="46.1380838" lon="9.5238691"><ele>210.0</ele><time>2026-04-26T09:06:07.701Z</time></trkpt><trkpt lat="46.1380939" lon="9.5237477"><ele>210.0</ele><time>2026-04-26T09:06:08.7Z</time></trkpt><trkpt lat="46.1381078" lon="9.5236372"><ele>210.0</ele><time>2026-04-26T09:06:09.7Z</time></trkpt><trkpt lat="46.1381177" lon="9.5235368"><ele>210.0</ele><time>2026-04-26T09:06:10.7Z</time></trkpt><trkpt lat="46.1381297" lon="9.523425"><ele>210.0</ele><time>2026-04-26T09:06:11.7Z</time></trkpt><trkpt lat="46.1381488" lon="9.5233283"><ele>210.0</ele><time>2026-04-26T09:06:12.701Z</time></trkpt><trkpt lat="46.1381543" lon="9.5232253"><ele>210.0</ele><time>2026-04-26T09:06:13.7Z</time></trkpt><trkpt lat="46.1381664" lon="9.5231214"><ele>210.0</ele><time>2026-04-26T09:06:14.7Z</time></trkpt><trkpt lat="46.1381755" lon="9.5230223"><ele>210.0</ele><time>2026-04-26T09:06:15.701Z</time></trkpt><trkpt lat="46.1381853" lon="9.5229253"><ele>210.0</ele><time>2026-04-26T09:06:16.7Z</time></trkpt><trkpt lat="46.1381918" lon="9.5228312"><ele>210.0</ele><time>2026-04-26T09:06:17.7Z</time></trkpt><trkpt lat="46.1382014" lon="9.5227307"><ele>210.0</ele><time>2026-04-26T09:06:18.7Z</time></trkpt><trkpt lat="46.1382026" lon="9.5226304"><ele>210.0</ele><time>2026-04-26T09:06:19.7Z</time></trkpt><trkpt lat="46.1382068" lon="9.5225246"><ele>210.0</ele><time>2026-04-26T09:06:20.701Z</time></trkpt><trkpt lat="46.1382116" lon="9.5224174"><ele>210.0</ele><time>2026-04-26T09:06:21.701Z</time></trkpt><trkpt lat="46.1382138" lon="9.5223205"><ele>210.0</ele><time>2026-04-26T09:06:22.699Z</time></trkpt><trkpt lat="46.1382203" lon="9.5222261"><ele>210.0</ele><time>2026-04-26T09:06:23.701Z</time></trkpt><trkpt lat="46.1382244" lon="9.5221286"><ele>210.0</ele><time>2026-04-26T09:06:24.7Z</time></trkpt><trkpt lat="46.1382441" lon="9.5219585"><ele>210.0</ele><time>2026-04-26T09:06:26.699Z</time></trkpt><trkpt lat="46.1383342" lon="9.5218475"><ele>210.0</ele><time>2026-04-26T09:06:28.7Z</time></trkpt><trkpt lat="46.1384275" lon="9.5217568"><ele>210.0</ele><time>2026-04-26T09:06:30.7Z</time></trkpt><trkpt lat="46.1384975" lon="9.5216326"><ele>210.0</ele><time>2026-04-26T09:06:32.701Z</time></trkpt><trkpt lat="46.1385585" lon="9.5215079"><ele>210.0</ele><time>2026-04-26T09:06:34.7Z</time></trkpt><trkpt lat="46.1386141" lon="9.5213703"><ele>210.0</ele><time>2026-04-26T09:06:36.7Z</time></trkpt><trkpt lat="46.1386801" lon="9.5212286"><ele>210.0</ele><time>2026-04-26T09:06:38.701Z</time></trkpt><trkpt lat="46.1387533" lon="9.5211095"><ele>210.0</ele><time>2026-04-26T09:06:40.701Z</time></trkpt><trkpt lat="46.1388321" lon="9.5209974"><ele>210.0</ele><time>2026-04-26T09:06:42.7Z</time></trkpt><trkpt lat="46.1388687" lon="9.5209234"><ele>210.0</ele><time>2026-04-26T09:06:43.701Z</time></trkpt><trkpt lat="46.1389346" lon="9.5207703"><ele>210.0</ele><time>2026-04-26T09:06:45.701Z</time></trkpt><trkpt lat="46.1389691" lon="9.5206932"><ele>210.0</ele><time>2026-04-26T09:06:46.7Z</time></trkpt><trkpt lat="46.1390174" lon="9.5205348"><ele>210.0</ele><time>2026-04-26T09:06:48.7Z</time></trkpt><trkpt lat="46.1390577" lon="9.5203795"><ele>210.0</ele><time>2026-04-26T09:06:50.7Z</time></trkpt><trkpt lat="46.1390811" lon="9.5202944"><ele>210.0</ele><time>2026-04-26T09:06:51.7Z</time></trkpt><trkpt lat="46.1391359" lon="9.5201284"><ele>210.0</ele><time>2026-04-26T09:06:53.701Z</time></trkpt><trkpt lat="46.1391611" lon="9.5200437"><ele>210.0</ele><time>2026-04-26T09:06:54.7Z</time></trkpt><trkpt lat="46.1392122" lon="9.5198753"><ele>210.0</ele><time>2026-04-26T09:06:56.701Z</time></trkpt><trkpt lat="46.1392374" lon="9.5197908"><ele>210.0</ele><time>2026-04-26T09:06:57.701Z</time></trkpt><trkpt lat="46.1392555" lon="9.5196921"><ele>210.0</ele><time>2026-04-26T09:06:58.7Z</time></trkpt><trkpt lat="46.1392841" lon="9.5196051"><ele>210.0</ele><time>2026-04-26T09:06:59.701Z</time></trkpt><trkpt lat="46.139312" lon="9.5195193"><ele>210.2</ele><time>2026-04-26T09:07:00.701Z</time></trkpt><trkpt lat="46.1393638" lon="9.5193501"><ele>210.4</ele><time>2026-04-26T09:07:02.7Z</time></trkpt><trkpt lat="46.1394279" lon="9.5191932"><ele>210.60000000000002</ele><time>2026-04-26T09:07:04.7Z</time></trkpt><trkpt lat="46.1394602" lon="9.5191068"><ele>210.8</ele><time>2026-04-26T09:07:05.701Z</time></trkpt><trkpt lat="46.1395127" lon="9.5189689"><ele>211.0</ele><time>2026-04-26T09:07:07.701Z</time></trkpt><trkpt lat="46.1395579" lon="9.5188576"><ele>211.0</ele><time>2026-04-26T09:07:09.7Z</time></trkpt><trkpt lat="46.1395924" lon="9.5187615"><ele>211.0</ele><time>2026-04-26T09:07:11.701Z</time></trkpt><trkpt lat="46.1396305" lon="9.5186269"><ele>211.0</ele><time>2026-04-26T09:07:13.701Z</time></trkpt><trkpt lat="46.1396661" lon="9.5184953"><ele>211.0</ele><time>2026-04-26T09:07:15.702Z</time></trkpt><trkpt lat="46.1397118" lon="9.5183437"><ele>211.0</ele><time>2026-04-26T09:07:17.701Z</time></trkpt><trkpt lat="46.1397499" lon="9.5181774"><ele>211.20000000000002</ele><time>2026-04-26T09:07:19.7Z</time></trkpt><trkpt lat="46.1397915" lon="9.5180341"><ele>211.4</ele><time>2026-04-26T09:07:21.7Z</time></trkpt><trkpt lat="46.1398385" lon="9.5178861"><ele>211.6</ele><time>2026-04-26T09:07:23.7Z</time></trkpt><trkpt lat="46.1398612" lon="9.5178007"><ele>211.8</ele><time>2026-04-26T09:07:24.7Z</time></trkpt><trkpt lat="46.1399111" lon="9.5176392"><ele>212.0</ele><time>2026-04-26T09:07:26.701Z</time></trkpt><trkpt lat="46.1399646" lon="9.517483"><ele>211.66666666666669</ele><time>2026-04-26T09:07:28.701Z</time></trkpt><trkpt lat="46.1399927" lon="9.517391"><ele>211.33333333333334</ele><time>2026-04-26T09:07:29.7Z</time></trkpt><trkpt lat="46.1400382" lon="9.5172392"><ele>211.0</ele><time>2026-04-26T09:07:31.7Z</time></trkpt><trkpt lat="46.1400624" lon="9.5171506"><ele>210.66666666666669</ele><time>2026-04-26T09:07:32.701Z</time></trkpt><trkpt lat="46.1400942" lon="9.5170584"><ele>210.33333333333334</ele><time>2026-04-26T09:07:33.699Z</time></trkpt><trkpt lat="46.1401276" lon="9.5169624"><ele>210.0</ele><time>2026-04-26T09:07:34.7Z</time></trkpt><trkpt lat="46.1401534" lon="9.5168708"><ele>210.0</ele><time>2026-04-26T09:07:35.7Z</time></trkpt><trkpt lat="46.1401815" lon="9.5167804"><ele>210.0</ele><time>2026-04-26T09:07:36.701Z</time></trkpt><trkpt lat="46.1402418" lon="9.516612"><ele>210.0</ele><time>2026-04-26T09:07:38.701Z</time></trkpt><trkpt lat="46.1402711" lon="9.5165272"><ele>210.0</ele><time>2026-04-26T09:07:39.701Z</time></trkpt><trkpt lat="46.1402995" lon="9.5164416"><ele>210.0</ele><time>2026-04-26T09:07:40.7Z</time></trkpt><trkpt lat="46.1403262" lon="9.5163563"><ele>210.0</ele><time>2026-04-26T09:07:41.7Z</time></trkpt><trkpt lat="46.1403738" lon="9.5162034"><ele>209.66666666666666</ele><time>2026-04-26T09:07:43.701Z</time></trkpt><trkpt lat="46.140397" lon="9.5161181"><ele>209.33333333333331</ele><time>2026-04-26T09:07:44.701Z</time></trkpt><trkpt lat="46.1404277" lon="9.5160377"><ele>209.0</ele><time>2026-04-26T09:07:45.701Z</time></trkpt><trkpt lat="46.1404556" lon="9.5159505"><ele>208.66666666666666</ele><time>2026-04-26T09:07:46.7Z</time></trkpt><trkpt lat="46.1405097" lon="9.5157993"><ele>208.33333333333331</ele><time>2026-04-26T09:07:48.701Z</time></trkpt><trkpt lat="46.1405815" lon="9.5156393"><ele>208.0</ele><time>2026-04-26T09:07:50.7Z</time></trkpt><trkpt lat="46.140614" lon="9.5155557"><ele>208.0</ele><time>2026-04-26T09:07:51.7Z</time></trkpt><trkpt lat="46.1406492" lon="9.5154676"><ele>208.0</ele><time>2026-04-26T09:07:52.701Z</time></trkpt><trkpt lat="46.1407195" lon="9.5153131"><ele>208.0</ele><time>2026-04-26T09:07:54.701Z</time></trkpt><trkpt lat="46.1407648" lon="9.5151508"><ele>208.0</ele><time>2026-04-26T09:07:56.7Z</time></trkpt><trkpt lat="46.1408257" lon="9.515004"><ele>208.0</ele><time>2026-04-26T09:07:58.7Z</time></trkpt><trkpt lat="46.140868" lon="9.5149208"><ele>208.2</ele><time>2026-04-26T09:07:59.701Z</time></trkpt><trkpt lat="46.1409309" lon="9.5147747"><ele>208.4</ele><time>2026-04-26T09:08:01.7Z</time></trkpt><trkpt lat="46.1409634" lon="9.5146954"><ele>208.6</ele><time>2026-04-26T09:08:02.701Z</time></trkpt><trkpt lat="46.1410211" lon="9.5145384"><ele>208.79999999999998</ele><time>2026-04-26T09:08:04.7Z</time></trkpt><trkpt lat="46.1410552" lon="9.5144509"><ele>209.0</ele><time>2026-04-26T09:08:05.701Z</time></trkpt><trkpt lat="46.1410932" lon="9.5143579"><ele>209.16666666666669</ele><time>2026-04-26T09:08:06.701Z</time></trkpt><trkpt lat="46.1411542" lon="9.5142028"><ele>209.33333333333334</ele><time>2026-04-26T09:08:08.701Z</time></trkpt><trkpt lat="46.1411908" lon="9.5141167"><ele>209.5</ele><time>2026-04-26T09:08:09.701Z</time></trkpt><trkpt lat="46.1412271" lon="9.5140377"><ele>209.66666666666669</ele><time>2026-04-26T09:08:10.7Z</time></trkpt><trkpt lat="46.1412646" lon="9.5139592"><ele>209.83333333333334</ele><time>2026-04-26T09:08:11.699Z</time></trkpt><trkpt lat="46.1412991" lon="9.5138687"><ele>210.0</ele><time>2026-04-26T09:08:12.7Z</time></trkpt><trkpt lat="46.1413363" lon="9.5137917"><ele>209.66666666666666</ele><time>2026-04-26T09:08:13.701Z</time></trkpt><trkpt lat="46.1413651" lon="9.5137069"><ele>209.33333333333331</ele><time>2026-04-26T09:08:14.701Z</time></trkpt><trkpt lat="46.1414307" lon="9.5135647"><ele>209.0</ele><time>2026-04-26T09:08:16.701Z</time></trkpt><trkpt lat="46.1415038" lon="9.5134225"><ele>208.66666666666666</ele><time>2026-04-26T09:08:18.701Z</time></trkpt><trkpt lat="46.1415351" lon="9.5133419"><ele>208.33333333333331</ele><time>2026-04-26T09:08:19.7Z</time></trkpt><trkpt lat="46.1415753" lon="9.5132672"><ele>208.0</ele><time>2026-04-26T09:08:20.701Z</time></trkpt><trkpt lat="46.1416433" lon="9.5131179"><ele>208.0</ele><time>2026-04-26T09:08:22.7Z</time></trkpt><trkpt lat="46.1416836" lon="9.5130383"><ele>208.0</ele><time>2026-04-26T09:08:23.701Z</time></trkpt><trkpt lat="46.1417286" lon="9.5129687"><ele>208.0</ele><time>2026-04-26T09:08:24.7Z</time></trkpt><trkpt lat="46.1417656" lon="9.5128805"><ele>208.0</ele><time>2026-04-26T09:08:25.7Z</time></trkpt><trkpt lat="46.1418111" lon="9.5128087"><ele>208.0</ele><time>2026-04-26T09:08:26.701Z</time></trkpt><trkpt lat="46.1418541" lon="9.5127197"><ele>208.0</ele><time>2026-04-26T09:08:27.701Z</time></trkpt><trkpt lat="46.1419004" lon="9.5126383"><ele>208.0</ele><time>2026-04-26T09:08:28.7Z</time></trkpt><trkpt lat="46.1419432" lon="9.5125601"><ele>207.99999999999997</ele><time>2026-04-26T09:08:29.7Z</time></trkpt><trkpt lat="46.1419855" lon="9.5124826"><ele>208.0</ele><time>2026-04-26T09:08:30.7Z</time></trkpt><trkpt lat="46.1420271" lon="9.5123997"><ele>208.0</ele><time>2026-04-26T09:08:31.701Z</time></trkpt><trkpt lat="46.142066" lon="9.5123274"><ele>208.0</ele><time>2026-04-26T09:08:32.701Z</time></trkpt><trkpt lat="46.1421076" lon="9.5122518"><ele>207.99999999999997</ele><time>2026-04-26T09:08:33.699Z</time></trkpt><trkpt lat="46.1421476" lon="9.512156"><ele>208.0</ele><time>2026-04-26T09:08:34.7Z</time></trkpt><trkpt lat="46.14223" lon="9.5119901"><ele>207.99999999999997</ele><time>2026-04-26T09:08:36.701Z</time></trkpt><trkpt lat="46.1423181" lon="9.5118463"><ele>208.0</ele><time>2026-04-26T09:08:38.7Z</time></trkpt><trkpt lat="46.1423651" lon="9.5117746"><ele>208.0</ele><time>2026-04-26T09:08:39.701Z</time></trkpt><trkpt lat="46.1424082" lon="9.5116874"><ele>208.0</ele><time>2026-04-26T09:08:40.7Z</time></trkpt><trkpt lat="46.1424444" lon="9.5116036"><ele>207.99999999999997</ele><time>2026-04-26T09:08:41.7Z</time></trkpt><trkpt lat="46.1424823" lon="9.5115254"><ele>208.0</ele><time>2026-04-26T09:08:42.7Z</time></trkpt><trkpt lat="46.1425216" lon="9.5114426"><ele>208.0</ele><time>2026-04-26T09:08:43.702Z</time></trkpt><trkpt lat="46.1425623" lon="9.5113531"><ele>208.0</ele><time>2026-04-26T09:08:44.701Z</time></trkpt><trkpt lat="46.1426429" lon="9.5112048"><ele>208.0</ele><time>2026-04-26T09:08:46.7Z</time></trkpt><trkpt lat="46.1427145" lon="9.5110674"><ele>208.0</ele><time>2026-04-26T09:08:48.703Z</time></trkpt><trkpt lat="46.142785" lon="9.5109216"><ele>208.0</ele><time>2026-04-26T09:08:50.701Z</time></trkpt><trkpt lat="46.1428208" lon="9.5108339"><ele>207.99999999999997</ele><time>2026-04-26T09:08:51.7Z</time></trkpt><trkpt lat="46.1428563" lon="9.5107548"><ele>208.0</ele><time>2026-04-26T09:08:52.7Z</time></trkpt><trkpt lat="46.1428938" lon="9.5106739"><ele>208.0</ele><time>2026-04-26T09:08:53.701Z</time></trkpt><trkpt lat="46.1429345" lon="9.5105993"><ele>208.0</ele><time>2026-04-26T09:08:54.7Z</time></trkpt><trkpt lat="46.1430146" lon="9.510462"><ele>207.99999999999997</ele><time>2026-04-26T09:08:56.7Z</time></trkpt><trkpt lat="46.1430529" lon="9.5103808"><ele>208.0</ele><time>2026-04-26T09:08:57.7Z</time></trkpt><trkpt lat="46.1430951" lon="9.5102975"><ele>207.99999999999997</ele><time>2026-04-26T09:08:58.701Z</time></trkpt><trkpt lat="46.1431646" lon="9.5101443"><ele>208.0</ele><time>2026-04-26T09:09:00.7Z</time></trkpt><trkpt lat="46.1432088" lon="9.5100648"><ele>208.0</ele><time>2026-04-26T09:09:01.701Z</time></trkpt><trkpt lat="46.1432497" lon="9.5099898"><ele>208.0</ele><time>2026-04-26T09:09:02.701Z</time></trkpt><trkpt lat="46.1432873" lon="9.5099118"><ele>207.99999999999997</ele><time>2026-04-26T09:09:03.701Z</time></trkpt><trkpt lat="46.143337" lon="9.5098447"><ele>208.0</ele><time>2026-04-26T09:09:04.701Z</time></trkpt><trkpt lat="46.1433825" lon="9.5097721"><ele>207.99999999999997</ele><time>2026-04-26T09:09:05.701Z</time></trkpt><trkpt lat="46.1434572" lon="9.5096307"><ele>208.0</ele><time>2026-04-26T09:09:07.701Z</time></trkpt><trkpt lat="46.1434952" lon="9.5095496"><ele>208.0</ele><time>2026-04-26T09:09:08.701Z</time></trkpt><trkpt lat="46.1435361" lon="9.5094663"><ele>208.0</ele><time>2026-04-26T09:09:09.701Z</time></trkpt><trkpt lat="46.1435727" lon="9.509381"><ele>207.99999999999997</ele><time>2026-04-26T09:09:10.7Z</time></trkpt><trkpt lat="46.1436145" lon="9.5093035"><ele>208.0</ele><time>2026-04-26T09:09:11.702Z</time></trkpt><trkpt lat="46.1436606" lon="9.5092306"><ele>208.0</ele><time>2026-04-26T09:09:12.7Z</time></trkpt><trkpt lat="46.1437028" lon="9.5091533"><ele>208.0</ele><time>2026-04-26T09:09:13.701Z</time></trkpt><trkpt lat="46.1437478" lon="9.5090783"><ele>208.0</ele><time>2026-04-26T09:09:14.7Z</time></trkpt><trkpt lat="46.1437899" lon="9.5090038"><ele>208.0</ele><time>2026-04-26T09:09:15.701Z</time></trkpt><trkpt lat="46.1438362" lon="9.5089322"><ele>208.0</ele><time>2026-04-26T09:09:16.7Z</time></trkpt><trkpt lat="46.1438818" lon="9.5088557"><ele>208.0</ele><time>2026-04-26T09:09:17.701Z</time></trkpt><trkpt lat="46.143929" lon="9.508789"><ele>208.0</ele><time>2026-04-26T09:09:18.702Z</time></trkpt><trkpt lat="46.1439689" lon="9.508716"><ele>207.99999999999997</ele><time>2026-04-26T09:09:19.701Z</time></trkpt><trkpt lat="46.1440125" lon="9.5086377"><ele>208.0</ele><time>2026-04-26T09:09:20.701Z</time></trkpt><trkpt lat="46.1440908" lon="9.5084939"><ele>208.0</ele><time>2026-04-26T09:09:22.701Z</time></trkpt><trkpt lat="46.1441325" lon="9.5084126"><ele>208.0</ele><time>2026-04-26T09:09:23.701Z</time></trkpt><trkpt lat="46.1441767" lon="9.508335"><ele>207.99999999999997</ele><time>2026-04-26T09:09:24.7Z</time></trkpt><trkpt lat="46.1442167" lon="9.5082617"><ele>208.0</ele><time>2026-04-26T09:09:25.7Z</time></trkpt><trkpt lat="46.1442615" lon="9.5081776"><ele>208.0</ele><time>2026-04-26T09:09:26.701Z</time></trkpt><trkpt lat="46.144308" lon="9.508099"><ele>208.0</ele><time>2026-04-26T09:09:27.701Z</time></trkpt><trkpt lat="46.1443588" lon="9.5080194"><ele>208.0</ele><time>2026-04-26T09:09:28.701Z</time></trkpt><trkpt lat="46.144405" lon="9.5079534"><ele>208.0</ele><time>2026-04-26T09:09:29.701Z</time></trkpt><trkpt lat="46.1444479" lon="9.5078812"><ele>208.0</ele><time>2026-04-26T09:09:30.7Z</time></trkpt><trkpt lat="46.1444878" lon="9.5077999"><ele>208.0</ele><time>2026-04-26T09:09:31.7Z</time></trkpt><trkpt lat="46.1445296" lon="9.5077228"><ele>208.0</ele><time>2026-04-26T09:09:32.7Z</time></trkpt><trkpt lat="46.1445663" lon="9.5076459"><ele>207.83333333333331</ele><time>2026-04-26T09:09:33.701Z</time></trkpt><trkpt lat="46.1446072" lon="9.5075709"><ele>207.66666666666666</ele><time>2026-04-26T09:09:34.7Z</time></trkpt><trkpt lat="46.1446559" lon="9.5074945"><ele>207.5</ele><time>2026-04-26T09:09:35.7Z</time></trkpt><trkpt lat="46.1447009" lon="9.5074292"><ele>207.33333333333331</ele><time>2026-04-26T09:09:36.7Z</time></trkpt><trkpt lat="46.1447813" lon="9.5072902"><ele>207.16666666666666</ele><time>2026-04-26T09:09:38.701Z</time></trkpt><trkpt lat="46.1448267" lon="9.5072138"><ele>207.0</ele><time>2026-04-26T09:09:39.702Z</time></trkpt><trkpt lat="46.1448707" lon="9.5071377"><ele>207.5</ele><time>2026-04-26T09:09:40.7Z</time></trkpt><trkpt lat="46.1449504" lon="9.507003"><ele>208.0</ele><time>2026-04-26T09:09:42.701Z</time></trkpt><trkpt lat="46.1449909" lon="9.5069286"><ele>208.5</ele><time>2026-04-26T09:09:43.7Z</time></trkpt><trkpt lat="46.1450321" lon="9.5068532"><ele>209.0</ele><time>2026-04-26T09:09:44.7Z</time></trkpt><trkpt lat="46.1451125" lon="9.5067146"><ele>209.5</ele><time>2026-04-26T09:09:46.7Z</time></trkpt><trkpt lat="46.1451583" lon="9.5066446"><ele>210.0</ele><time>2026-04-26T09:09:47.701Z</time></trkpt><trkpt lat="46.1452368" lon="9.5065015"><ele>210.0</ele><time>2026-04-26T09:09:49.701Z</time></trkpt><trkpt lat="46.1453082" lon="9.5063531"><ele>210.0</ele><time>2026-04-26T09:09:51.7Z</time></trkpt><trkpt lat="46.1453502" lon="9.5062721"><ele>210.0</ele><time>2026-04-26T09:09:52.7Z</time></trkpt><trkpt lat="46.1454272" lon="9.5061281"><ele>210.0</ele><time>2026-04-26T09:09:54.701Z</time></trkpt><trkpt lat="46.1454675" lon="9.5060533"><ele>210.0</ele><time>2026-04-26T09:09:55.701Z</time></trkpt><trkpt lat="46.1455136" lon="9.5059784"><ele>209.8</ele><time>2026-04-26T09:09:56.702Z</time></trkpt><trkpt lat="46.1455568" lon="9.5059015"><ele>209.6</ele><time>2026-04-26T09:09:57.7Z</time></trkpt><trkpt lat="46.1456071" lon="9.5058348"><ele>209.39999999999998</ele><time>2026-04-26T09:09:58.7Z</time></trkpt><trkpt lat="46.1456485" lon="9.50576"><ele>209.2</ele><time>2026-04-26T09:09:59.701Z</time></trkpt><trkpt lat="46.1457305" lon="9.505627"><ele>209.0</ele><time>2026-04-26T09:10:01.7Z</time></trkpt><trkpt lat="46.1458025" lon="9.5054816"><ele>208.50000000000003</ele><time>2026-04-26T09:10:03.7Z</time></trkpt><trkpt lat="46.1458695" lon="9.5053544"><ele>208.0</ele><time>2026-04-26T09:10:05.701Z</time></trkpt><trkpt lat="46.1459106" lon="9.505278"><ele>207.5</ele><time>2026-04-26T09:10:06.702Z</time></trkpt><trkpt lat="46.1459549" lon="9.5052029"><ele>207.0</ele><time>2026-04-26T09:10:07.7Z</time></trkpt><trkpt lat="46.1459981" lon="9.5051254"><ele>206.50000000000003</ele><time>2026-04-26T09:10:08.7Z</time></trkpt><trkpt lat="46.146044" lon="9.5050538"><ele>206.0</ele><time>2026-04-26T09:10:09.701Z</time></trkpt><trkpt lat="46.1460925" lon="9.5049752"><ele>205.99999999999997</ele><time>2026-04-26T09:10:10.7Z</time></trkpt><trkpt lat="46.1461324" lon="9.5049025"><ele>206.0</ele><time>2026-04-26T09:10:11.701Z</time></trkpt><trkpt lat="46.1461757" lon="9.5048332"><ele>206.0</ele><time>2026-04-26T09:10:12.701Z</time></trkpt><trkpt lat="46.146214" lon="9.5047534"><ele>206.0</ele><time>2026-04-26T09:10:13.701Z</time></trkpt><trkpt lat="46.1462573" lon="9.504673"><ele>206.0</ele><time>2026-04-26T09:10:14.7Z</time></trkpt><trkpt lat="46.1462969" lon="9.5046011"><ele>205.99999999999997</ele><time>2026-04-26T09:10:15.701Z</time></trkpt><trkpt lat="46.1463434" lon="9.5045202"><ele>206.0</ele><time>2026-04-26T09:10:16.701Z</time></trkpt><trkpt lat="46.1464" lon="9.5044411"><ele>206.16666666666669</ele><time>2026-04-26T09:10:17.701Z</time></trkpt><trkpt lat="46.1464868" lon="9.5043144"><ele>206.33333333333334</ele><time>2026-04-26T09:10:19.701Z</time></trkpt><trkpt lat="46.1465296" lon="9.5042444"><ele>206.5</ele><time>2026-04-26T09:10:20.7Z</time></trkpt><trkpt lat="46.1466059" lon="9.5041065"><ele>206.66666666666669</ele><time>2026-04-26T09:10:22.7Z</time></trkpt><trkpt lat="46.1466489" lon="9.5040341"><ele>206.83333333333334</ele><time>2026-04-26T09:10:23.701Z</time></trkpt><trkpt lat="46.1466919" lon="9.5039593"><ele>207.0</ele><time>2026-04-26T09:10:24.7Z</time></trkpt><trkpt lat="46.146734" lon="9.5038884"><ele>206.66666666666666</ele><time>2026-04-26T09:10:25.701Z</time></trkpt><trkpt lat="46.1468007" lon="9.5037695"><ele>206.33333333333331</ele><time>2026-04-26T09:10:27.701Z</time></trkpt><trkpt lat="46.146851" lon="9.5036762"><ele>206.0</ele><time>2026-04-26T09:10:29.701Z</time></trkpt><trkpt lat="46.1469075" lon="9.5035684"><ele>205.66666666666666</ele><time>2026-04-26T09:10:32.701Z</time></trkpt><trkpt lat="46.1469513" lon="9.5034942"><ele>205.33333333333331</ele><time>2026-04-26T09:10:34.7Z</time></trkpt><trkpt lat="46.1470035" lon="9.5034204"><ele>205.0</ele><time>2026-04-26T09:10:37.701Z</time></trkpt><trkpt lat="46.1470533" lon="9.5033072"><ele>205.0</ele><time>2026-04-26T09:10:40.7Z</time></trkpt><trkpt lat="46.1470975" lon="9.5032262"><ele>205.0</ele><time>2026-04-26T09:10:42.7Z</time></trkpt><trkpt lat="46.1471691" lon="9.5031426"><ele>205.0</ele><time>2026-04-26T09:10:44.7Z</time></trkpt><trkpt lat="46.1472303" lon="9.5030421"><ele>205.0</ele><time>2026-04-26T09:10:46.701Z</time></trkpt><trkpt lat="46.1473001" lon="9.5029308"><ele>205.0</ele><time>2026-04-26T09:10:48.701Z</time></trkpt><trkpt lat="46.1473688" lon="9.5027985"><ele>205.33333333333331</ele><time>2026-04-26T09:10:50.701Z</time></trkpt><trkpt lat="46.1474549" lon="9.5026709"><ele>205.66666666666666</ele><time>2026-04-26T09:10:52.7Z</time></trkpt><trkpt lat="46.1474945" lon="9.5025994"><ele>206.0</ele><time>2026-04-26T09:10:53.701Z</time></trkpt><trkpt lat="46.1475715" lon="9.5024664"><ele>206.33333333333331</ele><time>2026-04-26T09:10:55.7Z</time></trkpt><trkpt lat="46.1476128" lon="9.5023932"><ele>206.66666666666666</ele><time>2026-04-26T09:10:56.7Z</time></trkpt><trkpt lat="46.147651" lon="9.5023144"><ele>207.0</ele><time>2026-04-26T09:10:57.701Z</time></trkpt><trkpt lat="46.1476931" lon="9.50224"><ele>207.00000000000003</ele><time>2026-04-26T09:10:58.7Z</time></trkpt><trkpt lat="46.1477352" lon="9.50217"><ele>207.0</ele><time>2026-04-26T09:10:59.7Z</time></trkpt><trkpt lat="46.1477711" lon="9.502093"><ele>207.0</ele><time>2026-04-26T09:11:00.702Z</time></trkpt><trkpt lat="46.1478473" lon="9.5019505"><ele>207.0</ele><time>2026-04-26T09:11:02.702Z</time></trkpt><trkpt lat="46.1478892" lon="9.5018783"><ele>207.0</ele><time>2026-04-26T09:11:03.701Z</time></trkpt><trkpt lat="46.1479293" lon="9.501802"><ele>207.00000000000003</ele><time>2026-04-26T09:11:04.7Z</time></trkpt><trkpt lat="46.1479769" lon="9.5017425"><ele>207.0</ele><time>2026-04-26T09:11:05.701Z</time></trkpt><trkpt lat="46.1480536" lon="9.5016069"><ele>207.0</ele><time>2026-04-26T09:11:07.7Z</time></trkpt><trkpt lat="46.1480956" lon="9.5015357"><ele>207.0</ele><time>2026-04-26T09:11:08.701Z</time></trkpt><trkpt lat="46.1481709" lon="9.5013945"><ele>207.0</ele><time>2026-04-26T09:11:10.701Z</time></trkpt><trkpt lat="46.1482111" lon="9.5013187"><ele>207.0</ele><time>2026-04-26T09:11:11.701Z</time></trkpt><trkpt lat="46.1482531" lon="9.5012492"><ele>207.0</ele><time>2026-04-26T09:11:12.701Z</time></trkpt><trkpt lat="46.148297" lon="9.5011718"><ele>207.0</ele><time>2026-04-26T09:11:13.701Z</time></trkpt><trkpt lat="46.1483418" lon="9.5010994"><ele>208.0</ele><time>2026-04-26T09:11:14.701Z</time></trkpt><trkpt lat="46.1483837" lon="9.5010168"><ele>209.0</ele><time>2026-04-26T09:11:15.7Z</time></trkpt><trkpt lat="46.1484248" lon="9.5009352"><ele>210.0</ele><time>2026-04-26T09:11:16.701Z</time></trkpt><trkpt lat="46.1485049" lon="9.5007956"><ele>211.0</ele><time>2026-04-26T09:11:18.7Z</time></trkpt><trkpt lat="46.1485941" lon="9.5006647"><ele>212.0</ele><time>2026-04-26T09:11:20.702Z</time></trkpt><trkpt lat="46.1486717" lon="9.5005256"><ele>212.0</ele><time>2026-04-26T09:11:22.702Z</time></trkpt><trkpt lat="46.1487171" lon="9.5004564"><ele>212.0</ele><time>2026-04-26T09:11:23.702Z</time></trkpt><trkpt lat="46.1487573" lon="9.5003803"><ele>212.0</ele><time>2026-04-26T09:11:24.701Z</time></trkpt><trkpt lat="46.1488021" lon="9.5003019"><ele>212.0</ele><time>2026-04-26T09:11:25.7Z</time></trkpt><trkpt lat="46.1488485" lon="9.5002215"><ele>212.0</ele><time>2026-04-26T09:11:26.7Z</time></trkpt><trkpt lat="46.1488958" lon="9.5001441"><ele>212.0</ele><time>2026-04-26T09:11:27.701Z</time></trkpt><trkpt lat="46.1489375" lon="9.5000705"><ele>212.0</ele><time>2026-04-26T09:11:28.702Z</time></trkpt><trkpt lat="46.1489795" lon="9.4999895"><ele>211.57142857142858</ele><time>2026-04-26T09:11:29.701Z</time></trkpt><trkpt lat="46.1490265" lon="9.4999183"><ele>211.14285714285714</ele><time>2026-04-26T09:11:30.7Z</time></trkpt><trkpt lat="46.1490734" lon="9.4998557"><ele>210.71428571428572</ele><time>2026-04-26T09:11:31.7Z</time></trkpt><trkpt lat="46.1491149" lon="9.4997825"><ele>210.28571428571428</ele><time>2026-04-26T09:11:32.701Z</time></trkpt><trkpt lat="46.1491556" lon="9.4997027"><ele>209.85714285714283</ele><time>2026-04-26T09:11:33.701Z</time></trkpt><trkpt lat="46.149202" lon="9.4996266"><ele>209.42857142857142</ele><time>2026-04-26T09:11:34.702Z</time></trkpt><trkpt lat="46.1492378" lon="9.4995488"><ele>209.0</ele><time>2026-04-26T09:11:35.7Z</time></trkpt><trkpt lat="46.1492771" lon="9.4994742"><ele>208.71428571428572</ele><time>2026-04-26T09:11:36.701Z</time></trkpt><trkpt lat="46.1493176" lon="9.4993995"><ele>208.42857142857142</ele><time>2026-04-26T09:11:37.701Z</time></trkpt><trkpt lat="46.1493549" lon="9.4993131"><ele>208.14285714285717</ele><time>2026-04-26T09:11:38.7Z</time></trkpt><trkpt lat="46.1493961" lon="9.4992398"><ele>207.85714285714286</ele><time>2026-04-26T09:11:39.701Z</time></trkpt><trkpt lat="46.1494398" lon="9.4991646"><ele>207.57142857142858</ele><time>2026-04-26T09:11:40.701Z</time></trkpt><trkpt lat="46.1494869" lon="9.4990951"><ele>207.2857142857143</ele><time>2026-04-26T09:11:41.7Z</time></trkpt><trkpt lat="46.149532" lon="9.4990157"><ele>207.0</ele><time>2026-04-26T09:11:42.7Z</time></trkpt><trkpt lat="46.1495726" lon="9.4989416"><ele>207.0</ele><time>2026-04-26T09:11:43.7Z</time></trkpt><trkpt lat="46.1496585" lon="9.4988025"><ele>207.0</ele><time>2026-04-26T09:11:45.699Z</time></trkpt><trkpt lat="46.1496998" lon="9.4987262"><ele>207.0</ele><time>2026-04-26T09:11:46.7Z</time></trkpt><trkpt lat="46.1497444" lon="9.4986529"><ele>207.0</ele><time>2026-04-26T09:11:47.7Z</time></trkpt><trkpt lat="46.1497862" lon="9.4985678"><ele>207.0</ele><time>2026-04-26T09:11:48.702Z</time></trkpt><trkpt lat="46.1498289" lon="9.4984911"><ele>207.0</ele><time>2026-04-26T09:11:49.7Z</time></trkpt><trkpt lat="46.1498736" lon="9.4984081"><ele>206.85714285714286</ele><time>2026-04-26T09:11:50.7Z</time></trkpt><trkpt lat="46.1499142" lon="9.4983321"><ele>206.71428571428572</ele><time>2026-04-26T09:11:51.701Z</time></trkpt><trkpt lat="46.1499629" lon="9.4982564"><ele>206.57142857142856</ele><time>2026-04-26T09:11:52.701Z</time></trkpt><trkpt lat="46.1500099" lon="9.4981666"><ele>206.42857142857144</ele><time>2026-04-26T09:11:53.701Z</time></trkpt><trkpt lat="46.1500515" lon="9.4980863"><ele>206.28571428571428</ele><time>2026-04-26T09:11:54.7Z</time></trkpt><trkpt lat="46.1500941" lon="9.498019"><ele>206.14285714285714</ele><time>2026-04-26T09:11:55.701Z</time></trkpt><trkpt lat="46.150144" lon="9.4979498"><ele>206.0</ele><time>2026-04-26T09:11:56.7Z</time></trkpt><trkpt lat="46.150222" lon="9.497813"><ele>206.0</ele><time>2026-04-26T09:11:58.701Z</time></trkpt><trkpt lat="46.1502618" lon="9.4977353"><ele>206.0</ele><time>2026-04-26T09:11:59.702Z</time></trkpt><trkpt lat="46.1503406" lon="9.4975975"><ele>206.0</ele><time>2026-04-26T09:12:01.7Z</time></trkpt><trkpt lat="46.1504245" lon="9.4974608"><ele>206.0</ele><time>2026-04-26T09:12:03.701Z</time></trkpt><trkpt lat="46.1504714" lon="9.4973837"><ele>206.0</ele><time>2026-04-26T09:12:04.701Z</time></trkpt><trkpt lat="46.150511" lon="9.4973045"><ele>206.00000000000003</ele><time>2026-04-26T09:12:05.701Z</time></trkpt><trkpt lat="46.1505557" lon="9.4972275"><ele>206.0</ele><time>2026-04-26T09:12:06.701Z</time></trkpt><trkpt lat="46.1505978" lon="9.4971491"><ele>206.0</ele><time>2026-04-26T09:12:07.7Z</time></trkpt><trkpt lat="46.150641" lon="9.4970753"><ele>206.0</ele><time>2026-04-26T09:12:08.7Z</time></trkpt><trkpt lat="46.1506767" lon="9.4969978"><ele>206.00000000000003</ele><time>2026-04-26T09:12:09.701Z</time></trkpt><trkpt lat="46.150749" lon="9.4968368"><ele>206.0</ele><time>2026-04-26T09:12:11.701Z</time></trkpt><trkpt lat="46.150784" lon="9.4967439"><ele>206.28571428571428</ele><time>2026-04-26T09:12:12.701Z</time></trkpt><trkpt lat="46.1508183" lon="9.496661"><ele>206.57142857142856</ele><time>2026-04-26T09:12:13.7Z</time></trkpt><trkpt lat="46.1508552" lon="9.4965805"><ele>206.85714285714283</ele><time>2026-04-26T09:12:14.701Z</time></trkpt><trkpt lat="46.1508905" lon="9.4964938"><ele>207.14285714285714</ele><time>2026-04-26T09:12:15.7Z</time></trkpt><trkpt lat="46.150924" lon="9.4964016"><ele>207.42857142857144</ele><time>2026-04-26T09:12:16.7Z</time></trkpt><trkpt lat="46.1509553" lon="9.4963163"><ele>207.7142857142857</ele><time>2026-04-26T09:12:17.701Z</time></trkpt><trkpt lat="46.1509844" lon="9.4962341"><ele>208.0</ele><time>2026-04-26T09:12:18.701Z</time></trkpt><trkpt lat="46.1510148" lon="9.4961447"><ele>208.0</ele><time>2026-04-26T09:12:19.7Z</time></trkpt><trkpt lat="46.1510404" lon="9.4960549"><ele>208.0</ele><time>2026-04-26T09:12:20.7Z</time></trkpt><trkpt lat="46.1510669" lon="9.4959683"><ele>208.0</ele><time>2026-04-26T09:12:21.701Z</time></trkpt><trkpt lat="46.1510927" lon="9.4958755"><ele>208.0</ele><time>2026-04-26T09:12:22.701Z</time></trkpt><trkpt lat="46.1511176" lon="9.49578"><ele>208.0</ele><time>2026-04-26T09:12:23.701Z</time></trkpt><trkpt lat="46.1511371" lon="9.495688"><ele>208.0</ele><time>2026-04-26T09:12:24.701Z</time></trkpt><trkpt lat="46.1511588" lon="9.4956003"><ele>208.0</ele><time>2026-04-26T09:12:25.701Z</time></trkpt><trkpt lat="46.1511955" lon="9.4954288"><ele>207.83333333333331</ele><time>2026-04-26T09:12:27.701Z</time></trkpt><trkpt lat="46.1512144" lon="9.4953398"><ele>207.66666666666666</ele><time>2026-04-26T09:12:28.701Z</time></trkpt><trkpt lat="46.1512282" lon="9.4952378"><ele>207.5</ele><time>2026-04-26T09:12:29.701Z</time></trkpt><trkpt lat="46.1512547" lon="9.4950768"><ele>207.33333333333331</ele><time>2026-04-26T09:12:31.7Z</time></trkpt><trkpt lat="46.151269" lon="9.4949868"><ele>207.16666666666666</ele><time>2026-04-26T09:12:32.7Z</time></trkpt><trkpt lat="46.1512894" lon="9.4948201"><ele>207.0</ele><time>2026-04-26T09:12:34.7Z</time></trkpt><trkpt lat="46.1513106" lon="9.4946232"><ele>206.83333333333334</ele><time>2026-04-26T09:12:36.7Z</time></trkpt><trkpt lat="46.1513193" lon="9.4944279"><ele>206.66666666666669</ele><time>2026-04-26T09:12:38.701Z</time></trkpt><trkpt lat="46.1513236" lon="9.4943229"><ele>206.5</ele><time>2026-04-26T09:12:39.701Z</time></trkpt><trkpt lat="46.1513238" lon="9.4942308"><ele>206.33333333333334</ele><time>2026-04-26T09:12:40.7Z</time></trkpt><trkpt lat="46.1513223" lon="9.4941236"><ele>206.16666666666669</ele><time>2026-04-26T09:12:41.701Z</time></trkpt><trkpt lat="46.1513263" lon="9.4940222"><ele>206.0</ele><time>2026-04-26T09:12:42.7Z</time></trkpt><trkpt lat="46.1513199" lon="9.4938322"><ele>205.99999999999997</ele><time>2026-04-26T09:12:44.701Z</time></trkpt><trkpt lat="46.1513253" lon="9.4937363"><ele>206.0</ele><time>2026-04-26T09:12:45.7Z</time></trkpt><trkpt lat="46.1513215" lon="9.4936399"><ele>206.0</ele><time>2026-04-26T09:12:46.701Z</time></trkpt><trkpt lat="46.1513239" lon="9.4935469"><ele>206.0</ele><time>2026-04-26T09:12:47.701Z</time></trkpt><trkpt lat="46.1513203" lon="9.4934395"><ele>206.0</ele><time>2026-04-26T09:12:48.701Z</time></trkpt><trkpt lat="46.1513087" lon="9.4933414"><ele>205.99999999999997</ele><time>2026-04-26T09:12:49.701Z</time></trkpt><trkpt lat="46.1512963" lon="9.4932323"><ele>206.0</ele><time>2026-04-26T09:12:50.701Z</time></trkpt><trkpt lat="46.1512843" lon="9.4931425"><ele>205.99999999999997</ele><time>2026-04-26T09:12:51.701Z</time></trkpt><trkpt lat="46.1512681" lon="9.4930393"><ele>206.0</ele><time>2026-04-26T09:12:52.7Z</time></trkpt><trkpt lat="46.1512595" lon="9.4929402"><ele>206.0</ele><time>2026-04-26T09:12:53.701Z</time></trkpt><trkpt lat="46.1512439" lon="9.4928314"><ele>206.0</ele><time>2026-04-26T09:12:54.701Z</time></trkpt><trkpt lat="46.1512266" lon="9.4927349"><ele>206.0</ele><time>2026-04-26T09:12:55.701Z</time></trkpt><trkpt lat="46.1512141" lon="9.4926425"><ele>205.99999999999997</ele><time>2026-04-26T09:12:56.7Z</time></trkpt><trkpt lat="46.1511957" lon="9.49255"><ele>206.0</ele><time>2026-04-26T09:12:57.701Z</time></trkpt><trkpt lat="46.1511616" lon="9.4923836"><ele>205.99999999999997</ele><time>2026-04-26T09:12:59.701Z</time></trkpt><trkpt lat="46.1511342" lon="9.4922916"><ele>206.0</ele><time>2026-04-26T09:13:00.701Z</time></trkpt><trkpt lat="46.1511128" lon="9.492191"><ele>206.0</ele><time>2026-04-26T09:13:01.7Z</time></trkpt><trkpt lat="46.1510909" lon="9.4920938"><ele>206.0</ele><time>2026-04-26T09:13:02.7Z</time></trkpt><trkpt lat="46.1510678" lon="9.4919976"><ele>206.0</ele><time>2026-04-26T09:13:03.7Z</time></trkpt><trkpt lat="46.1510414" lon="9.4919023"><ele>205.99999999999997</ele><time>2026-04-26T09:13:04.702Z</time></trkpt><trkpt lat="46.1510167" lon="9.4918072"><ele>206.0</ele><time>2026-04-26T09:13:05.7Z</time></trkpt><trkpt lat="46.1509892" lon="9.4917059"><ele>205.99999999999997</ele><time>2026-04-26T09:13:06.701Z</time></trkpt><trkpt lat="46.1509667" lon="9.4916012"><ele>206.0</ele><time>2026-04-26T09:13:07.701Z</time></trkpt><trkpt lat="46.1509491" lon="9.491508"><ele>206.0</ele><time>2026-04-26T09:13:08.7Z</time></trkpt><trkpt lat="46.1509225" lon="9.491409"><ele>206.0</ele><time>2026-04-26T09:13:09.701Z</time></trkpt><trkpt lat="46.1509011" lon="9.4913167"><ele>206.0</ele><time>2026-04-26T09:13:10.701Z</time></trkpt><trkpt lat="46.1508734" lon="9.4912179"><ele>205.99999999999997</ele><time>2026-04-26T09:13:11.7Z</time></trkpt><trkpt lat="46.150845" lon="9.4911174"><ele>206.0</ele><time>2026-04-26T09:13:12.701Z</time></trkpt><trkpt lat="46.1508171" lon="9.4910155"><ele>206.00000000000003</ele><time>2026-04-26T09:13:13.699Z</time></trkpt><trkpt lat="46.1507938" lon="9.4909167"><ele>206.0</ele><time>2026-04-26T09:13:14.7Z</time></trkpt><trkpt lat="46.1507604" lon="9.4908133"><ele>206.0</ele><time>2026-04-26T09:13:15.7Z</time></trkpt><trkpt lat="46.1507379" lon="9.4907176"><ele>206.0</ele><time>2026-04-26T09:13:16.7Z</time></trkpt><trkpt lat="46.150686" lon="9.4905099"><ele>206.00000000000003</ele><time>2026-04-26T09:13:18.701Z</time></trkpt><trkpt lat="46.1506699" lon="9.4904138"><ele>206.0</ele><time>2026-04-26T09:13:19.702Z</time></trkpt><trkpt lat="46.1506513" lon="9.4903181"><ele>206.00000000000003</ele><time>2026-04-26T09:13:20.701Z</time></trkpt><trkpt lat="46.1506287" lon="9.4902205"><ele>206.0</ele><time>2026-04-26T09:13:21.701Z</time></trkpt><trkpt lat="46.1506041" lon="9.4901245"><ele>206.0</ele><time>2026-04-26T09:13:22.701Z</time></trkpt><trkpt lat="46.1505824" lon="9.4900306"><ele>206.0</ele><time>2026-04-26T09:13:23.7Z</time></trkpt><trkpt lat="46.15056" lon="9.4899324"><ele>206.00000000000003</ele><time>2026-04-26T09:13:24.7Z</time></trkpt><trkpt lat="46.1505129" lon="9.4897539"><ele>206.0</ele><time>2026-04-26T09:13:26.7Z</time></trkpt><trkpt lat="46.1504881" lon="9.4896621"><ele>205.99999999999997</ele><time>2026-04-26T09:13:27.7Z</time></trkpt><trkpt lat="46.1504678" lon="9.489573"><ele>206.0</ele><time>2026-04-26T09:13:28.701Z</time></trkpt><trkpt lat="46.1504477" lon="9.4894709"><ele>206.0</ele><time>2026-04-26T09:13:29.7Z</time></trkpt><trkpt lat="46.1504204" lon="9.489365"><ele>206.0</ele><time>2026-04-26T09:13:30.7Z</time></trkpt><trkpt lat="46.1503999" lon="9.4892708"><ele>206.0</ele><time>2026-04-26T09:13:31.7Z</time></trkpt><trkpt lat="46.1503806" lon="9.4891686"><ele>205.99999999999997</ele><time>2026-04-26T09:13:32.7Z</time></trkpt><trkpt lat="46.1503649" lon="9.4890601"><ele>206.0</ele><time>2026-04-26T09:13:33.7Z</time></trkpt><trkpt lat="46.1503491" lon="9.4889612"><ele>205.99999999999997</ele><time>2026-04-26T09:13:34.7Z</time></trkpt><trkpt lat="46.1503368" lon="9.4888661"><ele>206.0</ele><time>2026-04-26T09:13:35.7Z</time></trkpt><trkpt lat="46.1503153" lon="9.4887639"><ele>206.0</ele><time>2026-04-26T09:13:36.7Z</time></trkpt><trkpt lat="46.1503054" lon="9.4886741"><ele>206.0</ele><time>2026-04-26T09:13:37.701Z</time></trkpt><trkpt lat="46.1502996" lon="9.4885696"><ele>206.0</ele><time>2026-04-26T09:13:38.699Z</time></trkpt><trkpt lat="46.1502881" lon="9.4884772"><ele>205.99999999999997</ele><time>2026-04-26T09:13:39.7Z</time></trkpt><trkpt lat="46.1502709" lon="9.4883823"><ele>206.0</ele><time>2026-04-26T09:13:40.702Z</time></trkpt><trkpt lat="46.1502609" lon="9.4882848"><ele>206.00000000000003</ele><time>2026-04-26T09:13:41.701Z</time></trkpt><trkpt lat="46.1502485" lon="9.4880957"><ele>206.0</ele><time>2026-04-26T09:13:43.7Z</time></trkpt><trkpt lat="46.15024" lon="9.4879919"><ele>206.0</ele><time>2026-04-26T09:13:44.701Z</time></trkpt><trkpt lat="46.1502366" lon="9.48789"><ele>206.0</ele><time>2026-04-26T09:13:45.702Z</time></trkpt><trkpt lat="46.1502345" lon="9.4877891"><ele>206.00000000000003</ele><time>2026-04-26T09:13:46.702Z</time></trkpt><trkpt lat="46.150235" lon="9.4876905"><ele>206.0</ele><time>2026-04-26T09:13:47.7Z</time></trkpt><trkpt lat="46.1502482" lon="9.4876005"><ele>206.00000000000003</ele><time>2026-04-26T09:13:48.701Z</time></trkpt><trkpt lat="46.1502487" lon="9.4874995"><ele>206.0</ele><time>2026-04-26T09:13:49.7Z</time></trkpt><trkpt lat="46.1502482" lon="9.4874074"><ele>206.0</ele><time>2026-04-26T09:13:50.7Z</time></trkpt><trkpt lat="46.1502482" lon="9.4873063"><ele>206.0</ele><time>2026-04-26T09:13:51.701Z</time></trkpt><trkpt lat="46.1502483" lon="9.4872151"><ele>206.00000000000003</ele><time>2026-04-26T09:13:52.7Z</time></trkpt><trkpt lat="46.1502557" lon="9.487056"><ele>206.0</ele><time>2026-04-26T09:13:54.7Z</time></trkpt><trkpt lat="46.1502542" lon="9.4868847"><ele>206.00000000000003</ele><time>2026-04-26T09:13:56.7Z</time></trkpt><trkpt lat="46.1502784" lon="9.486728"><ele>206.0</ele><time>2026-04-26T09:13:58.701Z</time></trkpt><trkpt lat="46.1502967" lon="9.4866331"><ele>206.0</ele><time>2026-04-26T09:13:59.701Z</time></trkpt><trkpt lat="46.1503209" lon="9.4865338"><ele>206.0</ele><time>2026-04-26T09:14:00.701Z</time></trkpt><trkpt lat="46.1503473" lon="9.4864218"><ele>206.00000000000003</ele><time>2026-04-26T09:14:01.7Z</time></trkpt><trkpt lat="46.1503649" lon="9.4863056"><ele>206.0</ele><time>2026-04-26T09:14:02.701Z</time></trkpt><trkpt lat="46.1503851" lon="9.4861878"><ele>206.16666666666669</ele><time>2026-04-26T09:14:03.7Z</time></trkpt><trkpt lat="46.1504049" lon="9.4860699"><ele>206.33333333333334</ele><time>2026-04-26T09:14:04.702Z</time></trkpt><trkpt lat="46.1503882" lon="9.4859462"><ele>206.5</ele><time>2026-04-26T09:14:05.701Z</time></trkpt><trkpt lat="46.1503878" lon="9.4858347"><ele>206.66666666666669</ele><time>2026-04-26T09:14:06.7Z</time></trkpt><trkpt lat="46.150389" lon="9.4857256"><ele>206.83333333333334</ele><time>2026-04-26T09:14:07.7Z</time></trkpt><trkpt lat="46.1503672" lon="9.4855581"><ele>207.0</ele><time>2026-04-26T09:14:09.7Z</time></trkpt><trkpt lat="46.1503486" lon="9.485407"><ele>206.66666666666666</ele><time>2026-04-26T09:14:11.701Z</time></trkpt><trkpt lat="46.1503266" lon="9.4852574"><ele>206.33333333333331</ele><time>2026-04-26T09:14:13.701Z</time></trkpt><trkpt lat="46.1503336" lon="9.4851579"><ele>206.0</ele><time>2026-04-26T09:14:14.7Z</time></trkpt><trkpt lat="46.1503274" lon="9.485064"><ele>205.66666666666666</ele><time>2026-04-26T09:14:15.701Z</time></trkpt><trkpt lat="46.1503279" lon="9.4849702"><ele>205.33333333333331</ele><time>2026-04-26T09:14:16.7Z</time></trkpt><trkpt lat="46.15031" lon="9.4848223"><ele>205.0</ele><time>2026-04-26T09:14:18.701Z</time></trkpt><trkpt lat="46.1503219" lon="9.4847235"><ele>204.99999999999997</ele><time>2026-04-26T09:14:19.701Z</time></trkpt><trkpt lat="46.150317" lon="9.4846289"><ele>205.0</ele><time>2026-04-26T09:14:20.702Z</time></trkpt><trkpt lat="46.1503256" lon="9.484538"><ele>205.0</ele><time>2026-04-26T09:14:21.701Z</time></trkpt><trkpt lat="46.1502919" lon="9.4843465"><ele>205.0</ele><time>2026-04-26T09:14:23.701Z</time></trkpt><trkpt lat="46.1502699" lon="9.4842591"><ele>204.99999999999997</ele><time>2026-04-26T09:14:24.7Z</time></trkpt><trkpt lat="46.1502191" lon="9.4841049"><ele>205.0</ele><time>2026-04-26T09:14:26.701Z</time></trkpt><trkpt lat="46.1501515" lon="9.4839443"><ele>205.0</ele><time>2026-04-26T09:14:28.7Z</time></trkpt><trkpt lat="46.1501243" lon="9.4838539"><ele>205.0</ele><time>2026-04-26T09:14:29.7Z</time></trkpt><trkpt lat="46.1500735" lon="9.4836954"><ele>205.0</ele><time>2026-04-26T09:14:31.7Z</time></trkpt><trkpt lat="46.1500394" lon="9.4835304"><ele>205.0</ele><time>2026-04-26T09:14:33.702Z</time></trkpt><trkpt lat="46.1499948" lon="9.4833566"><ele>205.0</ele><time>2026-04-26T09:14:35.701Z</time></trkpt><trkpt lat="46.1499735" lon="9.4832669"><ele>205.33333333333331</ele><time>2026-04-26T09:14:36.7Z</time></trkpt><trkpt lat="46.1499436" lon="9.4831811"><ele>205.66666666666666</ele><time>2026-04-26T09:14:37.7Z</time></trkpt><trkpt lat="46.1498996" lon="9.4830097"><ele>206.0</ele><time>2026-04-26T09:14:39.701Z</time></trkpt><trkpt lat="46.1498489" lon="9.482923"><ele>206.33333333333331</ele><time>2026-04-26T09:14:40.702Z</time></trkpt><trkpt lat="46.1498201" lon="9.4828281"><ele>206.66666666666666</ele><time>2026-04-26T09:14:41.7Z</time></trkpt><trkpt lat="46.1497951" lon="9.4827417"><ele>207.0</ele><time>2026-04-26T09:14:42.701Z</time></trkpt><trkpt lat="46.1497641" lon="9.4826464"><ele>207.0</ele><time>2026-04-26T09:14:43.702Z</time></trkpt><trkpt lat="46.149728" lon="9.4825489"><ele>207.0</ele><time>2026-04-26T09:14:44.701Z</time></trkpt><trkpt lat="46.1497055" lon="9.4824547"><ele>207.0</ele><time>2026-04-26T09:14:45.699Z</time></trkpt><trkpt lat="46.1496839" lon="9.4823684"><ele>207.0</ele><time>2026-04-26T09:14:46.7Z</time></trkpt><trkpt lat="46.1496396" lon="9.4822183"><ele>207.0</ele><time>2026-04-26T09:14:48.701Z</time></trkpt><trkpt lat="46.149612" lon="9.4821353"><ele>207.0</ele><time>2026-04-26T09:14:49.7Z</time></trkpt><trkpt lat="46.1495821" lon="9.4820485"><ele>207.0</ele><time>2026-04-26T09:14:50.7Z</time></trkpt><trkpt lat="46.1495486" lon="9.4819696"><ele>207.0</ele><time>2026-04-26T09:14:51.7Z</time></trkpt><trkpt lat="46.1495189" lon="9.4818785"><ele>207.0</ele><time>2026-04-26T09:14:52.7Z</time></trkpt><trkpt lat="46.1494765" lon="9.4817076"><ele>207.0</ele><time>2026-04-26T09:14:54.7Z</time></trkpt><trkpt lat="46.1494457" lon="9.4816137"><ele>207.0</ele><time>2026-04-26T09:14:55.7Z</time></trkpt><trkpt lat="46.1494198" lon="9.4815185"><ele>207.0</ele><time>2026-04-26T09:14:56.701Z</time></trkpt><trkpt lat="46.1493931" lon="9.4814284"><ele>207.0</ele><time>2026-04-26T09:14:57.701Z</time></trkpt><trkpt lat="46.1493428" lon="9.4812609"><ele>207.0</ele><time>2026-04-26T09:14:59.7Z</time></trkpt><trkpt lat="46.1493163" lon="9.4811563"><ele>207.0</ele><time>2026-04-26T09:15:00.7Z</time></trkpt><trkpt lat="46.1492812" lon="9.4810673"><ele>207.0</ele><time>2026-04-26T09:15:01.701Z</time></trkpt><trkpt lat="46.1492524" lon="9.4809704"><ele>207.0</ele><time>2026-04-26T09:15:02.701Z</time></trkpt><trkpt lat="46.1492213" lon="9.480886"><ele>207.0</ele><time>2026-04-26T09:15:03.701Z</time></trkpt><trkpt lat="46.1492001" lon="9.4807972"><ele>207.0</ele><time>2026-04-26T09:15:04.7Z</time></trkpt><trkpt lat="46.1491679" lon="9.4807054"><ele>207.0</ele><time>2026-04-26T09:15:05.7Z</time></trkpt><trkpt lat="46.1491184" lon="9.4805318"><ele>207.0</ele><time>2026-04-26T09:15:07.7Z</time></trkpt><trkpt lat="46.1490823" lon="9.4804393"><ele>207.0</ele><time>2026-04-26T09:15:08.701Z</time></trkpt><trkpt lat="46.1490473" lon="9.4803473"><ele>207.0</ele><time>2026-04-26T09:15:09.7Z</time></trkpt><trkpt lat="46.1490226" lon="9.4802595"><ele>207.0</ele><time>2026-04-26T09:15:10.701Z</time></trkpt><trkpt lat="46.148994" lon="9.4801775"><ele>206.8</ele><time>2026-04-26T09:15:11.7Z</time></trkpt><trkpt lat="46.1489406" lon="9.4800146"><ele>206.6</ele><time>2026-04-26T09:15:13.7Z</time></trkpt><trkpt lat="46.1488885" lon="9.479847"><ele>206.4</ele><time>2026-04-26T09:15:15.701Z</time></trkpt><trkpt lat="46.1488568" lon="9.4797592"><ele>206.20000000000002</ele><time>2026-04-26T09:15:16.7Z</time></trkpt><trkpt lat="46.1488275" lon="9.4796758"><ele>206.0</ele><time>2026-04-26T09:15:17.701Z</time></trkpt><trkpt lat="46.1487971" lon="9.4795795"><ele>205.8</ele><time>2026-04-26T09:15:18.702Z</time></trkpt><trkpt lat="46.1487769" lon="9.4794918"><ele>205.60000000000002</ele><time>2026-04-26T09:15:19.701Z</time></trkpt><trkpt lat="46.1487232" lon="9.4793369"><ele>205.4</ele><time>2026-04-26T09:15:21.7Z</time></trkpt><trkpt lat="46.1486674" lon="9.4791731"><ele>205.2</ele><time>2026-04-26T09:15:23.7Z</time></trkpt><trkpt lat="46.1486433" lon="9.4790781"><ele>205.0</ele><time>2026-04-26T09:15:24.701Z</time></trkpt><trkpt lat="46.1486204" lon="9.4789822"><ele>205.0</ele><time>2026-04-26T09:15:25.701Z</time></trkpt><trkpt lat="46.1485977" lon="9.4788833"><ele>205.0</ele><time>2026-04-26T09:15:26.7Z</time></trkpt><trkpt lat="46.1485626" lon="9.4787933"><ele>205.0</ele><time>2026-04-26T09:15:27.701Z</time></trkpt><trkpt lat="46.148527" lon="9.4787076"><ele>205.0</ele><time>2026-04-26T09:15:28.701Z</time></trkpt><trkpt lat="46.1484975" lon="9.478624"><ele>205.0</ele><time>2026-04-26T09:15:29.7Z</time></trkpt><trkpt lat="46.1484647" lon="9.4785332"><ele>205.0</ele><time>2026-04-26T09:15:30.7Z</time></trkpt><trkpt lat="46.1484308" lon="9.478441"><ele>205.0</ele><time>2026-04-26T09:15:31.701Z</time></trkpt><trkpt lat="46.1483722" lon="9.4783759"><ele>205.2857142857143</ele><time>2026-04-26T09:15:32.703Z</time></trkpt><trkpt lat="46.1483113" lon="9.4783469"><ele>205.57142857142856</ele><time>2026-04-26T09:15:33.7Z</time></trkpt><trkpt lat="46.1482392" lon="9.478318"><ele>205.85714285714286</ele><time>2026-04-26T09:15:34.7Z</time></trkpt><trkpt lat="46.1481592" lon="9.4782916"><ele>206.14285714285717</ele><time>2026-04-26T09:15:35.701Z</time></trkpt><trkpt lat="46.1480918" lon="9.4782688"><ele>206.42857142857144</ele><time>2026-04-26T09:15:36.701Z</time></trkpt><trkpt lat="46.1480282" lon="9.4782472"><ele>206.71428571428572</ele><time>2026-04-26T09:15:37.699Z</time></trkpt><trkpt lat="46.1479642" lon="9.4782255"><ele>207.0</ele><time>2026-04-26T09:15:38.701Z</time></trkpt><trkpt lat="46.1478951" lon="9.4781977"><ele>207.00000000000003</ele><time>2026-04-26T09:15:39.702Z</time></trkpt><trkpt lat="46.1478326" lon="9.4781712"><ele>207.0</ele><time>2026-04-26T09:15:40.701Z</time></trkpt><trkpt lat="46.1477567" lon="9.4781401"><ele>207.0</ele><time>2026-04-26T09:15:41.701Z</time></trkpt><trkpt lat="46.1476898" lon="9.4781221"><ele>207.0</ele><time>2026-04-26T09:15:42.701Z</time></trkpt><trkpt lat="46.1476209" lon="9.4781109"><ele>207.0</ele><time>2026-04-26T09:15:43.701Z</time></trkpt><trkpt lat="46.1475566" lon="9.4780964"><ele>207.00000000000003</ele><time>2026-04-26T09:15:44.702Z</time></trkpt><trkpt lat="46.1474892" lon="9.4780858"><ele>207.0</ele><time>2026-04-26T09:15:45.701Z</time></trkpt><trkpt lat="46.147425" lon="9.4780484"><ele>207.2</ele><time>2026-04-26T09:15:46.7Z</time></trkpt><trkpt lat="46.1473252" lon="9.4779625"><ele>207.39999999999998</ele><time>2026-04-26T09:15:48.701Z</time></trkpt><trkpt lat="46.1472998" lon="9.477819"><ele>207.60000000000002</ele><time>2026-04-26T09:15:50.701Z</time></trkpt><trkpt lat="46.1473462" lon="9.4776818"><ele>207.8</ele><time>2026-04-26T09:15:52.701Z</time></trkpt><trkpt lat="46.1473363" lon="9.4775262"><ele>208.0</ele><time>2026-04-26T09:15:54.701Z</time></trkpt><trkpt lat="46.1473005" lon="9.477407"><ele>208.0</ele><time>2026-04-26T09:15:56.7Z</time></trkpt><trkpt lat="46.1472753" lon="9.4773034"><ele>208.0</ele><time>2026-04-26T09:15:58.701Z</time></trkpt><trkpt lat="46.1472717" lon="9.477162"><ele>208.0</ele><time>2026-04-26T09:16:00.7Z</time></trkpt><trkpt lat="46.1472377" lon="9.4770039"><ele>208.0</ele><time>2026-04-26T09:16:02.701Z</time></trkpt><trkpt lat="46.1472057" lon="9.4768478"><ele>208.0</ele><time>2026-04-26T09:16:04.7Z</time></trkpt><trkpt lat="46.1471812" lon="9.4766536"><ele>207.4</ele><time>2026-04-26T09:16:06.701Z</time></trkpt><trkpt lat="46.1471676" lon="9.4764694"><ele>206.8</ele><time>2026-04-26T09:16:08.7Z</time></trkpt><trkpt lat="46.1471446" lon="9.476281"><ele>206.2</ele><time>2026-04-26T09:16:10.701Z</time></trkpt><trkpt lat="46.1471239" lon="9.4761872"><ele>205.6</ele><time>2026-04-26T09:16:11.701Z</time></trkpt><trkpt lat="46.147105" lon="9.4760975"><ele>205.0</ele><time>2026-04-26T09:16:12.701Z</time></trkpt><trkpt lat="46.1470856" lon="9.4760026"><ele>204.83333333333331</ele><time>2026-04-26T09:16:13.701Z</time></trkpt><trkpt lat="46.1470544" lon="9.4757882"><ele>204.66666666666666</ele><time>2026-04-26T09:16:15.702Z</time></trkpt><trkpt lat="46.1470404" lon="9.4756887"><ele>204.5</ele><time>2026-04-26T09:16:16.7Z</time></trkpt><trkpt lat="46.1470296" lon="9.47558"><ele>204.33333333333331</ele><time>2026-04-26T09:16:17.7Z</time></trkpt><trkpt lat="46.1470325" lon="9.4754791"><ele>204.16666666666666</ele><time>2026-04-26T09:16:18.701Z</time></trkpt><trkpt lat="46.1470261" lon="9.4753824"><ele>204.0</ele><time>2026-04-26T09:16:19.701Z</time></trkpt><trkpt lat="46.1470133" lon="9.4752842"><ele>205.0</ele><time>2026-04-26T09:16:20.701Z</time></trkpt><trkpt lat="46.1470361" lon="9.4751975"><ele>206.0</ele><time>2026-04-26T09:16:21.7Z</time></trkpt><trkpt lat="46.1470616" lon="9.475111"><ele>207.0</ele><time>2026-04-26T09:16:22.7Z</time></trkpt><trkpt lat="46.147072" lon="9.474936"><ele>208.0</ele><time>2026-04-26T09:16:24.702Z</time></trkpt><trkpt lat="46.1471145" lon="9.4748582"><ele>209.0</ele><time>2026-04-26T09:16:25.701Z</time></trkpt><trkpt lat="46.1471397" lon="9.4747737"><ele>210.0</ele><time>2026-04-26T09:16:26.701Z</time></trkpt><trkpt lat="46.1471666" lon="9.4746687"><ele>210.33333333333334</ele><time>2026-04-26T09:16:27.701Z</time></trkpt><trkpt lat="46.1471934" lon="9.4745787"><ele>210.66666666666669</ele><time>2026-04-26T09:16:28.7Z</time></trkpt><trkpt lat="46.147228" lon="9.4744983"><ele>211.0</ele><time>2026-04-26T09:16:29.702Z</time></trkpt><trkpt lat="46.147221" lon="9.4743988"><ele>211.33333333333334</ele><time>2026-04-26T09:16:31.7Z</time></trkpt><trkpt lat="46.1472806" lon="9.4742924"><ele>211.66666666666669</ele><time>2026-04-26T09:16:32.702Z</time></trkpt><trkpt lat="46.1472905" lon="9.4741993"><ele>212.0</ele><time>2026-04-26T09:16:33.7Z</time></trkpt><trkpt lat="46.1473406" lon="9.4740351"><ele>211.6</ele><time>2026-04-26T09:16:35.7Z</time></trkpt><trkpt lat="46.1474149" lon="9.4738724"><ele>211.2</ele><time>2026-04-26T09:16:37.701Z</time></trkpt><trkpt lat="46.1474296" lon="9.4737835"><ele>210.8</ele><time>2026-04-26T09:16:38.701Z</time></trkpt><trkpt lat="46.1474815" lon="9.4736715"><ele>210.4</ele><time>2026-04-26T09:16:40.701Z</time></trkpt><trkpt lat="46.1475157" lon="9.4735668"><ele>210.0</ele><time>2026-04-26T09:16:42.702Z</time></trkpt><trkpt lat="46.147529" lon="9.473423"><ele>210.0</ele><time>2026-04-26T09:16:45.702Z</time></trkpt><trkpt lat="46.1475519" lon="9.4733076"><ele>210.0</ele><time>2026-04-26T09:16:47.7Z</time></trkpt><trkpt lat="46.1475616" lon="9.4732085"><ele>210.0</ele><time>2026-04-26T09:16:49.7Z</time></trkpt><trkpt lat="46.147588" lon="9.4730929"><ele>210.0</ele><time>2026-04-26T09:16:51.702Z</time></trkpt><trkpt lat="46.1476077" lon="9.4729624"><ele>210.0</ele><time>2026-04-26T09:16:53.702Z</time></trkpt><trkpt lat="46.1476595" lon="9.4728611"><ele>210.0</ele><time>2026-04-26T09:16:54.7Z</time></trkpt><trkpt lat="46.1477079" lon="9.4727035"><ele>209.6</ele><time>2026-04-26T09:16:56.702Z</time></trkpt><trkpt lat="46.1477513" lon="9.4725342"><ele>209.2</ele><time>2026-04-26T09:16:58.702Z</time></trkpt><trkpt lat="46.1477642" lon="9.4724229"><ele>208.8</ele><time>2026-04-26T09:16:59.701Z</time></trkpt><trkpt lat="46.1477815" lon="9.4723165"><ele>208.4</ele><time>2026-04-26T09:17:00.702Z</time></trkpt><trkpt lat="46.147783" lon="9.4721583"><ele>208.0</ele><time>2026-04-26T09:17:02.701Z</time></trkpt><trkpt lat="46.1478058" lon="9.4720012"><ele>207.60000000000002</ele><time>2026-04-26T09:17:04.7Z</time></trkpt><trkpt lat="46.1478274" lon="9.4719127"><ele>207.20000000000002</ele><time>2026-04-26T09:17:05.699Z</time></trkpt><trkpt lat="46.1478507" lon="9.471818"><ele>206.8</ele><time>2026-04-26T09:17:06.701Z</time></trkpt><trkpt lat="46.1478731" lon="9.4717311"><ele>206.4</ele><time>2026-04-26T09:17:07.701Z</time></trkpt><trkpt lat="46.1479136" lon="9.4715637"><ele>206.0</ele><time>2026-04-26T09:17:09.7Z</time></trkpt><trkpt lat="46.1479627" lon="9.4713906"><ele>206.0</ele><time>2026-04-26T09:17:11.703Z</time></trkpt><trkpt lat="46.1479571" lon="9.4712404"><ele>206.0</ele><time>2026-04-26T09:17:13.702Z</time></trkpt><trkpt lat="46.1479135" lon="9.4711035"><ele>206.0</ele><time>2026-04-26T09:17:15.701Z</time></trkpt><trkpt lat="46.1478508" lon="9.470924"><ele>206.0</ele><time>2026-04-26T09:17:17.701Z</time></trkpt><trkpt lat="46.1478015" lon="9.4707821"><ele>206.0</ele><time>2026-04-26T09:17:19.701Z</time></trkpt><trkpt lat="46.1477586" lon="9.4706199"><ele>206.0</ele><time>2026-04-26T09:17:21.7Z</time></trkpt><trkpt lat="46.1476825" lon="9.4704812"><ele>206.0</ele><time>2026-04-26T09:17:23.701Z</time></trkpt><trkpt lat="46.1476441" lon="9.4703223"><ele>206.0</ele><time>2026-04-26T09:17:25.7Z</time></trkpt><trkpt lat="46.1476014" lon="9.4702371"><ele>206.0</ele><time>2026-04-26T09:17:26.7Z</time></trkpt><trkpt lat="46.1475158" lon="9.4701455"><ele>205.8</ele><time>2026-04-26T09:17:28.702Z</time></trkpt><trkpt lat="46.1474071" lon="9.4700785"><ele>205.60000000000002</ele><time>2026-04-26T09:17:30.701Z</time></trkpt><trkpt lat="46.1472793" lon="9.4699882"><ele>205.4</ele><time>2026-04-26T09:17:33.701Z</time></trkpt><trkpt lat="46.1472166" lon="9.4698977"><ele>205.2</ele><time>2026-04-26T09:17:35.702Z</time></trkpt><trkpt lat="46.1472321" lon="9.4698003"><ele>205.0</ele><time>2026-04-26T09:17:36.701Z</time></trkpt><trkpt lat="46.1472436" lon="9.4696675"><ele>205.0</ele><time>2026-04-26T09:17:38.701Z</time></trkpt><trkpt lat="46.1472814" lon="9.4695164"><ele>205.0</ele><time>2026-04-26T09:17:40.701Z</time></trkpt><trkpt lat="46.1473374" lon="9.4693583"><ele>205.0</ele><time>2026-04-26T09:17:42.701Z</time></trkpt><trkpt lat="46.1474054" lon="9.4692002"><ele>205.0</ele><time>2026-04-26T09:17:44.701Z</time></trkpt><trkpt lat="46.1474334" lon="9.4691124"><ele>205.0</ele><time>2026-04-26T09:17:45.702Z</time></trkpt><trkpt lat="46.1474572" lon="9.4690232"><ele>205.0</ele><time>2026-04-26T09:17:46.701Z</time></trkpt><trkpt lat="46.1474725" lon="9.4689227"><ele>205.0</ele><time>2026-04-26T09:17:47.699Z</time></trkpt><trkpt lat="46.1474757" lon="9.4688203"><ele>205.0</ele><time>2026-04-26T09:17:48.7Z</time></trkpt><trkpt lat="46.1474535" lon="9.4687253"><ele>205.0</ele><time>2026-04-26T09:17:49.702Z</time></trkpt><trkpt lat="46.147417" lon="9.4686406"><ele>205.0</ele><time>2026-04-26T09:17:50.702Z</time></trkpt><trkpt lat="46.1473862" lon="9.4685583"><ele>205.0</ele><time>2026-04-26T09:17:51.701Z</time></trkpt><trkpt lat="46.1473472" lon="9.4684662"><ele>205.0</ele><time>2026-04-26T09:17:52.7Z</time></trkpt><trkpt lat="46.1473198" lon="9.468365"><ele>204.85714285714286</ele><time>2026-04-26T09:17:53.7Z</time></trkpt><trkpt lat="46.1472928" lon="9.4682746"><ele>204.7142857142857</ele><time>2026-04-26T09:17:54.701Z</time></trkpt><trkpt lat="46.1472618" lon="9.4681846"><ele>204.57142857142856</ele><time>2026-04-26T09:17:55.702Z</time></trkpt><trkpt lat="46.1472398" lon="9.4680951"><ele>204.42857142857144</ele><time>2026-04-26T09:17:56.7Z</time></trkpt><trkpt lat="46.1472273" lon="9.4680056"><ele>204.28571428571428</ele><time>2026-04-26T09:17:57.699Z</time></trkpt><trkpt lat="46.147212" lon="9.4679174"><ele>204.14285714285714</ele><time>2026-04-26T09:17:58.7Z</time></trkpt><trkpt lat="46.1471989" lon="9.4678191"><ele>204.0</ele><time>2026-04-26T09:17:59.701Z</time></trkpt><trkpt lat="46.1471763" lon="9.4677334"><ele>204.0</ele><time>2026-04-26T09:18:00.701Z</time></trkpt><trkpt lat="46.1471412" lon="9.4675688"><ele>204.0</ele><time>2026-04-26T09:18:02.701Z</time></trkpt><trkpt lat="46.1471238" lon="9.4674777"><ele>204.0</ele><time>2026-04-26T09:18:03.701Z</time></trkpt><trkpt lat="46.1470871" lon="9.4673017"><ele>204.0</ele><time>2026-04-26T09:18:05.7Z</time></trkpt><trkpt lat="46.1470743" lon="9.4672061"><ele>204.0</ele><time>2026-04-26T09:18:06.7Z</time></trkpt><trkpt lat="46.1470538" lon="9.4671086"><ele>204.0</ele><time>2026-04-26T09:18:07.702Z</time></trkpt><trkpt lat="46.147035" lon="9.4670117"><ele>204.0</ele><time>2026-04-26T09:18:08.7Z</time></trkpt><trkpt lat="46.1470148" lon="9.46691"><ele>204.0</ele><time>2026-04-26T09:18:09.702Z</time></trkpt><trkpt lat="46.1470032" lon="9.4668146"><ele>204.0</ele><time>2026-04-26T09:18:10.701Z</time></trkpt><trkpt lat="46.1469886" lon="9.4667097"><ele>204.0</ele><time>2026-04-26T09:18:11.7Z</time></trkpt><trkpt lat="46.1469714" lon="9.4666007"><ele>204.0</ele><time>2026-04-26T09:18:12.7Z</time></trkpt><trkpt lat="46.146956" lon="9.4665017"><ele>204.0</ele><time>2026-04-26T09:18:13.7Z</time></trkpt><trkpt lat="46.1469356" lon="9.4664085"><ele>204.0</ele><time>2026-04-26T09:18:14.701Z</time></trkpt><trkpt lat="46.1469186" lon="9.4663107"><ele>204.0</ele><time>2026-04-26T09:18:15.702Z</time></trkpt><trkpt lat="46.1469026" lon="9.4662199"><ele>204.0</ele><time>2026-04-26T09:18:16.701Z</time></trkpt><trkpt lat="46.1468927" lon="9.4661278"><ele>204.0</ele><time>2026-04-26T09:18:17.701Z</time></trkpt><trkpt lat="46.1468531" lon="9.4659624"><ele>204.0</ele><time>2026-04-26T09:18:19.701Z</time></trkpt><trkpt lat="46.1468321" lon="9.4658723"><ele>204.0</ele><time>2026-04-26T09:18:20.701Z</time></trkpt><trkpt lat="46.1468181" lon="9.465774"><ele>204.0</ele><time>2026-04-26T09:18:21.701Z</time></trkpt><trkpt lat="46.1468176" lon="9.4656795"><ele>204.0</ele><time>2026-04-26T09:18:22.701Z</time></trkpt><trkpt lat="46.1468187" lon="9.4655777"><ele>204.0</ele><time>2026-04-26T09:18:23.7Z</time></trkpt><trkpt lat="46.1468123" lon="9.4654855"><ele>204.0</ele><time>2026-04-26T09:18:24.701Z</time></trkpt><trkpt lat="46.1468286" lon="9.4653059"><ele>204.0</ele><time>2026-04-26T09:18:26.701Z</time></trkpt><trkpt lat="46.1468335" lon="9.4651304"><ele>204.0</ele><time>2026-04-26T09:18:28.701Z</time></trkpt><trkpt lat="46.146827" lon="9.4649573"><ele>204.0</ele><time>2026-04-26T09:18:30.701Z</time></trkpt><trkpt lat="46.1468209" lon="9.4647988"><ele>204.0</ele><time>2026-04-26T09:18:32.7Z</time></trkpt><trkpt lat="46.1468489" lon="9.4646386"><ele>204.0</ele><time>2026-04-26T09:18:34.7Z</time></trkpt><trkpt lat="46.1469124" lon="9.4645108"><ele>204.0</ele><time>2026-04-26T09:18:36.702Z</time></trkpt><trkpt lat="46.1469658" lon="9.4643634"><ele>204.0</ele><time>2026-04-26T09:18:38.7Z</time></trkpt><trkpt lat="46.147018" lon="9.4642175"><ele>204.2</ele><time>2026-04-26T09:18:40.701Z</time></trkpt><trkpt lat="46.1470678" lon="9.4640605"><ele>204.39999999999998</ele><time>2026-04-26T09:18:42.701Z</time></trkpt><trkpt lat="46.1471011" lon="9.4639827"><ele>204.6</ele><time>2026-04-26T09:18:43.701Z</time></trkpt><trkpt lat="46.1471642" lon="9.4638222"><ele>204.8</ele><time>2026-04-26T09:18:45.702Z</time></trkpt><trkpt lat="46.1471993" lon="9.4637438"><ele>205.0</ele><time>2026-04-26T09:18:46.7Z</time></trkpt><trkpt lat="46.1472643" lon="9.4635918"><ele>205.25</ele><time>2026-04-26T09:18:48.701Z</time></trkpt><trkpt lat="46.1473193" lon="9.4634455"><ele>205.5</ele><time>2026-04-26T09:18:50.7Z</time></trkpt><trkpt lat="46.1473948" lon="9.4633348"><ele>205.75</ele><time>2026-04-26T09:18:52.7Z</time></trkpt><trkpt lat="46.1474703" lon="9.4631973"><ele>206.0</ele><time>2026-04-26T09:18:54.701Z</time></trkpt><trkpt lat="46.1475432" lon="9.4630665"><ele>205.60000000000002</ele><time>2026-04-26T09:18:56.702Z</time></trkpt><trkpt lat="46.1476266" lon="9.4629393"><ele>205.2</ele><time>2026-04-26T09:18:58.702Z</time></trkpt><trkpt lat="46.1476671" lon="9.4628687"><ele>204.8</ele><time>2026-04-26T09:18:59.701Z</time></trkpt><trkpt lat="46.1477478" lon="9.4627562"><ele>204.39999999999998</ele><time>2026-04-26T09:19:01.7Z</time></trkpt><trkpt lat="46.1478402" lon="9.4626421"><ele>204.0</ele><time>2026-04-26T09:19:03.701Z</time></trkpt><trkpt lat="46.1478908" lon="9.4625764"><ele>204.0</ele><time>2026-04-26T09:19:04.701Z</time></trkpt><trkpt lat="46.1479759" lon="9.4624705"><ele>204.0</ele><time>2026-04-26T09:19:06.701Z</time></trkpt><trkpt lat="46.1480272" lon="9.462413"><ele>204.0</ele><time>2026-04-26T09:19:07.702Z</time></trkpt><trkpt lat="46.1481181" lon="9.4622957"><ele>204.0</ele><time>2026-04-26T09:19:09.701Z</time></trkpt><trkpt lat="46.1481716" lon="9.462238"><ele>204.0</ele><time>2026-04-26T09:19:10.701Z</time></trkpt><trkpt lat="46.1482244" lon="9.4621815"><ele>204.0</ele><time>2026-04-26T09:19:11.7Z</time></trkpt><trkpt lat="46.1482751" lon="9.4621229"><ele>203.83333333333334</ele><time>2026-04-26T09:19:12.701Z</time></trkpt><trkpt lat="46.1483265" lon="9.4620621"><ele>203.66666666666669</ele><time>2026-04-26T09:19:13.701Z</time></trkpt><trkpt lat="46.1483805" lon="9.4620038"><ele>203.5</ele><time>2026-04-26T09:19:14.701Z</time></trkpt><trkpt lat="46.1484336" lon="9.4619467"><ele>203.33333333333334</ele><time>2026-04-26T09:19:15.7Z</time></trkpt><trkpt lat="46.1485302" lon="9.4618278"><ele>203.16666666666669</ele><time>2026-04-26T09:19:17.701Z</time></trkpt><trkpt lat="46.1485738" lon="9.4617618"><ele>203.0</ele><time>2026-04-26T09:19:18.701Z</time></trkpt><trkpt lat="46.1486614" lon="9.4616413"><ele>203.0</ele><time>2026-04-26T09:19:20.7Z</time></trkpt><trkpt lat="46.1487598" lon="9.4615368"><ele>203.0</ele><time>2026-04-26T09:19:22.7Z</time></trkpt><trkpt lat="46.1488423" lon="9.4614224"><ele>203.0</ele><time>2026-04-26T09:19:24.701Z</time></trkpt><trkpt lat="46.1489272" lon="9.4612945"><ele>203.0</ele><time>2026-04-26T09:19:26.701Z</time></trkpt><trkpt lat="46.149002" lon="9.4611727"><ele>202.8</ele><time>2026-04-26T09:19:28.701Z</time></trkpt><trkpt lat="46.1490662" lon="9.4610616"><ele>202.60000000000002</ele><time>2026-04-26T09:19:30.702Z</time></trkpt><trkpt lat="46.149111" lon="9.4608971"><ele>202.39999999999998</ele><time>2026-04-26T09:19:32.7Z</time></trkpt><trkpt lat="46.1491358" lon="9.4608111"><ele>202.2</ele><time>2026-04-26T09:19:33.702Z</time></trkpt><trkpt lat="46.149188" lon="9.4606465"><ele>202.0</ele><time>2026-04-26T09:19:35.701Z</time></trkpt><trkpt lat="46.149254" lon="9.4605072"><ele>202.16666666666666</ele><time>2026-04-26T09:19:37.701Z</time></trkpt><trkpt lat="46.1492929" lon="9.4604263"><ele>202.33333333333331</ele><time>2026-04-26T09:19:38.701Z</time></trkpt><trkpt lat="46.1493245" lon="9.4603342"><ele>202.5</ele><time>2026-04-26T09:19:39.701Z</time></trkpt><trkpt lat="46.1493561" lon="9.4602415"><ele>202.66666666666669</ele><time>2026-04-26T09:19:40.701Z</time></trkpt><trkpt lat="46.1493785" lon="9.4601366"><ele>202.83333333333334</ele><time>2026-04-26T09:19:41.701Z</time></trkpt><trkpt lat="46.1494049" lon="9.4600411"><ele>203.0</ele><time>2026-04-26T09:19:42.701Z</time></trkpt><trkpt lat="46.1494678" lon="9.4598429"><ele>203.00000000000003</ele><time>2026-04-26T09:19:44.7Z</time></trkpt><trkpt lat="46.1495243" lon="9.4597607"><ele>203.0</ele><time>2026-04-26T09:19:45.702Z</time></trkpt><trkpt lat="46.1495448" lon="9.4596646"><ele>203.0</ele><time>2026-04-26T09:19:46.701Z</time></trkpt><trkpt lat="46.1495521" lon="9.4595627"><ele>203.0</ele><time>2026-04-26T09:19:47.702Z</time></trkpt><trkpt lat="46.1495522" lon="9.45947"><ele>203.00000000000003</ele><time>2026-04-26T09:19:48.701Z</time></trkpt><trkpt lat="46.1495427" lon="9.4592932"><ele>203.0</ele><time>2026-04-26T09:19:50.702Z</time></trkpt><trkpt lat="46.1495415" lon="9.4592019"><ele>203.0</ele><time>2026-04-26T09:19:51.702Z</time></trkpt><trkpt lat="46.1495087" lon="9.4590243"><ele>203.0</ele><time>2026-04-26T09:19:53.702Z</time></trkpt><trkpt lat="46.1494664" lon="9.4588757"><ele>203.0</ele><time>2026-04-26T09:19:55.7Z</time></trkpt><trkpt lat="46.1494182" lon="9.4587255"><ele>203.0</ele><time>2026-04-26T09:19:57.701Z</time></trkpt><trkpt lat="46.1493515" lon="9.458675"><ele>203.0</ele><time>2026-04-26T09:19:58.701Z</time></trkpt><trkpt lat="46.1493012" lon="9.4586173"><ele>203.2</ele><time>2026-04-26T09:19:59.701Z</time></trkpt><trkpt lat="46.1492381" lon="9.4584907"><ele>203.4</ele><time>2026-04-26T09:20:01.701Z</time></trkpt><trkpt lat="46.1491883" lon="9.4583863"><ele>203.6</ele><time>2026-04-26T09:20:03.701Z</time></trkpt><trkpt lat="46.1491286" lon="9.458255"><ele>203.79999999999998</ele><time>2026-04-26T09:20:05.701Z</time></trkpt><trkpt lat="46.1490529" lon="9.458112"><ele>204.0</ele><time>2026-04-26T09:20:07.7Z</time></trkpt><trkpt lat="46.1490103" lon="9.4580397"><ele>204.39999999999998</ele><time>2026-04-26T09:20:08.702Z</time></trkpt><trkpt lat="46.1489662" lon="9.457972"><ele>204.8</ele><time>2026-04-26T09:20:09.702Z</time></trkpt><trkpt lat="46.148878" lon="9.4578371"><ele>205.2</ele><time>2026-04-26T09:20:11.702Z</time></trkpt><trkpt lat="46.1488293" lon="9.4577697"><ele>205.60000000000002</ele><time>2026-04-26T09:20:12.701Z</time></trkpt><trkpt lat="46.1487445" lon="9.4576173"><ele>206.0</ele><time>2026-04-26T09:20:14.701Z</time></trkpt><trkpt lat="46.1487013" lon="9.4575493"><ele>205.66666666666669</ele><time>2026-04-26T09:20:15.701Z</time></trkpt><trkpt lat="46.1486047" lon="9.4574126"><ele>205.33333333333334</ele><time>2026-04-26T09:20:17.702Z</time></trkpt><trkpt lat="46.1485569" lon="9.4573379"><ele>205.0</ele><time>2026-04-26T09:20:18.702Z</time></trkpt><trkpt lat="46.1484999" lon="9.4572473"><ele>204.66666666666669</ele><time>2026-04-26T09:20:19.702Z</time></trkpt><trkpt lat="46.1484438" lon="9.4571785"><ele>204.33333333333334</ele><time>2026-04-26T09:20:20.7Z</time></trkpt><trkpt lat="46.1483848" lon="9.4571124"><ele>204.0</ele><time>2026-04-26T09:20:21.7Z</time></trkpt><trkpt lat="46.1483386" lon="9.4570481"><ele>204.0</ele><time>2026-04-26T09:20:22.701Z</time></trkpt><trkpt lat="46.1482763" lon="9.4569806"><ele>204.0</ele><time>2026-04-26T09:20:23.701Z</time></trkpt><trkpt lat="46.148215" lon="9.4569225"><ele>204.0</ele><time>2026-04-26T09:20:24.701Z</time></trkpt><trkpt lat="46.1481542" lon="9.4568549"><ele>204.0</ele><time>2026-04-26T09:20:25.702Z</time></trkpt><trkpt lat="46.148089" lon="9.4567838"><ele>204.0</ele><time>2026-04-26T09:20:26.702Z</time></trkpt><trkpt lat="46.1480267" lon="9.4567118"><ele>204.0</ele><time>2026-04-26T09:20:27.7Z</time></trkpt><trkpt lat="46.1479699" lon="9.4566482"><ele>204.16666666666666</ele><time>2026-04-26T09:20:28.701Z</time></trkpt><trkpt lat="46.1479048" lon="9.4565795"><ele>204.33333333333331</ele><time>2026-04-26T09:20:29.7Z</time></trkpt><trkpt lat="46.1478443" lon="9.4565133"><ele>204.5</ele><time>2026-04-26T09:20:30.7Z</time></trkpt><trkpt lat="46.1477772" lon="9.4564529"><ele>204.66666666666666</ele><time>2026-04-26T09:20:31.701Z</time></trkpt><trkpt lat="46.1477158" lon="9.4563886"><ele>204.83333333333331</ele><time>2026-04-26T09:20:32.7Z</time></trkpt><trkpt lat="46.1476523" lon="9.456326"><ele>205.0</ele><time>2026-04-26T09:20:33.701Z</time></trkpt><trkpt lat="46.1475795" lon="9.4562684"><ele>204.66666666666666</ele><time>2026-04-26T09:20:34.701Z</time></trkpt><trkpt lat="46.147508" lon="9.456201"><ele>204.33333333333331</ele><time>2026-04-26T09:20:35.701Z</time></trkpt><trkpt lat="46.1474424" lon="9.4561464"><ele>204.0</ele><time>2026-04-26T09:20:36.7Z</time></trkpt><trkpt lat="46.1473781" lon="9.456094"><ele>203.66666666666669</ele><time>2026-04-26T09:20:37.701Z</time></trkpt><trkpt lat="46.1473138" lon="9.456035"><ele>203.33333333333334</ele><time>2026-04-26T09:20:38.702Z</time></trkpt><trkpt lat="46.147245" lon="9.455973"><ele>203.0</ele><time>2026-04-26T09:20:39.7Z</time></trkpt><trkpt lat="46.1471789" lon="9.4559193"><ele>202.83333333333334</ele><time>2026-04-26T09:20:40.701Z</time></trkpt><trkpt lat="46.1471132" lon="9.4558643"><ele>202.66666666666669</ele><time>2026-04-26T09:20:41.702Z</time></trkpt><trkpt lat="46.1470435" lon="9.4558081"><ele>202.5</ele><time>2026-04-26T09:20:42.699Z</time></trkpt><trkpt lat="46.1469734" lon="9.4557579"><ele>202.33333333333331</ele><time>2026-04-26T09:20:43.7Z</time></trkpt><trkpt lat="46.1468972" lon="9.4556955"><ele>202.16666666666666</ele><time>2026-04-26T09:20:44.7Z</time></trkpt><trkpt lat="46.1468311" lon="9.4556483"><ele>202.0</ele><time>2026-04-26T09:20:45.701Z</time></trkpt><trkpt lat="46.146764" lon="9.455607"><ele>202.0</ele><time>2026-04-26T09:20:46.701Z</time></trkpt><trkpt lat="46.1466961" lon="9.4555641"><ele>202.0</ele><time>2026-04-26T09:20:47.701Z</time></trkpt><trkpt lat="46.1466279" lon="9.4555227"><ele>202.0</ele><time>2026-04-26T09:20:48.7Z</time></trkpt><trkpt lat="46.1465602" lon="9.4554893"><ele>202.0</ele><time>2026-04-26T09:20:49.7Z</time></trkpt><trkpt lat="46.1464901" lon="9.4554511"><ele>202.0</ele><time>2026-04-26T09:20:50.701Z</time></trkpt><trkpt lat="46.1464181" lon="9.4554199"><ele>202.0</ele><time>2026-04-26T09:20:51.702Z</time></trkpt><trkpt lat="46.1463507" lon="9.4553921"><ele>202.0</ele><time>2026-04-26T09:20:52.701Z</time></trkpt><trkpt lat="46.1462789" lon="9.4553652"><ele>201.85714285714286</ele><time>2026-04-26T09:20:53.701Z</time></trkpt><trkpt lat="46.1462074" lon="9.4553291"><ele>201.71428571428572</ele><time>2026-04-26T09:20:54.701Z</time></trkpt><trkpt lat="46.1461382" lon="9.455288"><ele>201.57142857142856</ele><time>2026-04-26T09:20:55.702Z</time></trkpt><trkpt lat="46.146071" lon="9.455249"><ele>201.42857142857144</ele><time>2026-04-26T09:20:56.701Z</time></trkpt><trkpt lat="46.1460028" lon="9.4552125"><ele>201.2857142857143</ele><time>2026-04-26T09:20:57.701Z</time></trkpt><trkpt lat="46.1459333" lon="9.4551792"><ele>201.14285714285714</ele><time>2026-04-26T09:20:58.702Z</time></trkpt><trkpt lat="46.1458631" lon="9.4551497"><ele>201.0</ele><time>2026-04-26T09:20:59.701Z</time></trkpt><trkpt lat="46.1457911" lon="9.4551207"><ele>201.0</ele><time>2026-04-26T09:21:00.701Z</time></trkpt><trkpt lat="46.1457185" lon="9.4550941"><ele>201.0</ele><time>2026-04-26T09:21:01.702Z</time></trkpt><trkpt lat="46.1456426" lon="9.4550693"><ele>201.0</ele><time>2026-04-26T09:21:02.701Z</time></trkpt><trkpt lat="46.1455666" lon="9.4550488"><ele>201.0</ele><time>2026-04-26T09:21:03.701Z</time></trkpt><trkpt lat="46.145492" lon="9.4550308"><ele>201.0</ele><time>2026-04-26T09:21:04.7Z</time></trkpt><trkpt lat="46.1454291" lon="9.4550008"><ele>201.0</ele><time>2026-04-26T09:21:05.702Z</time></trkpt><trkpt lat="46.1453611" lon="9.4549628"><ele>201.0</ele><time>2026-04-26T09:21:06.701Z</time></trkpt><trkpt lat="46.1453007" lon="9.4549211"><ele>201.7142857142857</ele><time>2026-04-26T09:21:07.7Z</time></trkpt><trkpt lat="46.1452365" lon="9.4548816"><ele>202.42857142857144</ele><time>2026-04-26T09:21:08.701Z</time></trkpt><trkpt lat="46.1451736" lon="9.4548448"><ele>203.14285714285714</ele><time>2026-04-26T09:21:09.701Z</time></trkpt><trkpt lat="46.1451107" lon="9.4548052"><ele>203.85714285714283</ele><time>2026-04-26T09:21:10.701Z</time></trkpt><trkpt lat="46.1450487" lon="9.4547603"><ele>204.57142857142856</ele><time>2026-04-26T09:21:11.701Z</time></trkpt><trkpt lat="46.1449864" lon="9.4547258"><ele>205.28571428571428</ele><time>2026-04-26T09:21:12.701Z</time></trkpt><trkpt lat="46.1449218" lon="9.454693"><ele>206.0</ele><time>2026-04-26T09:21:13.7Z</time></trkpt><trkpt lat="46.1448524" lon="9.4546608"><ele>206.00000000000003</ele><time>2026-04-26T09:21:14.701Z</time></trkpt><trkpt lat="46.144788" lon="9.454628"><ele>206.0</ele><time>2026-04-26T09:21:15.701Z</time></trkpt><trkpt lat="46.1447174" lon="9.454588"><ele>206.0</ele><time>2026-04-26T09:21:16.701Z</time></trkpt><trkpt lat="46.1446539" lon="9.4545459"><ele>206.0</ele><time>2026-04-26T09:21:17.701Z</time></trkpt><trkpt lat="46.1445415" lon="9.4544929"><ele>206.00000000000003</ele><time>2026-04-26T09:21:19.701Z</time></trkpt><trkpt lat="46.1444748" lon="9.4544872"><ele>206.0</ele><time>2026-04-26T09:21:20.7Z</time></trkpt><trkpt lat="46.1443993" lon="9.4544737"><ele>205.4</ele><time>2026-04-26T09:21:21.701Z</time></trkpt><trkpt lat="46.1443304" lon="9.4544588"><ele>204.8</ele><time>2026-04-26T09:21:22.702Z</time></trkpt><trkpt lat="46.1442293" lon="9.4544195"><ele>204.20000000000002</ele><time>2026-04-26T09:21:24.7Z</time></trkpt><trkpt lat="46.1441774" lon="9.4542891"><ele>203.60000000000002</ele><time>2026-04-26T09:21:26.701Z</time></trkpt><trkpt lat="46.1441325" lon="9.4541149"><ele>203.0</ele><time>2026-04-26T09:21:28.701Z</time></trkpt><trkpt lat="46.1441152" lon="9.4540195"><ele>203.0</ele><time>2026-04-26T09:21:29.7Z</time></trkpt><trkpt lat="46.1440928" lon="9.4539264"><ele>203.0</ele><time>2026-04-26T09:21:30.702Z</time></trkpt><trkpt lat="46.1440706" lon="9.4538392"><ele>203.0</ele><time>2026-04-26T09:21:31.701Z</time></trkpt><trkpt lat="46.1440459" lon="9.4537467"><ele>203.0</ele><time>2026-04-26T09:21:32.7Z</time></trkpt><trkpt lat="46.1440241" lon="9.4536506"><ele>203.0</ele><time>2026-04-26T09:21:33.701Z</time></trkpt><trkpt lat="46.144009" lon="9.4535553"><ele>203.0</ele><time>2026-04-26T09:21:34.7Z</time></trkpt><trkpt lat="46.1439904" lon="9.4534557"><ele>203.0</ele><time>2026-04-26T09:21:35.7Z</time></trkpt><trkpt lat="46.1439756" lon="9.453347"><ele>203.0</ele><time>2026-04-26T09:21:36.702Z</time></trkpt><trkpt lat="46.1439473" lon="9.4532474"><ele>203.0</ele><time>2026-04-26T09:21:37.701Z</time></trkpt><trkpt lat="46.1439052" lon="9.4531632"><ele>203.0</ele><time>2026-04-26T09:21:38.702Z</time></trkpt><trkpt lat="46.1438562" lon="9.4530922"><ele>203.0</ele><time>2026-04-26T09:21:39.701Z</time></trkpt><trkpt lat="46.1437938" lon="9.4530333"><ele>203.0</ele><time>2026-04-26T09:21:40.7Z</time></trkpt><trkpt lat="46.1437326" lon="9.4529714"><ele>203.0</ele><time>2026-04-26T09:21:41.701Z</time></trkpt><trkpt lat="46.1436729" lon="9.4529144"><ele>203.0</ele><time>2026-04-26T09:21:42.701Z</time></trkpt><trkpt lat="46.1435962" lon="9.4528749"><ele>203.00000000000003</ele><time>2026-04-26T09:21:43.701Z</time></trkpt><trkpt lat="46.1435248" lon="9.452859"><ele>203.0</ele><time>2026-04-26T09:21:44.701Z</time></trkpt><trkpt lat="46.1434459" lon="9.4528464"><ele>203.0</ele><time>2026-04-26T09:21:45.701Z</time></trkpt><trkpt lat="46.1433673" lon="9.4528432"><ele>203.0</ele><time>2026-04-26T09:21:46.7Z</time></trkpt><trkpt lat="46.1432935" lon="9.4528398"><ele>203.00000000000003</ele><time>2026-04-26T09:21:47.7Z</time></trkpt><trkpt lat="46.1432193" lon="9.452843"><ele>203.0</ele><time>2026-04-26T09:21:48.7Z</time></trkpt><trkpt lat="46.1431365" lon="9.4528467"><ele>203.0</ele><time>2026-04-26T09:21:49.7Z</time></trkpt><trkpt lat="46.1430666" lon="9.4528515"><ele>203.0</ele><time>2026-04-26T09:21:50.7Z</time></trkpt><trkpt lat="46.1430013" lon="9.4528651"><ele>203.0</ele><time>2026-04-26T09:21:51.702Z</time></trkpt><trkpt lat="46.1429335" lon="9.4528819"><ele>203.0</ele><time>2026-04-26T09:21:52.701Z</time></trkpt><trkpt lat="46.1428646" lon="9.4528911"><ele>203.0</ele><time>2026-04-26T09:21:53.702Z</time></trkpt><trkpt lat="46.142799" lon="9.4529018"><ele>203.0</ele><time>2026-04-26T09:21:54.702Z</time></trkpt><trkpt lat="46.1427305" lon="9.4529088"><ele>203.0</ele><time>2026-04-26T09:21:55.7Z</time></trkpt><trkpt lat="46.142604" lon="9.4528851"><ele>203.0</ele><time>2026-04-26T09:21:57.702Z</time></trkpt><trkpt lat="46.142532" lon="9.4528599"><ele>203.0</ele><time>2026-04-26T09:21:58.7Z</time></trkpt><trkpt lat="46.1424695" lon="9.4528313"><ele>203.0</ele><time>2026-04-26T09:21:59.701Z</time></trkpt><trkpt lat="46.1424006" lon="9.4528073"><ele>203.0</ele><time>2026-04-26T09:22:00.701Z</time></trkpt><trkpt lat="46.1423306" lon="9.4527762"><ele>203.0</ele><time>2026-04-26T09:22:01.701Z</time></trkpt><trkpt lat="46.1422626" lon="9.4527592"><ele>203.0</ele><time>2026-04-26T09:22:02.701Z</time></trkpt><trkpt lat="46.1421951" lon="9.4527458"><ele>203.0</ele><time>2026-04-26T09:22:03.701Z</time></trkpt><trkpt lat="46.1420471" lon="9.4528053"><ele>203.00000000000003</ele><time>2026-04-26T09:22:05.702Z</time></trkpt><trkpt lat="46.1419655" lon="9.4528535"><ele>203.0</ele><time>2026-04-26T09:22:06.702Z</time></trkpt><trkpt lat="46.1418551" lon="9.4529342"><ele>203.0</ele><time>2026-04-26T09:22:08.7Z</time></trkpt><trkpt lat="46.1417955" lon="9.4529665"><ele>203.0</ele><time>2026-04-26T09:22:09.702Z</time></trkpt><trkpt lat="46.1417297" lon="9.4530084"><ele>203.00000000000003</ele><time>2026-04-26T09:22:10.701Z</time></trkpt><trkpt lat="46.1416578" lon="9.4530471"><ele>203.0</ele><time>2026-04-26T09:22:11.702Z</time></trkpt><trkpt lat="46.1415887" lon="9.4530837"><ele>203.14285714285714</ele><time>2026-04-26T09:22:12.701Z</time></trkpt><trkpt lat="46.1415181" lon="9.4531182"><ele>203.28571428571428</ele><time>2026-04-26T09:22:13.701Z</time></trkpt><trkpt lat="46.1414563" lon="9.4531558"><ele>203.42857142857144</ele><time>2026-04-26T09:22:14.701Z</time></trkpt><trkpt lat="46.1413888" lon="9.4531938"><ele>203.57142857142856</ele><time>2026-04-26T09:22:15.701Z</time></trkpt><trkpt lat="46.1413168" lon="9.4532327"><ele>203.71428571428572</ele><time>2026-04-26T09:22:16.702Z</time></trkpt><trkpt lat="46.1412439" lon="9.4532618"><ele>203.85714285714286</ele><time>2026-04-26T09:22:17.7Z</time></trkpt><trkpt lat="46.1411856" lon="9.4533052"><ele>204.0</ele><time>2026-04-26T09:22:18.701Z</time></trkpt><trkpt lat="46.1411258" lon="9.453342"><ele>204.0</ele><time>2026-04-26T09:22:19.702Z</time></trkpt><trkpt lat="46.1410257" lon="9.4533939"><ele>204.0</ele><time>2026-04-26T09:22:21.701Z</time></trkpt><trkpt lat="46.1409118" lon="9.4534527"><ele>204.0</ele><time>2026-04-26T09:22:23.701Z</time></trkpt><trkpt lat="46.1408064" lon="9.4535203"><ele>204.0</ele><time>2026-04-26T09:22:25.702Z</time></trkpt><trkpt lat="46.1407277" lon="9.4535335"><ele>204.0</ele><time>2026-04-26T09:22:27.701Z</time></trkpt><trkpt lat="46.1406634" lon="9.4536174"><ele>204.0</ele><time>2026-04-26T09:22:30.702Z</time></trkpt><trkpt lat="46.1406428" lon="9.4537063"><ele>204.0</ele><time>2026-04-26T09:22:32.7Z</time></trkpt><trkpt lat="46.140616" lon="9.453795"><ele>204.0</ele><time>2026-04-26T09:22:34.7Z</time></trkpt><trkpt lat="46.1405803" lon="9.4539"><ele>204.0</ele><time>2026-04-26T09:22:36.7Z</time></trkpt><trkpt lat="46.1405341" lon="9.4540013"><ele>204.0</ele><time>2026-04-26T09:22:38.7Z</time></trkpt><trkpt lat="46.1404924" lon="9.4541283"><ele>204.0</ele><time>2026-04-26T09:22:40.701Z</time></trkpt><trkpt lat="46.1404521" lon="9.4542522"><ele>204.2</ele><time>2026-04-26T09:22:42.699Z</time></trkpt><trkpt lat="46.1404176" lon="9.4543605"><ele>204.39999999999998</ele><time>2026-04-26T09:22:44.701Z</time></trkpt><trkpt lat="46.1403588" lon="9.454508"><ele>204.6</ele><time>2026-04-26T09:22:46.702Z</time></trkpt><trkpt lat="46.1403175" lon="9.4546165"><ele>204.8</ele><time>2026-04-26T09:22:48.702Z</time></trkpt><trkpt lat="46.1402849" lon="9.4547435"><ele>205.0</ele><time>2026-04-26T09:22:50.701Z</time></trkpt><trkpt lat="46.1402469" lon="9.4548682"><ele>205.4</ele><time>2026-04-26T09:22:52.701Z</time></trkpt><trkpt lat="46.140203" lon="9.4550097"><ele>205.8</ele><time>2026-04-26T09:22:54.701Z</time></trkpt><trkpt lat="46.1401632" lon="9.4551372"><ele>206.2</ele><time>2026-04-26T09:22:56.702Z</time></trkpt><trkpt lat="46.1401242" lon="9.4552621"><ele>206.6</ele><time>2026-04-26T09:22:58.701Z</time></trkpt><trkpt lat="46.1400857" lon="9.4554144"><ele>207.0</ele><time>2026-04-26T09:23:00.701Z</time></trkpt><trkpt lat="46.1400327" lon="9.4555409"><ele>207.0</ele><time>2026-04-26T09:23:02.702Z</time></trkpt><trkpt lat="46.1399682" lon="9.4556623"><ele>207.0</ele><time>2026-04-26T09:23:04.702Z</time></trkpt><trkpt lat="46.139897" lon="9.4557577"><ele>207.0</ele><time>2026-04-26T09:23:06.701Z</time></trkpt><trkpt lat="46.1398421" lon="9.4558805"><ele>207.0</ele><time>2026-04-26T09:23:08.702Z</time></trkpt><trkpt lat="46.1397819" lon="9.4559751"><ele>207.0</ele><time>2026-04-26T09:23:10.701Z</time></trkpt><trkpt lat="46.1397005" lon="9.4560306"><ele>207.0</ele><time>2026-04-26T09:23:12.701Z</time></trkpt><trkpt lat="46.139601" lon="9.4560423"><ele>207.0</ele><time>2026-04-26T09:23:14.701Z</time></trkpt><trkpt lat="46.1395373" lon="9.456045"><ele>207.0</ele><time>2026-04-26T09:23:15.702Z</time></trkpt><trkpt lat="46.1394283" lon="9.4560325"><ele>207.0</ele><time>2026-04-26T09:23:17.702Z</time></trkpt><trkpt lat="46.1393234" lon="9.4560282"><ele>207.0</ele><time>2026-04-26T09:23:19.7Z</time></trkpt><trkpt lat="46.1392104" lon="9.4560122"><ele>207.0</ele><time>2026-04-26T09:23:21.701Z</time></trkpt><trkpt lat="46.1391438" lon="9.456015"><ele>207.0</ele><time>2026-04-26T09:23:22.702Z</time></trkpt><trkpt lat="46.139039" lon="9.4560207"><ele>207.0</ele><time>2026-04-26T09:23:24.701Z</time></trkpt><trkpt lat="46.138928" lon="9.4560244"><ele>207.0</ele><time>2026-04-26T09:23:26.701Z</time></trkpt><trkpt lat="46.1388328" lon="9.4560275"><ele>207.0</ele><time>2026-04-26T09:23:28.701Z</time></trkpt><trkpt lat="46.1387444" lon="9.4559878"><ele>208.2</ele><time>2026-04-26T09:23:30.701Z</time></trkpt><trkpt lat="46.1386939" lon="9.4558665"><ele>209.39999999999998</ele><time>2026-04-26T09:23:32.701Z</time></trkpt><trkpt lat="46.1386736" lon="9.4557032"><ele>210.60000000000002</ele><time>2026-04-26T09:23:34.701Z</time></trkpt><trkpt lat="46.1386823" lon="9.4555401"><ele>211.8</ele><time>2026-04-26T09:23:36.699Z</time></trkpt><trkpt lat="46.1386759" lon="9.4553655"><ele>213.0</ele><time>2026-04-26T09:23:38.701Z</time></trkpt><trkpt lat="46.1386617" lon="9.4551969"><ele>212.99999999999997</ele><time>2026-04-26T09:23:40.702Z</time></trkpt><trkpt lat="46.1386673" lon="9.4550226"><ele>213.0</ele><time>2026-04-26T09:23:42.702Z</time></trkpt><trkpt lat="46.1386717" lon="9.4549261"><ele>213.0</ele><time>2026-04-26T09:23:43.701Z</time></trkpt><trkpt lat="46.1386697" lon="9.454835"><ele>213.0</ele><time>2026-04-26T09:23:44.7Z</time></trkpt><trkpt lat="46.1386634" lon="9.4547428"><ele>213.0</ele><time>2026-04-26T09:23:45.701Z</time></trkpt><trkpt lat="46.1386641" lon="9.4546514"><ele>212.99999999999997</ele><time>2026-04-26T09:23:46.7Z</time></trkpt><trkpt lat="46.1386627" lon="9.4545539"><ele>213.0</ele><time>2026-04-26T09:23:47.702Z</time></trkpt><trkpt lat="46.1386663" lon="9.4544504"><ele>212.99999999999997</ele><time>2026-04-26T09:23:48.702Z</time></trkpt><trkpt lat="46.1386641" lon="9.454354"><ele>213.0</ele><time>2026-04-26T09:23:49.701Z</time></trkpt><trkpt lat="46.1386665" lon="9.4542599"><ele>213.0</ele><time>2026-04-26T09:23:50.701Z</time></trkpt><trkpt lat="46.1386646" lon="9.4541587"><ele>213.0</ele><time>2026-04-26T09:23:51.701Z</time></trkpt><trkpt lat="46.1386657" lon="9.454063"><ele>213.0</ele><time>2026-04-26T09:23:52.7Z</time></trkpt><trkpt lat="46.1386673" lon="9.4539654"><ele>212.99999999999997</ele><time>2026-04-26T09:23:53.701Z</time></trkpt><trkpt lat="46.1386642" lon="9.4538697"><ele>213.0</ele><time>2026-04-26T09:23:54.702Z</time></trkpt><trkpt lat="46.138668" lon="9.4537724"><ele>213.0</ele><time>2026-04-26T09:23:55.702Z</time></trkpt><trkpt lat="46.1386677" lon="9.4536701"><ele>213.0</ele><time>2026-04-26T09:23:56.7Z</time></trkpt><trkpt lat="46.1386662" lon="9.4535507"><ele>213.0</ele><time>2026-04-26T09:23:57.702Z</time></trkpt><trkpt lat="46.1386727" lon="9.4534513"><ele>213.0</ele><time>2026-04-26T09:23:58.7Z</time></trkpt><trkpt lat="46.1386735" lon="9.4533568"><ele>213.0</ele><time>2026-04-26T09:23:59.702Z</time></trkpt><trkpt lat="46.1386748" lon="9.4531678"><ele>213.0</ele><time>2026-04-26T09:24:01.701Z</time></trkpt><trkpt lat="46.1386777" lon="9.4530675"><ele>212.99999999999997</ele><time>2026-04-26T09:24:02.701Z</time></trkpt><trkpt lat="46.1386982" lon="9.4529707"><ele>213.0</ele><time>2026-04-26T09:24:03.702Z</time></trkpt><trkpt lat="46.1386992" lon="9.4528738"><ele>213.0</ele><time>2026-04-26T09:24:04.701Z</time></trkpt><trkpt lat="46.1387035" lon="9.4527624"><ele>213.0</ele><time>2026-04-26T09:24:05.701Z</time></trkpt><trkpt lat="46.1387112" lon="9.4526536"><ele>213.0</ele><time>2026-04-26T09:24:06.701Z</time></trkpt><trkpt lat="46.1387184" lon="9.4525474"><ele>212.99999999999997</ele><time>2026-04-26T09:24:07.702Z</time></trkpt><trkpt lat="46.138728" lon="9.4524313"><ele>213.0</ele><time>2026-04-26T09:24:08.701Z</time></trkpt><trkpt lat="46.138737" lon="9.4523214"><ele>213.0</ele><time>2026-04-26T09:24:09.701Z</time></trkpt><trkpt lat="46.1387437" lon="9.4522012"><ele>213.0</ele><time>2026-04-26T09:24:10.7Z</time></trkpt><trkpt lat="46.138743" lon="9.4520893"><ele>213.0</ele><time>2026-04-26T09:24:11.702Z</time></trkpt><trkpt lat="46.1387429" lon="9.4519734"><ele>213.0</ele><time>2026-04-26T09:24:12.702Z</time></trkpt><trkpt lat="46.1387402" lon="9.4518541"><ele>213.0</ele><time>2026-04-26T09:24:13.7Z</time></trkpt><trkpt lat="46.1387368" lon="9.4517377"><ele>213.0</ele><time>2026-04-26T09:24:14.702Z</time></trkpt><trkpt lat="46.1387275" lon="9.4516155"><ele>212.5</ele><time>2026-04-26T09:24:15.701Z</time></trkpt><trkpt lat="46.1387124" lon="9.4514962"><ele>212.0</ele><time>2026-04-26T09:24:16.7Z</time></trkpt><trkpt lat="46.138702" lon="9.4513803"><ele>211.5</ele><time>2026-04-26T09:24:17.701Z</time></trkpt><trkpt lat="46.138728" lon="9.4512621"><ele>211.0</ele><time>2026-04-26T09:24:18.701Z</time></trkpt><trkpt lat="46.1387149" lon="9.4511355"><ele>210.5</ele><time>2026-04-26T09:24:19.702Z</time></trkpt><trkpt lat="46.1387067" lon="9.4510215"><ele>210.0</ele><time>2026-04-26T09:24:20.702Z</time></trkpt><trkpt lat="46.1387052" lon="9.4509053"><ele>209.33333333333334</ele><time>2026-04-26T09:24:21.701Z</time></trkpt><trkpt lat="46.138705" lon="9.4507907"><ele>208.66666666666669</ele><time>2026-04-26T09:24:22.7Z</time></trkpt><trkpt lat="46.1387042" lon="9.4506678"><ele>208.0</ele><time>2026-04-26T09:24:23.701Z</time></trkpt><trkpt lat="46.1386938" lon="9.450552"><ele>207.33333333333334</ele><time>2026-04-26T09:24:24.702Z</time></trkpt><trkpt lat="46.1386966" lon="9.4504323"><ele>206.66666666666669</ele><time>2026-04-26T09:24:25.701Z</time></trkpt><trkpt lat="46.1386965" lon="9.4503247"><ele>206.0</ele><time>2026-04-26T09:24:26.702Z</time></trkpt><trkpt lat="46.1386988" lon="9.4502139"><ele>205.83333333333334</ele><time>2026-04-26T09:24:27.7Z</time></trkpt><trkpt lat="46.1386997" lon="9.4501001"><ele>205.66666666666669</ele><time>2026-04-26T09:24:28.701Z</time></trkpt><trkpt lat="46.1386983" lon="9.4499794"><ele>205.5</ele><time>2026-04-26T09:24:29.702Z</time></trkpt><trkpt lat="46.1386971" lon="9.4498656"><ele>205.33333333333331</ele><time>2026-04-26T09:24:30.7Z</time></trkpt><trkpt lat="46.1386919" lon="9.4497475"><ele>205.16666666666666</ele><time>2026-04-26T09:24:31.702Z</time></trkpt><trkpt lat="46.1386889" lon="9.4496313"><ele>205.0</ele><time>2026-04-26T09:24:32.7Z</time></trkpt><trkpt lat="46.1386874" lon="9.4495096"><ele>204.83333333333331</ele><time>2026-04-26T09:24:33.702Z</time></trkpt><trkpt lat="46.1386861" lon="9.4493895"><ele>204.66666666666666</ele><time>2026-04-26T09:24:34.701Z</time></trkpt><trkpt lat="46.1386938" lon="9.4492742"><ele>204.5</ele><time>2026-04-26T09:24:35.701Z</time></trkpt><trkpt lat="46.1386944" lon="9.4491659"><ele>204.33333333333331</ele><time>2026-04-26T09:24:36.701Z</time></trkpt><trkpt lat="46.1386915" lon="9.449046"><ele>204.16666666666666</ele><time>2026-04-26T09:24:37.701Z</time></trkpt><trkpt lat="46.1386896" lon="9.4489329"><ele>204.0</ele><time>2026-04-26T09:24:38.701Z</time></trkpt><trkpt lat="46.1386903" lon="9.4488097"><ele>204.0</ele><time>2026-04-26T09:24:39.701Z</time></trkpt><trkpt lat="46.1386914" lon="9.4486921"><ele>204.0</ele><time>2026-04-26T09:24:40.702Z</time></trkpt><trkpt lat="46.1386891" lon="9.4485746"><ele>204.0</ele><time>2026-04-26T09:24:41.702Z</time></trkpt><trkpt lat="46.1386832" lon="9.448453"><ele>204.0</ele><time>2026-04-26T09:24:42.701Z</time></trkpt><trkpt lat="46.1386845" lon="9.4483238"><ele>204.0</ele><time>2026-04-26T09:24:43.701Z</time></trkpt><trkpt lat="46.1386911" lon="9.4482014"><ele>204.0</ele><time>2026-04-26T09:24:44.701Z</time></trkpt><trkpt lat="46.1386935" lon="9.4480808"><ele>204.0</ele><time>2026-04-26T09:24:45.701Z</time></trkpt><trkpt lat="46.1386876" lon="9.4479666"><ele>204.0</ele><time>2026-04-26T09:24:46.701Z</time></trkpt><trkpt lat="46.1386844" lon="9.4478529"><ele>204.0</ele><time>2026-04-26T09:24:47.701Z</time></trkpt><trkpt lat="46.1386971" lon="9.4477275"><ele>204.0</ele><time>2026-04-26T09:24:48.7Z</time></trkpt><trkpt lat="46.1386899" lon="9.4476129"><ele>204.0</ele><time>2026-04-26T09:24:49.699Z</time></trkpt><trkpt lat="46.1386833" lon="9.4474943"><ele>204.0</ele><time>2026-04-26T09:24:50.702Z</time></trkpt><trkpt lat="46.1386872" lon="9.4473719"><ele>204.0</ele><time>2026-04-26T09:24:51.702Z</time></trkpt><trkpt lat="46.1386782" lon="9.4472534"><ele>204.0</ele><time>2026-04-26T09:24:52.701Z</time></trkpt><trkpt lat="46.1386767" lon="9.4471311"><ele>204.0</ele><time>2026-04-26T09:24:53.701Z</time></trkpt><trkpt lat="46.1386784" lon="9.4470137"><ele>204.0</ele><time>2026-04-26T09:24:54.701Z</time></trkpt><trkpt lat="46.1386887" lon="9.4468897"><ele>204.0</ele><time>2026-04-26T09:24:55.701Z</time></trkpt><trkpt lat="46.1386921" lon="9.4467627"><ele>204.0</ele><time>2026-04-26T09:24:56.7Z</time></trkpt><trkpt lat="46.1386974" lon="9.4466487"><ele>204.0</ele><time>2026-04-26T09:24:57.702Z</time></trkpt><trkpt lat="46.1386979" lon="9.4465303"><ele>204.0</ele><time>2026-04-26T09:24:58.701Z</time></trkpt><trkpt lat="46.1386995" lon="9.4464062"><ele>204.0</ele><time>2026-04-26T09:24:59.701Z</time></trkpt><trkpt lat="46.1387138" lon="9.4462894"><ele>204.0</ele><time>2026-04-26T09:25:00.702Z</time></trkpt><trkpt lat="46.1387072" lon="9.4461756"><ele>204.0</ele><time>2026-04-26T09:25:01.701Z</time></trkpt><trkpt lat="46.1387022" lon="9.4460618"><ele>204.0</ele><time>2026-04-26T09:25:02.7Z</time></trkpt><trkpt lat="46.1386999" lon="9.4459471"><ele>204.0</ele><time>2026-04-26T09:25:03.7Z</time></trkpt><trkpt lat="46.1386986" lon="9.4458348"><ele>204.0</ele><time>2026-04-26T09:25:04.702Z</time></trkpt><trkpt lat="46.1386971" lon="9.4457115"><ele>204.0</ele><time>2026-04-26T09:25:05.701Z</time></trkpt><trkpt lat="46.1386966" lon="9.4455956"><ele>204.0</ele><time>2026-04-26T09:25:06.701Z</time></trkpt><trkpt lat="46.1386987" lon="9.4454693"><ele>204.0</ele><time>2026-04-26T09:25:07.702Z</time></trkpt><trkpt lat="46.1386964" lon="9.4453435"><ele>204.0</ele><time>2026-04-26T09:25:08.701Z</time></trkpt><trkpt lat="46.1386923" lon="9.4452267"><ele>204.0</ele><time>2026-04-26T09:25:09.702Z</time></trkpt><trkpt lat="46.1386984" lon="9.445108"><ele>204.0</ele><time>2026-04-26T09:25:10.7Z</time></trkpt><trkpt lat="46.1387002" lon="9.4449798"><ele>204.0</ele><time>2026-04-26T09:25:11.7Z</time></trkpt><trkpt lat="46.1386987" lon="9.4448458"><ele>204.0</ele><time>2026-04-26T09:25:12.702Z</time></trkpt><trkpt lat="46.1386955" lon="9.444727"><ele>204.0</ele><time>2026-04-26T09:25:13.701Z</time></trkpt><trkpt lat="46.138695" lon="9.4446097"><ele>204.0</ele><time>2026-04-26T09:25:14.701Z</time></trkpt><trkpt lat="46.1386927" lon="9.4444973"><ele>203.83333333333334</ele><time>2026-04-26T09:25:15.702Z</time></trkpt><trkpt lat="46.1386955" lon="9.4443763"><ele>203.66666666666669</ele><time>2026-04-26T09:25:16.702Z</time></trkpt><trkpt lat="46.1386937" lon="9.4442556"><ele>203.5</ele><time>2026-04-26T09:25:17.702Z</time></trkpt><trkpt lat="46.1386938" lon="9.4441358"><ele>203.33333333333334</ele><time>2026-04-26T09:25:18.702Z</time></trkpt><trkpt lat="46.1386941" lon="9.4440114"><ele>203.16666666666669</ele><time>2026-04-26T09:25:19.7Z</time></trkpt><trkpt lat="46.1386989" lon="9.4438905"><ele>203.0</ele><time>2026-04-26T09:25:20.701Z</time></trkpt><trkpt lat="46.1387075" lon="9.4437637"><ele>202.83333333333334</ele><time>2026-04-26T09:25:21.702Z</time></trkpt><trkpt lat="46.1387035" lon="9.4436497"><ele>202.66666666666669</ele><time>2026-04-26T09:25:22.7Z</time></trkpt><trkpt lat="46.1387013" lon="9.4435308"><ele>202.5</ele><time>2026-04-26T09:25:23.701Z</time></trkpt><trkpt lat="46.1387004" lon="9.443416"><ele>202.33333333333331</ele><time>2026-04-26T09:25:24.701Z</time></trkpt><trkpt lat="46.1386995" lon="9.4432904"><ele>202.16666666666666</ele><time>2026-04-26T09:25:25.701Z</time></trkpt><trkpt lat="46.1387001" lon="9.443164"><ele>202.0</ele><time>2026-04-26T09:25:26.701Z</time></trkpt><trkpt lat="46.1386945" lon="9.4430354"><ele>201.99999999999997</ele><time>2026-04-26T09:25:27.702Z</time></trkpt><trkpt lat="46.138689" lon="9.4429075"><ele>202.0</ele><time>2026-04-26T09:25:28.702Z</time></trkpt><trkpt lat="46.1386808" lon="9.4427873"><ele>202.0</ele><time>2026-04-26T09:25:29.702Z</time></trkpt><trkpt lat="46.1386784" lon="9.4426631"><ele>202.0</ele><time>2026-04-26T09:25:30.701Z</time></trkpt><trkpt lat="46.1386766" lon="9.4425502"><ele>201.99999999999997</ele><time>2026-04-26T09:25:31.702Z</time></trkpt><trkpt lat="46.1386785" lon="9.4424224"><ele>202.0</ele><time>2026-04-26T09:25:32.701Z</time></trkpt><trkpt lat="46.1386707" lon="9.4421749"><ele>201.83333333333331</ele><time>2026-04-26T09:25:34.701Z</time></trkpt><trkpt lat="46.1386642" lon="9.4420486"><ele>201.66666666666666</ele><time>2026-04-26T09:25:35.702Z</time></trkpt><trkpt lat="46.1386687" lon="9.4419196"><ele>201.5</ele><time>2026-04-26T09:25:36.7Z</time></trkpt><trkpt lat="46.1386722" lon="9.4417996"><ele>201.33333333333331</ele><time>2026-04-26T09:25:37.702Z</time></trkpt><trkpt lat="46.1386744" lon="9.4416729"><ele>201.16666666666666</ele><time>2026-04-26T09:25:38.701Z</time></trkpt><trkpt lat="46.1386758" lon="9.4415415"><ele>201.0</ele><time>2026-04-26T09:25:39.702Z</time></trkpt><trkpt lat="46.1386774" lon="9.4414069"><ele>201.33333333333334</ele><time>2026-04-26T09:25:40.701Z</time></trkpt><trkpt lat="46.1386747" lon="9.4412798"><ele>201.66666666666669</ele><time>2026-04-26T09:25:41.701Z</time></trkpt><trkpt lat="46.1386815" lon="9.4411645"><ele>202.0</ele><time>2026-04-26T09:25:42.701Z</time></trkpt><trkpt lat="46.1386721" lon="9.441042"><ele>202.33333333333334</ele><time>2026-04-26T09:25:43.701Z</time></trkpt><trkpt lat="46.1386733" lon="9.4409259"><ele>202.66666666666669</ele><time>2026-04-26T09:25:44.701Z</time></trkpt><trkpt lat="46.138675" lon="9.4408234"><ele>203.0</ele><time>2026-04-26T09:25:45.702Z</time></trkpt><trkpt lat="46.1386799" lon="9.4407097"><ele>203.0</ele><time>2026-04-26T09:25:46.7Z</time></trkpt><trkpt lat="46.1386848" lon="9.4406019"><ele>203.0</ele><time>2026-04-26T09:25:47.7Z</time></trkpt><trkpt lat="46.1386816" lon="9.4404915"><ele>203.0</ele><time>2026-04-26T09:25:48.701Z</time></trkpt><trkpt lat="46.1386787" lon="9.4403884"><ele>203.0</ele><time>2026-04-26T09:25:49.701Z</time></trkpt><trkpt lat="46.138682" lon="9.4402788"><ele>203.0</ele><time>2026-04-26T09:25:50.7Z</time></trkpt><trkpt lat="46.1386901" lon="9.4401756"><ele>203.0</ele><time>2026-04-26T09:25:51.701Z</time></trkpt><trkpt lat="46.1386941" lon="9.440078"><ele>203.0</ele><time>2026-04-26T09:25:52.701Z</time></trkpt><trkpt lat="46.1387047" lon="9.4399741"><ele>203.0</ele><time>2026-04-26T09:25:53.702Z</time></trkpt><trkpt lat="46.138719" lon="9.439873"><ele>203.0</ele><time>2026-04-26T09:25:54.701Z</time></trkpt><trkpt lat="46.138736" lon="9.4397616"><ele>203.0</ele><time>2026-04-26T09:25:55.701Z</time></trkpt><trkpt lat="46.1387468" lon="9.4396597"><ele>203.0</ele><time>2026-04-26T09:25:56.701Z</time></trkpt><trkpt lat="46.138764" lon="9.4395527"><ele>203.0</ele><time>2026-04-26T09:25:57.701Z</time></trkpt><trkpt lat="46.138786" lon="9.4394493"><ele>203.0</ele><time>2026-04-26T09:25:58.702Z</time></trkpt><trkpt lat="46.1387967" lon="9.4393402"><ele>203.0</ele><time>2026-04-26T09:25:59.702Z</time></trkpt><trkpt lat="46.1388186" lon="9.4392374"><ele>202.85714285714286</ele><time>2026-04-26T09:26:00.701Z</time></trkpt><trkpt lat="46.1388325" lon="9.4391441"><ele>202.71428571428572</ele><time>2026-04-26T09:26:01.701Z</time></trkpt><trkpt lat="46.138853" lon="9.4390466"><ele>202.57142857142856</ele><time>2026-04-26T09:26:02.701Z</time></trkpt><trkpt lat="46.1388807" lon="9.4389446"><ele>202.42857142857144</ele><time>2026-04-26T09:26:03.702Z</time></trkpt><trkpt lat="46.1389028" lon="9.4388479"><ele>202.28571428571428</ele><time>2026-04-26T09:26:04.7Z</time></trkpt><trkpt lat="46.1389258" lon="9.4387476"><ele>202.14285714285714</ele><time>2026-04-26T09:26:05.701Z</time></trkpt><trkpt lat="46.1389498" lon="9.438649"><ele>202.0</ele><time>2026-04-26T09:26:06.702Z</time></trkpt><trkpt lat="46.1389688" lon="9.4385602"><ele>202.0</ele><time>2026-04-26T09:26:07.701Z</time></trkpt><trkpt lat="46.1389942" lon="9.4384657"><ele>202.0</ele><time>2026-04-26T09:26:08.702Z</time></trkpt><trkpt lat="46.1390186" lon="9.4383731"><ele>202.0</ele><time>2026-04-26T09:26:09.702Z</time></trkpt><trkpt lat="46.1390416" lon="9.4382879"><ele>202.0</ele><time>2026-04-26T09:26:10.701Z</time></trkpt><trkpt lat="46.1390649" lon="9.4381985"><ele>202.0</ele><time>2026-04-26T09:26:11.7Z</time></trkpt><trkpt lat="46.1390966" lon="9.4381111"><ele>202.0</ele><time>2026-04-26T09:26:12.702Z</time></trkpt><trkpt lat="46.1391188" lon="9.4380237"><ele>202.0</ele><time>2026-04-26T09:26:13.701Z</time></trkpt><trkpt lat="46.1391615" lon="9.4378658"><ele>201.6</ele><time>2026-04-26T09:26:15.702Z</time></trkpt><trkpt lat="46.1392029" lon="9.4377199"><ele>201.2</ele><time>2026-04-26T09:26:17.701Z</time></trkpt><trkpt lat="46.1392561" lon="9.4375451"><ele>200.8</ele><time>2026-04-26T09:26:19.702Z</time></trkpt><trkpt lat="46.1393101" lon="9.4374006"><ele>200.4</ele><time>2026-04-26T09:26:21.702Z</time></trkpt><trkpt lat="46.1393325" lon="9.4373094"><ele>200.0</ele><time>2026-04-26T09:26:22.701Z</time></trkpt><trkpt lat="46.1393588" lon="9.4372263"><ele>199.83333333333334</ele><time>2026-04-26T09:26:23.701Z</time></trkpt><trkpt lat="46.1393994" lon="9.4370683"><ele>199.66666666666669</ele><time>2026-04-26T09:26:25.702Z</time></trkpt><trkpt lat="46.1394272" lon="9.4369743"><ele>199.5</ele><time>2026-04-26T09:26:26.702Z</time></trkpt><trkpt lat="46.1394695" lon="9.4368909"><ele>199.33333333333331</ele><time>2026-04-26T09:26:27.703Z</time></trkpt><trkpt lat="46.1394968" lon="9.436794"><ele>199.16666666666666</ele><time>2026-04-26T09:26:28.701Z</time></trkpt><trkpt lat="46.139524" lon="9.4366892"><ele>199.0</ele><time>2026-04-26T09:26:29.701Z</time></trkpt><trkpt lat="46.1395504" lon="9.4365875"><ele>198.99999999999997</ele><time>2026-04-26T09:26:30.702Z</time></trkpt><trkpt lat="46.1395733" lon="9.4364951"><ele>199.0</ele><time>2026-04-26T09:26:31.701Z</time></trkpt><trkpt lat="46.13961" lon="9.4364084"><ele>199.0</ele><time>2026-04-26T09:26:32.702Z</time></trkpt><trkpt lat="46.1396399" lon="9.4363175"><ele>199.0</ele><time>2026-04-26T09:26:33.7Z</time></trkpt><trkpt lat="46.139668" lon="9.4362225"><ele>199.0</ele><time>2026-04-26T09:26:34.701Z</time></trkpt><trkpt lat="46.1396993" lon="9.4361382"><ele>198.99999999999997</ele><time>2026-04-26T09:26:35.7Z</time></trkpt><trkpt lat="46.1397284" lon="9.4360527"><ele>199.0</ele><time>2026-04-26T09:26:36.701Z</time></trkpt><trkpt lat="46.1397593" lon="9.4359611"><ele>199.28571428571428</ele><time>2026-04-26T09:26:37.701Z</time></trkpt><trkpt lat="46.139778" lon="9.4358718"><ele>199.57142857142856</ele><time>2026-04-26T09:26:38.701Z</time></trkpt><trkpt lat="46.139807" lon="9.4357756"><ele>199.85714285714283</ele><time>2026-04-26T09:26:39.702Z</time></trkpt><trkpt lat="46.1398351" lon="9.4356753"><ele>200.14285714285714</ele><time>2026-04-26T09:26:40.701Z</time></trkpt><trkpt lat="46.139869" lon="9.4355861"><ele>200.42857142857144</ele><time>2026-04-26T09:26:41.702Z</time></trkpt><trkpt lat="46.1398983" lon="9.4354904"><ele>200.7142857142857</ele><time>2026-04-26T09:26:42.701Z</time></trkpt><trkpt lat="46.1399233" lon="9.435391"><ele>201.0</ele><time>2026-04-26T09:26:43.702Z</time></trkpt><trkpt lat="46.13995" lon="9.4352964"><ele>201.0</ele><time>2026-04-26T09:26:44.701Z</time></trkpt><trkpt lat="46.1399754" lon="9.4351981"><ele>201.0</ele><time>2026-04-26T09:26:45.701Z</time></trkpt><trkpt lat="46.140009" lon="9.4350948"><ele>201.0</ele><time>2026-04-26T09:26:46.701Z</time></trkpt><trkpt lat="46.1400419" lon="9.4349932"><ele>201.0</ele><time>2026-04-26T09:26:47.702Z</time></trkpt><trkpt lat="46.1400667" lon="9.4348937"><ele>201.0</ele><time>2026-04-26T09:26:48.702Z</time></trkpt><trkpt lat="46.1400903" lon="9.4347992"><ele>201.0</ele><time>2026-04-26T09:26:49.702Z</time></trkpt><trkpt lat="46.1401133" lon="9.4347109"><ele>201.0</ele><time>2026-04-26T09:26:50.702Z</time></trkpt><trkpt lat="46.1401466" lon="9.4346247"><ele>201.20000000000002</ele><time>2026-04-26T09:26:51.7Z</time></trkpt><trkpt lat="46.1401959" lon="9.4344658"><ele>201.4</ele><time>2026-04-26T09:26:53.701Z</time></trkpt><trkpt lat="46.1402328" lon="9.4343771"><ele>201.6</ele><time>2026-04-26T09:26:54.701Z</time></trkpt><trkpt lat="46.1402996" lon="9.4342355"><ele>201.8</ele><time>2026-04-26T09:26:56.701Z</time></trkpt><trkpt lat="46.1403968" lon="9.4341455"><ele>202.0</ele><time>2026-04-26T09:26:58.702Z</time></trkpt><trkpt lat="46.1404589" lon="9.4341275"><ele>201.99999999999997</ele><time>2026-04-26T09:26:59.701Z</time></trkpt><trkpt lat="46.1405299" lon="9.4341191"><ele>202.0</ele><time>2026-04-26T09:27:00.701Z</time></trkpt><trkpt lat="46.140597" lon="9.4341332"><ele>202.0</ele><time>2026-04-26T09:27:01.7Z</time></trkpt><trkpt lat="46.1407163" lon="9.4341593"><ele>202.0</ele><time>2026-04-26T09:27:03.701Z</time></trkpt><trkpt lat="46.1407846" lon="9.4341753"><ele>201.99999999999997</ele><time>2026-04-26T09:27:04.702Z</time></trkpt><trkpt lat="46.1408515" lon="9.434181"><ele>202.0</ele><time>2026-04-26T09:27:05.7Z</time></trkpt><trkpt lat="46.1409205" lon="9.4341856"><ele>201.8</ele><time>2026-04-26T09:27:06.7Z</time></trkpt><trkpt lat="46.1409848" lon="9.4341905"><ele>201.6</ele><time>2026-04-26T09:27:07.702Z</time></trkpt><trkpt lat="46.141053" lon="9.4341878"><ele>201.4</ele><time>2026-04-26T09:27:08.7Z</time></trkpt><trkpt lat="46.1411857" lon="9.4341961"><ele>201.20000000000002</ele><time>2026-04-26T09:27:10.7Z</time></trkpt><trkpt lat="46.141315" lon="9.434195"><ele>201.0</ele><time>2026-04-26T09:27:12.702Z</time></trkpt><trkpt lat="46.1413835" lon="9.4341936"><ele>201.0</ele><time>2026-04-26T09:27:13.701Z</time></trkpt><trkpt lat="46.1414517" lon="9.4341836"><ele>201.0</ele><time>2026-04-26T09:27:14.701Z</time></trkpt><trkpt lat="46.1415174" lon="9.4341773"><ele>201.0</ele><time>2026-04-26T09:27:15.701Z</time></trkpt><trkpt lat="46.1415863" lon="9.4341749"><ele>201.0</ele><time>2026-04-26T09:27:16.7Z</time></trkpt><trkpt lat="46.1416543" lon="9.4341703"><ele>201.0</ele><time>2026-04-26T09:27:17.701Z</time></trkpt><trkpt lat="46.1417779" lon="9.4341657"><ele>201.0</ele><time>2026-04-26T09:27:19.701Z</time></trkpt><trkpt lat="46.1419004" lon="9.434167"><ele>201.0</ele><time>2026-04-26T09:27:21.7Z</time></trkpt><trkpt lat="46.1419647" lon="9.4341682"><ele>201.0</ele><time>2026-04-26T09:27:22.702Z</time></trkpt><trkpt lat="46.1420313" lon="9.4341713"><ele>201.0</ele><time>2026-04-26T09:27:23.701Z</time></trkpt><trkpt lat="46.1421522" lon="9.4341701"><ele>201.0</ele><time>2026-04-26T09:27:25.702Z</time></trkpt><trkpt lat="46.1422207" lon="9.4341677"><ele>201.0</ele><time>2026-04-26T09:27:26.701Z</time></trkpt><trkpt lat="46.1423303" lon="9.4341862"><ele>201.0</ele><time>2026-04-26T09:27:28.7Z</time></trkpt><trkpt lat="46.1424033" lon="9.434194"><ele>201.0</ele><time>2026-04-26T09:27:29.702Z</time></trkpt><trkpt lat="46.1425141" lon="9.4341384"><ele>201.0</ele><time>2026-04-26T09:27:31.702Z</time></trkpt><trkpt lat="46.1425696" lon="9.4340879"><ele>201.0</ele><time>2026-04-26T09:27:32.702Z</time></trkpt><trkpt lat="46.142621" lon="9.4340252"><ele>201.0</ele><time>2026-04-26T09:27:33.702Z</time></trkpt><trkpt lat="46.1426623" lon="9.4338591"><ele>201.0</ele><time>2026-04-26T09:27:35.702Z</time></trkpt><trkpt lat="46.1426792" lon="9.4337555"><ele>201.0</ele><time>2026-04-26T09:27:36.701Z</time></trkpt><trkpt lat="46.1427205" lon="9.4335901"><ele>201.20000000000002</ele><time>2026-04-26T09:27:38.701Z</time></trkpt><trkpt lat="46.1427617" lon="9.4334184"><ele>201.4</ele><time>2026-04-26T09:27:40.701Z</time></trkpt><trkpt lat="46.1428291" lon="9.4332556"><ele>201.6</ele><time>2026-04-26T09:27:42.7Z</time></trkpt><trkpt lat="46.1428781" lon="9.4330928"><ele>201.8</ele><time>2026-04-26T09:27:44.701Z</time></trkpt><trkpt lat="46.1429086" lon="9.4330072"><ele>202.0</ele><time>2026-04-26T09:27:45.701Z</time></trkpt><trkpt lat="46.1429349" lon="9.4329159"><ele>201.66666666666666</ele><time>2026-04-26T09:27:46.701Z</time></trkpt><trkpt lat="46.1429605" lon="9.4328216"><ele>201.33333333333331</ele><time>2026-04-26T09:27:47.701Z</time></trkpt><trkpt lat="46.1429849" lon="9.4327288"><ele>201.0</ele><time>2026-04-26T09:27:48.701Z</time></trkpt><trkpt lat="46.143028" lon="9.4325684"><ele>200.66666666666669</ele><time>2026-04-26T09:27:50.7Z</time></trkpt><trkpt lat="46.1430498" lon="9.4324778"><ele>200.33333333333334</ele><time>2026-04-26T09:27:51.702Z</time></trkpt><trkpt lat="46.1430748" lon="9.4323798"><ele>200.0</ele><time>2026-04-26T09:27:52.702Z</time></trkpt><trkpt lat="46.1430994" lon="9.4322858"><ele>200.00000000000003</ele><time>2026-04-26T09:27:53.7Z</time></trkpt><trkpt lat="46.1431282" lon="9.4321952"><ele>200.0</ele><time>2026-04-26T09:27:54.701Z</time></trkpt><trkpt lat="46.1431661" lon="9.4321167"><ele>200.0</ele><time>2026-04-26T09:27:55.701Z</time></trkpt><trkpt lat="46.1431989" lon="9.432029"><ele>200.0</ele><time>2026-04-26T09:27:56.7Z</time></trkpt><trkpt lat="46.1432267" lon="9.4319345"><ele>200.00000000000003</ele><time>2026-04-26T09:27:57.7Z</time></trkpt><trkpt lat="46.143283" lon="9.4317802"><ele>200.0</ele><time>2026-04-26T09:27:59.702Z</time></trkpt><trkpt lat="46.1433158" lon="9.4316969"><ele>200.00000000000003</ele><time>2026-04-26T09:28:00.701Z</time></trkpt><trkpt lat="46.1433492" lon="9.4316127"><ele>200.0</ele><time>2026-04-26T09:28:01.701Z</time></trkpt><trkpt lat="46.1434082" lon="9.4314583"><ele>200.0</ele><time>2026-04-26T09:28:03.7Z</time></trkpt><trkpt lat="46.1434714" lon="9.4313065"><ele>200.0</ele><time>2026-04-26T09:28:05.701Z</time></trkpt><trkpt lat="46.1435045" lon="9.4312201"><ele>200.00000000000003</ele><time>2026-04-26T09:28:06.702Z</time></trkpt><trkpt lat="46.1435344" lon="9.4311348"><ele>200.0</ele><time>2026-04-26T09:28:07.702Z</time></trkpt><trkpt lat="46.1435947" lon="9.4309799"><ele>200.2</ele><time>2026-04-26T09:28:09.701Z</time></trkpt><trkpt lat="46.1436479" lon="9.4308147"><ele>200.4</ele><time>2026-04-26T09:28:11.7Z</time></trkpt><trkpt lat="46.1436813" lon="9.4307331"><ele>200.60000000000002</ele><time>2026-04-26T09:28:12.701Z</time></trkpt><trkpt lat="46.1437422" lon="9.4305681"><ele>200.8</ele><time>2026-04-26T09:28:14.702Z</time></trkpt><trkpt lat="46.1437727" lon="9.4304747"><ele>201.0</ele><time>2026-04-26T09:28:15.702Z</time></trkpt><trkpt lat="46.1438087" lon="9.430383"><ele>201.0</ele><time>2026-04-26T09:28:16.701Z</time></trkpt><trkpt lat="46.1438447" lon="9.430292"><ele>201.0</ele><time>2026-04-26T09:28:17.7Z</time></trkpt><trkpt lat="46.143878" lon="9.4302015"><ele>201.0</ele><time>2026-04-26T09:28:18.701Z</time></trkpt><trkpt lat="46.1439087" lon="9.4301197"><ele>201.0</ele><time>2026-04-26T09:28:19.701Z</time></trkpt><trkpt lat="46.1439401" lon="9.4300281"><ele>201.0</ele><time>2026-04-26T09:28:20.702Z</time></trkpt><trkpt lat="46.1439691" lon="9.4299314"><ele>201.0</ele><time>2026-04-26T09:28:21.701Z</time></trkpt><trkpt lat="46.1440008" lon="9.4298479"><ele>201.0</ele><time>2026-04-26T09:28:22.702Z</time></trkpt><trkpt lat="46.1440628" lon="9.4296966"><ele>200.83333333333334</ele><time>2026-04-26T09:28:24.7Z</time></trkpt><trkpt lat="46.144096" lon="9.4296136"><ele>200.66666666666669</ele><time>2026-04-26T09:28:25.701Z</time></trkpt><trkpt lat="46.1441355" lon="9.4295276"><ele>200.5</ele><time>2026-04-26T09:28:26.701Z</time></trkpt><trkpt lat="46.1441677" lon="9.429441"><ele>200.33333333333334</ele><time>2026-04-26T09:28:27.702Z</time></trkpt><trkpt lat="46.1442021" lon="9.4293575"><ele>200.16666666666669</ele><time>2026-04-26T09:28:28.702Z</time></trkpt><trkpt lat="46.1442706" lon="9.4291945"><ele>200.0</ele><time>2026-04-26T09:28:30.702Z</time></trkpt><trkpt lat="46.144297" lon="9.4291099"><ele>200.0</ele><time>2026-04-26T09:28:31.702Z</time></trkpt><trkpt lat="46.1443668" lon="9.4289607"><ele>200.0</ele><time>2026-04-26T09:28:33.701Z</time></trkpt><trkpt lat="46.1444364" lon="9.4288063"><ele>200.0</ele><time>2026-04-26T09:28:35.701Z</time></trkpt><trkpt lat="46.1444686" lon="9.4287218"><ele>200.0</ele><time>2026-04-26T09:28:36.701Z</time></trkpt><trkpt lat="46.1445048" lon="9.428638"><ele>200.0</ele><time>2026-04-26T09:28:37.699Z</time></trkpt><trkpt lat="46.1445379" lon="9.4285538"><ele>200.16666666666669</ele><time>2026-04-26T09:28:38.701Z</time></trkpt><trkpt lat="46.1445674" lon="9.4284733"><ele>200.33333333333334</ele><time>2026-04-26T09:28:39.702Z</time></trkpt><trkpt lat="46.1445981" lon="9.4283849"><ele>200.5</ele><time>2026-04-26T09:28:40.702Z</time></trkpt><trkpt lat="46.1446293" lon="9.4282934"><ele>200.66666666666669</ele><time>2026-04-26T09:28:41.701Z</time></trkpt><trkpt lat="46.1446894" lon="9.4281119"><ele>200.83333333333334</ele><time>2026-04-26T09:28:43.701Z</time></trkpt><trkpt lat="46.1447264" lon="9.4280233"><ele>201.0</ele><time>2026-04-26T09:28:44.701Z</time></trkpt><trkpt lat="46.1447657" lon="9.427941"><ele>201.0</ele><time>2026-04-26T09:28:45.702Z</time></trkpt><trkpt lat="46.1448074" lon="9.4278601"><ele>201.0</ele><time>2026-04-26T09:28:46.702Z</time></trkpt><trkpt lat="46.1448341" lon="9.4277728"><ele>201.0</ele><time>2026-04-26T09:28:47.7Z</time></trkpt><trkpt lat="46.1448681" lon="9.4276876"><ele>201.0</ele><time>2026-04-26T09:28:48.701Z</time></trkpt><trkpt lat="46.1448953" lon="9.4276008"><ele>201.0</ele><time>2026-04-26T09:28:49.701Z</time></trkpt><trkpt lat="46.1449148" lon="9.4275109"><ele>201.0</ele><time>2026-04-26T09:28:50.701Z</time></trkpt><trkpt lat="46.1449295" lon="9.4274039"><ele>201.0</ele><time>2026-04-26T09:28:51.702Z</time></trkpt><trkpt lat="46.1449291" lon="9.4273098"><ele>201.0</ele><time>2026-04-26T09:28:52.701Z</time></trkpt><trkpt lat="46.1449262" lon="9.427219"><ele>201.0</ele><time>2026-04-26T09:28:53.702Z</time></trkpt><trkpt lat="46.1448936" lon="9.427141"><ele>201.0</ele><time>2026-04-26T09:28:54.701Z</time></trkpt><trkpt lat="46.1447969" lon="9.4270439"><ele>201.0</ele><time>2026-04-26T09:28:56.701Z</time></trkpt><trkpt lat="46.1447268" lon="9.4269187"><ele>201.0</ele><time>2026-04-26T09:28:58.701Z</time></trkpt><trkpt lat="46.1447118" lon="9.4268218"><ele>201.0</ele><time>2026-04-26T09:28:59.702Z</time></trkpt><trkpt lat="46.1446998" lon="9.4266547"><ele>201.4</ele><time>2026-04-26T09:29:01.702Z</time></trkpt><trkpt lat="46.1446919" lon="9.4264748"><ele>201.8</ele><time>2026-04-26T09:29:03.701Z</time></trkpt><trkpt lat="46.1446679" lon="9.4263864"><ele>202.20000000000002</ele><time>2026-04-26T09:29:04.701Z</time></trkpt><trkpt lat="46.1446203" lon="9.4263142"><ele>202.60000000000002</ele><time>2026-04-26T09:29:05.702Z</time></trkpt><trkpt lat="46.1445573" lon="9.4262721"><ele>203.0</ele><time>2026-04-26T09:29:06.702Z</time></trkpt><trkpt lat="46.1444298" lon="9.4262563"><ele>203.00000000000003</ele><time>2026-04-26T09:29:08.701Z</time></trkpt><trkpt lat="46.1443596" lon="9.4262608"><ele>203.0</ele><time>2026-04-26T09:29:09.701Z</time></trkpt><trkpt lat="46.144293" lon="9.4262602"><ele>203.0</ele><time>2026-04-26T09:29:10.702Z</time></trkpt><trkpt lat="46.1442287" lon="9.4262664"><ele>203.0</ele><time>2026-04-26T09:29:11.702Z</time></trkpt><trkpt lat="46.1441061" lon="9.426285"><ele>203.00000000000003</ele><time>2026-04-26T09:29:13.701Z</time></trkpt><trkpt lat="46.1440373" lon="9.4262991"><ele>203.0</ele><time>2026-04-26T09:29:14.701Z</time></trkpt><trkpt lat="46.1439102" lon="9.4263181"><ele>203.0</ele><time>2026-04-26T09:29:16.701Z</time></trkpt><trkpt lat="46.1438425" lon="9.4263328"><ele>203.0</ele><time>2026-04-26T09:29:17.701Z</time></trkpt><trkpt lat="46.1437749" lon="9.426349"><ele>203.0</ele><time>2026-04-26T09:29:18.702Z</time></trkpt><trkpt lat="46.1436986" lon="9.4263662"><ele>203.0</ele><time>2026-04-26T09:29:19.701Z</time></trkpt><trkpt lat="46.1436329" lon="9.4263811"><ele>203.0</ele><time>2026-04-26T09:29:20.701Z</time></trkpt><trkpt lat="46.143569" lon="9.4263935"><ele>203.0</ele><time>2026-04-26T09:29:21.701Z</time></trkpt><trkpt lat="46.1434949" lon="9.4264131"><ele>203.0</ele><time>2026-04-26T09:29:22.702Z</time></trkpt><trkpt lat="46.1433766" lon="9.426436"><ele>203.0</ele><time>2026-04-26T09:29:24.702Z</time></trkpt><trkpt lat="46.1433107" lon="9.4264457"><ele>203.0</ele><time>2026-04-26T09:29:25.701Z</time></trkpt><trkpt lat="46.1432473" lon="9.4264524"><ele>203.0</ele><time>2026-04-26T09:29:26.701Z</time></trkpt><trkpt lat="46.1431196" lon="9.4264715"><ele>203.0</ele><time>2026-04-26T09:29:28.702Z</time></trkpt><trkpt lat="46.1429846" lon="9.4264695"><ele>203.0</ele><time>2026-04-26T09:29:30.701Z</time></trkpt><trkpt lat="46.1428624" lon="9.4264303"><ele>203.0</ele><time>2026-04-26T09:29:32.702Z</time></trkpt><trkpt lat="46.1427512" lon="9.4264094"><ele>203.0</ele><time>2026-04-26T09:29:34.701Z</time></trkpt><trkpt lat="46.1426411" lon="9.4263889"><ele>203.0</ele><time>2026-04-26T09:29:36.702Z</time></trkpt><trkpt lat="46.142534" lon="9.426367"><ele>203.0</ele><time>2026-04-26T09:29:38.702Z</time></trkpt><trkpt lat="46.1424636" lon="9.4263275"><ele>203.0</ele><time>2026-04-26T09:29:40.701Z</time></trkpt><trkpt lat="46.1424311" lon="9.4262496"><ele>202.66666666666669</ele><time>2026-04-26T09:29:42.702Z</time></trkpt><trkpt lat="46.1424655" lon="9.426148"><ele>202.33333333333334</ele><time>2026-04-26T09:29:44.701Z</time></trkpt><trkpt lat="46.1424994" lon="9.4260296"><ele>202.0</ele><time>2026-04-26T09:29:46.701Z</time></trkpt><trkpt lat="46.1425205" lon="9.4259017"><ele>201.66666666666669</ele><time>2026-04-26T09:29:48.701Z</time></trkpt><trkpt lat="46.1425591" lon="9.4257899"><ele>201.33333333333334</ele><time>2026-04-26T09:29:50.701Z</time></trkpt><trkpt lat="46.1426036" lon="9.4256756"><ele>201.0</ele><time>2026-04-26T09:29:52.701Z</time></trkpt><trkpt lat="46.1426306" lon="9.4255751"><ele>201.0</ele><time>2026-04-26T09:29:54.702Z</time></trkpt><trkpt lat="46.1426676" lon="9.4254933"><ele>201.0</ele><time>2026-04-26T09:29:56.702Z</time></trkpt><trkpt lat="46.1426953" lon="9.4253851"><ele>201.0</ele><time>2026-04-26T09:29:58.702Z</time></trkpt><trkpt lat="46.1427278" lon="9.4252759"><ele>201.0</ele><time>2026-04-26T09:30:00.701Z</time></trkpt><trkpt lat="46.1427622" lon="9.4251558"><ele>201.0</ele><time>2026-04-26T09:30:02.702Z</time></trkpt><trkpt lat="46.1428074" lon="9.4250242"><ele>201.0</ele><time>2026-04-26T09:30:04.701Z</time></trkpt><trkpt lat="46.1428426" lon="9.4249058"><ele>200.83333333333334</ele><time>2026-04-26T09:30:06.7Z</time></trkpt><trkpt lat="46.1428673" lon="9.4247871"><ele>200.66666666666669</ele><time>2026-04-26T09:30:08.701Z</time></trkpt><trkpt lat="46.1429022" lon="9.4246632"><ele>200.5</ele><time>2026-04-26T09:30:10.701Z</time></trkpt><trkpt lat="46.1429343" lon="9.424557"><ele>200.33333333333334</ele><time>2026-04-26T09:30:12.701Z</time></trkpt><trkpt lat="46.14297" lon="9.4244538"><ele>200.16666666666669</ele><time>2026-04-26T09:30:14.701Z</time></trkpt><trkpt lat="46.1430157" lon="9.4243384"><ele>200.0</ele><time>2026-04-26T09:30:16.702Z</time></trkpt><trkpt lat="46.1430568" lon="9.4242189"><ele>200.0</ele><time>2026-04-26T09:30:18.701Z</time></trkpt><trkpt lat="46.1430909" lon="9.4240851"><ele>200.0</ele><time>2026-04-26T09:30:20.701Z</time></trkpt><trkpt lat="46.1431299" lon="9.4239473"><ele>200.0</ele><time>2026-04-26T09:30:22.702Z</time></trkpt><trkpt lat="46.1431648" lon="9.4238068"><ele>200.0</ele><time>2026-04-26T09:30:24.701Z</time></trkpt><trkpt lat="46.1432082" lon="9.423654"><ele>200.0</ele><time>2026-04-26T09:30:26.702Z</time></trkpt><trkpt lat="46.1432393" lon="9.4235042"><ele>200.2</ele><time>2026-04-26T09:30:28.702Z</time></trkpt><trkpt lat="46.1432913" lon="9.4233678"><ele>200.4</ele><time>2026-04-26T09:30:30.702Z</time></trkpt><trkpt lat="46.1433249" lon="9.4232288"><ele>200.60000000000002</ele><time>2026-04-26T09:30:32.701Z</time></trkpt><trkpt lat="46.1433578" lon="9.4230895"><ele>200.8</ele><time>2026-04-26T09:30:34.701Z</time></trkpt><trkpt lat="46.1433962" lon="9.4229463"><ele>201.0</ele><time>2026-04-26T09:30:36.702Z</time></trkpt><trkpt lat="46.1434336" lon="9.4228021"><ele>201.25</ele><time>2026-04-26T09:30:38.702Z</time></trkpt><trkpt lat="46.1434667" lon="9.4226587"><ele>201.5</ele><time>2026-04-26T09:30:40.701Z</time></trkpt><trkpt lat="46.1434948" lon="9.4225227"><ele>201.75</ele><time>2026-04-26T09:30:42.702Z</time></trkpt><trkpt lat="46.1435713" lon="9.4223262"><ele>202.0</ele><time>2026-04-26T09:30:45.702Z</time></trkpt><trkpt lat="46.1436043" lon="9.422195"><ele>202.33333333333331</ele><time>2026-04-26T09:30:47.702Z</time></trkpt><trkpt lat="46.1436324" lon="9.4220778"><ele>202.66666666666666</ele><time>2026-04-26T09:30:49.7Z</time></trkpt><trkpt lat="46.1436533" lon="9.4219815"><ele>203.0</ele><time>2026-04-26T09:30:51.701Z</time></trkpt><trkpt lat="46.1436915" lon="9.4218685"><ele>203.33333333333331</ele><time>2026-04-26T09:30:53.701Z</time></trkpt><trkpt lat="46.1437158" lon="9.4217582"><ele>203.66666666666666</ele><time>2026-04-26T09:30:55.701Z</time></trkpt><trkpt lat="46.1437436" lon="9.4216111"><ele>204.0</ele><time>2026-04-26T09:30:57.701Z</time></trkpt><trkpt lat="46.1437743" lon="9.4214974"><ele>204.0</ele><time>2026-04-26T09:30:59.701Z</time></trkpt><trkpt lat="46.1438152" lon="9.4213599"><ele>204.0</ele><time>2026-04-26T09:31:01.701Z</time></trkpt><trkpt lat="46.1438576" lon="9.4212296"><ele>204.0</ele><time>2026-04-26T09:31:03.701Z</time></trkpt><trkpt lat="46.1438954" lon="9.4210943"><ele>204.0</ele><time>2026-04-26T09:31:05.702Z</time></trkpt><trkpt lat="46.143932" lon="9.4209575"><ele>204.0</ele><time>2026-04-26T09:31:07.701Z</time></trkpt><trkpt lat="46.1439683" lon="9.4208167"><ele>203.6</ele><time>2026-04-26T09:31:09.701Z</time></trkpt><trkpt lat="46.1440108" lon="9.4206611"><ele>203.2</ele><time>2026-04-26T09:31:11.702Z</time></trkpt><trkpt lat="46.1440547" lon="9.4205081"><ele>202.79999999999998</ele><time>2026-04-26T09:31:13.702Z</time></trkpt><trkpt lat="46.1440898" lon="9.4203475"><ele>202.39999999999998</ele><time>2026-04-26T09:31:15.701Z</time></trkpt><trkpt lat="46.1440966" lon="9.4202565"><ele>202.0</ele><time>2026-04-26T09:31:16.702Z</time></trkpt><trkpt lat="46.1440989" lon="9.4201655"><ele>201.83333333333331</ele><time>2026-04-26T09:31:17.702Z</time></trkpt><trkpt lat="46.1440964" lon="9.4200735"><ele>201.66666666666666</ele><time>2026-04-26T09:31:18.702Z</time></trkpt><trkpt lat="46.1440864" lon="9.4199813"><ele>201.5</ele><time>2026-04-26T09:31:19.701Z</time></trkpt><trkpt lat="46.1440785" lon="9.419885"><ele>201.33333333333331</ele><time>2026-04-26T09:31:20.702Z</time></trkpt><trkpt lat="46.1440683" lon="9.419785"><ele>201.16666666666666</ele><time>2026-04-26T09:31:21.702Z</time></trkpt><trkpt lat="46.1440617" lon="9.419619"><ele>201.0</ele><time>2026-04-26T09:31:23.702Z</time></trkpt><trkpt lat="46.1440514" lon="9.4194643"><ele>200.83333333333334</ele><time>2026-04-26T09:31:25.702Z</time></trkpt><trkpt lat="46.1440308" lon="9.4192985"><ele>200.66666666666669</ele><time>2026-04-26T09:31:27.701Z</time></trkpt><trkpt lat="46.1440219" lon="9.4192035"><ele>200.5</ele><time>2026-04-26T09:31:28.701Z</time></trkpt><trkpt lat="46.1440131" lon="9.4191089"><ele>200.33333333333334</ele><time>2026-04-26T09:31:29.701Z</time></trkpt><trkpt lat="46.1439879" lon="9.4189407"><ele>200.16666666666669</ele><time>2026-04-26T09:31:31.702Z</time></trkpt><trkpt lat="46.1439735" lon="9.4188521"><ele>200.0</ele><time>2026-04-26T09:31:32.702Z</time></trkpt><trkpt lat="46.1439621" lon="9.4187563"><ele>199.8</ele><time>2026-04-26T09:31:33.702Z</time></trkpt><trkpt lat="46.143943" lon="9.4186643"><ele>199.6</ele><time>2026-04-26T09:31:34.702Z</time></trkpt><trkpt lat="46.1438646" lon="9.418538"><ele>199.39999999999998</ele><time>2026-04-26T09:31:36.701Z</time></trkpt><trkpt lat="46.1437637" lon="9.4184483"><ele>199.2</ele><time>2026-04-26T09:31:38.701Z</time></trkpt><trkpt lat="46.1436661" lon="9.4183755"><ele>199.0</ele><time>2026-04-26T09:31:40.702Z</time></trkpt><trkpt lat="46.1436155" lon="9.4183158"><ele>199.0</ele><time>2026-04-26T09:31:41.702Z</time></trkpt><trkpt lat="46.1435407" lon="9.4181728"><ele>199.0</ele><time>2026-04-26T09:31:43.701Z</time></trkpt><trkpt lat="46.1435374" lon="9.4180022"><ele>199.0</ele><time>2026-04-26T09:31:45.702Z</time></trkpt><trkpt lat="46.1435341" lon="9.417831"><ele>199.0</ele><time>2026-04-26T09:31:47.702Z</time></trkpt><trkpt lat="46.1435231" lon="9.417738"><ele>199.0</ele><time>2026-04-26T09:31:48.701Z</time></trkpt><trkpt lat="46.1435184" lon="9.4176456"><ele>198.99999999999997</ele><time>2026-04-26T09:31:49.701Z</time></trkpt><trkpt lat="46.1435134" lon="9.4175474"><ele>199.0</ele><time>2026-04-26T09:31:50.702Z</time></trkpt><trkpt lat="46.1435081" lon="9.4174468"><ele>199.0</ele><time>2026-04-26T09:31:51.701Z</time></trkpt><trkpt lat="46.1434997" lon="9.4173535"><ele>199.0</ele><time>2026-04-26T09:31:52.701Z</time></trkpt><trkpt lat="46.1434845" lon="9.4172546"><ele>198.99999999999997</ele><time>2026-04-26T09:31:53.701Z</time></trkpt><trkpt lat="46.1434654" lon="9.4171678"><ele>199.0</ele><time>2026-04-26T09:31:54.702Z</time></trkpt><trkpt lat="46.1433938" lon="9.4170192"><ele>199.0</ele><time>2026-04-26T09:31:56.7Z</time></trkpt><trkpt lat="46.143346" lon="9.4169549"><ele>199.0</ele><time>2026-04-26T09:31:57.701Z</time></trkpt><trkpt lat="46.1432596" lon="9.4168437"><ele>199.0</ele><time>2026-04-26T09:31:59.702Z</time></trkpt><trkpt lat="46.1431738" lon="9.4167184"><ele>199.0</ele><time>2026-04-26T09:32:01.702Z</time></trkpt><trkpt lat="46.14311" lon="9.4166519"><ele>199.0</ele><time>2026-04-26T09:32:02.702Z</time></trkpt><trkpt lat="46.1430981" lon="9.416496"><ele>199.39999999999998</ele><time>2026-04-26T09:32:04.702Z</time></trkpt><trkpt lat="46.143114" lon="9.4163277"><ele>199.8</ele><time>2026-04-26T09:32:06.702Z</time></trkpt><trkpt lat="46.1431201" lon="9.4161693"><ele>200.2</ele><time>2026-04-26T09:32:08.701Z</time></trkpt><trkpt lat="46.1431036" lon="9.4160792"><ele>200.60000000000002</ele><time>2026-04-26T09:32:09.702Z</time></trkpt><trkpt lat="46.1430834" lon="9.4159023"><ele>201.0</ele><time>2026-04-26T09:32:11.702Z</time></trkpt><trkpt lat="46.1430413" lon="9.4157398"><ele>201.0</ele><time>2026-04-26T09:32:13.701Z</time></trkpt><trkpt lat="46.1430067" lon="9.4155812"><ele>201.0</ele><time>2026-04-26T09:32:15.701Z</time></trkpt><trkpt lat="46.1429775" lon="9.4154999"><ele>201.0</ele><time>2026-04-26T09:32:16.701Z</time></trkpt><trkpt lat="46.1429285" lon="9.4154332"><ele>201.0</ele><time>2026-04-26T09:32:17.702Z</time></trkpt><trkpt lat="46.1428661" lon="9.4153802"><ele>201.0</ele><time>2026-04-26T09:32:18.701Z</time></trkpt><trkpt lat="46.1427976" lon="9.4153522"><ele>201.0</ele><time>2026-04-26T09:32:19.701Z</time></trkpt><trkpt lat="46.1427302" lon="9.4153537"><ele>201.0</ele><time>2026-04-26T09:32:20.7Z</time></trkpt><trkpt lat="46.1426548" lon="9.4153716"><ele>201.0</ele><time>2026-04-26T09:32:21.702Z</time></trkpt><trkpt lat="46.142551" lon="9.4154562"><ele>201.0</ele><time>2026-04-26T09:32:23.702Z</time></trkpt><trkpt lat="46.1424886" lon="9.4155981"><ele>201.0</ele><time>2026-04-26T09:32:25.701Z</time></trkpt><trkpt lat="46.1424591" lon="9.4157589"><ele>201.0</ele><time>2026-04-26T09:32:27.701Z</time></trkpt><trkpt lat="46.142421" lon="9.4159181"><ele>201.0</ele><time>2026-04-26T09:32:29.702Z</time></trkpt><trkpt lat="46.1423455" lon="9.4160271"><ele>201.0</ele><time>2026-04-26T09:32:31.701Z</time></trkpt><trkpt lat="46.1422489" lon="9.4161054"><ele>201.0</ele><time>2026-04-26T09:32:33.701Z</time></trkpt><trkpt lat="46.1421544" lon="9.4161933"><ele>201.0</ele><time>2026-04-26T09:32:35.701Z</time></trkpt><trkpt lat="46.1420387" lon="9.4162337"><ele>201.0</ele><time>2026-04-26T09:32:37.702Z</time></trkpt><trkpt lat="46.1419419" lon="9.4161862"><ele>201.0</ele><time>2026-04-26T09:32:39.702Z</time></trkpt><trkpt lat="46.141863" lon="9.4160781"><ele>201.0</ele><time>2026-04-26T09:32:41.701Z</time></trkpt><trkpt lat="46.1418208" lon="9.4159288"><ele>201.0</ele><time>2026-04-26T09:32:43.703Z</time></trkpt><trkpt lat="46.1418417" lon="9.415775"><ele>201.0</ele><time>2026-04-26T09:32:45.702Z</time></trkpt><trkpt lat="46.1418769" lon="9.4156182"><ele>201.0</ele><time>2026-04-26T09:32:47.701Z</time></trkpt><trkpt lat="46.1418707" lon="9.4155253"><ele>200.8</ele><time>2026-04-26T09:32:48.701Z</time></trkpt><trkpt lat="46.1418536" lon="9.4153494"><ele>200.60000000000002</ele><time>2026-04-26T09:32:50.702Z</time></trkpt><trkpt lat="46.1418473" lon="9.4152568"><ele>200.4</ele><time>2026-04-26T09:32:51.702Z</time></trkpt><trkpt lat="46.1418378" lon="9.4151484"><ele>200.2</ele><time>2026-04-26T09:32:52.702Z</time></trkpt><trkpt lat="46.1418158" lon="9.414964"><ele>200.0</ele><time>2026-04-26T09:32:54.702Z</time></trkpt><trkpt lat="46.1418019" lon="9.4148668"><ele>200.00000000000003</ele><time>2026-04-26T09:32:55.702Z</time></trkpt><trkpt lat="46.141793" lon="9.4147728"><ele>200.0</ele><time>2026-04-26T09:32:56.701Z</time></trkpt><trkpt lat="46.1417827" lon="9.4146736"><ele>200.0</ele><time>2026-04-26T09:32:57.701Z</time></trkpt><trkpt lat="46.1417805" lon="9.4145792"><ele>200.0</ele><time>2026-04-26T09:32:58.702Z</time></trkpt><trkpt lat="46.1417687" lon="9.4144806"><ele>200.00000000000003</ele><time>2026-04-26T09:32:59.701Z</time></trkpt><trkpt lat="46.1417487" lon="9.4143267"><ele>200.0</ele><time>2026-04-26T09:33:01.702Z</time></trkpt><trkpt lat="46.1417083" lon="9.4142098"><ele>200.0</ele><time>2026-04-26T09:33:03.702Z</time></trkpt><trkpt lat="46.141614" lon="9.4141749"><ele>200.0</ele><time>2026-04-26T09:33:05.701Z</time></trkpt><trkpt lat="46.1415112" lon="9.4141828"><ele>200.0</ele><time>2026-04-26T09:33:07.702Z</time></trkpt><trkpt lat="46.1413953" lon="9.4142002"><ele>200.0</ele><time>2026-04-26T09:33:09.7Z</time></trkpt><trkpt lat="46.1412818" lon="9.4142239"><ele>200.0</ele><time>2026-04-26T09:33:11.701Z</time></trkpt><trkpt lat="46.141217" lon="9.4142359"><ele>199.75</ele><time>2026-04-26T09:33:12.701Z</time></trkpt><trkpt lat="46.1410949" lon="9.4142578"><ele>199.5</ele><time>2026-04-26T09:33:14.701Z</time></trkpt><trkpt lat="46.1409754" lon="9.41429"><ele>199.25</ele><time>2026-04-26T09:33:16.701Z</time></trkpt><trkpt lat="46.1408663" lon="9.4143199"><ele>199.0</ele><time>2026-04-26T09:33:18.701Z</time></trkpt><trkpt lat="46.1407553" lon="9.4142931"><ele>199.2</ele><time>2026-04-26T09:33:20.702Z</time></trkpt><trkpt lat="46.1406668" lon="9.4142004"><ele>199.39999999999998</ele><time>2026-04-26T09:33:22.702Z</time></trkpt><trkpt lat="46.1405629" lon="9.4141037"><ele>199.6</ele><time>2026-04-26T09:33:24.701Z</time></trkpt><trkpt lat="46.1404499" lon="9.4140215"><ele>199.8</ele><time>2026-04-26T09:33:26.701Z</time></trkpt><trkpt lat="46.140394" lon="9.413974"><ele>200.0</ele><time>2026-04-26T09:33:27.702Z</time></trkpt><trkpt lat="46.1403361" lon="9.413924"><ele>200.0</ele><time>2026-04-26T09:33:28.701Z</time></trkpt><trkpt lat="46.1402278" lon="9.4138234"><ele>200.0</ele><time>2026-04-26T09:33:30.702Z</time></trkpt><trkpt lat="46.1401665" lon="9.4137773"><ele>200.0</ele><time>2026-04-26T09:33:31.702Z</time></trkpt><trkpt lat="46.1401082" lon="9.413728"><ele>200.0</ele><time>2026-04-26T09:33:32.701Z</time></trkpt><trkpt lat="46.1400506" lon="9.4136821"><ele>200.0</ele><time>2026-04-26T09:33:33.702Z</time></trkpt><trkpt lat="46.1399408" lon="9.4135977"><ele>199.85714285714286</ele><time>2026-04-26T09:33:35.703Z</time></trkpt><trkpt lat="46.1398794" lon="9.4135497"><ele>199.71428571428572</ele><time>2026-04-26T09:33:36.701Z</time></trkpt><trkpt lat="46.1397785" lon="9.4135193"><ele>199.57142857142856</ele><time>2026-04-26T09:33:38.702Z</time></trkpt><trkpt lat="46.1397134" lon="9.4135285"><ele>199.42857142857144</ele><time>2026-04-26T09:33:39.701Z</time></trkpt><trkpt lat="46.1396487" lon="9.4135534"><ele>199.28571428571428</ele><time>2026-04-26T09:33:40.701Z</time></trkpt><trkpt lat="46.1395811" lon="9.4135776"><ele>199.14285714285714</ele><time>2026-04-26T09:33:41.701Z</time></trkpt><trkpt lat="46.1395174" lon="9.4135949"><ele>199.0</ele><time>2026-04-26T09:33:42.702Z</time></trkpt><trkpt lat="46.1394465" lon="9.4136053"><ele>199.0</ele><time>2026-04-26T09:33:43.702Z</time></trkpt><trkpt lat="46.139323" lon="9.413642"><ele>199.0</ele><time>2026-04-26T09:33:45.701Z</time></trkpt><trkpt lat="46.1392608" lon="9.4136569"><ele>199.0</ele><time>2026-04-26T09:33:46.702Z</time></trkpt><trkpt lat="46.1391401" lon="9.4136836"><ele>199.0</ele><time>2026-04-26T09:33:48.702Z</time></trkpt><trkpt lat="46.139018" lon="9.4136992"><ele>199.0</ele><time>2026-04-26T09:33:50.701Z</time></trkpt><trkpt lat="46.1388993" lon="9.4137295"><ele>199.16666666666666</ele><time>2026-04-26T09:33:52.702Z</time></trkpt><trkpt lat="46.1388283" lon="9.41374"><ele>199.33333333333331</ele><time>2026-04-26T09:33:53.702Z</time></trkpt><trkpt lat="46.1387658" lon="9.413759"><ele>199.5</ele><time>2026-04-26T09:33:54.701Z</time></trkpt><trkpt lat="46.1387038" lon="9.4137775"><ele>199.66666666666669</ele><time>2026-04-26T09:33:55.701Z</time></trkpt><trkpt lat="46.1386287" lon="9.4137881"><ele>199.83333333333334</ele><time>2026-04-26T09:33:56.702Z</time></trkpt><trkpt lat="46.1385599" lon="9.4138017"><ele>200.0</ele><time>2026-04-26T09:33:57.702Z</time></trkpt><trkpt lat="46.1384438" lon="9.4138256"><ele>200.0</ele><time>2026-04-26T09:33:59.702Z</time></trkpt><trkpt lat="46.1383581" lon="9.4138741"><ele>200.0</ele><time>2026-04-26T09:34:01.702Z</time></trkpt><trkpt lat="46.1382479" lon="9.4139121"><ele>200.0</ele><time>2026-04-26T09:34:03.702Z</time></trkpt><trkpt lat="46.1381847" lon="9.4139293"><ele>200.0</ele><time>2026-04-26T09:34:04.702Z</time></trkpt><trkpt lat="46.1380565" lon="9.4139616"><ele>200.0</ele><time>2026-04-26T09:34:06.701Z</time></trkpt><trkpt lat="46.1379871" lon="9.4139767"><ele>200.14285714285717</ele><time>2026-04-26T09:34:07.702Z</time></trkpt><trkpt lat="46.1379223" lon="9.4139827"><ele>200.28571428571428</ele><time>2026-04-26T09:34:08.701Z</time></trkpt><trkpt lat="46.1378471" lon="9.4139717"><ele>200.42857142857144</ele><time>2026-04-26T09:34:09.702Z</time></trkpt><trkpt lat="46.1377785" lon="9.4139469"><ele>200.57142857142858</ele><time>2026-04-26T09:34:10.701Z</time></trkpt><trkpt lat="46.1377102" lon="9.4139068"><ele>200.71428571428572</ele><time>2026-04-26T09:34:11.702Z</time></trkpt><trkpt lat="46.1376571" lon="9.4138454"><ele>200.85714285714286</ele><time>2026-04-26T09:34:12.703Z</time></trkpt><trkpt lat="46.1376173" lon="9.4137671"><ele>201.0</ele><time>2026-04-26T09:34:13.701Z</time></trkpt><trkpt lat="46.1375508" lon="9.4136122"><ele>201.0</ele><time>2026-04-26T09:34:15.702Z</time></trkpt><trkpt lat="46.1375126" lon="9.4135377"><ele>201.0</ele><time>2026-04-26T09:34:16.701Z</time></trkpt><trkpt lat="46.1374309" lon="9.4134247"><ele>201.0</ele><time>2026-04-26T09:34:18.702Z</time></trkpt><trkpt lat="46.1373699" lon="9.4133962"><ele>201.0</ele><time>2026-04-26T09:34:19.702Z</time></trkpt><trkpt lat="46.1372509" lon="9.4134201"><ele>201.0</ele><time>2026-04-26T09:34:21.703Z</time></trkpt><trkpt lat="46.1371524" lon="9.4134889"><ele>204.83333333333334</ele><time>2026-04-26T09:34:23.701Z</time></trkpt><trkpt lat="46.1370624" lon="9.4135479"><ele>208.66666666666669</ele><time>2026-04-26T09:34:25.702Z</time></trkpt><trkpt lat="46.1369846" lon="9.4135734"><ele>212.5</ele><time>2026-04-26T09:34:28.701Z</time></trkpt><trkpt lat="46.1369224" lon="9.4135291"><ele>216.33333333333334</ele><time>2026-04-26T09:34:31.701Z</time></trkpt><trkpt lat="46.1369003" lon="9.41341"><ele>220.16666666666669</ele><time>2026-04-26T09:34:34.701Z</time></trkpt><trkpt lat="46.1368866" lon="9.413293"><ele>224.0</ele><time>2026-04-26T09:34:36.702Z</time></trkpt><trkpt lat="46.1368633" lon="9.4131686"><ele>224.0</ele><time>2026-04-26T09:34:38.702Z</time></trkpt><trkpt lat="46.1368432" lon="9.4130361"><ele>223.99999999999997</ele><time>2026-04-26T09:34:40.702Z</time></trkpt><trkpt lat="46.136828" lon="9.4128977"><ele>223.99999999999997</ele><time>2026-04-26T09:34:42.702Z</time></trkpt><trkpt lat="46.1368163" lon="9.4127557"><ele>224.0</ele><time>2026-04-26T09:34:44.701Z</time></trkpt><trkpt lat="46.1367893" lon="9.4126242"><ele>224.0</ele><time>2026-04-26T09:34:46.702Z</time></trkpt><trkpt lat="46.1367671" lon="9.4125004"><ele>222.50000000000003</ele><time>2026-04-26T09:34:48.702Z</time></trkpt><trkpt lat="46.1367583" lon="9.4123823"><ele>221.0</ele><time>2026-04-26T09:34:50.703Z</time></trkpt><trkpt lat="46.1367537" lon="9.4122583"><ele>219.5</ele><time>2026-04-26T09:34:52.701Z</time></trkpt><trkpt lat="46.1367337" lon="9.4121321"><ele>218.0</ele><time>2026-04-26T09:34:54.703Z</time></trkpt><trkpt lat="46.1367178" lon="9.4119953"><ele>216.50000000000003</ele><time>2026-04-26T09:34:56.702Z</time></trkpt><trkpt lat="46.1366854" lon="9.4118689"><ele>215.0</ele><time>2026-04-26T09:34:58.702Z</time></trkpt><trkpt lat="46.1366465" lon="9.4117572"><ele>216.0</ele><time>2026-04-26T09:35:00.703Z</time></trkpt><trkpt lat="46.1366163" lon="9.411645"><ele>217.0</ele><time>2026-04-26T09:35:02.702Z</time></trkpt><trkpt lat="46.1365918" lon="9.4115292"><ele>218.0</ele><time>2026-04-26T09:35:04.701Z</time></trkpt><trkpt lat="46.1365591" lon="9.4114088"><ele>219.0</ele><time>2026-04-26T09:35:06.7Z</time></trkpt><trkpt lat="46.1365382" lon="9.4112563"><ele>220.0</ele><time>2026-04-26T09:35:08.701Z</time></trkpt><trkpt lat="46.1365053" lon="9.4110962"><ele>219.99999999999997</ele><time>2026-04-26T09:35:10.702Z</time></trkpt><trkpt lat="46.1364696" lon="9.4109135"><ele>220.0</ele><time>2026-04-26T09:35:12.702Z</time></trkpt><trkpt lat="46.1364461" lon="9.4108144"><ele>220.0</ele><time>2026-04-26T09:35:13.702Z</time></trkpt><trkpt lat="46.1364252" lon="9.4107089"><ele>220.0</ele><time>2026-04-26T09:35:14.702Z</time></trkpt><trkpt lat="46.1364046" lon="9.4106104"><ele>219.99999999999997</ele><time>2026-04-26T09:35:15.702Z</time></trkpt><trkpt lat="46.1364144" lon="9.4105174"><ele>220.0</ele><time>2026-04-26T09:35:16.702Z</time></trkpt><trkpt lat="46.1364003" lon="9.4104216"><ele>219.7142857142857</ele><time>2026-04-26T09:35:17.702Z</time></trkpt><trkpt lat="46.1363839" lon="9.4103168"><ele>219.42857142857142</ele><time>2026-04-26T09:35:18.702Z</time></trkpt><trkpt lat="46.1363702" lon="9.4102227"><ele>219.14285714285714</ele><time>2026-04-26T09:35:19.703Z</time></trkpt><trkpt lat="46.1363525" lon="9.4101189"><ele>218.85714285714283</ele><time>2026-04-26T09:35:20.703Z</time></trkpt><trkpt lat="46.1363328" lon="9.410016"><ele>218.57142857142858</ele><time>2026-04-26T09:35:21.701Z</time></trkpt><trkpt lat="46.1363029" lon="9.4099107"><ele>218.28571428571428</ele><time>2026-04-26T09:35:22.701Z</time></trkpt><trkpt lat="46.1362815" lon="9.4098064"><ele>218.0</ele><time>2026-04-26T09:35:23.701Z</time></trkpt><trkpt lat="46.13627" lon="9.4096991"><ele>216.83333333333334</ele><time>2026-04-26T09:35:24.701Z</time></trkpt><trkpt lat="46.1362624" lon="9.4096004"><ele>215.66666666666669</ele><time>2026-04-26T09:35:25.702Z</time></trkpt><trkpt lat="46.1362533" lon="9.4094895"><ele>214.5</ele><time>2026-04-26T09:35:26.702Z</time></trkpt><trkpt lat="46.1362491" lon="9.4093838"><ele>213.33333333333331</ele><time>2026-04-26T09:35:27.702Z</time></trkpt><trkpt lat="46.1362513" lon="9.4092"><ele>212.16666666666666</ele><time>2026-04-26T09:35:29.702Z</time></trkpt><trkpt lat="46.1362545" lon="9.409107"><ele>211.0</ele><time>2026-04-26T09:35:30.702Z</time></trkpt><trkpt lat="46.1362799" lon="9.4089501"><ele>210.83333333333331</ele><time>2026-04-26T09:35:32.702Z</time></trkpt><trkpt lat="46.1363181" lon="9.4087781"><ele>210.66666666666666</ele><time>2026-04-26T09:35:34.702Z</time></trkpt><trkpt lat="46.1363467" lon="9.4086957"><ele>210.5</ele><time>2026-04-26T09:35:35.701Z</time></trkpt><trkpt lat="46.1363777" lon="9.4086043"><ele>210.33333333333331</ele><time>2026-04-26T09:35:36.701Z</time></trkpt><trkpt lat="46.1364178" lon="9.4084435"><ele>210.16666666666666</ele><time>2026-04-26T09:35:38.702Z</time></trkpt><trkpt lat="46.1364458" lon="9.4083617"><ele>210.0</ele><time>2026-04-26T09:35:39.703Z</time></trkpt><trkpt lat="46.1364853" lon="9.4082038"><ele>210.0</ele><time>2026-04-26T09:35:41.7Z</time></trkpt><trkpt lat="46.1365237" lon="9.4080449"><ele>210.0</ele><time>2026-04-26T09:35:43.703Z</time></trkpt><trkpt lat="46.1365579" lon="9.407888"><ele>210.0</ele><time>2026-04-26T09:35:45.701Z</time></trkpt><trkpt lat="46.1365896" lon="9.4077422"><ele>210.0</ele><time>2026-04-26T09:35:47.7Z</time></trkpt><trkpt lat="46.1366276" lon="9.4076039"><ele>210.0</ele><time>2026-04-26T09:35:49.701Z</time></trkpt><trkpt lat="46.1366675" lon="9.4074705"><ele>210.0</ele><time>2026-04-26T09:35:51.701Z</time></trkpt><trkpt lat="46.1366993" lon="9.40734"><ele>210.0</ele><time>2026-04-26T09:35:53.701Z</time></trkpt><trkpt lat="46.1367384" lon="9.4072228"><ele>210.0</ele><time>2026-04-26T09:35:55.703Z</time></trkpt><trkpt lat="46.1367681" lon="9.4070989"><ele>210.0</ele><time>2026-04-26T09:35:57.702Z</time></trkpt><trkpt lat="46.1367904" lon="9.4069767"><ele>210.0</ele><time>2026-04-26T09:35:59.7Z</time></trkpt><trkpt lat="46.136828" lon="9.4068404"><ele>210.4</ele><time>2026-04-26T09:36:01.701Z</time></trkpt><trkpt lat="46.1368568" lon="9.4067086"><ele>210.8</ele><time>2026-04-26T09:36:03.701Z</time></trkpt><trkpt lat="46.1368879" lon="9.4065738"><ele>211.2</ele><time>2026-04-26T09:36:05.701Z</time></trkpt><trkpt lat="46.1369178" lon="9.40643"><ele>211.6</ele><time>2026-04-26T09:36:07.702Z</time></trkpt><trkpt lat="46.1369554" lon="9.4062751"><ele>212.0</ele><time>2026-04-26T09:36:09.702Z</time></trkpt><trkpt lat="46.1369878" lon="9.406148"><ele>212.0</ele><time>2026-04-26T09:36:11.701Z</time></trkpt><trkpt lat="46.137022" lon="9.4060105"><ele>212.0</ele><time>2026-04-26T09:36:13.702Z</time></trkpt><trkpt lat="46.1370673" lon="9.4058654"><ele>212.0</ele><time>2026-04-26T09:36:15.701Z</time></trkpt><trkpt lat="46.1370997" lon="9.4057299"><ele>212.0</ele><time>2026-04-26T09:36:17.701Z</time></trkpt><trkpt lat="46.1371316" lon="9.4055777"><ele>212.0</ele><time>2026-04-26T09:36:19.7Z</time></trkpt><trkpt lat="46.1371559" lon="9.4054491"><ele>212.2</ele><time>2026-04-26T09:36:21.701Z</time></trkpt><trkpt lat="46.137162" lon="9.4053131"><ele>212.39999999999998</ele><time>2026-04-26T09:36:23.7Z</time></trkpt><trkpt lat="46.1371811" lon="9.405184"><ele>212.60000000000002</ele><time>2026-04-26T09:36:25.701Z</time></trkpt><trkpt lat="46.1372019" lon="9.4050569"><ele>212.8</ele><time>2026-04-26T09:36:27.701Z</time></trkpt><trkpt lat="46.1372319" lon="9.4049304"><ele>213.0</ele><time>2026-04-26T09:36:29.702Z</time></trkpt><trkpt lat="46.1372587" lon="9.4048094"><ele>213.2</ele><time>2026-04-26T09:36:31.701Z</time></trkpt><trkpt lat="46.1373068" lon="9.4046626"><ele>213.4</ele><time>2026-04-26T09:36:33.702Z</time></trkpt><trkpt lat="46.1373392" lon="9.4045225"><ele>213.59999999999997</ele><time>2026-04-26T09:36:35.702Z</time></trkpt><trkpt lat="46.1373753" lon="9.4043777"><ele>213.79999999999998</ele><time>2026-04-26T09:36:37.702Z</time></trkpt><trkpt lat="46.137405" lon="9.4042617"><ele>214.0</ele><time>2026-04-26T09:36:39.703Z</time></trkpt><trkpt lat="46.1374297" lon="9.4041633"><ele>213.83333333333331</ele><time>2026-04-26T09:36:41.702Z</time></trkpt><trkpt lat="46.1374567" lon="9.4040693"><ele>213.66666666666666</ele><time>2026-04-26T09:36:43.702Z</time></trkpt><trkpt lat="46.1374825" lon="9.4039504"><ele>213.5</ele><time>2026-04-26T09:36:45.702Z</time></trkpt><trkpt lat="46.137508" lon="9.4038334"><ele>213.33333333333331</ele><time>2026-04-26T09:36:47.701Z</time></trkpt><trkpt lat="46.1375541" lon="9.403704"><ele>213.16666666666666</ele><time>2026-04-26T09:36:49.702Z</time></trkpt><trkpt lat="46.1375872" lon="9.4035731"><ele>213.0</ele><time>2026-04-26T09:36:51.702Z</time></trkpt><trkpt lat="46.1376035" lon="9.4034136"><ele>213.0</ele><time>2026-04-26T09:36:53.701Z</time></trkpt><trkpt lat="46.1376502" lon="9.4032776"><ele>213.0</ele><time>2026-04-26T09:36:55.701Z</time></trkpt><trkpt lat="46.1376907" lon="9.4031405"><ele>213.0</ele><time>2026-04-26T09:36:57.703Z</time></trkpt><trkpt lat="46.1377268" lon="9.4029965"><ele>213.0</ele><time>2026-04-26T09:36:59.702Z</time></trkpt><trkpt lat="46.1377648" lon="9.4028439"><ele>213.0</ele><time>2026-04-26T09:37:01.701Z</time></trkpt><trkpt lat="46.1378024" lon="9.402703"><ele>213.4</ele><time>2026-04-26T09:37:03.701Z</time></trkpt><trkpt lat="46.1378344" lon="9.4025593"><ele>213.8</ele><time>2026-04-26T09:37:05.702Z</time></trkpt><trkpt lat="46.1378565" lon="9.4024202"><ele>214.2</ele><time>2026-04-26T09:37:07.702Z</time></trkpt><trkpt lat="46.1378993" lon="9.40228"><ele>214.6</ele><time>2026-04-26T09:37:09.701Z</time></trkpt><trkpt lat="46.1379318" lon="9.4021435"><ele>215.0</ele><time>2026-04-26T09:37:11.701Z</time></trkpt><trkpt lat="46.1379698" lon="9.4020087"><ele>215.2</ele><time>2026-04-26T09:37:13.703Z</time></trkpt><trkpt lat="46.1380005" lon="9.4018712"><ele>215.4</ele><time>2026-04-26T09:37:15.702Z</time></trkpt><trkpt lat="46.1380362" lon="9.4017338"><ele>215.60000000000002</ele><time>2026-04-26T09:37:17.701Z</time></trkpt><trkpt lat="46.1380747" lon="9.4015774"><ele>215.8</ele><time>2026-04-26T09:37:19.702Z</time></trkpt><trkpt lat="46.1381124" lon="9.4014257"><ele>216.0</ele><time>2026-04-26T09:37:21.702Z</time></trkpt><trkpt lat="46.1381363" lon="9.4012761"><ele>216.5</ele><time>2026-04-26T09:37:23.702Z</time></trkpt><trkpt lat="46.1381711" lon="9.4011416"><ele>217.0</ele><time>2026-04-26T09:37:25.702Z</time></trkpt><trkpt lat="46.1382098" lon="9.4009938"><ele>217.5</ele><time>2026-04-26T09:37:27.702Z</time></trkpt><trkpt lat="46.1382721" lon="9.4007785"><ele>218.0</ele><time>2026-04-26T09:37:30.701Z</time></trkpt><trkpt lat="46.1383145" lon="9.400638"><ele>217.2</ele><time>2026-04-26T09:37:32.701Z</time></trkpt><trkpt lat="46.1383535" lon="9.4004996"><ele>216.4</ele><time>2026-04-26T09:37:34.702Z</time></trkpt><trkpt lat="46.1384015" lon="9.4003442"><ele>215.59999999999997</ele><time>2026-04-26T09:37:36.7Z</time></trkpt><trkpt lat="46.1384361" lon="9.4002108"><ele>214.79999999999998</ele><time>2026-04-26T09:37:38.701Z</time></trkpt><trkpt lat="46.1384651" lon="9.4000652"><ele>214.0</ele><time>2026-04-26T09:37:40.702Z</time></trkpt><trkpt lat="46.1384913" lon="9.3999104"><ele>214.0</ele><time>2026-04-26T09:37:42.702Z</time></trkpt><trkpt lat="46.1385282" lon="9.3997747"><ele>213.99999999999997</ele><time>2026-04-26T09:37:44.701Z</time></trkpt><trkpt lat="46.1385697" lon="9.3996272"><ele>213.99999999999997</ele><time>2026-04-26T09:37:46.701Z</time></trkpt><trkpt lat="46.1385977" lon="9.3994862"><ele>214.0</ele><time>2026-04-26T09:37:48.702Z</time></trkpt><trkpt lat="46.138624" lon="9.3993438"><ele>214.0</ele><time>2026-04-26T09:37:50.701Z</time></trkpt><trkpt lat="46.1386516" lon="9.3991942"><ele>214.75</ele><time>2026-04-26T09:37:52.702Z</time></trkpt><trkpt lat="46.1387021" lon="9.3989701"><ele>215.5</ele><time>2026-04-26T09:37:55.702Z</time></trkpt><trkpt lat="46.1387429" lon="9.3988326"><ele>216.25</ele><time>2026-04-26T09:37:57.701Z</time></trkpt><trkpt lat="46.1387887" lon="9.3986778"><ele>217.0</ele><time>2026-04-26T09:37:59.702Z</time></trkpt><trkpt lat="46.1388295" lon="9.3985322"><ele>217.2</ele><time>2026-04-26T09:38:01.701Z</time></trkpt><trkpt lat="46.1388664" lon="9.3983883"><ele>217.39999999999998</ele><time>2026-04-26T09:38:03.701Z</time></trkpt><trkpt lat="46.1388972" lon="9.3982524"><ele>217.60000000000002</ele><time>2026-04-26T09:38:05.702Z</time></trkpt><trkpt lat="46.1389423" lon="9.3981155"><ele>217.8</ele><time>2026-04-26T09:38:07.701Z</time></trkpt><trkpt lat="46.1389825" lon="9.397983"><ele>218.0</ele><time>2026-04-26T09:38:09.701Z</time></trkpt><trkpt lat="46.1390239" lon="9.3978431"><ele>217.8</ele><time>2026-04-26T09:38:11.701Z</time></trkpt><trkpt lat="46.1390637" lon="9.3977066"><ele>217.60000000000002</ele><time>2026-04-26T09:38:13.703Z</time></trkpt><trkpt lat="46.1391038" lon="9.3975559"><ele>217.39999999999998</ele><time>2026-04-26T09:38:15.702Z</time></trkpt><trkpt lat="46.1391474" lon="9.3974025"><ele>217.2</ele><time>2026-04-26T09:38:17.702Z</time></trkpt><trkpt lat="46.1391812" lon="9.3972511"><ele>217.0</ele><time>2026-04-26T09:38:19.702Z</time></trkpt><trkpt lat="46.1392288" lon="9.3970828"><ele>217.0</ele><time>2026-04-26T09:38:21.701Z</time></trkpt><trkpt lat="46.1392639" lon="9.3969253"><ele>217.0</ele><time>2026-04-26T09:38:23.702Z</time></trkpt><trkpt lat="46.1393114" lon="9.3967645"><ele>217.0</ele><time>2026-04-26T09:38:25.702Z</time></trkpt><trkpt lat="46.1393495" lon="9.3966111"><ele>217.0</ele><time>2026-04-26T09:38:27.702Z</time></trkpt><trkpt lat="46.139388" lon="9.3964654"><ele>217.0</ele><time>2026-04-26T09:38:29.701Z</time></trkpt><trkpt lat="46.1394293" lon="9.3963046"><ele>217.0</ele><time>2026-04-26T09:38:31.702Z</time></trkpt><trkpt lat="46.139454" lon="9.3962177"><ele>217.0</ele><time>2026-04-26T09:38:32.703Z</time></trkpt><trkpt lat="46.1394886" lon="9.3960664"><ele>217.0</ele><time>2026-04-26T09:38:34.701Z</time></trkpt><trkpt lat="46.1395237" lon="9.3959297"><ele>217.0</ele><time>2026-04-26T09:38:36.702Z</time></trkpt><trkpt lat="46.1395563" lon="9.3957847"><ele>217.0</ele><time>2026-04-26T09:38:38.703Z</time></trkpt><trkpt lat="46.1395965" lon="9.3956243"><ele>217.0</ele><time>2026-04-26T09:38:40.701Z</time></trkpt><trkpt lat="46.1396377" lon="9.3954761"><ele>217.0</ele><time>2026-04-26T09:38:42.701Z</time></trkpt><trkpt lat="46.1396698" lon="9.3953246"><ele>217.0</ele><time>2026-04-26T09:38:44.702Z</time></trkpt><trkpt lat="46.1397062" lon="9.3951864"><ele>217.0</ele><time>2026-04-26T09:38:46.702Z</time></trkpt><trkpt lat="46.1397475" lon="9.3950433"><ele>217.0</ele><time>2026-04-26T09:38:48.703Z</time></trkpt><trkpt lat="46.1397899" lon="9.3949123"><ele>217.0</ele><time>2026-04-26T09:38:50.702Z</time></trkpt><trkpt lat="46.1398233" lon="9.3947788"><ele>217.0</ele><time>2026-04-26T09:38:52.702Z</time></trkpt><trkpt lat="46.1398873" lon="9.3946633"><ele>217.0</ele><time>2026-04-26T09:38:54.702Z</time></trkpt><trkpt lat="46.1399425" lon="9.3945438"><ele>217.0</ele><time>2026-04-26T09:38:56.702Z</time></trkpt><trkpt lat="46.1400214" lon="9.3944547"><ele>217.14285714285714</ele><time>2026-04-26T09:38:58.702Z</time></trkpt><trkpt lat="46.1400796" lon="9.3944163"><ele>217.28571428571428</ele><time>2026-04-26T09:39:01.701Z</time></trkpt><trkpt lat="46.1401477" lon="9.3943984"><ele>217.42857142857144</ele><time>2026-04-26T09:39:24.702Z</time></trkpt><trkpt lat="46.1401544" lon="9.3942603"><ele>217.57142857142856</ele><time>2026-04-26T09:39:28.702Z</time></trkpt><trkpt lat="46.1401424" lon="9.3941669"><ele>217.71428571428572</ele><time>2026-04-26T09:39:30.702Z</time></trkpt><trkpt lat="46.1401266" lon="9.3940653"><ele>217.85714285714286</ele><time>2026-04-26T09:39:32.702Z</time></trkpt><trkpt lat="46.1401381" lon="9.3939552"><ele>218.0</ele><time>2026-04-26T09:39:34.702Z</time></trkpt><trkpt lat="46.1401156" lon="9.3938056"><ele>218.0</ele><time>2026-04-26T09:39:36.701Z</time></trkpt><trkpt lat="46.1401049" lon="9.3936912"><ele>218.0</ele><time>2026-04-26T09:39:38.702Z</time></trkpt><trkpt lat="46.1400905" lon="9.393519"><ele>218.0</ele><time>2026-04-26T09:39:40.702Z</time></trkpt><trkpt lat="46.1401248" lon="9.3933784"><ele>218.0</ele><time>2026-04-26T09:39:42.701Z</time></trkpt><trkpt lat="46.1401176" lon="9.3932202"><ele>218.0</ele><time>2026-04-26T09:39:44.701Z</time></trkpt><trkpt lat="46.1401171" lon="9.3930616"><ele>218.2</ele><time>2026-04-26T09:39:46.703Z</time></trkpt><trkpt lat="46.1401016" lon="9.3929071"><ele>218.4</ele><time>2026-04-26T09:39:48.702Z</time></trkpt><trkpt lat="46.140103" lon="9.3927119"><ele>218.59999999999997</ele><time>2026-04-26T09:39:50.701Z</time></trkpt><trkpt lat="46.1400875" lon="9.3926189"><ele>218.79999999999998</ele><time>2026-04-26T09:39:51.701Z</time></trkpt><trkpt lat="46.1400871" lon="9.3924484"><ele>219.0</ele><time>2026-04-26T09:39:53.701Z</time></trkpt><trkpt lat="46.1401031" lon="9.3922906"><ele>218.6</ele><time>2026-04-26T09:39:55.703Z</time></trkpt><trkpt lat="46.1401067" lon="9.3921353"><ele>218.2</ele><time>2026-04-26T09:39:57.701Z</time></trkpt><trkpt lat="46.1400927" lon="9.3919757"><ele>217.79999999999998</ele><time>2026-04-26T09:39:59.702Z</time></trkpt><trkpt lat="46.1400741" lon="9.391808"><ele>217.39999999999998</ele><time>2026-04-26T09:40:01.701Z</time></trkpt><trkpt lat="46.1400678" lon="9.3916616"><ele>217.0</ele><time>2026-04-26T09:40:03.702Z</time></trkpt><trkpt lat="46.1400957" lon="9.3915261"><ele>217.0</ele><time>2026-04-26T09:40:05.701Z</time></trkpt><trkpt lat="46.140089" lon="9.3914029"><ele>217.0</ele><time>2026-04-26T09:40:07.701Z</time></trkpt><trkpt lat="46.1401799" lon="9.3913461"><ele>217.0</ele><time>2026-04-26T09:40:10.702Z</time></trkpt><trkpt lat="46.1402995" lon="9.3913893"><ele>217.0</ele><time>2026-04-26T09:40:12.702Z</time></trkpt><trkpt lat="46.1404024" lon="9.3914473"><ele>217.0</ele><time>2026-04-26T09:40:14.701Z</time></trkpt><trkpt lat="46.1404666" lon="9.3914682"><ele>217.0</ele><time>2026-04-26T09:40:15.702Z</time></trkpt><trkpt lat="46.1405335" lon="9.3914834"><ele>217.0</ele><time>2026-04-26T09:40:16.703Z</time></trkpt><trkpt lat="46.140601" lon="9.3914927"><ele>217.0</ele><time>2026-04-26T09:40:17.701Z</time></trkpt><trkpt lat="46.1406676" lon="9.3915216"><ele>217.0</ele><time>2026-04-26T09:40:18.702Z</time></trkpt><trkpt lat="46.1407407" lon="9.3915585"><ele>217.0</ele><time>2026-04-26T09:40:19.701Z</time></trkpt><trkpt lat="46.1408112" lon="9.3915869"><ele>217.0</ele><time>2026-04-26T09:40:20.7Z</time></trkpt><trkpt lat="46.1408888" lon="9.3916213"><ele>217.0</ele><time>2026-04-26T09:40:21.702Z</time></trkpt><trkpt lat="46.1409611" lon="9.3916493"><ele>216.33333333333331</ele><time>2026-04-26T09:40:22.702Z</time></trkpt><trkpt lat="46.1410366" lon="9.3916781"><ele>215.66666666666666</ele><time>2026-04-26T09:40:23.703Z</time></trkpt><trkpt lat="46.1411134" lon="9.3916967"><ele>215.0</ele><time>2026-04-26T09:40:24.702Z</time></trkpt><trkpt lat="46.1411932" lon="9.3917081"><ele>214.33333333333331</ele><time>2026-04-26T09:40:25.702Z</time></trkpt><trkpt lat="46.141275" lon="9.3917223"><ele>213.66666666666666</ele><time>2026-04-26T09:40:26.702Z</time></trkpt><trkpt lat="46.1413524" lon="9.3917319"><ele>213.0</ele><time>2026-04-26T09:40:27.702Z</time></trkpt><trkpt lat="46.1414189" lon="9.3917278"><ele>213.0</ele><time>2026-04-26T09:40:28.704Z</time></trkpt><trkpt lat="46.1414965" lon="9.3917295"><ele>213.0</ele><time>2026-04-26T09:40:29.702Z</time></trkpt><trkpt lat="46.1415988" lon="9.3916422"><ele>213.0</ele><time>2026-04-26T09:40:31.702Z</time></trkpt><trkpt lat="46.1416611" lon="9.3915932"><ele>213.0</ele><time>2026-04-26T09:40:32.702Z</time></trkpt><trkpt lat="46.141697" lon="9.3914439"><ele>213.0</ele><time>2026-04-26T09:40:34.702Z</time></trkpt><trkpt lat="46.141708" lon="9.3913516"><ele>213.0</ele><time>2026-04-26T09:40:35.7Z</time></trkpt><trkpt lat="46.141749" lon="9.3911754"><ele>212.7142857142857</ele><time>2026-04-26T09:40:37.702Z</time></trkpt><trkpt lat="46.1417642" lon="9.3910833"><ele>212.42857142857142</ele><time>2026-04-26T09:40:38.701Z</time></trkpt><trkpt lat="46.1417814" lon="9.3909818"><ele>212.14285714285714</ele><time>2026-04-26T09:40:39.703Z</time></trkpt><trkpt lat="46.1418025" lon="9.3908827"><ele>211.85714285714283</ele><time>2026-04-26T09:40:40.702Z</time></trkpt><trkpt lat="46.1418161" lon="9.3907885"><ele>211.57142857142858</ele><time>2026-04-26T09:40:41.701Z</time></trkpt><trkpt lat="46.1418335" lon="9.3906884"><ele>211.28571428571428</ele><time>2026-04-26T09:40:42.702Z</time></trkpt><trkpt lat="46.1418494" lon="9.3905866"><ele>211.0</ele><time>2026-04-26T09:40:43.703Z</time></trkpt><trkpt lat="46.1418712" lon="9.390408"><ele>211.0</ele><time>2026-04-26T09:40:45.701Z</time></trkpt><trkpt lat="46.1418711" lon="9.3902407"><ele>211.0</ele><time>2026-04-26T09:40:47.702Z</time></trkpt><trkpt lat="46.1418349" lon="9.3900895"><ele>211.0</ele><time>2026-04-26T09:40:49.701Z</time></trkpt><trkpt lat="46.1417825" lon="9.3899331"><ele>211.0</ele><time>2026-04-26T09:40:51.702Z</time></trkpt><trkpt lat="46.1417491" lon="9.3897443"><ele>210.75</ele><time>2026-04-26T09:40:53.702Z</time></trkpt><trkpt lat="46.1416996" lon="9.3895915"><ele>210.5</ele><time>2026-04-26T09:40:55.701Z</time></trkpt><trkpt lat="46.1416444" lon="9.3894476"><ele>210.25</ele><time>2026-04-26T09:40:57.701Z</time></trkpt><trkpt lat="46.1415963" lon="9.3892973"><ele>210.0</ele><time>2026-04-26T09:40:59.702Z</time></trkpt><trkpt lat="46.1415708" lon="9.3891332"><ele>210.6</ele><time>2026-04-26T09:41:01.702Z</time></trkpt><trkpt lat="46.1415322" lon="9.38898"><ele>211.2</ele><time>2026-04-26T09:41:03.702Z</time></trkpt><trkpt lat="46.1414815" lon="9.3888386"><ele>211.8</ele><time>2026-04-26T09:41:05.703Z</time></trkpt><trkpt lat="46.1414501" lon="9.3886941"><ele>212.4</ele><time>2026-04-26T09:41:07.702Z</time></trkpt><trkpt lat="46.1414021" lon="9.3885455"><ele>213.0</ele><time>2026-04-26T09:41:09.702Z</time></trkpt><trkpt lat="46.1413452" lon="9.3884017"><ele>213.16666666666666</ele><time>2026-04-26T09:41:11.702Z</time></trkpt><trkpt lat="46.1413248" lon="9.3882932"><ele>213.33333333333331</ele><time>2026-04-26T09:41:13.701Z</time></trkpt><trkpt lat="46.1412796" lon="9.3881663"><ele>213.5</ele><time>2026-04-26T09:41:36.702Z</time></trkpt><trkpt lat="46.1412473" lon="9.3880799"><ele>213.66666666666666</ele><time>2026-04-26T09:41:40.701Z</time></trkpt><trkpt lat="46.1412125" lon="9.3879872"><ele>213.83333333333331</ele><time>2026-04-26T09:42:06.702Z</time></trkpt><trkpt lat="46.1411701" lon="9.3879"><ele>214.0</ele><time>2026-04-26T09:42:10.702Z</time></trkpt><trkpt lat="46.1411299" lon="9.3877986"><ele>213.99999999999997</ele><time>2026-04-26T09:42:13.702Z</time></trkpt><trkpt lat="46.1410973" lon="9.3877042"><ele>214.0</ele><time>2026-04-26T09:42:16.703Z</time></trkpt><trkpt lat="46.1410687" lon="9.3875889"><ele>214.0</ele><time>2026-04-26T09:42:19.703Z</time></trkpt><trkpt lat="46.1410338" lon="9.3874933"><ele>214.0</ele><time>2026-04-26T09:42:22.701Z</time></trkpt><trkpt lat="46.1409896" lon="9.3873837"><ele>213.99999999999997</ele><time>2026-04-26T09:42:25.702Z</time></trkpt><trkpt lat="46.1409498" lon="9.3873013"><ele>214.0</ele><time>2026-04-26T09:42:27.703Z</time></trkpt><trkpt lat="46.1409142" lon="9.387203"><ele>214.16666666666666</ele><time>2026-04-26T09:42:29.701Z</time></trkpt><trkpt lat="46.1408835" lon="9.3870976"><ele>214.33333333333331</ele><time>2026-04-26T09:42:31.701Z</time></trkpt><trkpt lat="46.1408472" lon="9.3869907"><ele>214.5</ele><time>2026-04-26T09:42:33.702Z</time></trkpt><trkpt lat="46.1408192" lon="9.3868928"><ele>214.66666666666669</ele><time>2026-04-26T09:42:35.701Z</time></trkpt><trkpt lat="46.1407873" lon="9.3867697"><ele>214.83333333333334</ele><time>2026-04-26T09:42:38.701Z</time></trkpt><trkpt lat="46.1407583" lon="9.3866759"><ele>215.0</ele><time>2026-04-26T09:42:40.702Z</time></trkpt><trkpt lat="46.140728" lon="9.3865688"><ele>215.8</ele><time>2026-04-26T09:42:42.703Z</time></trkpt><trkpt lat="46.1406889" lon="9.3864179"><ele>216.6</ele><time>2026-04-26T09:42:44.701Z</time></trkpt><trkpt lat="46.1406502" lon="9.3862896"><ele>217.39999999999998</ele><time>2026-04-26T09:42:46.701Z</time></trkpt><trkpt lat="46.1406096" lon="9.3861431"><ele>218.2</ele><time>2026-04-26T09:42:48.701Z</time></trkpt><trkpt lat="46.140568" lon="9.3860051"><ele>219.0</ele><time>2026-04-26T09:42:50.702Z</time></trkpt><trkpt lat="46.1405244" lon="9.3858739"><ele>219.0</ele><time>2026-04-26T09:42:52.702Z</time></trkpt><trkpt lat="46.1404802" lon="9.38573"><ele>218.99999999999997</ele><time>2026-04-26T09:42:54.702Z</time></trkpt><trkpt lat="46.1404411" lon="9.3856017"><ele>218.99999999999997</ele><time>2026-04-26T09:42:56.702Z</time></trkpt><trkpt lat="46.1403964" lon="9.3854454"><ele>219.0</ele><time>2026-04-26T09:42:58.703Z</time></trkpt><trkpt lat="46.1403483" lon="9.3853053"><ele>219.0</ele><time>2026-04-26T09:43:00.702Z</time></trkpt><trkpt lat="46.1402989" lon="9.3851784"><ele>218.79999999999998</ele><time>2026-04-26T09:43:02.703Z</time></trkpt><trkpt lat="46.1402633" lon="9.3850404"><ele>218.59999999999997</ele><time>2026-04-26T09:43:04.701Z</time></trkpt><trkpt lat="46.1402258" lon="9.3849234"><ele>218.4</ele><time>2026-04-26T09:43:06.701Z</time></trkpt><trkpt lat="46.1402028" lon="9.3847842"><ele>218.2</ele><time>2026-04-26T09:43:08.702Z</time></trkpt><trkpt lat="46.1402522" lon="9.3846989"><ele>218.0</ele><time>2026-04-26T09:43:10.703Z</time></trkpt><trkpt lat="46.1403439" lon="9.3846518"><ele>218.0</ele><time>2026-04-26T09:43:12.7Z</time></trkpt><trkpt lat="46.1404113" lon="9.3846349"><ele>218.0</ele><time>2026-04-26T09:43:13.701Z</time></trkpt><trkpt lat="46.1404795" lon="9.3846149"><ele>218.0</ele><time>2026-04-26T09:43:14.701Z</time></trkpt><trkpt lat="46.140593" lon="9.3845844"><ele>218.0</ele><time>2026-04-26T09:43:16.701Z</time></trkpt><trkpt lat="46.1407119" lon="9.3845401"><ele>218.0</ele><time>2026-04-26T09:43:18.702Z</time></trkpt><trkpt lat="46.1408211" lon="9.3845077"><ele>217.16666666666669</ele><time>2026-04-26T09:43:20.703Z</time></trkpt><trkpt lat="46.1409332" lon="9.3844956"><ele>216.33333333333334</ele><time>2026-04-26T09:43:21.701Z</time></trkpt><trkpt lat="46.1410146" lon="9.3844622"><ele>215.5</ele><time>2026-04-26T09:43:23.702Z</time></trkpt><trkpt lat="46.1410939" lon="9.3844406"><ele>214.66666666666669</ele><time>2026-04-26T09:43:25.702Z</time></trkpt><trkpt lat="46.1411657" lon="9.3844086"><ele>213.83333333333334</ele><time>2026-04-26T09:43:27.701Z</time></trkpt><trkpt lat="46.1412418" lon="9.3843811"><ele>213.0</ele><time>2026-04-26T09:43:29.703Z</time></trkpt><trkpt lat="46.1413108" lon="9.3843557"><ele>213.0</ele><time>2026-04-26T09:43:31.702Z</time></trkpt><trkpt lat="46.1413824" lon="9.3843236"><ele>213.0</ele><time>2026-04-26T09:43:33.701Z</time></trkpt><trkpt lat="46.1414653" lon="9.3842897"><ele>213.0</ele><time>2026-04-26T09:43:35.702Z</time></trkpt><trkpt lat="46.1415676" lon="9.3842682"><ele>213.0</ele><time>2026-04-26T09:43:37.703Z</time></trkpt><trkpt lat="46.141712" lon="9.3842237"><ele>213.0</ele><time>2026-04-26T09:43:39.701Z</time></trkpt><trkpt lat="46.1417614" lon="9.3841331"><ele>212.2</ele><time>2026-04-26T09:43:40.701Z</time></trkpt><trkpt lat="46.1418182" lon="9.3840454"><ele>211.4</ele><time>2026-04-26T09:43:41.701Z</time></trkpt><trkpt lat="46.1418624" lon="9.3839509"><ele>210.6</ele><time>2026-04-26T09:43:42.702Z</time></trkpt><trkpt lat="46.1418972" lon="9.3837787"><ele>209.79999999999998</ele><time>2026-04-26T09:43:44.702Z</time></trkpt><trkpt lat="46.1419089" lon="9.3835669"><ele>209.0</ele><time>2026-04-26T09:43:45.703Z</time></trkpt><trkpt lat="46.1418889" lon="9.383408"><ele>208.75</ele><time>2026-04-26T09:43:46.702Z</time></trkpt><trkpt lat="46.1418738" lon="9.3832386"><ele>208.5</ele><time>2026-04-26T09:43:48.702Z</time></trkpt><trkpt lat="46.1417472" lon="9.383206"><ele>208.25</ele><time>2026-04-26T09:43:49.702Z</time></trkpt><trkpt lat="46.141655" lon="9.3831552"><ele>208.0</ele><time>2026-04-26T09:43:50.7Z</time></trkpt><trkpt lat="46.1415695" lon="9.3830611"><ele>208.66666666666666</ele><time>2026-04-26T09:43:51.701Z</time></trkpt><trkpt lat="46.1414861" lon="9.3830341"><ele>209.33333333333331</ele><time>2026-04-26T09:43:52.703Z</time></trkpt><trkpt lat="46.141403" lon="9.3830527"><ele>210.0</ele><time>2026-04-26T09:43:53.701Z</time></trkpt><trkpt lat="46.1413204" lon="9.3830564"><ele>210.66666666666669</ele><time>2026-04-26T09:43:54.701Z</time></trkpt><trkpt lat="46.1412518" lon="9.3830409"><ele>211.33333333333334</ele><time>2026-04-26T09:43:55.702Z</time></trkpt><trkpt lat="46.1411898" lon="9.3830044"><ele>212.0</ele><time>2026-04-26T09:43:56.703Z</time></trkpt><trkpt lat="46.1411454" lon="9.3829383"><ele>212.0</ele><time>2026-04-26T09:43:57.702Z</time></trkpt><trkpt lat="46.1410904" lon="9.3827841"><ele>212.0</ele><time>2026-04-26T09:43:59.703Z</time></trkpt><trkpt lat="46.1410392" lon="9.3826077"><ele>212.0</ele><time>2026-04-26T09:44:01.702Z</time></trkpt><trkpt lat="46.1410151" lon="9.3825186"><ele>212.0</ele><time>2026-04-26T09:44:02.701Z</time></trkpt><trkpt lat="46.1409931" lon="9.3824219"><ele>212.0</ele><time>2026-04-26T09:44:03.701Z</time></trkpt><trkpt lat="46.1409728" lon="9.3823171"><ele>212.00000000000003</ele><time>2026-04-26T09:44:04.703Z</time></trkpt><trkpt lat="46.1409473" lon="9.382219"><ele>212.0</ele><time>2026-04-26T09:44:05.703Z</time></trkpt><trkpt lat="46.1409243" lon="9.3821129"><ele>212.0</ele><time>2026-04-26T09:44:06.704Z</time></trkpt><trkpt lat="46.1408996" lon="9.3820207"><ele>212.0</ele><time>2026-04-26T09:44:07.701Z</time></trkpt><trkpt lat="46.1408994" lon="9.3819267"><ele>212.00000000000003</ele><time>2026-04-26T09:44:08.702Z</time></trkpt><trkpt lat="46.1408897" lon="9.3817512"><ele>212.0</ele><time>2026-04-26T09:44:10.701Z</time></trkpt><trkpt lat="46.1408589" lon="9.381644"><ele>211.83333333333334</ele><time>2026-04-26T09:44:11.703Z</time></trkpt><trkpt lat="46.1408386" lon="9.3815522"><ele>211.66666666666669</ele><time>2026-04-26T09:44:12.702Z</time></trkpt><trkpt lat="46.1408178" lon="9.3814488"><ele>211.5</ele><time>2026-04-26T09:44:13.702Z</time></trkpt><trkpt lat="46.1407911" lon="9.3813428"><ele>211.33333333333331</ele><time>2026-04-26T09:44:14.703Z</time></trkpt><trkpt lat="46.1407769" lon="9.3812332"><ele>211.16666666666666</ele><time>2026-04-26T09:44:15.702Z</time></trkpt><trkpt lat="46.1407533" lon="9.381133"><ele>211.0</ele><time>2026-04-26T09:44:16.703Z</time></trkpt><trkpt lat="46.1407178" lon="9.3810181"><ele>211.16666666666666</ele><time>2026-04-26T09:44:17.703Z</time></trkpt><trkpt lat="46.1406579" lon="9.3809164"><ele>211.33333333333331</ele><time>2026-04-26T09:44:18.704Z</time></trkpt><trkpt lat="46.1406376" lon="9.3807984"><ele>211.5</ele><time>2026-04-26T09:44:19.703Z</time></trkpt><trkpt lat="46.1406158" lon="9.3806911"><ele>211.66666666666669</ele><time>2026-04-26T09:44:20.702Z</time></trkpt><trkpt lat="46.1405904" lon="9.3805837"><ele>211.83333333333334</ele><time>2026-04-26T09:44:21.702Z</time></trkpt><trkpt lat="46.1405661" lon="9.3804812"><ele>212.0</ele><time>2026-04-26T09:44:22.702Z</time></trkpt><trkpt lat="46.1405496" lon="9.3803865"><ele>212.00000000000003</ele><time>2026-04-26T09:44:23.702Z</time></trkpt><trkpt lat="46.1405333" lon="9.3802832"><ele>212.0</ele><time>2026-04-26T09:44:24.702Z</time></trkpt><trkpt lat="46.140514" lon="9.3801829"><ele>212.0</ele><time>2026-04-26T09:44:25.703Z</time></trkpt><trkpt lat="46.1404746" lon="9.3800902"><ele>212.0</ele><time>2026-04-26T09:44:26.703Z</time></trkpt><trkpt lat="46.1404534" lon="9.3799833"><ele>212.00000000000003</ele><time>2026-04-26T09:44:27.702Z</time></trkpt><trkpt lat="46.1404296" lon="9.3798942"><ele>212.0</ele><time>2026-04-26T09:44:28.703Z</time></trkpt><trkpt lat="46.1403755" lon="9.3797309"><ele>211.66666666666669</ele><time>2026-04-26T09:44:30.703Z</time></trkpt><trkpt lat="46.1403545" lon="9.3796317"><ele>211.33333333333334</ele><time>2026-04-26T09:44:31.703Z</time></trkpt><trkpt lat="46.140304" lon="9.3794522"><ele>211.0</ele><time>2026-04-26T09:44:33.703Z</time></trkpt><trkpt lat="46.140283" lon="9.3793606"><ele>210.66666666666669</ele><time>2026-04-26T09:44:34.703Z</time></trkpt><trkpt lat="46.1402558" lon="9.3792662"><ele>210.33333333333334</ele><time>2026-04-26T09:44:35.703Z</time></trkpt><trkpt lat="46.1402356" lon="9.3791749"><ele>210.0</ele><time>2026-04-26T09:44:36.702Z</time></trkpt><trkpt lat="46.1402124" lon="9.3790805"><ele>210.0</ele><time>2026-04-26T09:44:37.703Z</time></trkpt><trkpt lat="46.1401908" lon="9.3789726"><ele>210.0</ele><time>2026-04-26T09:44:38.703Z</time></trkpt><trkpt lat="46.140185" lon="9.3788777"><ele>210.0</ele><time>2026-04-26T09:44:39.702Z</time></trkpt><trkpt lat="46.1401374" lon="9.3787282"><ele>210.0</ele><time>2026-04-26T09:44:41.7Z</time></trkpt><trkpt lat="46.1400886" lon="9.3785727"><ele>210.0</ele><time>2026-04-26T09:44:43.702Z</time></trkpt><trkpt lat="46.1400534" lon="9.3784929"><ele>210.0</ele><time>2026-04-26T09:44:44.702Z</time></trkpt><trkpt lat="46.1400095" lon="9.3784206"><ele>210.0</ele><time>2026-04-26T09:44:45.702Z</time></trkpt><trkpt lat="46.1399819" lon="9.3783354"><ele>210.0</ele><time>2026-04-26T09:44:46.703Z</time></trkpt><trkpt lat="46.1399158" lon="9.3781771"><ele>210.0</ele><time>2026-04-26T09:44:48.702Z</time></trkpt><trkpt lat="46.1398654" lon="9.3780916"><ele>210.0</ele><time>2026-04-26T09:44:49.702Z</time></trkpt><trkpt lat="46.1398157" lon="9.3780086"><ele>210.0</ele><time>2026-04-26T09:44:50.701Z</time></trkpt><trkpt lat="46.1397742" lon="9.3779145"><ele>210.0</ele><time>2026-04-26T09:44:51.702Z</time></trkpt><trkpt lat="46.1397197" lon="9.3778359"><ele>209.85714285714286</ele><time>2026-04-26T09:44:52.702Z</time></trkpt><trkpt lat="46.1396664" lon="9.3777455"><ele>209.71428571428572</ele><time>2026-04-26T09:44:53.701Z</time></trkpt><trkpt lat="46.1396204" lon="9.3776572"><ele>209.57142857142856</ele><time>2026-04-26T09:44:54.702Z</time></trkpt><trkpt lat="46.1395783" lon="9.3775742"><ele>209.42857142857144</ele><time>2026-04-26T09:44:55.702Z</time></trkpt><trkpt lat="46.1395433" lon="9.377487"><ele>209.28571428571428</ele><time>2026-04-26T09:44:56.702Z</time></trkpt><trkpt lat="46.1395045" lon="9.3774032"><ele>209.14285714285714</ele><time>2026-04-26T09:44:57.703Z</time></trkpt><trkpt lat="46.1394709" lon="9.3773223"><ele>209.0</ele><time>2026-04-26T09:44:58.702Z</time></trkpt><trkpt lat="46.1394359" lon="9.3772401"><ele>208.83333333333334</ele><time>2026-04-26T09:44:59.701Z</time></trkpt><trkpt lat="46.1394048" lon="9.3771592"><ele>208.66666666666669</ele><time>2026-04-26T09:45:00.702Z</time></trkpt><trkpt lat="46.139349" lon="9.3769899"><ele>208.5</ele><time>2026-04-26T09:45:02.702Z</time></trkpt><trkpt lat="46.1393192" lon="9.3769059"><ele>208.33333333333331</ele><time>2026-04-26T09:45:03.701Z</time></trkpt><trkpt lat="46.1392925" lon="9.3768207"><ele>208.16666666666666</ele><time>2026-04-26T09:45:04.702Z</time></trkpt><trkpt lat="46.139264" lon="9.3767303"><ele>208.0</ele><time>2026-04-26T09:45:05.702Z</time></trkpt><trkpt lat="46.1392321" lon="9.3766414"><ele>207.99999999999997</ele><time>2026-04-26T09:45:06.702Z</time></trkpt><trkpt lat="46.1391756" lon="9.3764438"><ele>208.0</ele><time>2026-04-26T09:45:08.702Z</time></trkpt><trkpt lat="46.1391431" lon="9.3763599"><ele>208.0</ele><time>2026-04-26T09:45:09.701Z</time></trkpt><trkpt lat="46.1391168" lon="9.3762637"><ele>208.0</ele><time>2026-04-26T09:45:10.702Z</time></trkpt><trkpt lat="46.1391014" lon="9.3761731"><ele>207.99999999999997</ele><time>2026-04-26T09:45:11.703Z</time></trkpt><trkpt lat="46.1390804" lon="9.3760845"><ele>208.0</ele><time>2026-04-26T09:45:12.703Z</time></trkpt><trkpt lat="46.139055" lon="9.3759777"><ele>208.14285714285714</ele><time>2026-04-26T09:45:13.702Z</time></trkpt><trkpt lat="46.139026" lon="9.375877"><ele>208.2857142857143</ele><time>2026-04-26T09:45:14.703Z</time></trkpt><trkpt lat="46.1390002" lon="9.3757817"><ele>208.42857142857144</ele><time>2026-04-26T09:45:15.702Z</time></trkpt><trkpt lat="46.1389784" lon="9.3756873"><ele>208.57142857142856</ele><time>2026-04-26T09:45:16.702Z</time></trkpt><trkpt lat="46.1389454" lon="9.3755901"><ele>208.71428571428572</ele><time>2026-04-26T09:45:17.702Z</time></trkpt><trkpt lat="46.1389047" lon="9.375499"><ele>208.85714285714286</ele><time>2026-04-26T09:45:18.702Z</time></trkpt><trkpt lat="46.1388644" lon="9.3754092"><ele>209.0</ele><time>2026-04-26T09:45:19.702Z</time></trkpt><trkpt lat="46.1388221" lon="9.3753338"><ele>208.66666666666669</ele><time>2026-04-26T09:45:20.702Z</time></trkpt><trkpt lat="46.1387787" lon="9.3752406"><ele>208.33333333333334</ele><time>2026-04-26T09:45:21.703Z</time></trkpt><trkpt lat="46.1387298" lon="9.3751468"><ele>208.0</ele><time>2026-04-26T09:45:22.702Z</time></trkpt><trkpt lat="46.1386976" lon="9.3750364"><ele>207.66666666666669</ele><time>2026-04-26T09:45:23.701Z</time></trkpt><trkpt lat="46.1386723" lon="9.3749295"><ele>207.33333333333334</ele><time>2026-04-26T09:45:24.703Z</time></trkpt><trkpt lat="46.1386543" lon="9.3748244"><ele>207.0</ele><time>2026-04-26T09:45:25.702Z</time></trkpt><trkpt lat="46.1386359" lon="9.3747246"><ele>206.5</ele><time>2026-04-26T09:45:26.701Z</time></trkpt><trkpt lat="46.1386228" lon="9.3746274"><ele>206.0</ele><time>2026-04-26T09:45:27.703Z</time></trkpt><trkpt lat="46.138606" lon="9.3745239"><ele>205.5</ele><time>2026-04-26T09:45:28.701Z</time></trkpt><trkpt lat="46.1385939" lon="9.3744274"><ele>205.0</ele><time>2026-04-26T09:45:29.703Z</time></trkpt><trkpt lat="46.1385649" lon="9.3743163"><ele>204.5</ele><time>2026-04-26T09:45:30.701Z</time></trkpt><trkpt lat="46.1385623" lon="9.3742239"><ele>204.0</ele><time>2026-04-26T09:45:31.703Z</time></trkpt><trkpt lat="46.1385443" lon="9.3740625"><ele>204.0</ele><time>2026-04-26T09:45:33.702Z</time></trkpt><trkpt lat="46.1385289" lon="9.3739688"><ele>204.0</ele><time>2026-04-26T09:45:34.702Z</time></trkpt><trkpt lat="46.1385212" lon="9.3738779"><ele>204.0</ele><time>2026-04-26T09:45:35.702Z</time></trkpt><trkpt lat="46.138501" lon="9.3737813"><ele>204.0</ele><time>2026-04-26T09:45:36.703Z</time></trkpt><trkpt lat="46.1384941" lon="9.3736735"><ele>204.0</ele><time>2026-04-26T09:45:37.702Z</time></trkpt><trkpt lat="46.1384853" lon="9.3735733"><ele>204.0</ele><time>2026-04-26T09:45:38.703Z</time></trkpt><trkpt lat="46.1384735" lon="9.3734608"><ele>204.0</ele><time>2026-04-26T09:45:39.701Z</time></trkpt><trkpt lat="46.1384723" lon="9.3733539"><ele>203.57142857142858</ele><time>2026-04-26T09:45:40.703Z</time></trkpt><trkpt lat="46.1384708" lon="9.3732511"><ele>203.14285714285717</ele><time>2026-04-26T09:45:41.702Z</time></trkpt><trkpt lat="46.138455" lon="9.3731516"><ele>202.71428571428572</ele><time>2026-04-26T09:45:42.702Z</time></trkpt><trkpt lat="46.138442" lon="9.3730411"><ele>202.28571428571428</ele><time>2026-04-26T09:45:43.701Z</time></trkpt><trkpt lat="46.1384309" lon="9.3729454"><ele>201.85714285714286</ele><time>2026-04-26T09:45:44.701Z</time></trkpt><trkpt lat="46.138424" lon="9.3728041"><ele>201.42857142857142</ele><time>2026-04-26T09:45:46.703Z</time></trkpt><trkpt lat="46.1384156" lon="9.3727126"><ele>201.0</ele><time>2026-04-26T09:45:48.7Z</time></trkpt><trkpt lat="46.1383933" lon="9.372609"><ele>200.66666666666666</ele><time>2026-04-26T09:45:50.703Z</time></trkpt><trkpt lat="46.1383402" lon="9.3725388"><ele>200.33333333333331</ele><time>2026-04-26T09:45:53.703Z</time></trkpt><trkpt lat="46.1382706" lon="9.3725028"><ele>200.0</ele><time>2026-04-26T09:45:56.701Z</time></trkpt><trkpt lat="46.1382042" lon="9.3724271"><ele>199.66666666666666</ele><time>2026-04-26T09:45:59.702Z</time></trkpt><trkpt lat="46.1381249" lon="9.3723833"><ele>199.33333333333331</ele><time>2026-04-26T09:46:02.702Z</time></trkpt><trkpt lat="46.1380432" lon="9.3723499"><ele>199.0</ele><time>2026-04-26T09:46:05.702Z</time></trkpt><trkpt lat="46.1379709" lon="9.3723129"><ele>199.42857142857142</ele><time>2026-04-26T09:46:11.703Z</time></trkpt><trkpt lat="46.1379101" lon="9.3722522"><ele>199.85714285714286</ele><time>2026-04-26T09:46:14.702Z</time></trkpt><trkpt lat="46.1378536" lon="9.3722074"><ele>200.28571428571428</ele><time>2026-04-26T09:46:17.702Z</time></trkpt><trkpt lat="46.1377988" lon="9.3721617"><ele>200.71428571428572</ele><time>2026-04-26T09:46:20.702Z</time></trkpt><trkpt lat="46.1377117" lon="9.3721146"><ele>201.14285714285714</ele><time>2026-04-26T09:46:23.702Z</time></trkpt><trkpt lat="46.1376614" lon="9.3720588"><ele>201.57142857142856</ele><time>2026-04-26T09:46:25.702Z</time></trkpt><trkpt lat="46.1376028" lon="9.3719852"><ele>202.0</ele><time>2026-04-26T09:46:28.703Z</time></trkpt><trkpt lat="46.13756" lon="9.3718702"><ele>201.99999999999997</ele><time>2026-04-26T09:46:31.702Z</time></trkpt><trkpt lat="46.1375257" lon="9.3717763"><ele>202.0</ele><time>2026-04-26T09:46:34.703Z</time></trkpt><trkpt lat="46.1375003" lon="9.3716662"><ele>202.0</ele><time>2026-04-26T09:46:37.704Z</time></trkpt><trkpt lat="46.1374477" lon="9.3715699"><ele>202.0</ele><time>2026-04-26T09:46:40.702Z</time></trkpt><trkpt lat="46.137394" lon="9.3714929"><ele>201.99999999999997</ele><time>2026-04-26T09:46:43.703Z</time></trkpt><trkpt lat="46.137347" lon="9.3714119"><ele>202.0</ele><time>2026-04-26T09:46:47.702Z</time></trkpt><trkpt lat="46.1373205" lon="9.3713255"><ele>202.57142857142856</ele><time>2026-04-26T09:46:50.703Z</time></trkpt><trkpt lat="46.1372978" lon="9.3712284"><ele>203.14285714285714</ele><time>2026-04-26T09:46:53.702Z</time></trkpt><trkpt lat="46.1372752" lon="9.3711032"><ele>203.71428571428572</ele><time>2026-04-26T09:46:56.702Z</time></trkpt><trkpt lat="46.1372579" lon="9.371012"><ele>204.28571428571428</ele><time>2026-04-26T09:46:59.703Z</time></trkpt><trkpt lat="46.1372169" lon="9.3709355"><ele>204.85714285714286</ele><time>2026-04-26T09:47:05.702Z</time></trkpt><trkpt lat="46.1371869" lon="9.3708528"><ele>205.42857142857142</ele><time>2026-04-26T09:47:12.703Z</time></trkpt><trkpt lat="46.1371616" lon="9.3707639"><ele>206.0</ele><time>2026-04-26T09:47:16.704Z</time></trkpt><trkpt lat="46.1371366" lon="9.3706631"><ele>205.99999999999997</ele><time>2026-04-26T09:47:20.702Z</time></trkpt><trkpt lat="46.1371088" lon="9.3705805"><ele>206.0</ele><time>2026-04-26T09:47:23.703Z</time></trkpt><trkpt lat="46.1370829" lon="9.3704922"><ele>206.0</ele><time>2026-04-26T09:47:26.703Z</time></trkpt><trkpt lat="46.1370623" lon="9.3703998"><ele>206.0</ele><time>2026-04-26T09:47:29.702Z</time></trkpt><trkpt lat="46.1370424" lon="9.3702941"><ele>206.0</ele><time>2026-04-26T09:47:32.702Z</time></trkpt><trkpt lat="46.1370359" lon="9.3701888"><ele>205.99999999999997</ele><time>2026-04-26T09:47:34.703Z</time></trkpt><trkpt lat="46.1370849" lon="9.3700789"><ele>206.0</ele><time>2026-04-26T09:47:37.702Z</time></trkpt><trkpt lat="46.1371196" lon="9.3699555"><ele>205.83333333333334</ele><time>2026-04-26T09:47:40.702Z</time></trkpt><trkpt lat="46.1371439" lon="9.3698317"><ele>205.66666666666669</ele><time>2026-04-26T09:47:43.703Z</time></trkpt><trkpt lat="46.1371691" lon="9.3697051"><ele>205.5</ele><time>2026-04-26T09:47:46.702Z</time></trkpt><trkpt lat="46.1371811" lon="9.369612"><ele>205.33333333333331</ele><time>2026-04-26T09:47:48.702Z</time></trkpt><trkpt lat="46.1371996" lon="9.3695047"><ele>205.16666666666666</ele><time>2026-04-26T09:47:51.702Z</time></trkpt><trkpt lat="46.1372301" lon="9.3693892"><ele>205.0</ele><time>2026-04-26T09:47:54.703Z</time></trkpt><trkpt lat="46.137242" lon="9.3692934"><ele>205.0</ele><time>2026-04-26T09:47:57.703Z</time></trkpt><trkpt lat="46.1372521" lon="9.3691999"><ele>205.0</ele><time>2026-04-26T09:48:01.702Z</time></trkpt><trkpt lat="46.1372465" lon="9.3690994"><ele>205.0</ele><time>2026-04-26T09:48:07.701Z</time></trkpt><trkpt lat="46.1372504" lon="9.3689905"><ele>205.0</ele><time>2026-04-26T09:48:11.703Z</time></trkpt><trkpt lat="46.1372603" lon="9.368883"><ele>205.0</ele><time>2026-04-26T09:48:17.701Z</time></trkpt><trkpt lat="46.1372557" lon="9.368792"><ele>205.0</ele><time>2026-04-26T09:48:20.702Z</time></trkpt><trkpt lat="46.1372553" lon="9.3686895"><ele>205.0</ele><time>2026-04-26T09:48:25.702Z</time></trkpt><trkpt lat="46.137255" lon="9.3685672"><ele>204.99999999999997</ele><time>2026-04-26T09:48:28.702Z</time></trkpt><trkpt lat="46.1372597" lon="9.3684627"><ele>205.0</ele><time>2026-04-26T09:48:30.703Z</time></trkpt><trkpt lat="46.1372542" lon="9.3683413"><ele>205.0</ele><time>2026-04-26T09:48:32.701Z</time></trkpt><trkpt lat="46.1372183" lon="9.3682277"><ele>205.0</ele><time>2026-04-26T09:48:34.703Z</time></trkpt><trkpt lat="46.1371602" lon="9.3681235"><ele>204.99999999999997</ele><time>2026-04-26T09:48:36.702Z</time></trkpt><trkpt lat="46.1371198" lon="9.3680085"><ele>205.0</ele><time>2026-04-26T09:48:38.703Z</time></trkpt><trkpt lat="46.1370771" lon="9.3678808"><ele>204.4</ele><time>2026-04-26T09:48:40.701Z</time></trkpt><trkpt lat="46.1370293" lon="9.3677511"><ele>203.8</ele><time>2026-04-26T09:48:42.703Z</time></trkpt><trkpt lat="46.1369762" lon="9.3676251"><ele>203.2</ele><time>2026-04-26T09:48:44.703Z</time></trkpt><trkpt lat="46.1369159" lon="9.3674848"><ele>202.6</ele><time>2026-04-26T09:48:46.702Z</time></trkpt><trkpt lat="46.136878" lon="9.3674041"><ele>202.0</ele><time>2026-04-26T09:48:48.702Z</time></trkpt><trkpt lat="46.1368296" lon="9.3673383"><ele>202.0</ele><time>2026-04-26T09:48:50.701Z</time></trkpt><trkpt lat="46.1367871" lon="9.3672553"><ele>202.0</ele><time>2026-04-26T09:48:52.703Z</time></trkpt><trkpt lat="46.136738" lon="9.3671305"><ele>202.0</ele><time>2026-04-26T09:48:54.702Z</time></trkpt><trkpt lat="46.1367012" lon="9.3669987"><ele>202.0</ele><time>2026-04-26T09:48:56.704Z</time></trkpt><trkpt lat="46.1366704" lon="9.36688"><ele>202.0</ele><time>2026-04-26T09:48:58.702Z</time></trkpt><trkpt lat="46.1366684" lon="9.3667401"><ele>201.6</ele><time>2026-04-26T09:49:00.701Z</time></trkpt><trkpt lat="46.1366647" lon="9.3665902"><ele>201.2</ele><time>2026-04-26T09:49:02.703Z</time></trkpt><trkpt lat="46.136661" lon="9.3664552"><ele>200.8</ele><time>2026-04-26T09:49:04.703Z</time></trkpt><trkpt lat="46.1366311" lon="9.366322"><ele>200.4</ele><time>2026-04-26T09:49:06.702Z</time></trkpt><trkpt lat="46.1366054" lon="9.3662049"><ele>200.0</ele><time>2026-04-26T09:49:08.703Z</time></trkpt><trkpt lat="46.1365854" lon="9.3660814"><ele>200.16666666666669</ele><time>2026-04-26T09:49:10.701Z</time></trkpt><trkpt lat="46.1365469" lon="9.3659613"><ele>200.33333333333334</ele><time>2026-04-26T09:49:12.703Z</time></trkpt><trkpt lat="46.1364935" lon="9.3658633"><ele>200.5</ele><time>2026-04-26T09:49:14.702Z</time></trkpt><trkpt lat="46.1364194" lon="9.3657765"><ele>200.66666666666669</ele><time>2026-04-26T09:49:16.703Z</time></trkpt><trkpt lat="46.1363405" lon="9.3656663"><ele>200.83333333333334</ele><time>2026-04-26T09:49:18.702Z</time></trkpt><trkpt lat="46.136291" lon="9.365605"><ele>201.0</ele><time>2026-04-26T09:49:19.701Z</time></trkpt><trkpt lat="46.1362367" lon="9.3655145"><ele>201.0</ele><time>2026-04-26T09:49:21.703Z</time></trkpt><trkpt lat="46.1361601" lon="9.365391"><ele>201.0</ele><time>2026-04-26T09:49:23.701Z</time></trkpt><trkpt lat="46.1361043" lon="9.3652644"><ele>201.0</ele><time>2026-04-26T09:49:25.701Z</time></trkpt><trkpt lat="46.1360498" lon="9.3651155"><ele>201.0</ele><time>2026-04-26T09:49:27.702Z</time></trkpt><trkpt lat="46.1360075" lon="9.3649905"><ele>201.0</ele><time>2026-04-26T09:49:29.703Z</time></trkpt><trkpt lat="46.1359611" lon="9.3648387"><ele>200.8</ele><time>2026-04-26T09:49:31.701Z</time></trkpt><trkpt lat="46.1359119" lon="9.364685"><ele>200.60000000000002</ele><time>2026-04-26T09:49:33.703Z</time></trkpt><trkpt lat="46.1358862" lon="9.3645999"><ele>200.4</ele><time>2026-04-26T09:49:34.701Z</time></trkpt><trkpt lat="46.1358619" lon="9.3645155"><ele>200.2</ele><time>2026-04-26T09:49:35.703Z</time></trkpt><trkpt lat="46.1358214" lon="9.364357"><ele>200.0</ele><time>2026-04-26T09:49:37.703Z</time></trkpt><trkpt lat="46.1357887" lon="9.3641885"><ele>200.0</ele><time>2026-04-26T09:49:39.703Z</time></trkpt><trkpt lat="46.135767" lon="9.3640972"><ele>200.0</ele><time>2026-04-26T09:49:40.702Z</time></trkpt><trkpt lat="46.1357416" lon="9.3639185"><ele>200.0</ele><time>2026-04-26T09:49:42.702Z</time></trkpt><trkpt lat="46.1357161" lon="9.3637497"><ele>200.0</ele><time>2026-04-26T09:49:44.701Z</time></trkpt><trkpt lat="46.1357072" lon="9.3636597"><ele>200.0</ele><time>2026-04-26T09:49:45.702Z</time></trkpt><trkpt lat="46.1356867" lon="9.3634898"><ele>200.2</ele><time>2026-04-26T09:49:47.701Z</time></trkpt><trkpt lat="46.1356749" lon="9.3633252"><ele>200.4</ele><time>2026-04-26T09:49:49.702Z</time></trkpt><trkpt lat="46.1356677" lon="9.363177"><ele>200.60000000000002</ele><time>2026-04-26T09:49:51.703Z</time></trkpt><trkpt lat="46.13566" lon="9.3630209"><ele>200.8</ele><time>2026-04-26T09:49:53.7Z</time></trkpt><trkpt lat="46.1356678" lon="9.3628771"><ele>201.0</ele><time>2026-04-26T09:49:55.702Z</time></trkpt><trkpt lat="46.1356312" lon="9.3627355"><ele>201.0</ele><time>2026-04-26T09:49:57.702Z</time></trkpt><trkpt lat="46.135544" lon="9.3627391"><ele>201.0</ele><time>2026-04-26T09:49:59.702Z</time></trkpt><trkpt lat="46.1354611" lon="9.36279"><ele>201.0</ele><time>2026-04-26T09:50:01.702Z</time></trkpt><trkpt lat="46.1353553" lon="9.3628567"><ele>201.0</ele><time>2026-04-26T09:50:03.702Z</time></trkpt><trkpt lat="46.1352757" lon="9.3629056"><ele>201.0</ele><time>2026-04-26T09:50:05.701Z</time></trkpt><trkpt lat="46.1351924" lon="9.3629367"><ele>201.0</ele><time>2026-04-26T09:50:07.702Z</time></trkpt><trkpt lat="46.1351134" lon="9.3629762"><ele>201.0</ele><time>2026-04-26T09:50:09.701Z</time></trkpt><trkpt lat="46.1350345" lon="9.3630089"><ele>201.0</ele><time>2026-04-26T09:50:11.703Z</time></trkpt><trkpt lat="46.1349562" lon="9.3630541"><ele>201.0</ele><time>2026-04-26T09:50:13.702Z</time></trkpt><trkpt lat="46.1348814" lon="9.363088"><ele>201.0</ele><time>2026-04-26T09:50:15.703Z</time></trkpt><trkpt lat="46.1348033" lon="9.3631409"><ele>201.0</ele><time>2026-04-26T09:50:17.703Z</time></trkpt><trkpt lat="46.1347236" lon="9.3631999"><ele>201.5</ele><time>2026-04-26T09:50:19.702Z</time></trkpt><trkpt lat="46.1346532" lon="9.3632524"><ele>202.0</ele><time>2026-04-26T09:50:21.702Z</time></trkpt><trkpt lat="46.1345832" lon="9.363306"><ele>202.5</ele><time>2026-04-26T09:50:23.702Z</time></trkpt><trkpt lat="46.1345144" lon="9.3633664"><ele>203.0</ele><time>2026-04-26T09:50:25.702Z</time></trkpt><trkpt lat="46.1344415" lon="9.3634174"><ele>203.5</ele><time>2026-04-26T09:50:27.703Z</time></trkpt><trkpt lat="46.1343728" lon="9.363461"><ele>204.0</ele><time>2026-04-26T09:50:29.704Z</time></trkpt><trkpt lat="46.1343009" lon="9.3635396"><ele>204.0</ele><time>2026-04-26T09:50:32.702Z</time></trkpt><trkpt lat="46.1342358" lon="9.3635982"><ele>204.0</ele><time>2026-04-26T09:50:34.703Z</time></trkpt><trkpt lat="46.1341686" lon="9.3636469"><ele>204.0</ele><time>2026-04-26T09:50:36.702Z</time></trkpt><trkpt lat="46.1341062" lon="9.3636946"><ele>204.0</ele><time>2026-04-26T09:50:38.702Z</time></trkpt><trkpt lat="46.1340445" lon="9.3637345"><ele>204.0</ele><time>2026-04-26T09:50:40.701Z</time></trkpt><trkpt lat="46.1339814" lon="9.3637818"><ele>204.0</ele><time>2026-04-26T09:50:42.701Z</time></trkpt><trkpt lat="46.1339182" lon="9.3638214"><ele>204.0</ele><time>2026-04-26T09:50:44.702Z</time></trkpt><trkpt lat="46.1338484" lon="9.3638543"><ele>204.5</ele><time>2026-04-26T09:50:46.702Z</time></trkpt><trkpt lat="46.1337722" lon="9.3638866"><ele>205.0</ele><time>2026-04-26T09:50:48.702Z</time></trkpt><trkpt lat="46.13369" lon="9.363926"><ele>205.5</ele><time>2026-04-26T09:50:50.702Z</time></trkpt><trkpt lat="46.1336072" lon="9.3639693"><ele>206.0</ele><time>2026-04-26T09:50:52.703Z</time></trkpt><trkpt lat="46.1335209" lon="9.3639695"><ele>206.5</ele><time>2026-04-26T09:50:54.702Z</time></trkpt><trkpt lat="46.1334322" lon="9.3639193"><ele>207.0</ele><time>2026-04-26T09:50:56.702Z</time></trkpt><trkpt lat="46.1333768" lon="9.363858"><ele>207.0</ele><time>2026-04-26T09:50:58.702Z</time></trkpt><trkpt lat="46.1333337" lon="9.3637875"><ele>207.0</ele><time>2026-04-26T09:51:00.703Z</time></trkpt><trkpt lat="46.1332691" lon="9.3636932"><ele>207.0</ele><time>2026-04-26T09:51:03.702Z</time></trkpt><trkpt lat="46.1332277" lon="9.3636135"><ele>207.0</ele><time>2026-04-26T09:51:05.703Z</time></trkpt><trkpt lat="46.1331785" lon="9.3635237"><ele>207.0</ele><time>2026-04-26T09:51:07.701Z</time></trkpt><trkpt lat="46.13313" lon="9.3634319"><ele>207.0</ele><time>2026-04-26T09:51:09.703Z</time></trkpt><trkpt lat="46.1330807" lon="9.3633327"><ele>207.5</ele><time>2026-04-26T09:51:11.702Z</time></trkpt><trkpt lat="46.1330328" lon="9.3632319"><ele>208.0</ele><time>2026-04-26T09:51:13.702Z</time></trkpt><trkpt lat="46.1329841" lon="9.3631278"><ele>208.5</ele><time>2026-04-26T09:51:15.702Z</time></trkpt><trkpt lat="46.1329343" lon="9.3630121"><ele>209.0</ele><time>2026-04-26T09:51:17.702Z</time></trkpt><trkpt lat="46.132884" lon="9.3629129"><ele>209.5</ele><time>2026-04-26T09:51:19.702Z</time></trkpt><trkpt lat="46.13284" lon="9.3628285"><ele>210.0</ele><time>2026-04-26T09:51:21.703Z</time></trkpt><trkpt lat="46.1327847" lon="9.3627167"><ele>210.0</ele><time>2026-04-26T09:51:23.703Z</time></trkpt><trkpt lat="46.1327358" lon="9.3626289"><ele>210.0</ele><time>2026-04-26T09:51:25.702Z</time></trkpt><trkpt lat="46.1326869" lon="9.3625081"><ele>210.0</ele><time>2026-04-26T09:51:27.703Z</time></trkpt><trkpt lat="46.1326363" lon="9.3623931"><ele>210.0</ele><time>2026-04-26T09:51:29.703Z</time></trkpt><trkpt lat="46.1325842" lon="9.3622851"><ele>210.0</ele><time>2026-04-26T09:51:31.702Z</time></trkpt><trkpt lat="46.1325361" lon="9.3621737"><ele>209.83333333333334</ele><time>2026-04-26T09:51:33.702Z</time></trkpt><trkpt lat="46.1324894" lon="9.3620685"><ele>209.66666666666669</ele><time>2026-04-26T09:51:35.703Z</time></trkpt><trkpt lat="46.1324258" lon="9.3619622"><ele>209.5</ele><time>2026-04-26T09:51:37.702Z</time></trkpt><trkpt lat="46.1323738" lon="9.3618602"><ele>209.33333333333334</ele><time>2026-04-26T09:51:39.701Z</time></trkpt><trkpt lat="46.1323383" lon="9.3617742"><ele>209.16666666666669</ele><time>2026-04-26T09:51:41.703Z</time></trkpt><trkpt lat="46.1322938" lon="9.361661"><ele>209.0</ele><time>2026-04-26T09:51:43.701Z</time></trkpt><trkpt lat="46.1322298" lon="9.3615511"><ele>209.83333333333334</ele><time>2026-04-26T09:51:45.702Z</time></trkpt><trkpt lat="46.1321647" lon="9.3614638"><ele>210.66666666666669</ele><time>2026-04-26T09:51:47.702Z</time></trkpt><trkpt lat="46.1321146" lon="9.3613681"><ele>211.5</ele><time>2026-04-26T09:51:49.702Z</time></trkpt><trkpt lat="46.1320769" lon="9.3612751"><ele>212.33333333333331</ele><time>2026-04-26T09:51:51.702Z</time></trkpt><trkpt lat="46.132033" lon="9.3611709"><ele>213.16666666666666</ele><time>2026-04-26T09:51:53.703Z</time></trkpt><trkpt lat="46.1319814" lon="9.3610681"><ele>214.0</ele><time>2026-04-26T09:51:55.702Z</time></trkpt><trkpt lat="46.1319286" lon="9.3609598"><ele>214.0</ele><time>2026-04-26T09:51:57.703Z</time></trkpt><trkpt lat="46.1318657" lon="9.3608496"><ele>213.99999999999997</ele><time>2026-04-26T09:51:59.702Z</time></trkpt><trkpt lat="46.1318175" lon="9.3607457"><ele>213.99999999999997</ele><time>2026-04-26T09:52:01.703Z</time></trkpt><trkpt lat="46.1317613" lon="9.3606296"><ele>214.0</ele><time>2026-04-26T09:52:03.702Z</time></trkpt><trkpt lat="46.1317079" lon="9.3605242"><ele>214.0</ele><time>2026-04-26T09:52:05.702Z</time></trkpt><trkpt lat="46.1316572" lon="9.3604136"><ele>214.33333333333331</ele><time>2026-04-26T09:52:07.703Z</time></trkpt><trkpt lat="46.1316017" lon="9.360319"><ele>214.66666666666666</ele><time>2026-04-26T09:52:09.702Z</time></trkpt><trkpt lat="46.1315434" lon="9.3602253"><ele>215.0</ele><time>2026-04-26T09:52:11.702Z</time></trkpt><trkpt lat="46.1314759" lon="9.3600991"><ele>215.33333333333331</ele><time>2026-04-26T09:52:14.702Z</time></trkpt><trkpt lat="46.1314406" lon="9.3600143"><ele>215.66666666666666</ele><time>2026-04-26T09:52:15.702Z</time></trkpt><trkpt lat="46.1314043" lon="9.359917"><ele>216.0</ele><time>2026-04-26T09:52:17.755Z</time></trkpt><trkpt lat="46.1313629" lon="9.3597975"><ele>215.20000000000002</ele><time>2026-04-26T09:52:19.702Z</time></trkpt><trkpt lat="46.1313175" lon="9.3596842"><ele>214.40000000000003</ele><time>2026-04-26T09:52:21.702Z</time></trkpt><trkpt lat="46.1312822" lon="9.3595676"><ele>213.6</ele><time>2026-04-26T09:52:23.702Z</time></trkpt><trkpt lat="46.1312581" lon="9.3594457"><ele>212.8</ele><time>2026-04-26T09:52:25.766Z</time></trkpt><trkpt lat="46.131231" lon="9.3593183"><ele>212.0</ele><time>2026-04-26T09:52:27.702Z</time></trkpt><trkpt lat="46.1311864" lon="9.35917"><ele>212.0</ele><time>2026-04-26T09:52:29.703Z</time></trkpt><trkpt lat="46.1311342" lon="9.3590434"><ele>212.0</ele><time>2026-04-26T09:52:31.701Z</time></trkpt><trkpt lat="46.1310976" lon="9.3589439"><ele>212.0</ele><time>2026-04-26T09:52:33.701Z</time></trkpt><trkpt lat="46.1310786" lon="9.3588126"><ele>212.0</ele><time>2026-04-26T09:52:35.702Z</time></trkpt><trkpt lat="46.1310625" lon="9.3586856"><ele>212.0</ele><time>2026-04-26T09:52:37.703Z</time></trkpt><trkpt lat="46.1310447" lon="9.3585602"><ele>211.8</ele><time>2026-04-26T09:52:39.703Z</time></trkpt><trkpt lat="46.1310024" lon="9.358435"><ele>211.6</ele><time>2026-04-26T09:52:41.703Z</time></trkpt><trkpt lat="46.1309619" lon="9.3583121"><ele>211.4</ele><time>2026-04-26T09:52:43.701Z</time></trkpt><trkpt lat="46.1309066" lon="9.3581922"><ele>211.20000000000002</ele><time>2026-04-26T09:52:45.703Z</time></trkpt><trkpt lat="46.1308434" lon="9.3580696"><ele>211.0</ele><time>2026-04-26T09:52:47.701Z</time></trkpt><trkpt lat="46.1307943" lon="9.3579584"><ele>210.99999999999997</ele><time>2026-04-26T09:52:49.703Z</time></trkpt><trkpt lat="46.1307468" lon="9.3578659"><ele>211.0</ele><time>2026-04-26T09:52:51.702Z</time></trkpt><trkpt lat="46.130709" lon="9.357752"><ele>211.0</ele><time>2026-04-26T09:52:54.703Z</time></trkpt><trkpt lat="46.1306731" lon="9.3576657"><ele>211.0</ele><time>2026-04-26T09:52:56.702Z</time></trkpt><trkpt lat="46.1306463" lon="9.3575832"><ele>210.99999999999997</ele><time>2026-04-26T09:52:58.702Z</time></trkpt><trkpt lat="46.1306154" lon="9.3574984"><ele>211.0</ele><time>2026-04-26T09:53:01.702Z</time></trkpt><trkpt lat="46.1305853" lon="9.3573744"><ele>211.4</ele><time>2026-04-26T09:53:03.703Z</time></trkpt><trkpt lat="46.1305496" lon="9.3572649"><ele>211.8</ele><time>2026-04-26T09:53:05.702Z</time></trkpt><trkpt lat="46.1305027" lon="9.3571485"><ele>212.20000000000002</ele><time>2026-04-26T09:53:07.703Z</time></trkpt><trkpt lat="46.1304583" lon="9.3570132"><ele>212.60000000000002</ele><time>2026-04-26T09:53:09.702Z</time></trkpt><trkpt lat="46.1304124" lon="9.3568736"><ele>213.0</ele><time>2026-04-26T09:53:11.703Z</time></trkpt><trkpt lat="46.1303827" lon="9.3567219"><ele>213.0</ele><time>2026-04-26T09:53:13.702Z</time></trkpt><trkpt lat="46.1303484" lon="9.3565568"><ele>213.0</ele><time>2026-04-26T09:53:15.703Z</time></trkpt><trkpt lat="46.1303259" lon="9.3563888"><ele>213.0</ele><time>2026-04-26T09:53:17.702Z</time></trkpt><trkpt lat="46.1303014" lon="9.3562904"><ele>213.0</ele><time>2026-04-26T09:53:18.703Z</time></trkpt><trkpt lat="46.1302651" lon="9.3561189"><ele>213.0</ele><time>2026-04-26T09:53:20.701Z</time></trkpt><trkpt lat="46.1302413" lon="9.3560327"><ele>212.25</ele><time>2026-04-26T09:53:21.701Z</time></trkpt><trkpt lat="46.130213" lon="9.3558678"><ele>211.5</ele><time>2026-04-26T09:53:23.702Z</time></trkpt><trkpt lat="46.1301744" lon="9.3557108"><ele>210.75</ele><time>2026-04-26T09:53:25.702Z</time></trkpt><trkpt lat="46.1301198" lon="9.3555509"><ele>210.0</ele><time>2026-04-26T09:53:27.701Z</time></trkpt><trkpt lat="46.130067" lon="9.3553882"><ele>210.0</ele><time>2026-04-26T09:53:29.701Z</time></trkpt><trkpt lat="46.1300155" lon="9.3552334"><ele>210.0</ele><time>2026-04-26T09:53:31.701Z</time></trkpt><trkpt lat="46.1299683" lon="9.355086"><ele>210.0</ele><time>2026-04-26T09:53:33.703Z</time></trkpt><trkpt lat="46.1299227" lon="9.3549357"><ele>210.0</ele><time>2026-04-26T09:53:35.702Z</time></trkpt><trkpt lat="46.1298967" lon="9.3548507"><ele>210.0</ele><time>2026-04-26T09:53:36.702Z</time></trkpt><trkpt lat="46.1298541" lon="9.3546846"><ele>210.2</ele><time>2026-04-26T09:53:38.703Z</time></trkpt><trkpt lat="46.1298356" lon="9.3545948"><ele>210.4</ele><time>2026-04-26T09:53:39.703Z</time></trkpt><trkpt lat="46.1297915" lon="9.3544218"><ele>210.60000000000002</ele><time>2026-04-26T09:53:41.701Z</time></trkpt><trkpt lat="46.1297445" lon="9.3542572"><ele>210.8</ele><time>2026-04-26T09:53:43.701Z</time></trkpt><trkpt lat="46.129692" lon="9.3541135"><ele>211.0</ele><time>2026-04-26T09:53:45.702Z</time></trkpt><trkpt lat="46.1296478" lon="9.3540428"><ele>210.99999999999997</ele><time>2026-04-26T09:53:46.703Z</time></trkpt><trkpt lat="46.1296053" lon="9.3539747"><ele>211.0</ele><time>2026-04-26T09:53:47.701Z</time></trkpt><trkpt lat="46.1295229" lon="9.353845"><ele>211.0</ele><time>2026-04-26T09:53:49.702Z</time></trkpt><trkpt lat="46.1294764" lon="9.353781"><ele>211.0</ele><time>2026-04-26T09:53:50.702Z</time></trkpt><trkpt lat="46.1293874" lon="9.3536539"><ele>210.99999999999997</ele><time>2026-04-26T09:53:52.702Z</time></trkpt><trkpt lat="46.1293372" lon="9.3535904"><ele>211.0</ele><time>2026-04-26T09:53:53.701Z</time></trkpt><trkpt lat="46.1292576" lon="9.353448"><ele>210.99999999999997</ele><time>2026-04-26T09:53:55.703Z</time></trkpt><trkpt lat="46.1291715" lon="9.3533363"><ele>211.0</ele><time>2026-04-26T09:53:57.703Z</time></trkpt><trkpt lat="46.1291275" lon="9.353264"><ele>211.0</ele><time>2026-04-26T09:53:58.702Z</time></trkpt><trkpt lat="46.1290772" lon="9.3531885"><ele>211.0</ele><time>2026-04-26T09:53:59.702Z</time></trkpt><trkpt lat="46.1290253" lon="9.3531097"><ele>210.99999999999997</ele><time>2026-04-26T09:54:00.703Z</time></trkpt><trkpt lat="46.1289761" lon="9.3530386"><ele>211.0</ele><time>2026-04-26T09:54:01.702Z</time></trkpt><trkpt lat="46.1288884" lon="9.3529175"><ele>210.60000000000002</ele><time>2026-04-26T09:54:03.701Z</time></trkpt><trkpt lat="46.1288388" lon="9.3528557"><ele>210.2</ele><time>2026-04-26T09:54:04.703Z</time></trkpt><trkpt lat="46.1287475" lon="9.3527409"><ele>209.8</ele><time>2026-04-26T09:54:06.702Z</time></trkpt><trkpt lat="46.1286681" lon="9.3526296"><ele>209.39999999999998</ele><time>2026-04-26T09:54:08.702Z</time></trkpt><trkpt lat="46.1285678" lon="9.3525102"><ele>209.0</ele><time>2026-04-26T09:54:10.702Z</time></trkpt><trkpt lat="46.1284672" lon="9.3524017"><ele>209.0</ele><time>2026-04-26T09:54:12.702Z</time></trkpt><trkpt lat="46.1284175" lon="9.3523373"><ele>209.0</ele><time>2026-04-26T09:54:13.703Z</time></trkpt><trkpt lat="46.1283289" lon="9.3522245"><ele>209.0</ele><time>2026-04-26T09:54:15.702Z</time></trkpt><trkpt lat="46.1282266" lon="9.3521041"><ele>209.0</ele><time>2026-04-26T09:54:17.702Z</time></trkpt><trkpt lat="46.1281677" lon="9.3520496"><ele>209.0</ele><time>2026-04-26T09:54:18.703Z</time></trkpt><trkpt lat="46.1281097" lon="9.3520081"><ele>209.0</ele><time>2026-04-26T09:54:19.702Z</time></trkpt><trkpt lat="46.1279907" lon="9.3519416"><ele>209.0</ele><time>2026-04-26T09:54:21.702Z</time></trkpt><trkpt lat="46.1279266" lon="9.3519228"><ele>209.0</ele><time>2026-04-26T09:54:22.702Z</time></trkpt><trkpt lat="46.1278097" lon="9.3519067"><ele>209.0</ele><time>2026-04-26T09:54:24.702Z</time></trkpt><trkpt lat="46.1277407" lon="9.351897"><ele>209.0</ele><time>2026-04-26T09:54:25.702Z</time></trkpt><trkpt lat="46.127672" lon="9.3518526"><ele>209.00000000000003</ele><time>2026-04-26T09:54:26.702Z</time></trkpt><trkpt lat="46.1276056" lon="9.3518234"><ele>209.0</ele><time>2026-04-26T09:54:27.702Z</time></trkpt><trkpt lat="46.1275453" lon="9.3517901"><ele>209.0</ele><time>2026-04-26T09:54:28.702Z</time></trkpt><trkpt lat="46.1274838" lon="9.3517519"><ele>209.0</ele><time>2026-04-26T09:54:29.703Z</time></trkpt><trkpt lat="46.1273677" lon="9.3516795"><ele>209.00000000000003</ele><time>2026-04-26T09:54:31.702Z</time></trkpt><trkpt lat="46.1273057" lon="9.351633"><ele>209.0</ele><time>2026-04-26T09:54:32.701Z</time></trkpt><trkpt lat="46.1272418" lon="9.3516062"><ele>209.00000000000003</ele><time>2026-04-26T09:54:33.702Z</time></trkpt><trkpt lat="46.1271714" lon="9.3515888"><ele>209.0</ele><time>2026-04-26T09:54:34.703Z</time></trkpt><trkpt lat="46.1270989" lon="9.3515859"><ele>209.0</ele><time>2026-04-26T09:54:35.703Z</time></trkpt><trkpt lat="46.1269595" lon="9.3516035"><ele>209.0</ele><time>2026-04-26T09:54:37.702Z</time></trkpt><trkpt lat="46.1268915" lon="9.3516129"><ele>209.00000000000003</ele><time>2026-04-26T09:54:38.702Z</time></trkpt><trkpt lat="46.126814" lon="9.3516199"><ele>209.0</ele><time>2026-04-26T09:54:39.702Z</time></trkpt><trkpt lat="46.1267472" lon="9.3516267"><ele>209.0</ele><time>2026-04-26T09:54:40.703Z</time></trkpt><trkpt lat="46.1266749" lon="9.3516271"><ele>209.0</ele><time>2026-04-26T09:54:41.703Z</time></trkpt><trkpt lat="46.1266103" lon="9.3516238"><ele>209.0</ele><time>2026-04-26T09:54:42.703Z</time></trkpt><trkpt lat="46.1265457" lon="9.3516093"><ele>209.0</ele><time>2026-04-26T09:54:43.703Z</time></trkpt><trkpt lat="46.1264851" lon="9.3515729"><ele>209.0</ele><time>2026-04-26T09:54:44.702Z</time></trkpt><trkpt lat="46.1264344" lon="9.3515102"><ele>209.0</ele><time>2026-04-26T09:54:45.702Z</time></trkpt><trkpt lat="46.1263919" lon="9.3514382"><ele>209.0</ele><time>2026-04-26T09:54:46.703Z</time></trkpt><trkpt lat="46.1263483" lon="9.3513684"><ele>209.0</ele><time>2026-04-26T09:54:47.702Z</time></trkpt><trkpt lat="46.1262637" lon="9.3512319"><ele>209.0</ele><time>2026-04-26T09:54:49.703Z</time></trkpt><trkpt lat="46.1261727" lon="9.3511154"><ele>209.0</ele><time>2026-04-26T09:54:51.703Z</time></trkpt><trkpt lat="46.1260716" lon="9.3509908"><ele>209.0</ele><time>2026-04-26T09:54:53.702Z</time></trkpt><trkpt lat="46.1259763" lon="9.3508704"><ele>209.0</ele><time>2026-04-26T09:54:55.702Z</time></trkpt><trkpt lat="46.1259285" lon="9.3508107"><ele>209.0</ele><time>2026-04-26T09:54:56.703Z</time></trkpt><trkpt lat="46.1258786" lon="9.3507446"><ele>209.0</ele><time>2026-04-26T09:54:57.702Z</time></trkpt><trkpt lat="46.1258244" lon="9.350674"><ele>209.0</ele><time>2026-04-26T09:54:58.703Z</time></trkpt><trkpt lat="46.1257719" lon="9.3506135"><ele>209.0</ele><time>2026-04-26T09:54:59.702Z</time></trkpt><trkpt lat="46.1257174" lon="9.3505335"><ele>209.0</ele><time>2026-04-26T09:55:00.703Z</time></trkpt><trkpt lat="46.1256661" lon="9.3504743"><ele>209.0</ele><time>2026-04-26T09:55:01.702Z</time></trkpt><trkpt lat="46.1256095" lon="9.3504036"><ele>208.71428571428572</ele><time>2026-04-26T09:55:02.703Z</time></trkpt><trkpt lat="46.1255585" lon="9.3503395"><ele>208.42857142857142</ele><time>2026-04-26T09:55:03.703Z</time></trkpt><trkpt lat="46.1255128" lon="9.3502638"><ele>208.14285714285717</ele><time>2026-04-26T09:55:04.702Z</time></trkpt><trkpt lat="46.1254608" lon="9.3501927"><ele>207.85714285714286</ele><time>2026-04-26T09:55:05.702Z</time></trkpt><trkpt lat="46.1254121" lon="9.350121"><ele>207.57142857142858</ele><time>2026-04-26T09:55:06.703Z</time></trkpt><trkpt lat="46.1253638" lon="9.3500426"><ele>207.2857142857143</ele><time>2026-04-26T09:55:07.702Z</time></trkpt><trkpt lat="46.1253249" lon="9.3499606"><ele>207.0</ele><time>2026-04-26T09:55:08.702Z</time></trkpt><trkpt lat="46.1252843" lon="9.3498843"><ele>207.0</ele><time>2026-04-26T09:55:09.702Z</time></trkpt><trkpt lat="46.1252436" lon="9.3498092"><ele>207.0</ele><time>2026-04-26T09:55:10.702Z</time></trkpt><trkpt lat="46.1251967" lon="9.3497285"><ele>207.0</ele><time>2026-04-26T09:55:11.702Z</time></trkpt><trkpt lat="46.1251464" lon="9.3496575"><ele>207.0</ele><time>2026-04-26T09:55:12.702Z</time></trkpt><trkpt lat="46.1250585" lon="9.3495328"><ele>207.0</ele><time>2026-04-26T09:55:14.702Z</time></trkpt><trkpt lat="46.1250125" lon="9.3494651"><ele>207.0</ele><time>2026-04-26T09:55:15.703Z</time></trkpt><trkpt lat="46.1249383" lon="9.3493639"><ele>206.66666666666666</ele><time>2026-04-26T09:55:17.703Z</time></trkpt><trkpt lat="46.1248861" lon="9.3493059"><ele>206.33333333333331</ele><time>2026-04-26T09:55:18.701Z</time></trkpt><trkpt lat="46.1248341" lon="9.3492514"><ele>206.0</ele><time>2026-04-26T09:55:19.702Z</time></trkpt><trkpt lat="46.1247514" lon="9.3491242"><ele>205.66666666666666</ele><time>2026-04-26T09:55:21.703Z</time></trkpt><trkpt lat="46.1247019" lon="9.3490553"><ele>205.33333333333331</ele><time>2026-04-26T09:55:22.702Z</time></trkpt><trkpt lat="46.1246538" lon="9.3489781"><ele>205.0</ele><time>2026-04-26T09:55:23.703Z</time></trkpt><trkpt lat="46.1245714" lon="9.3488576"><ele>204.83333333333331</ele><time>2026-04-26T09:55:25.702Z</time></trkpt><trkpt lat="46.124481" lon="9.3487154"><ele>204.66666666666666</ele><time>2026-04-26T09:55:27.703Z</time></trkpt><trkpt lat="46.1244125" lon="9.3486374"><ele>204.5</ele><time>2026-04-26T09:55:28.702Z</time></trkpt><trkpt lat="46.1243515" lon="9.3485589"><ele>204.33333333333331</ele><time>2026-04-26T09:55:29.702Z</time></trkpt><trkpt lat="46.124294" lon="9.348494"><ele>204.16666666666666</ele><time>2026-04-26T09:55:30.703Z</time></trkpt><trkpt lat="46.1242318" lon="9.3484408"><ele>204.0</ele><time>2026-04-26T09:55:31.703Z</time></trkpt><trkpt lat="46.1241745" lon="9.3483769"><ele>204.0</ele><time>2026-04-26T09:55:32.703Z</time></trkpt><trkpt lat="46.1241131" lon="9.3483171"><ele>204.0</ele><time>2026-04-26T09:55:33.703Z</time></trkpt><trkpt lat="46.1240559" lon="9.3482599"><ele>204.0</ele><time>2026-04-26T09:55:34.702Z</time></trkpt><trkpt lat="46.1240039" lon="9.3482029"><ele>204.0</ele><time>2026-04-26T09:55:35.703Z</time></trkpt><trkpt lat="46.1239023" lon="9.3480957"><ele>204.0</ele><time>2026-04-26T09:55:37.703Z</time></trkpt><trkpt lat="46.1238192" lon="9.3480085"><ele>204.0</ele><time>2026-04-26T09:55:39.702Z</time></trkpt><trkpt lat="46.1237675" lon="9.3479472"><ele>204.5</ele><time>2026-04-26T09:55:42.702Z</time></trkpt><trkpt lat="46.1237291" lon="9.3480473"><ele>205.0</ele><time>2026-04-26T09:55:46.702Z</time></trkpt><trkpt lat="46.1237191" lon="9.3481429"><ele>205.5</ele><time>2026-04-26T09:55:48.702Z</time></trkpt><trkpt lat="46.1237074" lon="9.3482361"><ele>206.0</ele><time>2026-04-26T09:55:50.702Z</time></trkpt><trkpt lat="46.1236896" lon="9.3483671"><ele>206.5</ele><time>2026-04-26T09:55:53.703Z</time></trkpt><trkpt lat="46.1236886" lon="9.3484913"><ele>207.0</ele><time>2026-04-26T09:55:56.703Z</time></trkpt><trkpt lat="46.1236758" lon="9.3485929"><ele>207.0</ele><time>2026-04-26T09:56:00.703Z</time></trkpt><trkpt lat="46.1236695" lon="9.3487046"><ele>207.0</ele><time>2026-04-26T09:56:05.703Z</time></trkpt><trkpt lat="46.1236549" lon="9.3488127"><ele>207.0</ele><time>2026-04-26T09:56:20.702Z</time></trkpt><trkpt lat="46.123642" lon="9.3489397"><ele>207.0</ele><time>2026-04-26T09:56:24.703Z</time></trkpt><trkpt lat="46.1236186" lon="9.3490588"><ele>207.0</ele><time>2026-04-26T09:56:27.703Z</time></trkpt><trkpt lat="46.123603" lon="9.3491825"><ele>207.0</ele><time>2026-04-26T09:56:30.703Z</time></trkpt><trkpt lat="46.1235944" lon="9.3493031"><ele>207.0</ele><time>2026-04-26T09:56:33.702Z</time></trkpt><trkpt lat="46.1235144" lon="9.3493349"><ele>207.0</ele><time>2026-04-26T09:56:37.702Z</time></trkpt><trkpt lat="46.1234497" lon="9.3493079"><ele>207.0</ele><time>2026-04-26T09:56:39.703Z</time></trkpt><trkpt lat="46.1233802" lon="9.3492709"><ele>207.0</ele><time>2026-04-26T09:56:41.702Z</time></trkpt><trkpt lat="46.1233012" lon="9.3492357"><ele>207.0</ele><time>2026-04-26T09:56:43.703Z</time></trkpt><trkpt lat="46.1232121" lon="9.3491861"><ele>207.0</ele><time>2026-04-26T09:56:45.703Z</time></trkpt><trkpt lat="46.1231167" lon="9.3491302"><ele>207.0</ele><time>2026-04-26T09:56:47.704Z</time></trkpt><trkpt lat="46.1230032" lon="9.3490739"><ele>207.0</ele><time>2026-04-26T09:56:49.703Z</time></trkpt><trkpt lat="46.1229382" lon="9.3490528"><ele>207.0</ele><time>2026-04-26T09:56:50.703Z</time></trkpt><trkpt lat="46.1228691" lon="9.3490191"><ele>207.0</ele><time>2026-04-26T09:56:51.702Z</time></trkpt><trkpt lat="46.1228041" lon="9.3489836"><ele>207.0</ele><time>2026-04-26T09:56:52.703Z</time></trkpt><trkpt lat="46.122737" lon="9.3489504"><ele>207.0</ele><time>2026-04-26T09:56:53.701Z</time></trkpt><trkpt lat="46.1226118" lon="9.3488803"><ele>207.0</ele><time>2026-04-26T09:56:55.702Z</time></trkpt><trkpt lat="46.1225447" lon="9.3488362"><ele>207.0</ele><time>2026-04-26T09:56:56.702Z</time></trkpt><trkpt lat="46.1224198" lon="9.3487739"><ele>207.0</ele><time>2026-04-26T09:56:58.701Z</time></trkpt><trkpt lat="46.1223522" lon="9.3487351"><ele>207.0</ele><time>2026-04-26T09:56:59.702Z</time></trkpt><trkpt lat="46.1222891" lon="9.348703"><ele>207.0</ele><time>2026-04-26T09:57:00.702Z</time></trkpt><trkpt lat="46.1222268" lon="9.3486696"><ele>207.0</ele><time>2026-04-26T09:57:01.702Z</time></trkpt><trkpt lat="46.122166" lon="9.348641"><ele>206.85714285714286</ele><time>2026-04-26T09:57:02.703Z</time></trkpt><trkpt lat="46.1221046" lon="9.348617"><ele>206.71428571428572</ele><time>2026-04-26T09:57:03.702Z</time></trkpt><trkpt lat="46.1220372" lon="9.3485877"><ele>206.57142857142856</ele><time>2026-04-26T09:57:04.702Z</time></trkpt><trkpt lat="46.1219711" lon="9.3485597"><ele>206.42857142857144</ele><time>2026-04-26T09:57:05.702Z</time></trkpt><trkpt lat="46.1219063" lon="9.348526"><ele>206.28571428571428</ele><time>2026-04-26T09:57:06.702Z</time></trkpt><trkpt lat="46.1218444" lon="9.3484971"><ele>206.14285714285714</ele><time>2026-04-26T09:57:07.703Z</time></trkpt><trkpt lat="46.1217836" lon="9.3484639"><ele>206.0</ele><time>2026-04-26T09:57:08.703Z</time></trkpt><trkpt lat="46.1217218" lon="9.3484262"><ele>205.99999999999997</ele><time>2026-04-26T09:57:09.702Z</time></trkpt><trkpt lat="46.1216558" lon="9.3483971"><ele>206.0</ele><time>2026-04-26T09:57:10.703Z</time></trkpt><trkpt lat="46.1215931" lon="9.3483683"><ele>206.0</ele><time>2026-04-26T09:57:11.703Z</time></trkpt><trkpt lat="46.1215282" lon="9.3483408"><ele>206.0</ele><time>2026-04-26T09:57:12.702Z</time></trkpt><trkpt lat="46.121461" lon="9.3483104"><ele>206.0</ele><time>2026-04-26T09:57:13.703Z</time></trkpt><trkpt lat="46.121396" lon="9.3482805"><ele>205.99999999999997</ele><time>2026-04-26T09:57:14.702Z</time></trkpt><trkpt lat="46.1213289" lon="9.3482413"><ele>206.0</ele><time>2026-04-26T09:57:15.702Z</time></trkpt><trkpt lat="46.1212666" lon="9.3482147"><ele>206.16666666666669</ele><time>2026-04-26T09:57:16.704Z</time></trkpt><trkpt lat="46.1211999" lon="9.3481785"><ele>206.33333333333334</ele><time>2026-04-26T09:57:17.702Z</time></trkpt><trkpt lat="46.1211382" lon="9.3481501"><ele>206.5</ele><time>2026-04-26T09:57:18.702Z</time></trkpt><trkpt lat="46.1210747" lon="9.3481256"><ele>206.66666666666669</ele><time>2026-04-26T09:57:19.703Z</time></trkpt><trkpt lat="46.1209619" lon="9.348062"><ele>206.83333333333334</ele><time>2026-04-26T09:57:21.703Z</time></trkpt><trkpt lat="46.1208483" lon="9.3479891"><ele>207.0</ele><time>2026-04-26T09:57:23.702Z</time></trkpt><trkpt lat="46.1207257" lon="9.3479326"><ele>206.5</ele><time>2026-04-26T09:57:25.703Z</time></trkpt><trkpt lat="46.1205964" lon="9.3478637"><ele>206.0</ele><time>2026-04-26T09:57:27.703Z</time></trkpt><trkpt lat="46.1204865" lon="9.3478027"><ele>205.5</ele><time>2026-04-26T09:57:29.702Z</time></trkpt><trkpt lat="46.1203718" lon="9.3477458"><ele>205.0</ele><time>2026-04-26T09:57:31.703Z</time></trkpt><trkpt lat="46.1202641" lon="9.3477017"><ele>205.0</ele><time>2026-04-26T09:57:33.702Z</time></trkpt><trkpt lat="46.1202057" lon="9.347666"><ele>205.0</ele><time>2026-04-26T09:57:34.703Z</time></trkpt><trkpt lat="46.1201036" lon="9.3476167"><ele>205.0</ele><time>2026-04-26T09:57:36.702Z</time></trkpt><trkpt lat="46.1200007" lon="9.3475668"><ele>205.0</ele><time>2026-04-26T09:57:38.703Z</time></trkpt><trkpt lat="46.1199042" lon="9.3475173"><ele>205.0</ele><time>2026-04-26T09:57:40.703Z</time></trkpt><trkpt lat="46.1198022" lon="9.3474655"><ele>205.6</ele><time>2026-04-26T09:57:42.702Z</time></trkpt><trkpt lat="46.119701" lon="9.3474227"><ele>206.2</ele><time>2026-04-26T09:57:44.703Z</time></trkpt><trkpt lat="46.1196033" lon="9.3473819"><ele>206.8</ele><time>2026-04-26T09:57:46.702Z</time></trkpt><trkpt lat="46.1195037" lon="9.3473445"><ele>207.4</ele><time>2026-04-26T09:57:48.703Z</time></trkpt><trkpt lat="46.1193992" lon="9.3473066"><ele>208.0</ele><time>2026-04-26T09:57:50.702Z</time></trkpt><trkpt lat="46.1192874" lon="9.3472776"><ele>208.0</ele><time>2026-04-26T09:57:52.703Z</time></trkpt><trkpt lat="46.1191774" lon="9.3472402"><ele>208.0</ele><time>2026-04-26T09:57:54.703Z</time></trkpt><trkpt lat="46.1190645" lon="9.3471824"><ele>208.0</ele><time>2026-04-26T09:57:56.702Z</time></trkpt><trkpt lat="46.118946" lon="9.3471342"><ele>208.0</ele><time>2026-04-26T09:57:58.703Z</time></trkpt><trkpt lat="46.1188812" lon="9.3471074"><ele>208.0</ele><time>2026-04-26T09:57:59.702Z</time></trkpt><trkpt lat="46.1188141" lon="9.3470759"><ele>206.60000000000002</ele><time>2026-04-26T09:58:00.702Z</time></trkpt><trkpt lat="46.1187493" lon="9.34705"><ele>205.20000000000002</ele><time>2026-04-26T09:58:01.703Z</time></trkpt><trkpt lat="46.118681" lon="9.3470248"><ele>203.8</ele><time>2026-04-26T09:58:02.702Z</time></trkpt><trkpt lat="46.1186173" lon="9.3470082"><ele>202.4</ele><time>2026-04-26T09:58:03.703Z</time></trkpt><trkpt lat="46.1184954" lon="9.346971"><ele>201.0</ele><time>2026-04-26T09:58:05.702Z</time></trkpt><trkpt lat="46.1183754" lon="9.3469304"><ele>201.0</ele><time>2026-04-26T09:58:07.702Z</time></trkpt><trkpt lat="46.1182642" lon="9.3468866"><ele>201.0</ele><time>2026-04-26T09:58:09.703Z</time></trkpt><trkpt lat="46.1181645" lon="9.3468604"><ele>203.0</ele><time>2026-04-26T09:58:11.703Z</time></trkpt><trkpt lat="46.1180904" lon="9.3468756"><ele>203.0</ele><time>2026-04-26T09:58:13.703Z</time></trkpt></trkseg></trk></gpx>